Wetterdaten: Donnerstag, 04.10.2018
Datum Zeit Temp. A. Feuchte A. Luftdruck Regen Wind Richtung Richtung Sonnenschein ET UV Solar Taupunkt Windchill Windböen
04.10.2018 00:00 9,6 °C 90 % 1026,1 hPa 0,0 mm 0,0 km/h (0 Bft) S 179 ° 0 min 0,000 mm 0,0 UV-I 0 W/m² 8,0 °C 9,6 °C 0,0 km/h (0 Bft)
04.10.2018 00:01 9,5 °C 90 % 1026,1 hPa 0,0 mm 0,0 km/h (0 Bft) S 179 ° 0 min 0,000 mm 0,0 UV-I 0 W/m² 7,9 °C 9,5 °C 0,0 km/h (0 Bft)
04.10.2018 00:02 9,5 °C 91 % 1026,1 hPa 0,0 mm 0,0 km/h (0 Bft) S 179 ° 0 min 0,000 mm 0,0 UV-I 0 W/m² 8,1 °C 9,5 °C 0,0 km/h (0 Bft)
04.10.2018 00:03 9,5 °C 91 % 1026,1 hPa 0,0 mm 0,0 km/h (0 Bft) S 179 ° 0 min 0,000 mm 0,0 UV-I 0 W/m² 8,1 °C 9,5 °C 0,0 km/h (0 Bft)
04.10.2018 00:04 9,4 °C 90 % 1026,1 hPa 0,0 mm 0,0 km/h (0 Bft) S 179 ° 0 min 0,000 mm 0,0 UV-I 0 W/m² 7,8 °C 9,4 °C 0,0 km/h (0 Bft)
04.10.2018 00:05 9,4 °C 91 % 1026,1 hPa 0,0 mm 0,0 km/h (0 Bft) S 179 ° 0 min 0,000 mm 0,0 UV-I 0 W/m² 8,0 °C 9,4 °C 0,0 km/h (0 Bft)
04.10.2018 00:06 9,4 °C 91 % 1026,1 hPa 0,0 mm 0,0 km/h (0 Bft) S 179 ° 0 min 0,000 mm 0,0 UV-I 0 W/m² 8,0 °C 9,4 °C 0,0 km/h (0 Bft)
04.10.2018 00:07 9,4 °C 91 % 1026,1 hPa 0,0 mm 0,2 km/h (0 Bft) S 179 ° 0 min 0,000 mm 0,0 UV-I 0 W/m² 8,0 °C 9,4 °C 1,6 km/h (1 Bft)
04.10.2018 00:08 9,4 °C 91 % 1026,0 hPa 0,0 mm 0,2 km/h (0 Bft) S 179 ° 0 min 0,000 mm 0,0 UV-I 0 W/m² 8,0 °C 9,4 °C 1,6 km/h (1 Bft)
04.10.2018 00:09 9,4 °C 91 % 1026,1 hPa 0,0 mm 0,0 km/h (0 Bft) S 179 ° 0 min 0,000 mm 0,0 UV-I 0 W/m² 8,0 °C 9,4 °C 0,0 km/h (0 Bft)
04.10.2018 00:10 9,4 °C 91 % 1026,0 hPa 0,0 mm 0,6 km/h (0 Bft) S 179 ° 0 min 0,000 mm 0,0 UV-I 0 W/m² 8,0 °C 9,4 °C 3,2 km/h (1 Bft)
04.10.2018 00:11 9,5 °C 91 % 1026,0 hPa 0,0 mm 0,0 km/h (0 Bft) S 179 ° 0 min 0,000 mm 0,0 UV-I 0 W/m² 8,1 °C 9,5 °C 0,0 km/h (0 Bft)
04.10.2018 00:12 9,5 °C 91 % 1026,0 hPa 0,0 mm 0,1 km/h (0 Bft) S 179 ° 0 min 0,000 mm 0,0 UV-I 0 W/m² 8,1 °C 9,5 °C 1,6 km/h (1 Bft)
04.10.2018 00:13 9,5 °C 91 % 1026,0 hPa 0,0 mm 2,1 km/h (1 Bft) S 179 ° 0 min 0,000 mm 0,0 UV-I 0 W/m² 8,1 °C 9,5 °C 4,8 km/h (1 Bft)
04.10.2018 00:14 9,6 °C 91 % 1026,0 hPa 0,0 mm 1,3 km/h (1 Bft) S 179 ° 0 min 0,000 mm 0,0 UV-I 0 W/m² 8,2 °C 9,6 °C 3,2 km/h (1 Bft)
04.10.2018 00:15 9,6 °C 90 % 1026,0 hPa 0,0 mm 0,1 km/h (0 Bft) S 179 ° 0 min 0,000 mm 0,0 UV-I 0 W/m² 8,0 °C 9,6 °C 1,6 km/h (1 Bft)
04.10.2018 00:16 9,6 °C 90 % 1026,0 hPa 0,0 mm 0,3 km/h (0 Bft) S 179 ° 0 min 0,000 mm 0,0 UV-I 0 W/m² 8,0 °C 9,6 °C 1,6 km/h (1 Bft)
04.10.2018 00:17 9,6 °C 90 % 1026,0 hPa 0,0 mm 0,6 km/h (0 Bft) S 179 ° 0 min 0,000 mm 0,0 UV-I 0 W/m² 8,0 °C 9,6 °C 3,2 km/h (1 Bft)
04.10.2018 00:18 9,6 °C 90 % 1026,0 hPa 0,0 mm 0,0 km/h (0 Bft) S 179 ° 0 min 0,000 mm 0,0 UV-I 0 W/m² 8,0 °C 9,6 °C 0,0 km/h (0 Bft)
04.10.2018 00:19 9,5 °C 90 % 1026,0 hPa 0,0 mm 0,0 km/h (0 Bft) S 179 ° 0 min 0,000 mm 0,0 UV-I 0 W/m² 7,9 °C 9,5 °C 0,0 km/h (0 Bft)
04.10.2018 00:20 9,5 °C 90 % 1026,0 hPa 0,0 mm 0,1 km/h (0 Bft) S 179 ° 0 min 0,000 mm 0,0 UV-I 0 W/m² 7,9 °C 9,5 °C 1,6 km/h (1 Bft)
04.10.2018 00:21 9,5 °C 90 % 1026,0 hPa 0,0 mm 2,0 km/h (1 Bft) S 179 ° 0 min 0,000 mm 0,0 UV-I 0 W/m² 7,9 °C 9,5 °C 3,2 km/h (1 Bft)
04.10.2018 00:22 9,4 °C 90 % 1026,0 hPa 0,0 mm 0,2 km/h (0 Bft) S 179 ° 0 min 0,000 mm 0,0 UV-I 0 W/m² 7,8 °C 9,4 °C 1,6 km/h (1 Bft)
04.10.2018 00:23 9,4 °C 90 % 1025,9 hPa 0,0 mm 0,0 km/h (0 Bft) S 179 ° 0 min 0,000 mm 0,0 UV-I 0 W/m² 7,8 °C 9,4 °C 0,0 km/h (0 Bft)
04.10.2018 00:24 9,4 °C 90 % 1025,9 hPa 0,0 mm 0,3 km/h (0 Bft) S 179 ° 0 min 0,000 mm 0,0 UV-I 0 W/m² 7,8 °C 9,4 °C 1,6 km/h (1 Bft)
04.10.2018 00:25 9,4 °C 90 % 1025,9 hPa 0,0 mm 2,1 km/h (1 Bft) S 179 ° 0 min 0,000 mm 0,0 UV-I 0 W/m² 7,8 °C 9,4 °C 3,2 km/h (1 Bft)
04.10.2018 00:26 9,4 °C 90 % 1026,0 hPa 0,0 mm 1,7 km/h (1 Bft) S 179 ° 0 min 0,000 mm 0,0 UV-I 0 W/m² 7,8 °C 9,4 °C 3,2 km/h (1 Bft)
04.10.2018 00:27 9,4 °C 90 % 1026,0 hPa 0,0 mm 0,0 km/h (0 Bft) S 179 ° 0 min 0,000 mm 0,0 UV-I 0 W/m² 7,8 °C 9,4 °C 0,0 km/h (0 Bft)
04.10.2018 00:28 9,4 °C 90 % 1026,0 hPa 0,0 mm 0,0 km/h (0 Bft) S 179 ° 0 min 0,000 mm 0,0 UV-I 0 W/m² 7,8 °C 9,4 °C 0,0 km/h (0 Bft)
04.10.2018 00:29 9,4 °C 90 % 1026,0 hPa 0,0 mm 0,0 km/h (0 Bft) S 179 ° 0 min 0,000 mm 0,0 UV-I 0 W/m² 7,8 °C 9,4 °C 0,0 km/h (0 Bft)
04.10.2018 00:30 9,4 °C 90 % 1026,0 hPa 0,0 mm 3,0 km/h (1 Bft) S-SW 194 ° 0 min 0,000 mm 0,0 UV-I 0 W/m² 7,8 °C 9,4 °C 6,4 km/h (2 Bft)
04.10.2018 00:31 9,4 °C 90 % 1026,0 hPa 0,0 mm 2,3 km/h (1 Bft) S-SW 194 ° 0 min 0,000 mm 0,0 UV-I 0 W/m² 7,8 °C 9,4 °C 4,8 km/h (1 Bft)
04.10.2018 00:32 9,5 °C 90 % 1026,0 hPa 0,0 mm 1,2 km/h (1 Bft) S-SW 194 ° 0 min 0,000 mm 0,0 UV-I 0 W/m² 7,9 °C 9,5 °C 3,2 km/h (1 Bft)
04.10.2018 00:33 9,6 °C 90 % 1026,0 hPa 0,0 mm 1,5 km/h (1 Bft) S-SW 194 ° 0 min 0,000 mm 0,0 UV-I 0 W/m² 8,0 °C 9,6 °C 3,2 km/h (1 Bft)
04.10.2018 00:34 9,6 °C 90 % 1026,0 hPa 0,0 mm 0,8 km/h (0 Bft) S-SW 194 ° 0 min 0,000 mm 0,0 UV-I 0 W/m² 8,0 °C 9,6 °C 3,2 km/h (1 Bft)
04.10.2018 00:35 9,6 °C 90 % 1026,0 hPa 0,0 mm 0,3 km/h (0 Bft) S-SW 194 ° 0 min 0,000 mm 0,0 UV-I 0 W/m² 8,0 °C 9,6 °C 1,6 km/h (1 Bft)
04.10.2018 00:36 9,6 °C 90 % 1026,0 hPa 0,0 mm 0,0 km/h (0 Bft) S-SW 194 ° 0 min 0,000 mm 0,0 UV-I 0 W/m² 8,0 °C 9,6 °C 0,0 km/h (0 Bft)
04.10.2018 00:37 9,5 °C 90 % 1026,0 hPa 0,0 mm 2,1 km/h (1 Bft) S-SW 194 ° 0 min 0,000 mm 0,0 UV-I 0 W/m² 7,9 °C 9,5 °C 4,8 km/h (1 Bft)
04.10.2018 00:38 9,5 °C 90 % 1026,0 hPa 0,0 mm 1,1 km/h (1 Bft) S-SW 194 ° 0 min 0,000 mm 0,0 UV-I 0 W/m² 7,9 °C 9,5 °C 3,2 km/h (1 Bft)
04.10.2018 00:39 9,5 °C 90 % 1026,0 hPa 0,0 mm 0,2 km/h (0 Bft) S-SW 194 ° 0 min 0,000 mm 0,0 UV-I 0 W/m² 7,9 °C 9,5 °C 1,6 km/h (1 Bft)
04.10.2018 00:40 9,4 °C 90 % 1026,0 hPa 0,0 mm 1,7 km/h (1 Bft) S-SW 194 ° 0 min 0,000 mm 0,0 UV-I 0 W/m² 7,8 °C 9,4 °C 4,8 km/h (1 Bft)
04.10.2018 00:41 9,5 °C 90 % 1025,9 hPa 0,0 mm 5,2 km/h (1 Bft) S-SW 195 ° 0 min 0,000 mm 0,0 UV-I 0 W/m² 7,9 °C 9,1 °C 6,4 km/h (2 Bft)
04.10.2018 00:42 9,5 °C 90 % 1026,0 hPa 0,0 mm 2,4 km/h (1 Bft) S-SW 203 ° 0 min 0,000 mm 0,0 UV-I 0 W/m² 7,9 °C 9,5 °C 4,8 km/h (1 Bft)
04.10.2018 00:43 9,6 °C 90 % 1026,0 hPa 0,0 mm 0,9 km/h (0 Bft) S-SW 203 ° 0 min 0,000 mm 0,0 UV-I 0 W/m² 8,0 °C 9,6 °C 3,2 km/h (1 Bft)
04.10.2018 00:44 9,6 °C 90 % 1026,0 hPa 0,0 mm 1,5 km/h (1 Bft) S-SW 202 ° 0 min 0,000 mm 0,0 UV-I 0 W/m² 8,0 °C 9,6 °C 4,8 km/h (1 Bft)
04.10.2018 00:45 9,7 °C 90 % 1026,0 hPa 0,0 mm 0,3 km/h (0 Bft) S-SW 202 ° 0 min 0,000 mm 0,0 UV-I 0 W/m² 8,1 °C 9,7 °C 1,6 km/h (1 Bft)
04.10.2018 00:46 9,7 °C 90 % 1026,0 hPa 0,0 mm 0,0 km/h (0 Bft) S-SW 202 ° 0 min 0,000 mm 0,0 UV-I 0 W/m² 8,1 °C 9,7 °C 0,0 km/h (0 Bft)
04.10.2018 00:47 9,7 °C 90 % 1026,0 hPa 0,0 mm 0,0 km/h (0 Bft) S-SW 203 ° 0 min 0,000 mm 0,0 UV-I 0 W/m² 8,1 °C 9,7 °C 0,0 km/h (0 Bft)
04.10.2018 00:48 9,7 °C 89 % 1026,0 hPa 0,0 mm 0,0 km/h (0 Bft) S-SW 202 ° 0 min 0,000 mm 0,0 UV-I 0 W/m² 8,0 °C 9,7 °C 0,0 km/h (0 Bft)
04.10.2018 00:49 9,6 °C 89 % 1026,0 hPa 0,0 mm 0,0 km/h (0 Bft) S-SW 202 ° 0 min 0,000 mm 0,0 UV-I 0 W/m² 7,9 °C 9,6 °C 0,0 km/h (0 Bft)
04.10.2018 00:50 9,5 °C 90 % 1026,0 hPa 0,0 mm 0,0 km/h (0 Bft) S-SW 202 ° 0 min 0,000 mm 0,0 UV-I 0 W/m² 7,9 °C 9,5 °C 0,0 km/h (0 Bft)
04.10.2018 00:51 9,4 °C 90 % 1026,0 hPa 0,0 mm 0,0 km/h (0 Bft) S-SW 202 ° 0 min 0,000 mm 0,0 UV-I 0 W/m² 7,8 °C 9,4 °C 0,0 km/h (0 Bft)
04.10.2018 00:52 9,4 °C 90 % 1026,0 hPa 0,0 mm 0,0 km/h (0 Bft) S-SW 202 ° 0 min 0,000 mm 0,0 UV-I 0 W/m² 7,8 °C 9,4 °C 0,0 km/h (0 Bft)
04.10.2018 00:53 9,4 °C 90 % 1026,0 hPa 0,0 mm 0,0 km/h (0 Bft) S-SW 202 ° 0 min 0,000 mm 0,0 UV-I 0 W/m² 7,8 °C 9,4 °C 0,0 km/h (0 Bft)
04.10.2018 00:54 9,3 °C 90 % 1026,0 hPa 0,0 mm 0,0 km/h (0 Bft) S-SW 202 ° 0 min 0,000 mm 0,0 UV-I 0 W/m² 7,7 °C 9,3 °C 0,0 km/h (0 Bft)
04.10.2018 00:55 9,3 °C 90 % 1026,0 hPa 0,0 mm 0,0 km/h (0 Bft) S-SW 202 ° 0 min 0,000 mm 0,0 UV-I 0 W/m² 7,7 °C 9,3 °C 0,0 km/h (0 Bft)
04.10.2018 00:56 9,3 °C 90 % 1026,1 hPa 0,0 mm 0,0 km/h (0 Bft) S-SW 202 ° 0 min 0,000 mm 0,0 UV-I 0 W/m² 7,7 °C 9,3 °C 0,0 km/h (0 Bft)
04.10.2018 00:57 9,3 °C 91 % 1026,1 hPa 0,0 mm 0,0 km/h (0 Bft) S-SW 202 ° 0 min 0,000 mm 0,0 UV-I 0 W/m² 7,9 °C 9,3 °C 0,0 km/h (0 Bft)
04.10.2018 00:58 9,2 °C 91 % 1026,1 hPa 0,0 mm 0,0 km/h (0 Bft) S-SW 202 ° 0 min 0,000 mm 0,0 UV-I 0 W/m² 7,8 °C 9,2 °C 0,0 km/h (0 Bft)
04.10.2018 00:59 9,2 °C 91 % 1026,1 hPa 0,0 mm 0,0 km/h (0 Bft) S-SW 202 ° 0 min 0,000 mm 0,0 UV-I 0 W/m² 7,8 °C 9,2 °C 0,0 km/h (0 Bft)
04.10.2018 01:00 9,2 °C 91 % 1026,1 hPa 0,0 mm 0,0 km/h (0 Bft) S-SW 202 ° 0 min 0,000 mm 0,0 UV-I 0 W/m² 7,8 °C 9,2 °C 0,0 km/h (0 Bft)
04.10.2018 01:01 9,2 °C 91 % 1026,2 hPa 0,0 mm 0,0 km/h (0 Bft) S-SW 202 ° 0 min 0,000 mm 0,0 UV-I 0 W/m² 7,8 °C 9,2 °C 0,0 km/h (0 Bft)
04.10.2018 01:02 9,2 °C 91 % 1026,2 hPa 0,0 mm 0,0 km/h (0 Bft) S-SW 202 ° 0 min 0,000 mm 0,0 UV-I 0 W/m² 7,8 °C 9,2 °C 0,0 km/h (0 Bft)
04.10.2018 01:03 9,2 °C 91 % 1026,1 hPa 0,0 mm 0,0 km/h (0 Bft) S-SW 202 ° 0 min 0,000 mm 0,0 UV-I 0 W/m² 7,8 °C 9,2 °C 0,0 km/h (0 Bft)
04.10.2018 01:04 9,2 °C 91 % 1026,1 hPa 0,0 mm 0,0 km/h (0 Bft) S-SW 202 ° 0 min 0,000 mm 0,0 UV-I 0 W/m² 7,8 °C 9,2 °C 0,0 km/h (0 Bft)
04.10.2018 01:05 9,2 °C 91 % 1026,1 hPa 0,0 mm 0,0 km/h (0 Bft) S-SW 202 ° 0 min 0,000 mm 0,0 UV-I 0 W/m² 7,8 °C 9,2 °C 0,0 km/h (0 Bft)
04.10.2018 01:06 9,2 °C 91 % 1026,1 hPa 0,0 mm 0,5 km/h (0 Bft) S-SW 202 ° 0 min 0,000 mm 0,0 UV-I 0 W/m² 7,8 °C 9,2 °C 3,2 km/h (1 Bft)
04.10.2018 01:07 9,2 °C 91 % 1026,1 hPa 0,0 mm 3,0 km/h (1 Bft) S-SW 202 ° 0 min 0,000 mm 0,0 UV-I 0 W/m² 7,8 °C 9,2 °C 4,8 km/h (1 Bft)
04.10.2018 01:08 9,3 °C 91 % 1026,1 hPa 0,0 mm 0,0 km/h (0 Bft) S-SW 202 ° 0 min 0,000 mm 0,0 UV-I 0 W/m² 7,9 °C 9,3 °C 0,0 km/h (0 Bft)
04.10.2018 01:09 9,3 °C 91 % 1026,1 hPa 0,0 mm 1,9 km/h (1 Bft) S-SW 202 ° 0 min 0,000 mm 0,0 UV-I 0 W/m² 7,9 °C 9,3 °C 3,2 km/h (1 Bft)
04.10.2018 01:10 9,3 °C 91 % 1026,1 hPa 0,0 mm 1,1 km/h (1 Bft) S-SW 202 ° 0 min 0,000 mm 0,0 UV-I 0 W/m² 7,9 °C 9,3 °C 3,2 km/h (1 Bft)
04.10.2018 01:11 9,3 °C 91 % 1026,1 hPa 0,0 mm 0,2 km/h (0 Bft) S-SW 202 ° 0 min 0,000 mm 0,0 UV-I 0 W/m² 7,9 °C 9,3 °C 1,6 km/h (1 Bft)
04.10.2018 01:12 9,3 °C 91 % 1026,1 hPa 0,0 mm 0,1 km/h (0 Bft) S-SW 202 ° 0 min 0,000 mm 0,0 UV-I 0 W/m² 7,9 °C 9,3 °C 1,6 km/h (1 Bft)
04.10.2018 01:13 9,3 °C 91 % 1026,1 hPa 0,0 mm 0,0 km/h (0 Bft) S-SW 202 ° 0 min 0,000 mm 0,0 UV-I 0 W/m² 7,9 °C 9,3 °C 0,0 km/h (0 Bft)
04.10.2018 01:14 9,3 °C 91 % 1026,1 hPa 0,0 mm 0,0 km/h (0 Bft) S-SW 202 ° 0 min 0,000 mm 0,0 UV-I 0 W/m² 7,9 °C 9,3 °C 0,0 km/h (0 Bft)
04.10.2018 01:15 9,3 °C 91 % 1026,1 hPa 0,0 mm 0,0 km/h (0 Bft) S-SW 202 ° 0 min 0,000 mm 0,0 UV-I 0 W/m² 7,9 °C 9,3 °C 0,0 km/h (0 Bft)
04.10.2018 01:16 9,3 °C 91 % 1026,1 hPa 0,0 mm 0,0 km/h (0 Bft) S-SW 202 ° 0 min 0,000 mm 0,0 UV-I 0 W/m² 7,9 °C 9,3 °C 0,0 km/h (0 Bft)
04.10.2018 01:17 9,3 °C 91 % 1026,1 hPa 0,0 mm 0,0 km/h (0 Bft) S-SW 202 ° 0 min 0,000 mm 0,0 UV-I 0 W/m² 7,9 °C 9,3 °C 0,0 km/h (0 Bft)
04.10.2018 01:18 9,4 °C 91 % 1026,1 hPa 0,0 mm 0,0 km/h (0 Bft) S-SW 202 ° 0 min 0,000 mm 0,0 UV-I 0 W/m² 8,0 °C 9,4 °C 0,0 km/h (0 Bft)
04.10.2018 01:19 9,3 °C 91 % 1026,1 hPa 0,0 mm 0,0 km/h (0 Bft) S-SW 202 ° 0 min 0,000 mm 0,0 UV-I 0 W/m² 7,9 °C 9,3 °C 0,0 km/h (0 Bft)
04.10.2018 01:20 9,3 °C 91 % 1026,1 hPa 0,0 mm 0,0 km/h (0 Bft) S-SW 202 ° 0 min 0,000 mm 0,0 UV-I 0 W/m² 7,9 °C 9,3 °C 0,0 km/h (0 Bft)
04.10.2018 01:21 9,3 °C 91 % 1026,1 hPa 0,0 mm 0,0 km/h (0 Bft) S-SW 202 ° 0 min 0,000 mm 0,0 UV-I 0 W/m² 7,9 °C 9,3 °C 0,0 km/h (0 Bft)
04.10.2018 01:22 9,3 °C 91 % 1026,1 hPa 0,0 mm 0,0 km/h (0 Bft) S-SW 202 ° 0 min 0,000 mm 0,0 UV-I 0 W/m² 7,9 °C 9,3 °C 0,0 km/h (0 Bft)
04.10.2018 01:23 9,2 °C 91 % 1026,1 hPa 0,0 mm 0,0 km/h (0 Bft) S-SW 202 ° 0 min 0,000 mm 0,0 UV-I 0 W/m² 7,8 °C 9,2 °C 0,0 km/h (0 Bft)
04.10.2018 01:24 9,2 °C 91 % 1026,1 hPa 0,0 mm 0,0 km/h (0 Bft) S-SW 202 ° 0 min 0,000 mm 0,0 UV-I 0 W/m² 7,8 °C 9,2 °C 0,0 km/h (0 Bft)
04.10.2018 01:25 9,2 °C 91 % 1026,1 hPa 0,0 mm 0,0 km/h (0 Bft) S-SW 202 ° 0 min 0,000 mm 0,0 UV-I 0 W/m² 7,8 °C 9,2 °C 0,0 km/h (0 Bft)
04.10.2018 01:26 9,1 °C 91 % 1026,1 hPa 0,0 mm 0,0 km/h (0 Bft) S-SW 202 ° 0 min 0,000 mm 0,0 UV-I 0 W/m² 7,7 °C 9,1 °C 0,0 km/h (0 Bft)
04.10.2018 01:27 9,1 °C 91 % 1026,1 hPa 0,0 mm 0,0 km/h (0 Bft) S-SW 202 ° 0 min 0,000 mm 0,0 UV-I 0 W/m² 7,7 °C 9,1 °C 0,0 km/h (0 Bft)
04.10.2018 01:28 9,1 °C 91 % 1026,2 hPa 0,0 mm 0,0 km/h (0 Bft) S-SW 202 ° 0 min 0,000 mm 0,0 UV-I 0 W/m² 7,7 °C 9,1 °C 0,0 km/h (0 Bft)
04.10.2018 01:29 9,1 °C 91 % 1026,2 hPa 0,0 mm 0,0 km/h (0 Bft) S-SW 202 ° 0 min 0,000 mm 0,0 UV-I 0 W/m² 7,7 °C 9,1 °C 0,0 km/h (0 Bft)
04.10.2018 01:30 9,1 °C 91 % 1026,2 hPa 0,0 mm 0,0 km/h (0 Bft) S-SW 202 ° 0 min 0,000 mm 0,0 UV-I 0 W/m² 7,7 °C 9,1 °C 0,0 km/h (0 Bft)
04.10.2018 01:31 9,1 °C 91 % 1026,2 hPa 0,0 mm 0,0 km/h (0 Bft) S-SW 202 ° 0 min 0,000 mm 0,0 UV-I 0 W/m² 7,7 °C 9,1 °C 0,0 km/h (0 Bft)
04.10.2018 01:32 9,1 °C 92 % 1026,2 hPa 0,0 mm 0,0 km/h (0 Bft) S-SW 202 ° 0 min 0,000 mm 0,0 UV-I 0 W/m² 7,9 °C 9,1 °C 0,0 km/h (0 Bft)
04.10.2018 01:33 9,1 °C 91 % 1026,2 hPa 0,0 mm 0,0 km/h (0 Bft) S-SW 202 ° 0 min 0,000 mm 0,0 UV-I 0 W/m² 7,7 °C 9,1 °C 0,0 km/h (0 Bft)
04.10.2018 01:34 9,1 °C 91 % 1026,2 hPa 0,0 mm 0,0 km/h (0 Bft) S-SW 202 ° 0 min 0,000 mm 0,0 UV-I 0 W/m² 7,7 °C 9,1 °C 0,0 km/h (0 Bft)
04.10.2018 01:35 9,2 °C 91 % 1026,2 hPa 0,0 mm 0,0 km/h (0 Bft) S-SW 202 ° 0 min 0,000 mm 0,0 UV-I 0 W/m² 7,8 °C 9,2 °C 0,0 km/h (0 Bft)
04.10.2018 01:36 9,2 °C 91 % 1026,3 hPa 0,0 mm 0,0 km/h (0 Bft) S-SW 202 ° 0 min 0,000 mm 0,0 UV-I 0 W/m² 7,8 °C 9,2 °C 0,0 km/h (0 Bft)
04.10.2018 01:37 9,3 °C 91 % 1026,2 hPa 0,0 mm 0,0 km/h (0 Bft) S-SW 202 ° 0 min 0,000 mm 0,0 UV-I 0 W/m² 7,9 °C 9,3 °C 0,0 km/h (0 Bft)
04.10.2018 01:38 9,3 °C 91 % 1026,2 hPa 0,0 mm 0,0 km/h (0 Bft) S-SW 202 ° 0 min 0,000 mm 0,0 UV-I 0 W/m² 7,9 °C 9,3 °C 0,0 km/h (0 Bft)
04.10.2018 01:39 9,2 °C 91 % 1026,3 hPa 0,0 mm 0,0 km/h (0 Bft) S-SW 202 ° 0 min 0,000 mm 0,0 UV-I 0 W/m² 7,8 °C 9,2 °C 0,0 km/h (0 Bft)
04.10.2018 01:40 9,3 °C 91 % 1026,2 hPa 0,0 mm 0,0 km/h (0 Bft) S-SW 202 ° 0 min 0,000 mm 0,0 UV-I 0 W/m² 7,9 °C 9,3 °C 0,0 km/h (0 Bft)
04.10.2018 01:41 9,3 °C 91 % 1026,3 hPa 0,0 mm 0,0 km/h (0 Bft) S-SW 202 ° 0 min 0,000 mm 0,0 UV-I 0 W/m² 7,9 °C 9,3 °C 0,0 km/h (0 Bft)
04.10.2018 01:42 9,3 °C 91 % 1026,3 hPa 0,0 mm 0,0 km/h (0 Bft) S-SW 202 ° 0 min 0,000 mm 0,0 UV-I 0 W/m² 7,9 °C 9,3 °C 0,0 km/h (0 Bft)
04.10.2018 01:43 9,2 °C 91 % 1026,3 hPa 0,0 mm 0,0 km/h (0 Bft) S-SW 202 ° 0 min 0,000 mm 0,0 UV-I 0 W/m² 7,8 °C 9,2 °C 0,0 km/h (0 Bft)
04.10.2018 01:44 9,2 °C 91 % 1026,3 hPa 0,0 mm 0,0 km/h (0 Bft) S-SW 202 ° 0 min 0,000 mm 0,0 UV-I 0 W/m² 7,8 °C 9,2 °C 0,0 km/h (0 Bft)
04.10.2018 01:45 9,2 °C 91 % 1026,3 hPa 0,0 mm 0,0 km/h (0 Bft) S-SW 202 ° 0 min 0,000 mm 0,0 UV-I 0 W/m² 7,8 °C 9,2 °C 0,0 km/h (0 Bft)
04.10.2018 01:46 9,2 °C 91 % 1026,3 hPa 0,0 mm 0,0 km/h (0 Bft) S-SW 202 ° 0 min 0,000 mm 0,0 UV-I 0 W/m² 7,8 °C 9,2 °C 0,0 km/h (0 Bft)
04.10.2018 01:47 9,2 °C 91 % 1026,4 hPa 0,0 mm 0,0 km/h (0 Bft) S-SW 202 ° 0 min 0,000 mm 0,0 UV-I 0 W/m² 7,8 °C 9,2 °C 0,0 km/h (0 Bft)
04.10.2018 01:48 9,2 °C 91 % 1026,4 hPa 0,0 mm 0,0 km/h (0 Bft) S-SW 202 ° 0 min 0,000 mm 0,0 UV-I 0 W/m² 7,8 °C 9,2 °C 0,0 km/h (0 Bft)
04.10.2018 01:49 9,2 °C 91 % 1026,3 hPa 0,0 mm 0,0 km/h (0 Bft) S-SW 202 ° 0 min 0,000 mm 0,0 UV-I 0 W/m² 7,8 °C 9,2 °C 0,0 km/h (0 Bft)
04.10.2018 01:50 9,2 °C 91 % 1026,3 hPa 0,0 mm 0,0 km/h (0 Bft) S-SW 202 ° 0 min 0,000 mm 0,0 UV-I 0 W/m² 7,8 °C 9,2 °C 0,0 km/h (0 Bft)
04.10.2018 01:51 9,2 °C 91 % 1026,3 hPa 0,0 mm 0,0 km/h (0 Bft) S-SW 202 ° 0 min 0,000 mm 0,0 UV-I 0 W/m² 7,8 °C 9,2 °C 0,0 km/h (0 Bft)
04.10.2018 01:52 9,2 °C 91 % 1026,3 hPa 0,0 mm 0,0 km/h (0 Bft) S-SW 202 ° 0 min 0,000 mm 0,0 UV-I 0 W/m² 7,8 °C 9,2 °C 0,0 km/h (0 Bft)
04.10.2018 01:53 9,2 °C 91 % 1026,3 hPa 0,0 mm 0,0 km/h (0 Bft) S-SW 202 ° 0 min 0,000 mm 0,0 UV-I 0 W/m² 7,8 °C 9,2 °C 0,0 km/h (0 Bft)
04.10.2018 01:54 9,3 °C 91 % 1026,4 hPa 0,0 mm 0,9 km/h (0 Bft) S-SW 202 ° 0 min 0,000 mm 0,0 UV-I 0 W/m² 7,9 °C 9,3 °C 3,2 km/h (1 Bft)
04.10.2018 01:55 9,3 °C 91 % 1026,3 hPa 0,0 mm 0,9 km/h (0 Bft) S-SW 202 ° 0 min 0,000 mm 0,0 UV-I 0 W/m² 7,9 °C 9,3 °C 3,2 km/h (1 Bft)
04.10.2018 01:56 9,2 °C 91 % 1026,3 hPa 0,0 mm 0,0 km/h (0 Bft) S-SW 202 ° 0 min 0,000 mm 0,0 UV-I 0 W/m² 7,8 °C 9,2 °C 0,0 km/h (0 Bft)
04.10.2018 01:57 9,3 °C 91 % 1026,3 hPa 0,0 mm 0,0 km/h (0 Bft) S-SW 202 ° 0 min 0,000 mm 0,0 UV-I 0 W/m² 7,9 °C 9,3 °C 0,0 km/h (0 Bft)
04.10.2018 01:58 9,3 °C 91 % 1026,4 hPa 0,0 mm 0,0 km/h (0 Bft) S-SW 202 ° 0 min 0,000 mm 0,0 UV-I 0 W/m² 7,9 °C 9,3 °C 0,0 km/h (0 Bft)
04.10.2018 01:59 9,3 °C 91 % 1026,3 hPa 0,0 mm 0,0 km/h (0 Bft) S-SW 202 ° 0 min 0,000 mm 0,0 UV-I 0 W/m² 7,9 °C 9,3 °C 0,0 km/h (0 Bft)
04.10.2018 02:00 9,3 °C 91 % 1026,4 hPa 0,0 mm 0,0 km/h (0 Bft) S-SW 202 ° 0 min 0,000 mm 0,0 UV-I 0 W/m² 7,9 °C 9,3 °C 0,0 km/h (0 Bft)
04.10.2018 02:01 9,3 °C 91 % 1026,4 hPa 0,0 mm 0,0 km/h (0 Bft) S-SW 202 ° 0 min 0,000 mm 0,0 UV-I 0 W/m² 7,9 °C 9,3 °C 0,0 km/h (0 Bft)
04.10.2018 02:02 9,3 °C 91 % 1026,4 hPa 0,0 mm 0,0 km/h (0 Bft) S-SW 202 ° 0 min 0,000 mm 0,0 UV-I 0 W/m² 7,9 °C 9,3 °C 0,0 km/h (0 Bft)
04.10.2018 02:03 9,3 °C 91 % 1026,4 hPa 0,0 mm 0,0 km/h (0 Bft) S-SW 202 ° 0 min 0,000 mm 0,0 UV-I 0 W/m² 7,9 °C 9,3 °C 0,0 km/h (0 Bft)
04.10.2018 02:04 9,3 °C 91 % 1026,4 hPa 0,0 mm 0,0 km/h (0 Bft) S-SW 202 ° 0 min 0,000 mm 0,0 UV-I 0 W/m² 7,9 °C 9,3 °C 0,0 km/h (0 Bft)
04.10.2018 02:05 9,3 °C 91 % 1026,4 hPa 0,0 mm 0,0 km/h (0 Bft) S-SW 202 ° 0 min 0,000 mm 0,0 UV-I 0 W/m² 7,9 °C 9,3 °C 0,0 km/h (0 Bft)
04.10.2018 02:06 9,2 °C 91 % 1026,4 hPa 0,0 mm 0,0 km/h (0 Bft) S-SW 202 ° 0 min 0,000 mm 0,0 UV-I 0 W/m² 7,8 °C 9,2 °C 0,0 km/h (0 Bft)
04.10.2018 02:07 9,2 °C 91 % 1026,4 hPa 0,0 mm 0,0 km/h (0 Bft) S-SW 202 ° 0 min 0,000 mm 0,0 UV-I 0 W/m² 7,8 °C 9,2 °C 0,0 km/h (0 Bft)
04.10.2018 02:08 9,2 °C 91 % 1026,5 hPa 0,0 mm 0,0 km/h (0 Bft) S-SW 202 ° 0 min 0,000 mm 0,0 UV-I 0 W/m² 7,8 °C 9,2 °C 0,0 km/h (0 Bft)
04.10.2018 02:09 9,2 °C 91 % 1026,4 hPa 0,0 mm 0,0 km/h (0 Bft) S-SW 202 ° 0 min 0,000 mm 0,0 UV-I 0 W/m² 7,8 °C 9,2 °C 0,0 km/h (0 Bft)
04.10.2018 02:10 9,2 °C 91 % 1026,4 hPa 0,0 mm 0,0 km/h (0 Bft) S-SW 202 ° 0 min 0,000 mm 0,0 UV-I 0 W/m² 7,8 °C 9,2 °C 0,0 km/h (0 Bft)
04.10.2018 02:11 9,2 °C 91 % 1026,5 hPa 0,0 mm 0,0 km/h (0 Bft) S-SW 202 ° 0 min 0,000 mm 0,0 UV-I 0 W/m² 7,8 °C 9,2 °C 0,0 km/h (0 Bft)
04.10.2018 02:12 9,2 °C 92 % 1026,4 hPa 0,0 mm 0,0 km/h (0 Bft) S-SW 202 ° 0 min 0,000 mm 0,0 UV-I 0 W/m² 8,0 °C 9,2 °C 0,0 km/h (0 Bft)
04.10.2018 02:13 9,2 °C 92 % 1026,4 hPa 0,0 mm 0,0 km/h (0 Bft) S-SW 202 ° 0 min 0,000 mm 0,0 UV-I 0 W/m² 8,0 °C 9,2 °C 0,0 km/h (0 Bft)
04.10.2018 02:14 9,2 °C 92 % 1026,4 hPa 0,0 mm 0,0 km/h (0 Bft) S-SW 202 ° 0 min 0,000 mm 0,0 UV-I 0 W/m² 8,0 °C 9,2 °C 0,0 km/h (0 Bft)
04.10.2018 02:15 9,2 °C 92 % 1026,4 hPa 0,0 mm 0,0 km/h (0 Bft) S-SW 202 ° 0 min 0,000 mm 0,0 UV-I 0 W/m² 8,0 °C 9,2 °C 0,0 km/h (0 Bft)
04.10.2018 02:16 9,2 °C 92 % 1026,4 hPa 0,0 mm 0,0 km/h (0 Bft) S-SW 202 ° 0 min 0,000 mm 0,0 UV-I 0 W/m² 8,0 °C 9,2 °C 0,0 km/h (0 Bft)
04.10.2018 02:17 9,2 °C 92 % 1026,4 hPa 0,0 mm 0,0 km/h (0 Bft) S-SW 202 ° 0 min 0,000 mm 0,0 UV-I 0 W/m² 8,0 °C 9,2 °C 0,0 km/h (0 Bft)
04.10.2018 02:18 9,2 °C 92 % 1026,4 hPa 0,0 mm 0,0 km/h (0 Bft) S-SW 202 ° 0 min 0,000 mm 0,0 UV-I 0 W/m² 8,0 °C 9,2 °C 0,0 km/h (0 Bft)
04.10.2018 02:19 9,2 °C 92 % 1026,4 hPa 0,0 mm 0,0 km/h (0 Bft) S-SW 202 ° 0 min 0,000 mm 0,0 UV-I 0 W/m² 8,0 °C 9,2 °C 0,0 km/h (0 Bft)
04.10.2018 02:20 9,2 °C 92 % 1026,4 hPa 0,0 mm 0,0 km/h (0 Bft) S-SW 202 ° 0 min 0,000 mm 0,0 UV-I 0 W/m² 8,0 °C 9,2 °C 0,0 km/h (0 Bft)
04.10.2018 02:21 9,2 °C 92 % 1026,4 hPa 0,0 mm 0,0 km/h (0 Bft) S-SW 202 ° 0 min 0,000 mm 0,0 UV-I 0 W/m² 8,0 °C 9,2 °C 0,0 km/h (0 Bft)
04.10.2018 02:22 9,2 °C 92 % 1026,4 hPa 0,0 mm 0,0 km/h (0 Bft) S-SW 202 ° 0 min 0,000 mm 0,0 UV-I 0 W/m² 8,0 °C 9,2 °C 0,0 km/h (0 Bft)
04.10.2018 02:23 9,2 °C 92 % 1026,4 hPa 0,0 mm 0,0 km/h (0 Bft) S-SW 202 ° 0 min 0,000 mm 0,0 UV-I 0 W/m² 8,0 °C 9,2 °C 0,0 km/h (0 Bft)
04.10.2018 02:24 9,2 °C 92 % 1026,4 hPa 0,0 mm 0,0 km/h (0 Bft) S-SW 202 ° 0 min 0,000 mm 0,0 UV-I 0 W/m² 8,0 °C 9,2 °C 0,0 km/h (0 Bft)
04.10.2018 02:25 9,2 °C 92 % 1026,4 hPa 0,0 mm 0,0 km/h (0 Bft) S-SW 202 ° 0 min 0,000 mm 0,0 UV-I 0 W/m² 8,0 °C 9,2 °C 0,0 km/h (0 Bft)
04.10.2018 02:26 9,2 °C 92 % 1026,4 hPa 0,0 mm 0,0 km/h (0 Bft) S-SW 202 ° 0 min 0,000 mm 0,0 UV-I 0 W/m² 8,0 °C 9,2 °C 0,0 km/h (0 Bft)
04.10.2018 02:27 9,2 °C 92 % 1026,4 hPa 0,0 mm 0,0 km/h (0 Bft) S-SW 202 ° 0 min 0,000 mm 0,0 UV-I 0 W/m² 8,0 °C 9,2 °C 0,0 km/h (0 Bft)
04.10.2018 02:28 9,1 °C 92 % 1026,4 hPa 0,0 mm 0,0 km/h (0 Bft) S-SW 202 ° 0 min 0,000 mm 0,0 UV-I 0 W/m² 7,9 °C 9,1 °C 0,0 km/h (0 Bft)
04.10.2018 02:29 9,1 °C 92 % 1026,3 hPa 0,0 mm 0,0 km/h (0 Bft) S-SW 202 ° 0 min 0,000 mm 0,0 UV-I 0 W/m² 7,9 °C 9,1 °C 0,0 km/h (0 Bft)
04.10.2018 02:30 9,1 °C 92 % 1026,4 hPa 0,0 mm 0,0 km/h (0 Bft) S-SW 202 ° 0 min 0,000 mm 0,0 UV-I 0 W/m² 7,9 °C 9,1 °C 0,0 km/h (0 Bft)
04.10.2018 02:31 9,1 °C 92 % 1026,4 hPa 0,0 mm 0,0 km/h (0 Bft) S-SW 202 ° 0 min 0,000 mm 0,0 UV-I 0 W/m² 7,9 °C 9,1 °C 0,0 km/h (0 Bft)
04.10.2018 02:32 9,1 °C 92 % 1026,4 hPa 0,0 mm 0,0 km/h (0 Bft) S-SW 202 ° 0 min 0,000 mm 0,0 UV-I 0 W/m² 7,9 °C 9,1 °C 0,0 km/h (0 Bft)
04.10.2018 02:33 9,1 °C 92 % 1026,4 hPa 0,0 mm 0,0 km/h (0 Bft) S-SW 202 ° 0 min 0,000 mm 0,0 UV-I 0 W/m² 7,9 °C 9,1 °C 0,0 km/h (0 Bft)
04.10.2018 02:34 9,1 °C 92 % 1026,4 hPa 0,0 mm 0,0 km/h (0 Bft) S-SW 202 ° 0 min 0,000 mm 0,0 UV-I 0 W/m² 7,9 °C 9,1 °C 0,0 km/h (0 Bft)
04.10.2018 02:35 9,1 °C 92 % 1026,4 hPa 0,0 mm 0,0 km/h (0 Bft) S-SW 202 ° 0 min 0,000 mm 0,0 UV-I 0 W/m² 7,9 °C 9,1 °C 0,0 km/h (0 Bft)
04.10.2018 02:36 9,1 °C 92 % 1026,4 hPa 0,0 mm 0,0 km/h (0 Bft) S-SW 202 ° 0 min 0,000 mm 0,0 UV-I 0 W/m² 7,9 °C 9,1 °C 0,0 km/h (0 Bft)
04.10.2018 02:37 9,1 °C 92 % 1026,4 hPa 0,0 mm 0,0 km/h (0 Bft) S-SW 202 ° 0 min 0,000 mm 0,0 UV-I 0 W/m² 7,9 °C 9,1 °C 0,0 km/h (0 Bft)
04.10.2018 02:38 9,1 °C 92 % 1026,4 hPa 0,0 mm 0,0 km/h (0 Bft) S-SW 202 ° 0 min 0,000 mm 0,0 UV-I 0 W/m² 7,9 °C 9,1 °C 0,0 km/h (0 Bft)
04.10.2018 02:39 9,1 °C 92 % 1026,4 hPa 0,0 mm 0,0 km/h (0 Bft) S-SW 202 ° 0 min 0,000 mm 0,0 UV-I 0 W/m² 7,9 °C 9,1 °C 0,0 km/h (0 Bft)
04.10.2018 02:40 9,1 °C 92 % 1026,4 hPa 0,0 mm 0,0 km/h (0 Bft) S-SW 202 ° 0 min 0,000 mm 0,0 UV-I 0 W/m² 7,9 °C 9,1 °C 0,0 km/h (0 Bft)
04.10.2018 02:41 9,1 °C 92 % 1026,4 hPa 0,0 mm 0,0 km/h (0 Bft) S-SW 202 ° 0 min 0,000 mm 0,0 UV-I 0 W/m² 7,9 °C 9,1 °C 0,0 km/h (0 Bft)
04.10.2018 02:42 9,1 °C 92 % 1026,4 hPa 0,0 mm 0,0 km/h (0 Bft) S-SW 202 ° 0 min 0,000 mm 0,0 UV-I 0 W/m² 7,9 °C 9,1 °C 0,0 km/h (0 Bft)
04.10.2018 02:43 9,1 °C 92 % 1026,4 hPa 0,0 mm 0,0 km/h (0 Bft) S-SW 202 ° 0 min 0,000 mm 0,0 UV-I 0 W/m² 7,9 °C 9,1 °C 0,0 km/h (0 Bft)
04.10.2018 02:44 9,1 °C 92 % 1026,4 hPa 0,0 mm 0,0 km/h (0 Bft) S-SW 202 ° 0 min 0,000 mm 0,0 UV-I 0 W/m² 7,9 °C 9,1 °C 0,0 km/h (0 Bft)
04.10.2018 02:45 9,1 °C 92 % 1026,4 hPa 0,0 mm 0,0 km/h (0 Bft) S-SW 202 ° 0 min 0,000 mm 0,0 UV-I 0 W/m² 7,9 °C 9,1 °C 0,0 km/h (0 Bft)
04.10.2018 02:46 9,1 °C 92 % 1026,4 hPa 0,0 mm 0,0 km/h (0 Bft) S-SW 202 ° 0 min 0,000 mm 0,0 UV-I 0 W/m² 7,9 °C 9,1 °C 0,0 km/h (0 Bft)
04.10.2018 02:47 9,0 °C 92 % 1026,4 hPa 0,0 mm 0,0 km/h (0 Bft) S-SW 202 ° 0 min 0,000 mm 0,0 UV-I 0 W/m² 7,8 °C 9,0 °C 0,0 km/h (0 Bft)
04.10.2018 02:48 9,1 °C 92 % 1026,4 hPa 0,0 mm 0,0 km/h (0 Bft) S-SW 202 ° 0 min 0,000 mm 0,0 UV-I 0 W/m² 7,9 °C 9,1 °C 0,0 km/h (0 Bft)
04.10.2018 02:49 9,0 °C 92 % 1026,4 hPa 0,0 mm 0,0 km/h (0 Bft) S-SW 202 ° 0 min 0,000 mm 0,0 UV-I 0 W/m² 7,8 °C 9,0 °C 0,0 km/h (0 Bft)
04.10.2018 02:50 9,0 °C 92 % 1026,4 hPa 0,0 mm 0,0 km/h (0 Bft) S-SW 202 ° 0 min 0,000 mm 0,0 UV-I 0 W/m² 7,8 °C 9,0 °C 0,0 km/h (0 Bft)
04.10.2018 02:51 9,0 °C 92 % 1026,4 hPa 0,0 mm 0,0 km/h (0 Bft) S-SW 202 ° 0 min 0,000 mm 0,0 UV-I 0 W/m² 7,8 °C 9,0 °C 0,0 km/h (0 Bft)
04.10.2018 02:52 9,1 °C 92 % 1026,4 hPa 0,0 mm 0,0 km/h (0 Bft) S-SW 202 ° 0 min 0,000 mm 0,0 UV-I 0 W/m² 7,9 °C 9,1 °C 0,0 km/h (0 Bft)
04.10.2018 02:53 9,1 °C 92 % 1026,4 hPa 0,0 mm 0,0 km/h (0 Bft) S-SW 202 ° 0 min 0,000 mm 0,0 UV-I 0 W/m² 7,9 °C 9,1 °C 0,0 km/h (0 Bft)
04.10.2018 02:54 9,0 °C 92 % 1026,4 hPa 0,0 mm 0,0 km/h (0 Bft) S-SW 202 ° 0 min 0,000 mm 0,0 UV-I 0 W/m² 7,8 °C 9,0 °C 0,0 km/h (0 Bft)
04.10.2018 02:55 9,1 °C 92 % 1026,4 hPa 0,0 mm 0,0 km/h (0 Bft) S-SW 202 ° 0 min 0,000 mm 0,0 UV-I 0 W/m² 7,9 °C 9,1 °C 0,0 km/h (0 Bft)
04.10.2018 02:56 9,0 °C 92 % 1026,4 hPa 0,0 mm 0,0 km/h (0 Bft) S-SW 202 ° 0 min 0,000 mm 0,0 UV-I 0 W/m² 7,8 °C 9,0 °C 0,0 km/h (0 Bft)
04.10.2018 02:57 9,0 °C 92 % 1026,3 hPa 0,0 mm 0,0 km/h (0 Bft) S-SW 202 ° 0 min 0,000 mm 0,0 UV-I 0 W/m² 7,8 °C 9,0 °C 0,0 km/h (0 Bft)
04.10.2018 02:58 9,0 °C 92 % 1026,3 hPa 0,0 mm 0,0 km/h (0 Bft) S-SW 202 ° 0 min 0,000 mm 0,0 UV-I 0 W/m² 7,8 °C 9,0 °C 0,0 km/h (0 Bft)
04.10.2018 02:59 9,0 °C 92 % 1026,3 hPa 0,0 mm 0,0 km/h (0 Bft) S-SW 202 ° 0 min 0,000 mm 0,0 UV-I 0 W/m² 7,8 °C 9,0 °C 0,0 km/h (0 Bft)
04.10.2018 03:00 9,0 °C 92 % 1026,3 hPa 0,0 mm 0,0 km/h (0 Bft) S-SW 202 ° 0 min 0,000 mm 0,0 UV-I 0 W/m² 7,8 °C 9,0 °C 0,0 km/h (0 Bft)
04.10.2018 03:01 8,9 °C 92 % 1026,4 hPa 0,0 mm 0,0 km/h (0 Bft) S-SW 202 ° 0 min 0,000 mm 0,0 UV-I 0 W/m² 7,7 °C 8,9 °C 0,0 km/h (0 Bft)
04.10.2018 03:02 9,0 °C 92 % 1026,3 hPa 0,0 mm 0,0 km/h (0 Bft) S-SW 202 ° 0 min 0,000 mm 0,0 UV-I 0 W/m² 7,8 °C 9,0 °C 0,0 km/h (0 Bft)
04.10.2018 03:03 8,9 °C 92 % 1026,3 hPa 0,0 mm 0,0 km/h (0 Bft) S-SW 202 ° 0 min 0,000 mm 0,0 UV-I 0 W/m² 7,7 °C 8,9 °C 0,0 km/h (0 Bft)
04.10.2018 03:04 8,9 °C 92 % 1026,3 hPa 0,0 mm 0,0 km/h (0 Bft) S-SW 202 ° 0 min 0,000 mm 0,0 UV-I 0 W/m² 7,7 °C 8,9 °C 0,0 km/h (0 Bft)
04.10.2018 03:05 9,0 °C 92 % 1026,3 hPa 0,0 mm 0,0 km/h (0 Bft) S-SW 202 ° 0 min 0,000 mm 0,0 UV-I 0 W/m² 7,8 °C 9,0 °C 0,0 km/h (0 Bft)
04.10.2018 03:06 9,0 °C 92 % 1026,3 hPa 0,0 mm 0,0 km/h (0 Bft) S-SW 202 ° 0 min 0,000 mm 0,0 UV-I 0 W/m² 7,8 °C 9,0 °C 0,0 km/h (0 Bft)
04.10.2018 03:07 8,9 °C 92 % 1026,3 hPa 0,0 mm 0,0 km/h (0 Bft) S-SW 202 ° 0 min 0,000 mm 0,0 UV-I 0 W/m² 7,7 °C 8,9 °C 0,0 km/h (0 Bft)
04.10.2018 03:08 9,0 °C 92 % 1026,3 hPa 0,0 mm 0,0 km/h (0 Bft) S-SW 202 ° 0 min 0,000 mm 0,0 UV-I 0 W/m² 7,8 °C 9,0 °C 0,0 km/h (0 Bft)
04.10.2018 03:09 9,0 °C 92 % 1026,3 hPa 0,0 mm 0,0 km/h (0 Bft) S-SW 202 ° 0 min 0,000 mm 0,0 UV-I 0 W/m² 7,8 °C 9,0 °C 0,0 km/h (0 Bft)
04.10.2018 03:10 9,0 °C 92 % 1026,3 hPa 0,0 mm 0,0 km/h (0 Bft) S-SW 202 ° 0 min 0,000 mm 0,0 UV-I 0 W/m² 7,8 °C 9,0 °C 0,0 km/h (0 Bft)
04.10.2018 03:11 8,9 °C 92 % 1026,3 hPa 0,0 mm 0,0 km/h (0 Bft) S-SW 202 ° 0 min 0,000 mm 0,0 UV-I 0 W/m² 7,7 °C 8,9 °C 0,0 km/h (0 Bft)
04.10.2018 03:12 8,9 °C 92 % 1026,3 hPa 0,0 mm 0,0 km/h (0 Bft) S-SW 202 ° 0 min 0,000 mm 0,0 UV-I 0 W/m² 7,7 °C 8,9 °C 0,0 km/h (0 Bft)
04.10.2018 03:13 8,9 °C 92 % 1026,3 hPa 0,0 mm 0,0 km/h (0 Bft) S-SW 202 ° 0 min 0,000 mm 0,0 UV-I 0 W/m² 7,7 °C 8,9 °C 0,0 km/h (0 Bft)
04.10.2018 03:14 9,0 °C 92 % 1026,3 hPa 0,0 mm 0,0 km/h (0 Bft) S-SW 202 ° 0 min 0,000 mm 0,0 UV-I 0 W/m² 7,8 °C 9,0 °C 0,0 km/h (0 Bft)
04.10.2018 03:15 9,0 °C 92 % 1026,4 hPa 0,0 mm 0,0 km/h (0 Bft) S-SW 202 ° 0 min 0,000 mm 0,0 UV-I 0 W/m² 7,8 °C 9,0 °C 0,0 km/h (0 Bft)
04.10.2018 03:16 9,0 °C 92 % 1026,4 hPa 0,0 mm 0,0 km/h (0 Bft) S-SW 202 ° 0 min 0,000 mm 0,0 UV-I 0 W/m² 7,8 °C 9,0 °C 0,0 km/h (0 Bft)
04.10.2018 03:17 9,0 °C 92 % 1026,3 hPa 0,0 mm 0,0 km/h (0 Bft) S-SW 202 ° 0 min 0,000 mm 0,0 UV-I 0 W/m² 7,8 °C 9,0 °C 0,0 km/h (0 Bft)
04.10.2018 03:18 8,9 °C 92 % 1026,3 hPa 0,0 mm 0,0 km/h (0 Bft) S-SW 202 ° 0 min 0,000 mm 0,0 UV-I 0 W/m² 7,7 °C 8,9 °C 0,0 km/h (0 Bft)
04.10.2018 03:19 8,9 °C 92 % 1026,4 hPa 0,0 mm 0,0 km/h (0 Bft) S-SW 202 ° 0 min 0,000 mm 0,0 UV-I 0 W/m² 7,7 °C 8,9 °C 0,0 km/h (0 Bft)
04.10.2018 03:20 8,9 °C 92 % 1026,4 hPa 0,0 mm 0,0 km/h (0 Bft) S-SW 202 ° 0 min 0,000 mm 0,0 UV-I 0 W/m² 7,7 °C 8,9 °C 0,0 km/h (0 Bft)
04.10.2018 03:21 8,9 °C 92 % 1026,3 hPa 0,0 mm 0,0 km/h (0 Bft) S-SW 202 ° 0 min 0,000 mm 0,0 UV-I 0 W/m² 7,7 °C 8,9 °C 0,0 km/h (0 Bft)
04.10.2018 03:22 8,9 °C 92 % 1026,3 hPa 0,0 mm 0,0 km/h (0 Bft) S-SW 202 ° 0 min 0,000 mm 0,0 UV-I 0 W/m² 7,7 °C 8,9 °C 0,0 km/h (0 Bft)
04.10.2018 03:23 8,9 °C 92 % 1026,3 hPa 0,0 mm 0,0 km/h (0 Bft) S-SW 202 ° 0 min 0,000 mm 0,0 UV-I 0 W/m² 7,7 °C 8,9 °C 0,0 km/h (0 Bft)
04.10.2018 03:24 8,9 °C 92 % 1026,3 hPa 0,0 mm 0,0 km/h (0 Bft) S-SW 202 ° 0 min 0,000 mm 0,0 UV-I 0 W/m² 7,7 °C 8,9 °C 0,0 km/h (0 Bft)
04.10.2018 03:25 8,9 °C 92 % 1026,3 hPa 0,0 mm 0,0 km/h (0 Bft) S-SW 202 ° 0 min 0,000 mm 0,0 UV-I 0 W/m² 7,7 °C 8,9 °C 0,0 km/h (0 Bft)
04.10.2018 03:26 8,9 °C 92 % 1026,3 hPa 0,0 mm 0,0 km/h (0 Bft) S-SW 202 ° 0 min 0,000 mm 0,0 UV-I 0 W/m² 7,7 °C 8,9 °C 0,0 km/h (0 Bft)
04.10.2018 03:27 8,9 °C 92 % 1026,3 hPa 0,0 mm 0,0 km/h (0 Bft) S-SW 202 ° 0 min 0,000 mm 0,0 UV-I 0 W/m² 7,7 °C 8,9 °C 0,0 km/h (0 Bft)
04.10.2018 03:28 8,9 °C 92 % 1026,3 hPa 0,0 mm 0,0 km/h (0 Bft) S-SW 202 ° 0 min 0,000 mm 0,0 UV-I 0 W/m² 7,7 °C 8,9 °C 0,0 km/h (0 Bft)
04.10.2018 03:29 9,0 °C 92 % 1026,3 hPa 0,0 mm 0,0 km/h (0 Bft) S-SW 202 ° 0 min 0,000 mm 0,0 UV-I 0 W/m² 7,8 °C 9,0 °C 0,0 km/h (0 Bft)
04.10.2018 03:30 9,0 °C 92 % 1026,3 hPa 0,0 mm 0,0 km/h (0 Bft) S-SW 202 ° 0 min 0,000 mm 0,0 UV-I 0 W/m² 7,8 °C 9,0 °C 0,0 km/h (0 Bft)
04.10.2018 03:31 9,0 °C 92 % 1026,3 hPa 0,0 mm 0,0 km/h (0 Bft) S-SW 202 ° 0 min 0,000 mm 0,0 UV-I 0 W/m² 7,8 °C 9,0 °C 0,0 km/h (0 Bft)
04.10.2018 03:32 9,0 °C 92 % 1026,3 hPa 0,0 mm 0,0 km/h (0 Bft) S-SW 202 ° 0 min 0,000 mm 0,0 UV-I 0 W/m² 7,8 °C 9,0 °C 0,0 km/h (0 Bft)
04.10.2018 03:33 9,0 °C 92 % 1026,2 hPa 0,0 mm 0,0 km/h (0 Bft) S-SW 202 ° 0 min 0,000 mm 0,0 UV-I 0 W/m² 7,8 °C 9,0 °C 0,0 km/h (0 Bft)
04.10.2018 03:34 9,0 °C 92 % 1026,2 hPa 0,0 mm 0,0 km/h (0 Bft) S-SW 202 ° 0 min 0,000 mm 0,0 UV-I 0 W/m² 7,8 °C 9,0 °C 0,0 km/h (0 Bft)
04.10.2018 03:35 9,1 °C 92 % 1026,2 hPa 0,0 mm 0,0 km/h (0 Bft) S-SW 202 ° 0 min 0,000 mm 0,0 UV-I 0 W/m² 7,9 °C 9,1 °C 0,0 km/h (0 Bft)
04.10.2018 03:36 9,1 °C 92 % 1026,2 hPa 0,0 mm 0,0 km/h (0 Bft) S-SW 202 ° 0 min 0,000 mm 0,0 UV-I 0 W/m² 7,9 °C 9,1 °C 0,0 km/h (0 Bft)
04.10.2018 03:37 9,1 °C 92 % 1026,1 hPa 0,0 mm 0,0 km/h (0 Bft) S-SW 202 ° 0 min 0,000 mm 0,0 UV-I 0 W/m² 7,9 °C 9,1 °C 0,0 km/h (0 Bft)
04.10.2018 03:38 9,1 °C 92 % 1026,2 hPa 0,0 mm 0,0 km/h (0 Bft) S-SW 202 ° 0 min 0,000 mm 0,0 UV-I 0 W/m² 7,9 °C 9,1 °C 0,0 km/h (0 Bft)
04.10.2018 03:39 9,1 °C 92 % 1026,2 hPa 0,0 mm 0,0 km/h (0 Bft) S-SW 202 ° 0 min 0,000 mm 0,0 UV-I 0 W/m² 7,9 °C 9,1 °C 0,0 km/h (0 Bft)
04.10.2018 03:40 9,1 °C 92 % 1026,2 hPa 0,0 mm 0,0 km/h (0 Bft) S-SW 202 ° 0 min 0,000 mm 0,0 UV-I 0 W/m² 7,9 °C 9,1 °C 0,0 km/h (0 Bft)
04.10.2018 03:41 9,1 °C 92 % 1026,2 hPa 0,0 mm 0,0 km/h (0 Bft) S-SW 202 ° 0 min 0,000 mm 0,0 UV-I 0 W/m² 7,9 °C 9,1 °C 0,0 km/h (0 Bft)
04.10.2018 03:42 9,1 °C 92 % 1026,1 hPa 0,0 mm 0,0 km/h (0 Bft) S-SW 202 ° 0 min 0,000 mm 0,0 UV-I 0 W/m² 7,9 °C 9,1 °C 0,0 km/h (0 Bft)
04.10.2018 03:43 9,1 °C 92 % 1026,2 hPa 0,0 mm 0,0 km/h (0 Bft) S-SW 202 ° 0 min 0,000 mm 0,0 UV-I 0 W/m² 7,9 °C 9,1 °C 0,0 km/h (0 Bft)
04.10.2018 03:44 9,1 °C 92 % 1026,2 hPa 0,0 mm 0,0 km/h (0 Bft) S-SW 202 ° 0 min 0,000 mm 0,0 UV-I 0 W/m² 7,9 °C 9,1 °C 0,0 km/h (0 Bft)
04.10.2018 03:45 9,0 °C 92 % 1026,3 hPa 0,0 mm 0,0 km/h (0 Bft) S-SW 202 ° 0 min 0,000 mm 0,0 UV-I 0 W/m² 7,8 °C 9,0 °C 0,0 km/h (0 Bft)
04.10.2018 03:46 8,9 °C 92 % 1026,3 hPa 0,0 mm 0,0 km/h (0 Bft) S-SW 202 ° 0 min 0,000 mm 0,0 UV-I 0 W/m² 7,7 °C 8,9 °C 0,0 km/h (0 Bft)
04.10.2018 03:47 8,9 °C 92 % 1026,3 hPa 0,0 mm 0,0 km/h (0 Bft) S-SW 202 ° 0 min 0,000 mm 0,0 UV-I 0 W/m² 7,7 °C 8,9 °C 0,0 km/h (0 Bft)
04.10.2018 03:48 8,8 °C 92 % 1026,2 hPa 0,0 mm 0,0 km/h (0 Bft) S-SW 202 ° 0 min 0,000 mm 0,0 UV-I 0 W/m² 7,6 °C 8,8 °C 0,0 km/h (0 Bft)
04.10.2018 03:49 8,8 °C 92 % 1026,2 hPa 0,0 mm 0,0 km/h (0 Bft) S-SW 202 ° 0 min 0,000 mm 0,0 UV-I 0 W/m² 7,6 °C 8,8 °C 0,0 km/h (0 Bft)
04.10.2018 03:50 8,8 °C 92 % 1026,3 hPa 0,0 mm 0,0 km/h (0 Bft) S-SW 202 ° 0 min 0,000 mm 0,0 UV-I 0 W/m² 7,6 °C 8,8 °C 0,0 km/h (0 Bft)
04.10.2018 03:51 8,7 °C 92 % 1026,2 hPa 0,0 mm 0,0 km/h (0 Bft) S-SW 202 ° 0 min 0,000 mm 0,0 UV-I 0 W/m² 7,5 °C 8,7 °C 0,0 km/h (0 Bft)
04.10.2018 03:52 8,7 °C 92 % 1026,2 hPa 0,0 mm 0,0 km/h (0 Bft) S-SW 202 ° 0 min 0,000 mm 0,0 UV-I 0 W/m² 7,5 °C 8,7 °C 0,0 km/h (0 Bft)
04.10.2018 03:53 8,7 °C 92 % 1026,2 hPa 0,0 mm 0,0 km/h (0 Bft) S-SW 202 ° 0 min 0,000 mm 0,0 UV-I 0 W/m² 7,5 °C 8,7 °C 0,0 km/h (0 Bft)
04.10.2018 03:54 8,7 °C 92 % 1026,2 hPa 0,0 mm 0,0 km/h (0 Bft) S-SW 202 ° 0 min 0,000 mm 0,0 UV-I 0 W/m² 7,5 °C 8,7 °C 0,0 km/h (0 Bft)
04.10.2018 03:55 8,6 °C 92 % 1026,2 hPa 0,0 mm 0,0 km/h (0 Bft) S-SW 202 ° 0 min 0,000 mm 0,0 UV-I 0 W/m² 7,4 °C 8,6 °C 0,0 km/h (0 Bft)
04.10.2018 03:56 8,6 °C 92 % 1026,1 hPa 0,0 mm 0,0 km/h (0 Bft) S-SW 202 ° 0 min 0,000 mm 0,0 UV-I 0 W/m² 7,4 °C 8,6 °C 0,0 km/h (0 Bft)
04.10.2018 03:57 8,6 °C 92 % 1026,2 hPa 0,0 mm 0,0 km/h (0 Bft) S-SW 202 ° 0 min 0,000 mm 0,0 UV-I 0 W/m² 7,4 °C 8,6 °C 0,0 km/h (0 Bft)
04.10.2018 03:58 8,6 °C 92 % 1026,2 hPa 0,0 mm 0,0 km/h (0 Bft) S-SW 202 ° 0 min 0,000 mm 0,0 UV-I 0 W/m² 7,4 °C 8,6 °C 0,0 km/h (0 Bft)
04.10.2018 03:59 8,6 °C 92 % 1026,2 hPa 0,0 mm 0,0 km/h (0 Bft) S-SW 202 ° 0 min 0,000 mm 0,0 UV-I 0 W/m² 7,4 °C 8,6 °C 0,0 km/h (0 Bft)
04.10.2018 04:00 8,6 °C 92 % 1026,2 hPa 0,0 mm 0,0 km/h (0 Bft) S-SW 202 ° 0 min 0,000 mm 0,0 UV-I 0 W/m² 7,4 °C 8,6 °C 0,0 km/h (0 Bft)
04.10.2018 04:01 8,6 °C 92 % 1026,1 hPa 0,0 mm 0,0 km/h (0 Bft) S-SW 202 ° 0 min 0,000 mm 0,0 UV-I 0 W/m² 7,4 °C 8,6 °C 0,0 km/h (0 Bft)
04.10.2018 04:02 8,6 °C 92 % 1026,1 hPa 0,0 mm 0,0 km/h (0 Bft) S-SW 202 ° 0 min 0,000 mm 0,0 UV-I 0 W/m² 7,4 °C 8,6 °C 0,0 km/h (0 Bft)
04.10.2018 04:03 8,6 °C 92 % 1026,1 hPa 0,0 mm 0,0 km/h (0 Bft) S-SW 202 ° 0 min 0,000 mm 0,0 UV-I 0 W/m² 7,4 °C 8,6 °C 0,0 km/h (0 Bft)
04.10.2018 04:04 8,6 °C 92 % 1026,1 hPa 0,0 mm 0,0 km/h (0 Bft) S-SW 202 ° 0 min 0,000 mm 0,0 UV-I 0 W/m² 7,4 °C 8,6 °C 0,0 km/h (0 Bft)
04.10.2018 04:05 8,6 °C 92 % 1026,1 hPa 0,0 mm 0,0 km/h (0 Bft) S-SW 202 ° 0 min 0,000 mm 0,0 UV-I 0 W/m² 7,4 °C 8,6 °C 0,0 km/h (0 Bft)
04.10.2018 04:06 8,6 °C 92 % 1026,1 hPa 0,0 mm 0,0 km/h (0 Bft) S-SW 202 ° 0 min 0,000 mm 0,0 UV-I 0 W/m² 7,4 °C 8,6 °C 0,0 km/h (0 Bft)
04.10.2018 04:07 8,6 °C 93 % 1026,1 hPa 0,0 mm 0,0 km/h (0 Bft) S-SW 202 ° 0 min 0,000 mm 0,0 UV-I 0 W/m² 7,5 °C 8,6 °C 0,0 km/h (0 Bft)
04.10.2018 04:08 8,6 °C 92 % 1026,1 hPa 0,0 mm 0,0 km/h (0 Bft) S-SW 202 ° 0 min 0,000 mm 0,0 UV-I 0 W/m² 7,4 °C 8,6 °C 0,0 km/h (0 Bft)
04.10.2018 04:09 8,6 °C 93 % 1026,1 hPa 0,0 mm 0,0 km/h (0 Bft) S-SW 202 ° 0 min 0,000 mm 0,0 UV-I 0 W/m² 7,5 °C 8,6 °C 0,0 km/h (0 Bft)
04.10.2018 04:10 8,5 °C 93 % 1026,1 hPa 0,0 mm 0,0 km/h (0 Bft) S-SW 202 ° 0 min 0,000 mm 0,0 UV-I 0 W/m² 7,4 °C 8,5 °C 0,0 km/h (0 Bft)
04.10.2018 04:11 8,4 °C 92 % 1026,1 hPa 0,0 mm 0,0 km/h (0 Bft) S-SW 202 ° 0 min 0,000 mm 0,0 UV-I 0 W/m² 7,2 °C 8,4 °C 0,0 km/h (0 Bft)
04.10.2018 04:12 8,4 °C 93 % 1026,1 hPa 0,0 mm 0,0 km/h (0 Bft) S-SW 202 ° 0 min 0,000 mm 0,0 UV-I 0 W/m² 7,3 °C 8,4 °C 0,0 km/h (0 Bft)
04.10.2018 04:13 8,4 °C 92 % 1026,0 hPa 0,0 mm 0,0 km/h (0 Bft) S-SW 202 ° 0 min 0,000 mm 0,0 UV-I 0 W/m² 7,2 °C 8,4 °C 0,0 km/h (0 Bft)
04.10.2018 04:14 8,4 °C 92 % 1026,1 hPa 0,0 mm 0,0 km/h (0 Bft) S-SW 202 ° 0 min 0,000 mm 0,0 UV-I 0 W/m² 7,2 °C 8,4 °C 0,0 km/h (0 Bft)
04.10.2018 04:15 8,4 °C 92 % 1026,1 hPa 0,0 mm 0,0 km/h (0 Bft) S-SW 202 ° 0 min 0,000 mm 0,0 UV-I 0 W/m² 7,2 °C 8,4 °C 0,0 km/h (0 Bft)
04.10.2018 04:16 8,4 °C 93 % 1026,1 hPa 0,0 mm 0,0 km/h (0 Bft) S-SW 202 ° 0 min 0,000 mm 0,0 UV-I 0 W/m² 7,3 °C 8,4 °C 0,0 km/h (0 Bft)
04.10.2018 04:17 8,4 °C 93 % 1026,1 hPa 0,0 mm 0,0 km/h (0 Bft) S-SW 202 ° 0 min 0,000 mm 0,0 UV-I 0 W/m² 7,3 °C 8,4 °C 0,0 km/h (0 Bft)
04.10.2018 04:18 8,4 °C 93 % 1026,1 hPa 0,0 mm 0,0 km/h (0 Bft) S-SW 202 ° 0 min 0,000 mm 0,0 UV-I 0 W/m² 7,3 °C 8,4 °C 0,0 km/h (0 Bft)
04.10.2018 04:19 8,4 °C 93 % 1026,2 hPa 0,0 mm 0,0 km/h (0 Bft) S-SW 202 ° 0 min 0,000 mm 0,0 UV-I 0 W/m² 7,3 °C 8,4 °C 0,0 km/h (0 Bft)
04.10.2018 04:20 8,4 °C 93 % 1026,1 hPa 0,0 mm 0,0 km/h (0 Bft) S-SW 202 ° 0 min 0,000 mm 0,0 UV-I 0 W/m² 7,3 °C 8,4 °C 0,0 km/h (0 Bft)
04.10.2018 04:21 8,4 °C 93 % 1026,1 hPa 0,0 mm 0,0 km/h (0 Bft) S-SW 202 ° 0 min 0,000 mm 0,0 UV-I 0 W/m² 7,3 °C 8,4 °C 0,0 km/h (0 Bft)
04.10.2018 04:22 8,4 °C 93 % 1026,1 hPa 0,0 mm 0,0 km/h (0 Bft) S-SW 202 ° 0 min 0,000 mm 0,0 UV-I 0 W/m² 7,3 °C 8,4 °C 0,0 km/h (0 Bft)
04.10.2018 04:23 8,4 °C 93 % 1026,1 hPa 0,0 mm 0,0 km/h (0 Bft) S-SW 202 ° 0 min 0,000 mm 0,0 UV-I 0 W/m² 7,3 °C 8,4 °C 0,0 km/h (0 Bft)
04.10.2018 04:24 8,4 °C 92 % 1026,1 hPa 0,0 mm 0,0 km/h (0 Bft) S-SW 202 ° 0 min 0,000 mm 0,0 UV-I 0 W/m² 7,2 °C 8,4 °C 0,0 km/h (0 Bft)
04.10.2018 04:25 8,3 °C 92 % 1026,2 hPa 0,0 mm 0,0 km/h (0 Bft) S-SW 202 ° 0 min 0,000 mm 0,0 UV-I 0 W/m² 7,1 °C 8,3 °C 0,0 km/h (0 Bft)
04.10.2018 04:26 8,3 °C 92 % 1026,1 hPa 0,0 mm 0,0 km/h (0 Bft) S-SW 202 ° 0 min 0,000 mm 0,0 UV-I 0 W/m² 7,1 °C 8,3 °C 0,0 km/h (0 Bft)
04.10.2018 04:27 8,3 °C 92 % 1026,1 hPa 0,0 mm 0,0 km/h (0 Bft) S-SW 202 ° 0 min 0,000 mm 0,0 UV-I 0 W/m² 7,1 °C 8,3 °C 0,0 km/h (0 Bft)
04.10.2018 04:28 8,2 °C 93 % 1026,1 hPa 0,0 mm 0,0 km/h (0 Bft) S-SW 202 ° 0 min 0,000 mm 0,0 UV-I 0 W/m² 7,1 °C 8,2 °C 0,0 km/h (0 Bft)
04.10.2018 04:29 8,2 °C 93 % 1026,1 hPa 0,0 mm 0,0 km/h (0 Bft) S-SW 202 ° 0 min 0,000 mm 0,0 UV-I 0 W/m² 7,1 °C 8,2 °C 0,0 km/h (0 Bft)
04.10.2018 04:30 8,2 °C 93 % 1026,2 hPa 0,0 mm 0,0 km/h (0 Bft) S-SW 202 ° 0 min 0,000 mm 0,0 UV-I 0 W/m² 7,1 °C 8,2 °C 0,0 km/h (0 Bft)
04.10.2018 04:31 8,1 °C 93 % 1026,1 hPa 0,0 mm 0,0 km/h (0 Bft) S-SW 202 ° 0 min 0,000 mm 0,0 UV-I 0 W/m² 7,0 °C 8,1 °C 0,0 km/h (0 Bft)
04.10.2018 04:32 8,1 °C 93 % 1026,1 hPa 0,0 mm 0,0 km/h (0 Bft) S-SW 202 ° 0 min 0,000 mm 0,0 UV-I 0 W/m² 7,0 °C 8,1 °C 0,0 km/h (0 Bft)
04.10.2018 04:33 8,1 °C 93 % 1026,2 hPa 0,0 mm 0,0 km/h (0 Bft) S-SW 202 ° 0 min 0,000 mm 0,0 UV-I 0 W/m² 7,0 °C 8,1 °C 0,0 km/h (0 Bft)
04.10.2018 04:34 8,1 °C 93 % 1026,1 hPa 0,0 mm 0,0 km/h (0 Bft) S-SW 202 ° 0 min 0,000 mm 0,0 UV-I 0 W/m² 7,0 °C 8,1 °C 0,0 km/h (0 Bft)
04.10.2018 04:35 8,1 °C 93 % 1026,1 hPa 0,0 mm 0,0 km/h (0 Bft) S-SW 202 ° 0 min 0,000 mm 0,0 UV-I 0 W/m² 7,0 °C 8,1 °C 0,0 km/h (0 Bft)
04.10.2018 04:36 8,1 °C 93 % 1026,2 hPa 0,0 mm 0,0 km/h (0 Bft) S-SW 202 ° 0 min 0,000 mm 0,0 UV-I 0 W/m² 7,0 °C 8,1 °C 0,0 km/h (0 Bft)
04.10.2018 04:37 7,9 °C 92 % 1026,1 hPa 0,0 mm 0,0 km/h (0 Bft) S-SW 202 ° 0 min 0,000 mm 0,0 UV-I 0 W/m² 6,7 °C 7,9 °C 0,0 km/h (0 Bft)
04.10.2018 04:38 7,8 °C 92 % 1026,1 hPa 0,0 mm 0,0 km/h (0 Bft) S-SW 202 ° 0 min 0,000 mm 0,0 UV-I 0 W/m² 6,6 °C 7,8 °C 0,0 km/h (0 Bft)
04.10.2018 04:39 7,8 °C 93 % 1026,1 hPa 0,0 mm 0,0 km/h (0 Bft) S-SW 202 ° 0 min 0,000 mm 0,0 UV-I 0 W/m² 6,7 °C 7,8 °C 0,0 km/h (0 Bft)
04.10.2018 04:40 7,8 °C 93 % 1026,0 hPa 0,0 mm 0,0 km/h (0 Bft) S-SW 202 ° 0 min 0,000 mm 0,0 UV-I 0 W/m² 6,7 °C 7,8 °C 0,0 km/h (0 Bft)
04.10.2018 04:41 7,8 °C 93 % 1026,0 hPa 0,0 mm 0,0 km/h (0 Bft) S-SW 202 ° 0 min 0,000 mm 0,0 UV-I 0 W/m² 6,7 °C 7,8 °C 0,0 km/h (0 Bft)
04.10.2018 04:42 7,8 °C 93 % 1026,0 hPa 0,0 mm 0,0 km/h (0 Bft) S-SW 202 ° 0 min 0,000 mm 0,0 UV-I 0 W/m² 6,7 °C 7,8 °C 0,0 km/h (0 Bft)
04.10.2018 04:43 7,8 °C 93 % 1026,0 hPa 0,0 mm 0,0 km/h (0 Bft) S-SW 202 ° 0 min 0,000 mm 0,0 UV-I 0 W/m² 6,7 °C 7,8 °C 0,0 km/h (0 Bft)
04.10.2018 04:44 7,8 °C 93 % 1026,0 hPa 0,0 mm 0,0 km/h (0 Bft) S-SW 202 ° 0 min 0,000 mm 0,0 UV-I 0 W/m² 6,7 °C 7,8 °C 0,0 km/h (0 Bft)
04.10.2018 04:45 7,7 °C 93 % 1026,0 hPa 0,0 mm 0,0 km/h (0 Bft) S-SW 202 ° 0 min 0,000 mm 0,0 UV-I 0 W/m² 6,6 °C 7,7 °C 0,0 km/h (0 Bft)
04.10.2018 04:46 7,7 °C 93 % 1026,0 hPa 0,0 mm 0,0 km/h (0 Bft) S-SW 202 ° 0 min 0,000 mm 0,0 UV-I 0 W/m² 6,6 °C 7,7 °C 0,0 km/h (0 Bft)
04.10.2018 04:47 7,7 °C 93 % 1025,9 hPa 0,0 mm 0,0 km/h (0 Bft) S-SW 202 ° 0 min 0,000 mm 0,0 UV-I 0 W/m² 6,6 °C 7,7 °C 0,0 km/h (0 Bft)
04.10.2018 04:48 7,6 °C 93 % 1026,0 hPa 0,0 mm 0,0 km/h (0 Bft) S-SW 202 ° 0 min 0,000 mm 0,0 UV-I 0 W/m² 6,5 °C 7,6 °C 0,0 km/h (0 Bft)
04.10.2018 04:49 7,6 °C 93 % 1026,0 hPa 0,0 mm 0,0 km/h (0 Bft) S-SW 202 ° 0 min 0,000 mm 0,0 UV-I 0 W/m² 6,5 °C 7,6 °C 0,0 km/h (0 Bft)
04.10.2018 04:50 7,5 °C 93 % 1026,0 hPa 0,0 mm 0,0 km/h (0 Bft) S-SW 202 ° 0 min 0,000 mm 0,0 UV-I 0 W/m² 6,4 °C 7,5 °C 0,0 km/h (0 Bft)
04.10.2018 04:51 7,3 °C 92 % 1026,0 hPa 0,0 mm 0,0 km/h (0 Bft) S-SW 202 ° 0 min 0,000 mm 0,0 UV-I 0 W/m² 6,1 °C 7,3 °C 0,0 km/h (0 Bft)
04.10.2018 04:52 7,2 °C 92 % 1026,0 hPa 0,0 mm 0,0 km/h (0 Bft) S-SW 202 ° 0 min 0,000 mm 0,0 UV-I 0 W/m² 6,0 °C 7,2 °C 0,0 km/h (0 Bft)
04.10.2018 04:53 7,2 °C 93 % 1026,0 hPa 0,0 mm 0,0 km/h (0 Bft) S-SW 202 ° 0 min 0,000 mm 0,0 UV-I 0 W/m² 6,1 °C 7,2 °C 0,0 km/h (0 Bft)
04.10.2018 04:54 7,2 °C 93 % 1026,0 hPa 0,0 mm 0,0 km/h (0 Bft) S-SW 202 ° 0 min 0,000 mm 0,0 UV-I 0 W/m² 6,1 °C 7,2 °C 0,0 km/h (0 Bft)
04.10.2018 04:55 7,2 °C 93 % 1026,0 hPa 0,0 mm 0,0 km/h (0 Bft) S-SW 202 ° 0 min 0,000 mm 0,0 UV-I 0 W/m² 6,1 °C 7,2 °C 0,0 km/h (0 Bft)
04.10.2018 04:56 7,2 °C 93 % 1025,9 hPa 0,0 mm 0,0 km/h (0 Bft) S-SW 202 ° 0 min 0,000 mm 0,0 UV-I 0 W/m² 6,1 °C 7,2 °C 0,0 km/h (0 Bft)
04.10.2018 04:57 7,2 °C 93 % 1026,0 hPa 0,0 mm 0,0 km/h (0 Bft) S-SW 202 ° 0 min 0,000 mm 0,0 UV-I 0 W/m² 6,1 °C 7,2 °C 0,0 km/h (0 Bft)
04.10.2018 04:58 7,3 °C 93 % 1026,0 hPa 0,0 mm 0,0 km/h (0 Bft) S-SW 202 ° 0 min 0,000 mm 0,0 UV-I 0 W/m² 6,2 °C 7,3 °C 0,0 km/h (0 Bft)
04.10.2018 04:59 7,3 °C 93 % 1026,0 hPa 0,0 mm 0,0 km/h (0 Bft) S-SW 202 ° 0 min 0,000 mm 0,0 UV-I 0 W/m² 6,2 °C 7,3 °C 0,0 km/h (0 Bft)
04.10.2018 05:00 7,3 °C 93 % 1026,0 hPa 0,0 mm 0,0 km/h (0 Bft) S-SW 202 ° 0 min 0,000 mm 0,0 UV-I 0 W/m² 6,2 °C 7,3 °C 0,0 km/h (0 Bft)
04.10.2018 05:01 7,3 °C 93 % 1026,0 hPa 0,0 mm 0,0 km/h (0 Bft) S-SW 202 ° 0 min 0,000 mm 0,0 UV-I 0 W/m² 6,2 °C 7,3 °C 0,0 km/h (0 Bft)
04.10.2018 05:02 7,2 °C 93 % 1026,0 hPa 0,0 mm 0,0 km/h (0 Bft) S-SW 202 ° 0 min 0,000 mm 0,0 UV-I 0 W/m² 6,1 °C 7,2 °C 0,0 km/h (0 Bft)
04.10.2018 05:03 7,2 °C 93 % 1025,9 hPa 0,0 mm 0,0 km/h (0 Bft) S-SW 202 ° 0 min 0,000 mm 0,0 UV-I 0 W/m² 6,1 °C 7,2 °C 0,0 km/h (0 Bft)
04.10.2018 05:04 7,1 °C 93 % 1025,9 hPa 0,0 mm 0,0 km/h (0 Bft) S-SW 202 ° 0 min 0,000 mm 0,0 UV-I 0 W/m² 6,0 °C 7,1 °C 0,0 km/h (0 Bft)
04.10.2018 05:05 7,1 °C 93 % 1025,9 hPa 0,0 mm 0,0 km/h (0 Bft) S-SW 202 ° 0 min 0,000 mm 0,0 UV-I 0 W/m² 6,0 °C 7,1 °C 0,0 km/h (0 Bft)
04.10.2018 05:06 7,1 °C 93 % 1025,9 hPa 0,0 mm 0,0 km/h (0 Bft) S-SW 202 ° 0 min 0,000 mm 0,0 UV-I 0 W/m² 6,0 °C 7,1 °C 0,0 km/h (0 Bft)
04.10.2018 05:07 6,9 °C 93 % 1025,9 hPa 0,0 mm 0,0 km/h (0 Bft) S-SW 202 ° 0 min 0,000 mm 0,0 UV-I 0 W/m² 5,8 °C 6,9 °C 0,0 km/h (0 Bft)
04.10.2018 05:08 6,8 °C 93 % 1025,9 hPa 0,0 mm 0,0 km/h (0 Bft) S-SW 202 ° 0 min 0,000 mm 0,0 UV-I 0 W/m² 5,7 °C 6,8 °C 0,0 km/h (0 Bft)
04.10.2018 05:09 6,8 °C 93 % 1025,9 hPa 0,0 mm 0,0 km/h (0 Bft) S-SW 202 ° 0 min 0,000 mm 0,0 UV-I 0 W/m² 5,7 °C 6,8 °C 0,0 km/h (0 Bft)
04.10.2018 05:10 6,7 °C 93 % 1025,9 hPa 0,0 mm 0,0 km/h (0 Bft) S-SW 202 ° 0 min 0,000 mm 0,0 UV-I 0 W/m² 5,6 °C 6,7 °C 0,0 km/h (0 Bft)
04.10.2018 05:11 6,6 °C 92 % 1025,9 hPa 0,0 mm 0,0 km/h (0 Bft) S-SW 202 ° 0 min 0,000 mm 0,0 UV-I 0 W/m² 5,4 °C 6,6 °C 0,0 km/h (0 Bft)
04.10.2018 05:12 6,6 °C 93 % 1025,8 hPa 0,0 mm 0,0 km/h (0 Bft) S-SW 202 ° 0 min 0,000 mm 0,0 UV-I 0 W/m² 5,6 °C 6,6 °C 0,0 km/h (0 Bft)
04.10.2018 05:13 6,6 °C 93 % 1025,8 hPa 0,0 mm 0,0 km/h (0 Bft) S-SW 202 ° 0 min 0,000 mm 0,0 UV-I 0 W/m² 5,6 °C 6,6 °C 0,0 km/h (0 Bft)
04.10.2018 05:14 6,6 °C 93 % 1025,8 hPa 0,0 mm 0,0 km/h (0 Bft) S-SW 202 ° 0 min 0,000 mm 0,0 UV-I 0 W/m² 5,6 °C 6,6 °C 0,0 km/h (0 Bft)
04.10.2018 05:15 6,4 °C 93 % 1025,8 hPa 0,0 mm 0,0 km/h (0 Bft) S-SW 202 ° 0 min 0,000 mm 0,0 UV-I 0 W/m² 5,4 °C 6,4 °C 0,0 km/h (0 Bft)
04.10.2018 05:16 6,3 °C 93 % 1025,8 hPa 0,0 mm 0,0 km/h (0 Bft) S-SW 202 ° 0 min 0,000 mm 0,0 UV-I 0 W/m² 5,3 °C 6,3 °C 0,0 km/h (0 Bft)
04.10.2018 05:17 6,3 °C 93 % 1025,8 hPa 0,0 mm 0,0 km/h (0 Bft) S-SW 202 ° 0 min 0,000 mm 0,0 UV-I 0 W/m² 5,3 °C 6,3 °C 0,0 km/h (0 Bft)
04.10.2018 05:18 6,2 °C 93 % 1025,9 hPa 0,0 mm 0,1 km/h (0 Bft) S-SW 202 ° 0 min 0,000 mm 0,0 UV-I 0 W/m² 5,2 °C 6,2 °C 1,6 km/h (1 Bft)
04.10.2018 05:19 6,1 °C 93 % 1025,8 hPa 0,0 mm 0,0 km/h (0 Bft) S-SW 202 ° 0 min 0,000 mm 0,0 UV-I 0 W/m² 5,1 °C 6,1 °C 0,0 km/h (0 Bft)
04.10.2018 05:20 6,1 °C 93 % 1025,8 hPa 0,0 mm 0,0 km/h (0 Bft) S-SW 202 ° 0 min 0,000 mm 0,0 UV-I 0 W/m² 5,1 °C 6,1 °C 0,0 km/h (0 Bft)
04.10.2018 05:21 6,1 °C 93 % 1025,9 hPa 0,0 mm 0,0 km/h (0 Bft) S-SW 202 ° 0 min 0,000 mm 0,0 UV-I 0 W/m² 5,1 °C 6,1 °C 0,0 km/h (0 Bft)
04.10.2018 05:22 6,1 °C 93 % 1025,9 hPa 0,0 mm 0,0 km/h (0 Bft) S-SW 202 ° 0 min 0,000 mm 0,0 UV-I 0 W/m² 5,1 °C 6,1 °C 0,0 km/h (0 Bft)
04.10.2018 05:23 6,1 °C 93 % 1025,9 hPa 0,0 mm 0,0 km/h (0 Bft) S-SW 202 ° 0 min 0,000 mm 0,0 UV-I 0 W/m² 5,1 °C 6,1 °C 0,0 km/h (0 Bft)
04.10.2018 05:24 6,1 °C 93 % 1025,9 hPa 0,0 mm 0,0 km/h (0 Bft) S-SW 202 ° 0 min 0,000 mm 0,0 UV-I 0 W/m² 5,1 °C 6,1 °C 0,0 km/h (0 Bft)
04.10.2018 05:25 6,1 °C 93 % 1025,9 hPa 0,0 mm 0,0 km/h (0 Bft) S-SW 202 ° 0 min 0,000 mm 0,0 UV-I 0 W/m² 5,1 °C 6,1 °C 0,0 km/h (0 Bft)
04.10.2018 05:26 6,1 °C 93 % 1025,9 hPa 0,0 mm 0,0 km/h (0 Bft) S-SW 202 ° 0 min 0,000 mm 0,0 UV-I 0 W/m² 5,1 °C 6,1 °C 0,0 km/h (0 Bft)
04.10.2018 05:27 6,1 °C 93 % 1025,9 hPa 0,0 mm 0,0 km/h (0 Bft) S-SW 202 ° 0 min 0,000 mm 0,0 UV-I 0 W/m² 5,1 °C 6,1 °C 0,0 km/h (0 Bft)
04.10.2018 05:28 6,0 °C 93 % 1025,9 hPa 0,0 mm 0,0 km/h (0 Bft) S-SW 202 ° 0 min 0,000 mm 0,0 UV-I 0 W/m² 5,0 °C 6,0 °C 0,0 km/h (0 Bft)
04.10.2018 05:29 6,0 °C 93 % 1025,9 hPa 0,0 mm 0,0 km/h (0 Bft) S-SW 202 ° 0 min 0,000 mm 0,0 UV-I 0 W/m² 5,0 °C 6,0 °C 0,0 km/h (0 Bft)
04.10.2018 05:30 6,0 °C 93 % 1025,8 hPa 0,0 mm 0,0 km/h (0 Bft) S-SW 202 ° 0 min 0,000 mm 0,0 UV-I 0 W/m² 5,0 °C 6,0 °C 0,0 km/h (0 Bft)
04.10.2018 05:31 6,0 °C 93 % 1025,9 hPa 0,0 mm 0,0 km/h (0 Bft) S-SW 202 ° 0 min 0,000 mm 0,0 UV-I 0 W/m² 5,0 °C 6,0 °C 0,0 km/h (0 Bft)
04.10.2018 05:32 5,9 °C 93 % 1025,9 hPa 0,0 mm 0,0 km/h (0 Bft) S-SW 202 ° 0 min 0,000 mm 0,0 UV-I 0 W/m² 4,9 °C 5,9 °C 0,0 km/h (0 Bft)
04.10.2018 05:33 5,8 °C 93 % 1025,9 hPa 0,0 mm 0,0 km/h (0 Bft) S-SW 202 ° 0 min 0,000 mm 0,0 UV-I 0 W/m² 4,8 °C 5,8 °C 0,0 km/h (0 Bft)
04.10.2018 05:34 5,8 °C 93 % 1025,9 hPa 0,0 mm 0,0 km/h (0 Bft) S-SW 202 ° 0 min 0,000 mm 0,0 UV-I 0 W/m² 4,8 °C 5,8 °C 0,0 km/h (0 Bft)
04.10.2018 05:35 5,8 °C 93 % 1025,9 hPa 0,0 mm 0,0 km/h (0 Bft) S-SW 202 ° 0 min 0,000 mm 0,0 UV-I 0 W/m² 4,8 °C 5,8 °C 0,0 km/h (0 Bft)
04.10.2018 05:36 5,8 °C 93 % 1025,8 hPa 0,0 mm 0,0 km/h (0 Bft) S-SW 202 ° 0 min 0,000 mm 0,0 UV-I 0 W/m² 4,8 °C 5,8 °C 0,0 km/h (0 Bft)
04.10.2018 05:37 5,8 °C 93 % 1025,9 hPa 0,0 mm 0,0 km/h (0 Bft) S-SW 202 ° 0 min 0,000 mm 0,0 UV-I 0 W/m² 4,8 °C 5,8 °C 0,0 km/h (0 Bft)
04.10.2018 05:38 5,8 °C 93 % 1025,8 hPa 0,0 mm 0,0 km/h (0 Bft) S-SW 202 ° 0 min 0,000 mm 0,0 UV-I 0 W/m² 4,8 °C 5,8 °C 0,0 km/h (0 Bft)
04.10.2018 05:39 5,8 °C 93 % 1025,9 hPa 0,0 mm 0,0 km/h (0 Bft) S-SW 202 ° 0 min 0,000 mm 0,0 UV-I 0 W/m² 4,8 °C 5,8 °C 0,0 km/h (0 Bft)
04.10.2018 05:40 5,8 °C 93 % 1025,8 hPa 0,0 mm 0,2 km/h (0 Bft) S-SW 202 ° 0 min 0,000 mm 0,0 UV-I 0 W/m² 4,8 °C 5,8 °C 1,6 km/h (1 Bft)
04.10.2018 05:41 5,9 °C 94 % 1025,8 hPa 0,0 mm 0,1 km/h (0 Bft) S-SW 202 ° 0 min 0,000 mm 0,0 UV-I 0 W/m² 5,0 °C 5,9 °C 1,6 km/h (1 Bft)
04.10.2018 05:42 6,1 °C 94 % 1025,9 hPa 0,0 mm 0,0 km/h (0 Bft) S-SW 202 ° 0 min 0,000 mm 0,0 UV-I 0 W/m² 5,2 °C 6,1 °C 0,0 km/h (0 Bft)
04.10.2018 05:43 6,1 °C 94 % 1025,8 hPa 0,0 mm 0,0 km/h (0 Bft) S-SW 202 ° 0 min 0,000 mm 0,0 UV-I 0 W/m² 5,2 °C 6,1 °C 0,0 km/h (0 Bft)
04.10.2018 05:44 6,1 °C 94 % 1025,8 hPa 0,0 mm 0,0 km/h (0 Bft) S-SW 202 ° 0 min 0,000 mm 0,0 UV-I 0 W/m² 5,2 °C 6,1 °C 0,0 km/h (0 Bft)
04.10.2018 05:45 6,2 °C 94 % 1025,8 hPa 0,0 mm 0,2 km/h (0 Bft) S-SW 202 ° 0 min 0,000 mm 0,0 UV-I 0 W/m² 5,3 °C 6,2 °C 1,6 km/h (1 Bft)
04.10.2018 05:46 6,2 °C 94 % 1025,9 hPa 0,0 mm 0,0 km/h (0 Bft) S-SW 202 ° 0 min 0,000 mm 0,0 UV-I 0 W/m² 5,3 °C 6,2 °C 0,0 km/h (0 Bft)
04.10.2018 05:47 6,2 °C 93 % 1025,8 hPa 0,0 mm 0,0 km/h (0 Bft) S-SW 202 ° 0 min 0,000 mm 0,0 UV-I 0 W/m² 5,2 °C 6,2 °C 0,0 km/h (0 Bft)
04.10.2018 05:48 6,1 °C 93 % 1025,9 hPa 0,0 mm 0,0 km/h (0 Bft) S-SW 202 ° 0 min 0,000 mm 0,0 UV-I 0 W/m² 5,1 °C 6,1 °C 0,0 km/h (0 Bft)
04.10.2018 05:49 5,9 °C 93 % 1025,9 hPa 0,0 mm 0,0 km/h (0 Bft) S-SW 202 ° 0 min 0,000 mm 0,0 UV-I 0 W/m² 4,9 °C 5,9 °C 0,0 km/h (0 Bft)
04.10.2018 05:50 5,9 °C 93 % 1025,9 hPa 0,0 mm 0,0 km/h (0 Bft) S-SW 202 ° 0 min 0,000 mm 0,0 UV-I 0 W/m² 4,9 °C 5,9 °C 0,0 km/h (0 Bft)
04.10.2018 05:51 5,9 °C 93 % 1025,8 hPa 0,0 mm 0,0 km/h (0 Bft) S-SW 202 ° 0 min 0,000 mm 0,0 UV-I 0 W/m² 4,9 °C 5,9 °C 0,0 km/h (0 Bft)
04.10.2018 05:52 5,9 °C 93 % 1025,8 hPa 0,0 mm 0,0 km/h (0 Bft) S-SW 202 ° 0 min 0,000 mm 0,0 UV-I 0 W/m² 4,9 °C 5,9 °C 0,0 km/h (0 Bft)
04.10.2018 05:53 5,9 °C 93 % 1025,8 hPa 0,0 mm 0,0 km/h (0 Bft) S-SW 202 ° 0 min 0,000 mm 0,0 UV-I 0 W/m² 4,9 °C 5,9 °C 0,0 km/h (0 Bft)
04.10.2018 05:54 5,8 °C 93 % 1025,8 hPa 0,0 mm 0,0 km/h (0 Bft) S-SW 202 ° 0 min 0,000 mm 0,0 UV-I 0 W/m² 4,8 °C 5,8 °C 0,0 km/h (0 Bft)
04.10.2018 05:55 5,8 °C 93 % 1025,8 hPa 0,0 mm 0,0 km/h (0 Bft) S-SW 202 ° 0 min 0,000 mm 0,0 UV-I 0 W/m² 4,8 °C 5,8 °C 0,0 km/h (0 Bft)
04.10.2018 05:56 5,8 °C 93 % 1025,8 hPa 0,0 mm 0,0 km/h (0 Bft) S-SW 202 ° 0 min 0,000 mm 0,0 UV-I 0 W/m² 4,8 °C 5,8 °C 0,0 km/h (0 Bft)
04.10.2018 05:57 5,7 °C 93 % 1025,8 hPa 0,0 mm 0,0 km/h (0 Bft) S-SW 202 ° 0 min 0,000 mm 0,0 UV-I 0 W/m² 4,7 °C 5,7 °C 0,0 km/h (0 Bft)
04.10.2018 05:58 5,7 °C 93 % 1025,8 hPa 0,0 mm 0,0 km/h (0 Bft) S-SW 202 ° 0 min 0,000 mm 0,0 UV-I 0 W/m² 4,7 °C 5,7 °C 0,0 km/h (0 Bft)
04.10.2018 05:59 5,8 °C 94 % 1025,8 hPa 0,0 mm 0,0 km/h (0 Bft) S-SW 202 ° 0 min 0,000 mm 0,0 UV-I 0 W/m² 4,9 °C 5,8 °C 0,0 km/h (0 Bft)
04.10.2018 06:00 5,8 °C 94 % 1025,8 hPa 0,0 mm 0,0 km/h (0 Bft) S-SW 202 ° 0 min 0,000 mm 0,0 UV-I 0 W/m² 4,9 °C 5,8 °C 0,0 km/h (0 Bft)
04.10.2018 06:01 5,8 °C 94 % 1025,8 hPa 0,0 mm 0,0 km/h (0 Bft) S-SW 202 ° 0 min 0,000 mm 0,0 UV-I 0 W/m² 4,9 °C 5,8 °C 0,0 km/h (0 Bft)
04.10.2018 06:02 5,9 °C 94 % 1025,9 hPa 0,0 mm 0,0 km/h (0 Bft) S-SW 202 ° 0 min 0,000 mm 0,0 UV-I 0 W/m² 5,0 °C 5,9 °C 0,0 km/h (0 Bft)
04.10.2018 06:03 5,9 °C 94 % 1025,8 hPa 0,0 mm 0,0 km/h (0 Bft) S-SW 202 ° 0 min 0,000 mm 0,0 UV-I 0 W/m² 5,0 °C 5,9 °C 0,0 km/h (0 Bft)
04.10.2018 06:04 5,9 °C 94 % 1025,8 hPa 0,0 mm 0,0 km/h (0 Bft) S-SW 202 ° 0 min 0,000 mm 0,0 UV-I 0 W/m² 5,0 °C 5,9 °C 0,0 km/h (0 Bft)
04.10.2018 06:05 5,9 °C 93 % 1025,9 hPa 0,0 mm 0,0 km/h (0 Bft) S-SW 202 ° 0 min 0,000 mm 0,0 UV-I 0 W/m² 4,9 °C 5,9 °C 0,0 km/h (0 Bft)
04.10.2018 06:06 5,9 °C 93 % 1025,9 hPa 0,0 mm 0,0 km/h (0 Bft) S-SW 202 ° 0 min 0,000 mm 0,0 UV-I 0 W/m² 4,9 °C 5,9 °C 0,0 km/h (0 Bft)
04.10.2018 06:07 5,8 °C 93 % 1025,9 hPa 0,0 mm 0,0 km/h (0 Bft) S-SW 202 ° 0 min 0,000 mm 0,0 UV-I 0 W/m² 4,8 °C 5,8 °C 0,0 km/h (0 Bft)
04.10.2018 06:08 5,8 °C 93 % 1025,9 hPa 0,0 mm 0,0 km/h (0 Bft) S-SW 202 ° 0 min 0,000 mm 0,0 UV-I 0 W/m² 4,8 °C 5,8 °C 0,0 km/h (0 Bft)
04.10.2018 06:09 5,8 °C 93 % 1025,9 hPa 0,0 mm 0,0 km/h (0 Bft) S-SW 202 ° 0 min 0,000 mm 0,0 UV-I 0 W/m² 4,8 °C 5,8 °C 0,0 km/h (0 Bft)
04.10.2018 06:10 5,8 °C 93 % 1025,9 hPa 0,0 mm 0,0 km/h (0 Bft) S-SW 202 ° 0 min 0,000 mm 0,0 UV-I 0 W/m² 4,8 °C 5,8 °C 0,0 km/h (0 Bft)
04.10.2018 06:11 5,8 °C 93 % 1025,9 hPa 0,0 mm 0,0 km/h (0 Bft) S-SW 202 ° 0 min 0,000 mm 0,0 UV-I 0 W/m² 4,8 °C 5,8 °C 0,0 km/h (0 Bft)
04.10.2018 06:12 5,8 °C 93 % 1025,8 hPa 0,0 mm 0,0 km/h (0 Bft) S-SW 202 ° 0 min 0,000 mm 0,0 UV-I 0 W/m² 4,8 °C 5,8 °C 0,0 km/h (0 Bft)
04.10.2018 06:13 5,8 °C 94 % 1025,9 hPa 0,0 mm 0,0 km/h (0 Bft) S-SW 202 ° 0 min 0,000 mm 0,0 UV-I 0 W/m² 4,9 °C 5,8 °C 0,0 km/h (0 Bft)
04.10.2018 06:14 5,9 °C 94 % 1025,8 hPa 0,0 mm 0,0 km/h (0 Bft) S-SW 202 ° 0 min 0,000 mm 0,0 UV-I 0 W/m² 5,0 °C 5,9 °C 0,0 km/h (0 Bft)
04.10.2018 06:15 5,9 °C 94 % 1025,8 hPa 0,0 mm 0,0 km/h (0 Bft) S-SW 202 ° 0 min 0,000 mm 0,0 UV-I 0 W/m² 5,0 °C 5,9 °C 0,0 km/h (0 Bft)
04.10.2018 06:16 5,9 °C 94 % 1025,8 hPa 0,0 mm 0,0 km/h (0 Bft) S-SW 202 ° 0 min 0,000 mm 0,0 UV-I 0 W/m² 5,0 °C 5,9 °C 0,0 km/h (0 Bft)
04.10.2018 06:17 6,0 °C 94 % 1025,8 hPa 0,0 mm 0,0 km/h (0 Bft) S-SW 202 ° 0 min 0,000 mm 0,0 UV-I 0 W/m² 5,1 °C 6,0 °C 0,0 km/h (0 Bft)
04.10.2018 06:18 5,9 °C 94 % 1025,8 hPa 0,0 mm 0,0 km/h (0 Bft) S-SW 202 ° 0 min 0,000 mm 0,0 UV-I 0 W/m² 5,0 °C 5,9 °C 0,0 km/h (0 Bft)
04.10.2018 06:19 5,9 °C 94 % 1025,8 hPa 0,0 mm 0,0 km/h (0 Bft) S-SW 202 ° 0 min 0,000 mm 0,0 UV-I 0 W/m² 5,0 °C 5,9 °C 0,0 km/h (0 Bft)
04.10.2018 06:20 6,0 °C 94 % 1025,8 hPa 0,0 mm 0,0 km/h (0 Bft) S-SW 202 ° 0 min 0,000 mm 0,0 UV-I 0 W/m² 5,1 °C 6,0 °C 0,0 km/h (0 Bft)
04.10.2018 06:21 6,0 °C 94 % 1025,8 hPa 0,0 mm 0,0 km/h (0 Bft) S-SW 202 ° 0 min 0,000 mm 0,0 UV-I 0 W/m² 5,1 °C 6,0 °C 0,0 km/h (0 Bft)
04.10.2018 06:22 6,0 °C 94 % 1025,8 hPa 0,0 mm 0,0 km/h (0 Bft) S-SW 202 ° 0 min 0,000 mm 0,0 UV-I 0 W/m² 5,1 °C 6,0 °C 0,0 km/h (0 Bft)
04.10.2018 06:23 6,0 °C 94 % 1025,8 hPa 0,0 mm 0,0 km/h (0 Bft) S-SW 202 ° 0 min 0,000 mm 0,0 UV-I 0 W/m² 5,1 °C 6,0 °C 0,0 km/h (0 Bft)
04.10.2018 06:24 6,1 °C 94 % 1025,8 hPa 0,0 mm 0,0 km/h (0 Bft) S-SW 202 ° 0 min 0,000 mm 0,0 UV-I 0 W/m² 5,2 °C 6,1 °C 0,0 km/h (0 Bft)
04.10.2018 06:25 6,1 °C 94 % 1025,8 hPa 0,0 mm 0,0 km/h (0 Bft) S-SW 202 ° 0 min 0,000 mm 0,0 UV-I 0 W/m² 5,2 °C 6,1 °C 0,0 km/h (0 Bft)
04.10.2018 06:26 6,2 °C 94 % 1025,8 hPa 0,0 mm 0,0 km/h (0 Bft) S-SW 202 ° 0 min 0,000 mm 0,0 UV-I 0 W/m² 5,3 °C 6,2 °C 0,0 km/h (0 Bft)
04.10.2018 06:27 6,2 °C 94 % 1025,8 hPa 0,0 mm 0,0 km/h (0 Bft) S-SW 202 ° 0 min 0,000 mm 0,0 UV-I 0 W/m² 5,3 °C 6,2 °C 0,0 km/h (0 Bft)
04.10.2018 06:28 6,2 °C 94 % 1025,8 hPa 0,0 mm 0,0 km/h (0 Bft) S-SW 202 ° 0 min 0,000 mm 0,0 UV-I 0 W/m² 5,3 °C 6,2 °C 0,0 km/h (0 Bft)
04.10.2018 06:29 6,2 °C 94 % 1025,8 hPa 0,0 mm 0,0 km/h (0 Bft) S-SW 202 ° 0 min 0,000 mm 0,0 UV-I 0 W/m² 5,3 °C 6,2 °C 0,0 km/h (0 Bft)
04.10.2018 06:30 6,2 °C 94 % 1025,7 hPa 0,0 mm 0,0 km/h (0 Bft) S-SW 202 ° 0 min 0,000 mm 0,0 UV-I 0 W/m² 5,3 °C 6,2 °C 0,0 km/h (0 Bft)
04.10.2018 06:31 6,2 °C 94 % 1025,7 hPa 0,0 mm 0,0 km/h (0 Bft) S-SW 202 ° 0 min 0,000 mm 0,0 UV-I 0 W/m² 5,3 °C 6,2 °C 0,0 km/h (0 Bft)
04.10.2018 06:32 6,2 °C 94 % 1025,7 hPa 0,0 mm 0,0 km/h (0 Bft) S-SW 202 ° 0 min 0,000 mm 0,0 UV-I 0 W/m² 5,3 °C 6,2 °C 0,0 km/h (0 Bft)
04.10.2018 06:33 6,2 °C 94 % 1025,7 hPa 0,0 mm 0,0 km/h (0 Bft) S-SW 202 ° 0 min 0,000 mm 0,0 UV-I 0 W/m² 5,3 °C 6,2 °C 0,0 km/h (0 Bft)
04.10.2018 06:34 6,2 °C 94 % 1025,7 hPa 0,0 mm 0,0 km/h (0 Bft) S-SW 202 ° 0 min 0,000 mm 0,0 UV-I 0 W/m² 5,3 °C 6,2 °C 0,0 km/h (0 Bft)
04.10.2018 06:35 6,2 °C 94 % 1025,7 hPa 0,0 mm 0,0 km/h (0 Bft) S-SW 202 ° 0 min 0,000 mm 0,0 UV-I 0 W/m² 5,3 °C 6,2 °C 0,0 km/h (0 Bft)
04.10.2018 06:36 6,2 °C 94 % 1025,7 hPa 0,0 mm 0,0 km/h (0 Bft) S-SW 202 ° 0 min 0,000 mm 0,0 UV-I 0 W/m² 5,3 °C 6,2 °C 0,0 km/h (0 Bft)
04.10.2018 06:37 6,2 °C 94 % 1025,7 hPa 0,0 mm 0,0 km/h (0 Bft) S-SW 202 ° 0 min 0,000 mm 0,0 UV-I 0 W/m² 5,3 °C 6,2 °C 0,0 km/h (0 Bft)
04.10.2018 06:38 6,2 °C 94 % 1025,7 hPa 0,0 mm 0,0 km/h (0 Bft) S-SW 202 ° 0 min 0,000 mm 0,0 UV-I 0 W/m² 5,3 °C 6,2 °C 0,0 km/h (0 Bft)
04.10.2018 06:39 6,2 °C 94 % 1025,7 hPa 0,0 mm 0,0 km/h (0 Bft) S-SW 202 ° 0 min 0,000 mm 0,0 UV-I 0 W/m² 5,3 °C 6,2 °C 0,0 km/h (0 Bft)
04.10.2018 06:40 6,2 °C 94 % 1025,7 hPa 0,0 mm 0,0 km/h (0 Bft) S-SW 202 ° 0 min 0,000 mm 0,0 UV-I 0 W/m² 5,3 °C 6,2 °C 0,0 km/h (0 Bft)
04.10.2018 06:41 6,2 °C 94 % 1025,7 hPa 0,0 mm 0,0 km/h (0 Bft) S-SW 202 ° 0 min 0,000 mm 0,0 UV-I 0 W/m² 5,3 °C 6,2 °C 0,0 km/h (0 Bft)
04.10.2018 06:42 6,1 °C 94 % 1025,7 hPa 0,0 mm 0,0 km/h (0 Bft) S-SW 202 ° 0 min 0,000 mm 0,0 UV-I 0 W/m² 5,2 °C 6,1 °C 0,0 km/h (0 Bft)
04.10.2018 06:43 6,1 °C 94 % 1025,6 hPa 0,0 mm 0,0 km/h (0 Bft) S-SW 202 ° 0 min 0,000 mm 0,0 UV-I 0 W/m² 5,2 °C 6,1 °C 0,0 km/h (0 Bft)
04.10.2018 06:44 6,1 °C 94 % 1025,6 hPa 0,0 mm 0,0 km/h (0 Bft) S-SW 202 ° 0 min 0,000 mm 0,0 UV-I 0 W/m² 5,2 °C 6,1 °C 0,0 km/h (0 Bft)
04.10.2018 06:45 6,1 °C 94 % 1025,7 hPa 0,0 mm 0,0 km/h (0 Bft) S-SW 202 ° 0 min 0,000 mm 0,0 UV-I 0 W/m² 5,2 °C 6,1 °C 0,0 km/h (0 Bft)
04.10.2018 06:46 6,1 °C 94 % 1025,7 hPa 0,0 mm 0,0 km/h (0 Bft) S-SW 202 ° 0 min 0,000 mm 0,0 UV-I 0 W/m² 5,2 °C 6,1 °C 0,0 km/h (0 Bft)
04.10.2018 06:47 6,1 °C 94 % 1025,7 hPa 0,0 mm 0,0 km/h (0 Bft) S-SW 202 ° 0 min 0,000 mm 0,0 UV-I 0 W/m² 5,2 °C 6,1 °C 0,0 km/h (0 Bft)
04.10.2018 06:48 6,0 °C 94 % 1025,7 hPa 0,0 mm 0,0 km/h (0 Bft) S-SW 202 ° 0 min 0,000 mm 0,0 UV-I 0 W/m² 5,1 °C 6,0 °C 0,0 km/h (0 Bft)
04.10.2018 06:49 5,8 °C 94 % 1025,6 hPa 0,0 mm 0,0 km/h (0 Bft) S-SW 202 ° 0 min 0,000 mm 0,0 UV-I 0 W/m² 4,9 °C 5,8 °C 0,0 km/h (0 Bft)
04.10.2018 06:50 5,8 °C 94 % 1025,6 hPa 0,0 mm 0,0 km/h (0 Bft) S-SW 202 ° 0 min 0,000 mm 0,0 UV-I 0 W/m² 4,9 °C 5,8 °C 0,0 km/h (0 Bft)
04.10.2018 06:51 5,7 °C 93 % 1025,7 hPa 0,0 mm 0,0 km/h (0 Bft) S-SW 202 ° 0 min 0,000 mm 0,0 UV-I 0 W/m² 4,7 °C 5,7 °C 0,0 km/h (0 Bft)
04.10.2018 06:52 5,6 °C 94 % 1025,6 hPa 0,0 mm 0,0 km/h (0 Bft) S-SW 202 ° 0 min 0,000 mm 0,0 UV-I 0 W/m² 4,7 °C 5,6 °C 0,0 km/h (0 Bft)
04.10.2018 06:53 5,6 °C 94 % 1025,7 hPa 0,0 mm 0,0 km/h (0 Bft) S-SW 202 ° 0 min 0,000 mm 0,0 UV-I 0 W/m² 4,7 °C 5,6 °C 0,0 km/h (0 Bft)
04.10.2018 06:54 5,5 °C 93 % 1025,7 hPa 0,0 mm 0,0 km/h (0 Bft) S-SW 202 ° 0 min 0,000 mm 0,0 UV-I 0 W/m² 4,5 °C 5,5 °C 0,0 km/h (0 Bft)
04.10.2018 06:55 5,4 °C 93 % 1025,6 hPa 0,0 mm 0,0 km/h (0 Bft) S-SW 202 ° 0 min 0,000 mm 0,0 UV-I 0 W/m² 4,4 °C 5,4 °C 0,0 km/h (0 Bft)
04.10.2018 06:56 5,4 °C 93 % 1025,6 hPa 0,0 mm 0,0 km/h (0 Bft) S-SW 202 ° 0 min 0,000 mm 0,0 UV-I 0 W/m² 4,4 °C 5,4 °C 0,0 km/h (0 Bft)
04.10.2018 06:57 5,4 °C 94 % 1025,7 hPa 0,0 mm 0,0 km/h (0 Bft) S-SW 202 ° 0 min 0,000 mm 0,0 UV-I 0 W/m² 4,5 °C 5,4 °C 0,0 km/h (0 Bft)
04.10.2018 06:58 5,5 °C 94 % 1025,7 hPa 0,0 mm 0,0 km/h (0 Bft) S-SW 202 ° 0 min 0,000 mm 0,0 UV-I 0 W/m² 4,6 °C 5,5 °C 0,0 km/h (0 Bft)
04.10.2018 06:59 5,5 °C 94 % 1025,7 hPa 0,0 mm 0,0 km/h (0 Bft) S-SW 202 ° 0 min 0,000 mm 0,0 UV-I 0 W/m² 4,6 °C 5,5 °C 0,0 km/h (0 Bft)
04.10.2018 07:00 5,5 °C 94 % 1025,7 hPa 0,0 mm 0,0 km/h (0 Bft) S-SW 202 ° 0 min 0,000 mm 0,0 UV-I 0 W/m² 4,6 °C 5,5 °C 0,0 km/h (0 Bft)
04.10.2018 07:01 5,5 °C 94 % 1025,7 hPa 0,0 mm 0,0 km/h (0 Bft) S-SW 202 ° 0 min 0,000 mm 0,0 UV-I 0 W/m² 4,6 °C 5,5 °C 0,0 km/h (0 Bft)
04.10.2018 07:02 5,6 °C 94 % 1025,6 hPa 0,0 mm 0,0 km/h (0 Bft) S-SW 202 ° 0 min 0,000 mm 0,0 UV-I 0 W/m² 4,7 °C 5,6 °C 0,0 km/h (0 Bft)
04.10.2018 07:03 5,6 °C 94 % 1025,7 hPa 0,0 mm 0,0 km/h (0 Bft) S-SW 202 ° 0 min 0,000 mm 0,0 UV-I 0 W/m² 4,7 °C 5,6 °C 0,0 km/h (0 Bft)
04.10.2018 07:04 5,6 °C 94 % 1025,6 hPa 0,0 mm 0,0 km/h (0 Bft) S-SW 202 ° 0 min 0,000 mm 0,0 UV-I 0 W/m² 4,7 °C 5,6 °C 0,0 km/h (0 Bft)
04.10.2018 07:05 5,6 °C 94 % 1025,7 hPa 0,0 mm 0,0 km/h (0 Bft) S-SW 202 ° 0 min 0,000 mm 0,0 UV-I 0 W/m² 4,7 °C 5,6 °C 0,0 km/h (0 Bft)
04.10.2018 07:06 5,6 °C 94 % 1025,8 hPa 0,0 mm 0,0 km/h (0 Bft) S-SW 202 ° 0 min 0,000 mm 0,0 UV-I 0 W/m² 4,7 °C 5,6 °C 0,0 km/h (0 Bft)
04.10.2018 07:07 5,4 °C 94 % 1025,8 hPa 0,0 mm 0,0 km/h (0 Bft) S-SW 202 ° 0 min 0,000 mm 0,0 UV-I 0 W/m² 4,5 °C 5,4 °C 0,0 km/h (0 Bft)
04.10.2018 07:08 5,4 °C 94 % 1025,8 hPa 0,0 mm 0,0 km/h (0 Bft) S-SW 202 ° 0 min 0,000 mm 0,0 UV-I 0 W/m² 4,5 °C 5,4 °C 0,0 km/h (0 Bft)
04.10.2018 07:09 5,4 °C 94 % 1025,8 hPa 0,0 mm 0,0 km/h (0 Bft) S-SW 202 ° 0 min 0,000 mm 0,0 UV-I 0 W/m² 4,5 °C 5,4 °C 0,0 km/h (0 Bft)
04.10.2018 07:10 5,3 °C 94 % 1025,8 hPa 0,0 mm 0,0 km/h (0 Bft) S-SW 202 ° 0 min 0,000 mm 0,0 UV-I 0 W/m² 4,4 °C 5,3 °C 0,0 km/h (0 Bft)
04.10.2018 07:11 5,3 °C 94 % 1025,8 hPa 0,0 mm 0,0 km/h (0 Bft) S-SW 202 ° 0 min 0,000 mm 0,0 UV-I 0 W/m² 4,4 °C 5,3 °C 0,0 km/h (0 Bft)
04.10.2018 07:12 5,3 °C 94 % 1025,7 hPa 0,0 mm 0,0 km/h (0 Bft) S-SW 202 ° 0 min 0,000 mm 0,0 UV-I 0 W/m² 4,4 °C 5,3 °C 0,0 km/h (0 Bft)
04.10.2018 07:13 5,3 °C 94 % 1025,7 hPa 0,0 mm 0,0 km/h (0 Bft) S-SW 202 ° 0 min 0,000 mm 0,0 UV-I 0 W/m² 4,4 °C 5,3 °C 0,0 km/h (0 Bft)
04.10.2018 07:14 5,4 °C 94 % 1025,7 hPa 0,0 mm 0,0 km/h (0 Bft) S-SW 202 ° 0 min 0,000 mm 0,0 UV-I 0 W/m² 4,5 °C 5,4 °C 0,0 km/h (0 Bft)
04.10.2018 07:15 5,5 °C 94 % 1025,7 hPa 0,0 mm 0,0 km/h (0 Bft) S-SW 202 ° 0 min 0,000 mm 0,0 UV-I 0 W/m² 4,6 °C 5,5 °C 0,0 km/h (0 Bft)
04.10.2018 07:16 5,5 °C 94 % 1025,7 hPa 0,0 mm 0,0 km/h (0 Bft) S-SW 202 ° 0 min 0,000 mm 0,0 UV-I 0 W/m² 4,6 °C 5,5 °C 0,0 km/h (0 Bft)
04.10.2018 07:17 5,6 °C 94 % 1025,7 hPa 0,0 mm 0,0 km/h (0 Bft) S-SW 202 ° 0 min 0,000 mm 0,0 UV-I 0 W/m² 4,7 °C 5,6 °C 0,0 km/h (0 Bft)
04.10.2018 07:18 5,6 °C 94 % 1025,7 hPa 0,0 mm 0,0 km/h (0 Bft) S-SW 202 ° 0 min 0,000 mm 0,0 UV-I 0 W/m² 4,7 °C 5,6 °C 0,0 km/h (0 Bft)
04.10.2018 07:19 5,4 °C 94 % 1025,8 hPa 0,0 mm 0,0 km/h (0 Bft) S-SW 202 ° 0 min 0,000 mm 0,0 UV-I 0 W/m² 4,5 °C 5,4 °C 0,0 km/h (0 Bft)
04.10.2018 07:20 5,4 °C 94 % 1025,8 hPa 0,0 mm 0,0 km/h (0 Bft) S-SW 202 ° 0 min 0,000 mm 0,0 UV-I 0 W/m² 4,5 °C 5,4 °C 0,0 km/h (0 Bft)
04.10.2018 07:21 5,3 °C 94 % 1025,8 hPa 0,0 mm 0,0 km/h (0 Bft) S-SW 202 ° 0 min 0,000 mm 0,0 UV-I 0 W/m² 4,4 °C 5,3 °C 0,0 km/h (0 Bft)
04.10.2018 07:22 5,3 °C 94 % 1025,8 hPa 0,0 mm 0,0 km/h (0 Bft) S-SW 202 ° 0 min 0,000 mm 0,0 UV-I 0 W/m² 4,4 °C 5,3 °C 0,0 km/h (0 Bft)
04.10.2018 07:23 5,3 °C 94 % 1025,8 hPa 0,0 mm 0,0 km/h (0 Bft) S-SW 202 ° 0 min 0,000 mm 0,0 UV-I 5 W/m² 4,4 °C 5,3 °C 0,0 km/h (0 Bft)
04.10.2018 07:24 5,4 °C 94 % 1025,8 hPa 0,0 mm 0,0 km/h (0 Bft) S-SW 202 ° 0 min 0,000 mm 0,0 UV-I 5 W/m² 4,5 °C 5,4 °C 0,0 km/h (0 Bft)
04.10.2018 07:25 5,3 °C 94 % 1025,8 hPa 0,0 mm 0,0 km/h (0 Bft) S-SW 202 ° 0 min 0,000 mm 0,0 UV-I 5 W/m² 4,4 °C 5,3 °C 0,0 km/h (0 Bft)
04.10.2018 07:26 5,3 °C 94 % 1025,8 hPa 0,0 mm 0,0 km/h (0 Bft) S-SW 202 ° 0 min 0,000 mm 0,0 UV-I 5 W/m² 4,4 °C 5,3 °C 0,0 km/h (0 Bft)
04.10.2018 07:27 5,2 °C 94 % 1025,8 hPa 0,0 mm 0,0 km/h (0 Bft) S-SW 202 ° 0 min 0,000 mm 0,0 UV-I 5 W/m² 4,3 °C 5,2 °C 0,0 km/h (0 Bft)
04.10.2018 07:28 5,2 °C 94 % 1025,8 hPa 0,0 mm 0,0 km/h (0 Bft) S-SW 202 ° 0 min 0,000 mm 0,0 UV-I 5 W/m² 4,3 °C 5,2 °C 0,0 km/h (0 Bft)
04.10.2018 07:29 5,2 °C 94 % 1025,8 hPa 0,0 mm 0,0 km/h (0 Bft) S-SW 202 ° 0 min 0,000 mm 0,0 UV-I 7 W/m² 4,3 °C 5,2 °C 0,0 km/h (0 Bft)
04.10.2018 07:30 5,1 °C 94 % 1025,8 hPa 0,0 mm 0,0 km/h (0 Bft) S-SW 202 ° 0 min 0,000 mm 0,0 UV-I 7 W/m² 4,2 °C 5,1 °C 0,0 km/h (0 Bft)
04.10.2018 07:31 5,1 °C 94 % 1025,8 hPa 0,0 mm 0,0 km/h (0 Bft) S-SW 202 ° 0 min 0,000 mm 0,0 UV-I 7 W/m² 4,2 °C 5,1 °C 0,0 km/h (0 Bft)
04.10.2018 07:32 5,1 °C 94 % 1025,8 hPa 0,0 mm 0,7 km/h (0 Bft) S-SW 202 ° 0 min 0,000 mm 0,0 UV-I 7 W/m² 4,2 °C 5,1 °C 1,6 km/h (1 Bft)
04.10.2018 07:33 5,0 °C 94 % 1025,8 hPa 0,0 mm 0,0 km/h (0 Bft) S-SW 202 ° 0 min 0,000 mm 0,0 UV-I 9 W/m² 4,1 °C 5,0 °C 0,0 km/h (0 Bft)
04.10.2018 07:34 5,0 °C 94 % 1025,8 hPa 0,0 mm 0,0 km/h (0 Bft) S-SW 202 ° 0 min 0,000 mm 0,0 UV-I 9 W/m² 4,1 °C 5,0 °C 0,0 km/h (0 Bft)
04.10.2018 07:35 4,9 °C 94 % 1025,8 hPa 0,0 mm 0,0 km/h (0 Bft) S-SW 202 ° 0 min 0,000 mm 0,0 UV-I 12 W/m² 4,0 °C 4,9 °C 0,0 km/h (0 Bft)
04.10.2018 07:36 5,1 °C 94 % 1025,9 hPa 0,0 mm 0,0 km/h (0 Bft) S-SW 202 ° 0 min 0,000 mm 0,0 UV-I 12 W/m² 4,2 °C 5,1 °C 0,0 km/h (0 Bft)
04.10.2018 07:37 5,1 °C 94 % 1025,9 hPa 0,0 mm 0,0 km/h (0 Bft) S-SW 202 ° 0 min 0,000 mm 0,0 UV-I 12 W/m² 4,2 °C 5,1 °C 0,0 km/h (0 Bft)
04.10.2018 07:38 5,1 °C 94 % 1025,9 hPa 0,0 mm 0,0 km/h (0 Bft) S-SW 202 ° 0 min 0,000 mm 0,0 UV-I 12 W/m² 4,2 °C 5,1 °C 0,0 km/h (0 Bft)
04.10.2018 07:39 5,1 °C 94 % 1025,8 hPa 0,0 mm 0,0 km/h (0 Bft) S-SW 202 ° 0 min 0,000 mm 0,0 UV-I 12 W/m² 4,2 °C 5,1 °C 0,0 km/h (0 Bft)
04.10.2018 07:40 4,9 °C 94 % 1025,8 hPa 0,0 mm 0,0 km/h (0 Bft) S-SW 202 ° 0 min 0,000 mm 0,0 UV-I 12 W/m² 4,0 °C 4,9 °C 0,0 km/h (0 Bft)
04.10.2018 07:41 4,9 °C 94 % 1025,8 hPa 0,0 mm 0,0 km/h (0 Bft) S-SW 202 ° 0 min 0,000 mm 0,0 UV-I 12 W/m² 4,0 °C 4,9 °C 0,0 km/h (0 Bft)
04.10.2018 07:42 4,8 °C 94 % 1025,8 hPa 0,0 mm 0,0 km/h (0 Bft) S-SW 202 ° 0 min 0,000 mm 0,0 UV-I 12 W/m² 3,9 °C 4,8 °C 0,0 km/h (0 Bft)
04.10.2018 07:43 4,8 °C 94 % 1025,8 hPa 0,0 mm 0,0 km/h (0 Bft) S-SW 202 ° 0 min 0,000 mm 0,0 UV-I 12 W/m² 3,9 °C 4,8 °C 0,0 km/h (0 Bft)
04.10.2018 07:44 4,9 °C 94 % 1025,8 hPa 0,0 mm 0,0 km/h (0 Bft) S-SW 202 ° 0 min 0,000 mm 0,0 UV-I 12 W/m² 4,0 °C 4,9 °C 0,0 km/h (0 Bft)
04.10.2018 07:45 4,9 °C 94 % 1025,8 hPa 0,0 mm 0,0 km/h (0 Bft) S-SW 202 ° 0 min 0,000 mm 0,0 UV-I 12 W/m² 4,0 °C 4,9 °C 0,0 km/h (0 Bft)
04.10.2018 07:46 5,1 °C 94 % 1025,8 hPa 0,0 mm 0,0 km/h (0 Bft) S-SW 202 ° 0 min 0,000 mm 0,0 UV-I 14 W/m² 4,2 °C 5,1 °C 0,0 km/h (0 Bft)
04.10.2018 07:47 5,1 °C 95 % 1025,7 hPa 0,0 mm 0,0 km/h (0 Bft) S-SW 202 ° 0 min 0,000 mm 0,0 UV-I 16 W/m² 4,4 °C 5,1 °C 0,0 km/h (0 Bft)
04.10.2018 07:48 5,2 °C 94 % 1025,8 hPa 0,0 mm 0,0 km/h (0 Bft) S-SW 202 ° 0 min 0,000 mm 0,0 UV-I 16 W/m² 4,3 °C 5,2 °C 0,0 km/h (0 Bft)
04.10.2018 07:49 5,2 °C 95 % 1025,8 hPa 0,0 mm 0,0 km/h (0 Bft) S-SW 202 ° 0 min 0,000 mm 0,0 UV-I 16 W/m² 4,5 °C 5,2 °C 0,0 km/h (0 Bft)
04.10.2018 07:50 4,9 °C 94 % 1025,8 hPa 0,0 mm 0,0 km/h (0 Bft) S-SW 202 ° 0 min 0,000 mm 0,0 UV-I 18 W/m² 4,0 °C 4,9 °C 0,0 km/h (0 Bft)
04.10.2018 07:51 4,8 °C 94 % 1025,8 hPa 0,0 mm 0,0 km/h (0 Bft) S-SW 202 ° 0 min 0,000 mm 0,0 UV-I 19 W/m² 3,9 °C 4,8 °C 0,0 km/h (0 Bft)
04.10.2018 07:52 4,6 °C 94 % 1025,8 hPa 0,0 mm 0,0 km/h (0 Bft) S-SW 202 ° 0 min 0,000 mm 0,0 UV-I 19 W/m² 3,7 °C 4,6 °C 0,0 km/h (0 Bft)
04.10.2018 07:53 4,6 °C 94 % 1025,9 hPa 0,0 mm 0,0 km/h (0 Bft) S-SW 202 ° 0 min 0,000 mm 0,0 UV-I 19 W/m² 3,7 °C 4,6 °C 0,0 km/h (0 Bft)
04.10.2018 07:54 4,6 °C 94 % 1025,8 hPa 0,0 mm 0,0 km/h (0 Bft) S-SW 202 ° 0 min 0,000 mm 0,0 UV-I 19 W/m² 3,7 °C 4,6 °C 0,0 km/h (0 Bft)
04.10.2018 07:55 4,5 °C 94 % 1025,8 hPa 0,0 mm 0,0 km/h (0 Bft) S-SW 202 ° 0 min 0,000 mm 0,0 UV-I 21 W/m² 3,6 °C 4,5 °C 0,0 km/h (0 Bft)
04.10.2018 07:56 4,6 °C 94 % 1025,8 hPa 0,0 mm 0,0 km/h (0 Bft) S-SW 202 ° 0 min 0,000 mm 0,0 UV-I 23 W/m² 3,7 °C 4,6 °C 0,0 km/h (0 Bft)
04.10.2018 07:57 4,6 °C 94 % 1025,8 hPa 0,0 mm 0,0 km/h (0 Bft) S-SW 202 ° 0 min 0,000 mm 0,0 UV-I 23 W/m² 3,7 °C 4,6 °C 0,0 km/h (0 Bft)
04.10.2018 07:58 4,6 °C 94 % 1025,8 hPa 0,0 mm 0,0 km/h (0 Bft) S-SW 202 ° 0 min 0,000 mm 0,0 UV-I 25 W/m² 3,7 °C 4,6 °C 0,0 km/h (0 Bft)
04.10.2018 07:59 4,7 °C 94 % 1025,8 hPa 0,0 mm 0,0 km/h (0 Bft) S-SW 202 ° 0 min 0,000 mm 0,0 UV-I 23 W/m² 3,8 °C 4,7 °C 0,0 km/h (0 Bft)
04.10.2018 08:00 4,7 °C 94 % 1025,8 hPa 0,0 mm 0,0 km/h (0 Bft) S-SW 202 ° 0 min 0,000 mm 0,0 UV-I 21 W/m² 3,8 °C 4,7 °C 0,0 km/h (0 Bft)
04.10.2018 08:01 4,7 °C 94 % 1025,8 hPa 0,0 mm 0,0 km/h (0 Bft) S-SW 202 ° 0 min 0,000 mm 0,0 UV-I 21 W/m² 3,8 °C 4,7 °C 0,0 km/h (0 Bft)
04.10.2018 08:02 4,8 °C 94 % 1025,8 hPa 0,0 mm 0,0 km/h (0 Bft) S-SW 202 ° 0 min 0,000 mm 0,0 UV-I 19 W/m² 3,9 °C 4,8 °C 0,0 km/h (0 Bft)
04.10.2018 08:03 4,8 °C 94 % 1025,8 hPa 0,0 mm 0,0 km/h (0 Bft) S-SW 202 ° 0 min 0,000 mm 0,0 UV-I 19 W/m² 3,9 °C 4,8 °C 0,0 km/h (0 Bft)
04.10.2018 08:04 4,7 °C 94 % 1025,8 hPa 0,0 mm 0,0 km/h (0 Bft) S-SW 202 ° 0 min 0,000 mm 0,0 UV-I 21 W/m² 3,8 °C 4,7 °C 0,0 km/h (0 Bft)
04.10.2018 08:05 4,7 °C 94 % 1025,8 hPa 0,0 mm 0,0 km/h (0 Bft) S-SW 202 ° 0 min 0,000 mm 0,0 UV-I 21 W/m² 3,8 °C 4,7 °C 0,0 km/h (0 Bft)
04.10.2018 08:06 4,7 °C 94 % 1025,8 hPa 0,0 mm 0,0 km/h (0 Bft) S-SW 202 ° 0 min 0,000 mm 0,0 UV-I 23 W/m² 3,8 °C 4,7 °C 0,0 km/h (0 Bft)
04.10.2018 08:07 4,7 °C 94 % 1025,9 hPa 0,0 mm 0,0 km/h (0 Bft) S-SW 202 ° 0 min 0,000 mm 0,0 UV-I 23 W/m² 3,8 °C 4,7 °C 0,0 km/h (0 Bft)
04.10.2018 08:08 4,7 °C 94 % 1025,8 hPa 0,0 mm 0,0 km/h (0 Bft) S-SW 202 ° 0 min 0,000 mm 0,0 UV-I 23 W/m² 3,8 °C 4,7 °C 0,0 km/h (0 Bft)
04.10.2018 08:09 4,7 °C 94 % 1025,8 hPa 0,0 mm 0,0 km/h (0 Bft) S-SW 202 ° 0 min 0,000 mm 0,0 UV-I 21 W/m² 3,8 °C 4,7 °C 0,0 km/h (0 Bft)
04.10.2018 08:10 4,8 °C 94 % 1025,8 hPa 0,0 mm 0,0 km/h (0 Bft) S-SW 202 ° 0 min 0,000 mm 0,0 UV-I 19 W/m² 3,9 °C 4,8 °C 0,0 km/h (0 Bft)
04.10.2018 08:11 4,8 °C 94 % 1025,8 hPa 0,0 mm 0,0 km/h (0 Bft) S-SW 202 ° 0 min 0,000 mm 0,0 UV-I 19 W/m² 3,9 °C 4,8 °C 0,0 km/h (0 Bft)
04.10.2018 08:12 4,8 °C 94 % 1025,8 hPa 0,0 mm 0,0 km/h (0 Bft) S-SW 202 ° 0 min 0,000 mm 0,0 UV-I 19 W/m² 3,9 °C 4,8 °C 0,0 km/h (0 Bft)
04.10.2018 08:13 4,8 °C 94 % 1025,8 hPa 0,0 mm 0,0 km/h (0 Bft) S-SW 202 ° 0 min 0,000 mm 0,0 UV-I 19 W/m² 3,9 °C 4,8 °C 0,0 km/h (0 Bft)
04.10.2018 08:14 4,8 °C 94 % 1025,8 hPa 0,0 mm 0,0 km/h (0 Bft) S-SW 202 ° 0 min 0,000 mm 0,0 UV-I 19 W/m² 3,9 °C 4,8 °C 0,0 km/h (0 Bft)
04.10.2018 08:15 4,8 °C 95 % 1025,9 hPa 0,0 mm 0,0 km/h (0 Bft) S-SW 202 ° 0 min 0,000 mm 0,0 UV-I 19 W/m² 4,1 °C 4,8 °C 0,0 km/h (0 Bft)
04.10.2018 08:16 4,9 °C 95 % 1025,9 hPa 0,0 mm 0,0 km/h (0 Bft) S-SW 202 ° 0 min 0,000 mm 0,0 UV-I 19 W/m² 4,2 °C 4,9 °C 0,0 km/h (0 Bft)
04.10.2018 08:17 4,9 °C 95 % 1025,8 hPa 0,0 mm 0,0 km/h (0 Bft) S-SW 202 ° 0 min 0,000 mm 0,0 UV-I 21 W/m² 4,2 °C 4,9 °C 0,0 km/h (0 Bft)
04.10.2018 08:18 5,0 °C 95 % 1025,9 hPa 0,0 mm 0,0 km/h (0 Bft) S-SW 202 ° 0 min 0,000 mm 0,0 UV-I 21 W/m² 4,3 °C 5,0 °C 0,0 km/h (0 Bft)
04.10.2018 08:19 5,1 °C 95 % 1025,9 hPa 0,0 mm 0,0 km/h (0 Bft) S-SW 202 ° 0 min 0,000 mm 0,0 UV-I 21 W/m² 4,4 °C 5,1 °C 0,0 km/h (0 Bft)
04.10.2018 08:20 5,2 °C 95 % 1025,9 hPa 0,0 mm 0,0 km/h (0 Bft) S-SW 202 ° 0 min 0,000 mm 0,0 UV-I 21 W/m² 4,5 °C 5,2 °C 0,0 km/h (0 Bft)
04.10.2018 08:21 5,2 °C 95 % 1025,9 hPa 0,0 mm 0,0 km/h (0 Bft) S-SW 202 ° 0 min 0,000 mm 0,0 UV-I 21 W/m² 4,5 °C 5,2 °C 0,0 km/h (0 Bft)
04.10.2018 08:22 5,3 °C 95 % 1026,0 hPa 0,0 mm 0,0 km/h (0 Bft) S-SW 202 ° 0 min 0,000 mm 0,0 UV-I 23 W/m² 4,6 °C 5,3 °C 0,0 km/h (0 Bft)
04.10.2018 08:23 5,3 °C 95 % 1025,9 hPa 0,0 mm 0,0 km/h (0 Bft) S-SW 202 ° 0 min 0,000 mm 0,0 UV-I 23 W/m² 4,6 °C 5,3 °C 0,0 km/h (0 Bft)
04.10.2018 08:24 5,3 °C 95 % 1025,9 hPa 0,0 mm 0,0 km/h (0 Bft) S-SW 202 ° 0 min 0,000 mm 0,0 UV-I 23 W/m² 4,6 °C 5,3 °C 0,0 km/h (0 Bft)
04.10.2018 08:25 5,3 °C 95 % 1025,9 hPa 0,0 mm 0,0 km/h (0 Bft) S-SW 202 ° 0 min 0,000 mm 0,0 UV-I 23 W/m² 4,6 °C 5,3 °C 0,0 km/h (0 Bft)
04.10.2018 08:26 5,4 °C 95 % 1025,9 hPa 0,0 mm 0,0 km/h (0 Bft) S-SW 202 ° 0 min 0,000 mm 0,0 UV-I 25 W/m² 4,7 °C 5,4 °C 0,0 km/h (0 Bft)
04.10.2018 08:27 5,4 °C 95 % 1026,0 hPa 0,0 mm 0,0 km/h (0 Bft) S-SW 202 ° 0 min 0,000 mm 0,0 UV-I 25 W/m² 4,7 °C 5,4 °C 0,0 km/h (0 Bft)
04.10.2018 08:28 5,5 °C 95 % 1025,9 hPa 0,0 mm 0,0 km/h (0 Bft) S-SW 202 ° 0 min 0,000 mm 0,0 UV-I 25 W/m² 4,8 °C 5,5 °C 0,0 km/h (0 Bft)
04.10.2018 08:29 5,6 °C 95 % 1025,9 hPa 0,0 mm 0,0 km/h (0 Bft) S-SW 202 ° 0 min 0,000 mm 0,0 UV-I 25 W/m² 4,9 °C 5,6 °C 0,0 km/h (0 Bft)
04.10.2018 08:30 5,6 °C 95 % 1025,9 hPa 0,0 mm 0,0 km/h (0 Bft) S-SW 202 ° 0 min 0,000 mm 0,0 UV-I 26 W/m² 4,9 °C 5,6 °C 0,0 km/h (0 Bft)
04.10.2018 08:31 5,6 °C 95 % 1026,0 hPa 0,0 mm 0,0 km/h (0 Bft) S-SW 202 ° 0 min 0,000 mm 0,0 UV-I 26 W/m² 4,9 °C 5,6 °C 0,0 km/h (0 Bft)
04.10.2018 08:32 5,7 °C 95 % 1026,0 hPa 0,0 mm 0,0 km/h (0 Bft) S-SW 202 ° 0 min 0,000 mm 0,0 UV-I 26 W/m² 5,0 °C 5,7 °C 0,0 km/h (0 Bft)
04.10.2018 08:33 5,7 °C 95 % 1026,0 hPa 0,0 mm 0,0 km/h (0 Bft) S-SW 202 ° 0 min 0,000 mm 0,0 UV-I 26 W/m² 5,0 °C 5,7 °C 0,0 km/h (0 Bft)
04.10.2018 08:34 5,8 °C 95 % 1026,0 hPa 0,0 mm 0,0 km/h (0 Bft) S-SW 202 ° 0 min 0,000 mm 0,0 UV-I 26 W/m² 5,1 °C 5,8 °C 0,0 km/h (0 Bft)
04.10.2018 08:35 5,8 °C 95 % 1026,0 hPa 0,0 mm 0,0 km/h (0 Bft) S-SW 202 ° 0 min 0,000 mm 0,0 UV-I 25 W/m² 5,1 °C 5,8 °C 0,0 km/h (0 Bft)
04.10.2018 08:36 5,9 °C 95 % 1026,0 hPa 0,0 mm 0,0 km/h (0 Bft) S-SW 202 ° 0 min 0,000 mm 0,0 UV-I 25 W/m² 5,2 °C 5,9 °C 0,0 km/h (0 Bft)
04.10.2018 08:37 5,9 °C 95 % 1026,0 hPa 0,0 mm 0,0 km/h (0 Bft) S-SW 202 ° 0 min 0,000 mm 0,0 UV-I 25 W/m² 5,2 °C 5,9 °C 0,0 km/h (0 Bft)
04.10.2018 08:38 5,9 °C 95 % 1026,0 hPa 0,0 mm 0,0 km/h (0 Bft) S-SW 202 ° 0 min 0,000 mm 0,0 UV-I 26 W/m² 5,2 °C 5,9 °C 0,0 km/h (0 Bft)
04.10.2018 08:39 6,0 °C 95 % 1026,0 hPa 0,0 mm 0,0 km/h (0 Bft) S-SW 202 ° 0 min 0,000 mm 0,0 UV-I 28 W/m² 5,3 °C 6,0 °C 0,0 km/h (0 Bft)
04.10.2018 08:40 6,0 °C 95 % 1026,0 hPa 0,0 mm 0,0 km/h (0 Bft) S-SW 202 ° 0 min 0,000 mm 0,0 UV-I 30 W/m² 5,3 °C 6,0 °C 0,0 km/h (0 Bft)
04.10.2018 08:41 6,1 °C 95 % 1026,0 hPa 0,0 mm 0,0 km/h (0 Bft) S-SW 202 ° 0 min 0,000 mm 0,0 UV-I 32 W/m² 5,4 °C 6,1 °C 0,0 km/h (0 Bft)
04.10.2018 08:42 6,1 °C 95 % 1026,0 hPa 0,0 mm 0,0 km/h (0 Bft) S-SW 202 ° 0 min 0,000 mm 0,0 UV-I 32 W/m² 5,4 °C 6,1 °C 0,0 km/h (0 Bft)
04.10.2018 08:43 6,1 °C 95 % 1026,0 hPa 0,0 mm 0,0 km/h (0 Bft) S-SW 202 ° 0 min 0,000 mm 0,0 UV-I 32 W/m² 5,4 °C 6,1 °C 0,0 km/h (0 Bft)
04.10.2018 08:44 6,2 °C 95 % 1026,0 hPa 0,0 mm 0,0 km/h (0 Bft) S-SW 202 ° 0 min 0,000 mm 0,0 UV-I 32 W/m² 5,5 °C 6,2 °C 0,0 km/h (0 Bft)
04.10.2018 08:45 6,2 °C 95 % 1026,1 hPa 0,0 mm 0,0 km/h (0 Bft) S-SW 202 ° 0 min 0,000 mm 0,0 UV-I 28 W/m² 5,5 °C 6,2 °C 0,0 km/h (0 Bft)
04.10.2018 08:46 6,2 °C 95 % 1026,0 hPa 0,0 mm 0,0 km/h (0 Bft) S-SW 202 ° 0 min 0,000 mm 0,0 UV-I 28 W/m² 5,5 °C 6,2 °C 0,0 km/h (0 Bft)
04.10.2018 08:47 6,2 °C 95 % 1026,1 hPa 0,0 mm 0,0 km/h (0 Bft) S-SW 202 ° 0 min 0,000 mm 0,0 UV-I 26 W/m² 5,5 °C 6,2 °C 0,0 km/h (0 Bft)
04.10.2018 08:48 6,2 °C 95 % 1026,1 hPa 0,0 mm 0,0 km/h (0 Bft) S-SW 202 ° 0 min 0,000 mm 0,0 UV-I 26 W/m² 5,5 °C 6,2 °C 0,0 km/h (0 Bft)
04.10.2018 08:49 6,2 °C 95 % 1026,1 hPa 0,0 mm 0,0 km/h (0 Bft) S-SW 202 ° 0 min 0,000 mm 0,0 UV-I 28 W/m² 5,5 °C 6,2 °C 0,0 km/h (0 Bft)
04.10.2018 08:50 6,2 °C 95 % 1026,1 hPa 0,0 mm 0,0 km/h (0 Bft) S-SW 202 ° 0 min 0,000 mm 0,0 UV-I 28 W/m² 5,5 °C 6,2 °C 0,0 km/h (0 Bft)
04.10.2018 08:51 6,2 °C 95 % 1026,1 hPa 0,0 mm 0,0 km/h (0 Bft) S-SW 202 ° 0 min 0,000 mm 0,0 UV-I 30 W/m² 5,5 °C 6,2 °C 0,0 km/h (0 Bft)
04.10.2018 08:52 6,2 °C 95 % 1026,1 hPa 0,0 mm 0,0 km/h (0 Bft) S-SW 202 ° 0 min 0,000 mm 0,0 UV-I 30 W/m² 5,5 °C 6,2 °C 0,0 km/h (0 Bft)
04.10.2018 08:53 6,2 °C 95 % 1026,1 hPa 0,0 mm 0,0 km/h (0 Bft) S-SW 202 ° 0 min 0,000 mm 0,0 UV-I 32 W/m² 5,5 °C 6,2 °C 0,0 km/h (0 Bft)
04.10.2018 08:54 6,2 °C 95 % 1026,1 hPa 0,0 mm 0,0 km/h (0 Bft) S-SW 202 ° 0 min 0,000 mm 0,0 UV-I 32 W/m² 5,5 °C 6,2 °C 0,0 km/h (0 Bft)
04.10.2018 08:55 6,2 °C 95 % 1026,2 hPa 0,0 mm 0,0 km/h (0 Bft) S-SW 202 ° 0 min 0,000 mm 0,0 UV-I 30 W/m² 5,5 °C 6,2 °C 0,0 km/h (0 Bft)
04.10.2018 08:56 6,3 °C 95 % 1026,1 hPa 0,0 mm 0,0 km/h (0 Bft) S-SW 202 ° 0 min 0,000 mm 0,0 UV-I 30 W/m² 5,6 °C 6,3 °C 0,0 km/h (0 Bft)
04.10.2018 08:57 6,3 °C 95 % 1026,1 hPa 0,0 mm 0,0 km/h (0 Bft) S-SW 202 ° 0 min 0,000 mm 0,0 UV-I 30 W/m² 5,6 °C 6,3 °C 0,0 km/h (0 Bft)
04.10.2018 08:58 6,4 °C 95 % 1026,1 hPa 0,0 mm 0,0 km/h (0 Bft) S-SW 202 ° 0 min 0,000 mm 0,0 UV-I 30 W/m² 5,7 °C 6,4 °C 0,0 km/h (0 Bft)
04.10.2018 08:59 6,4 °C 95 % 1026,1 hPa 0,0 mm 0,0 km/h (0 Bft) S-SW 202 ° 0 min 0,000 mm 0,0 UV-I 30 W/m² 5,7 °C 6,4 °C 0,0 km/h (0 Bft)
04.10.2018 09:00 6,4 °C 95 % 1026,2 hPa 0,0 mm 0,0 km/h (0 Bft) S-SW 202 ° 0 min 0,000 mm 0,0 UV-I 30 W/m² 5,7 °C 6,4 °C 0,0 km/h (0 Bft)
04.10.2018 09:01 6,4 °C 95 % 1026,1 hPa 0,0 mm 0,0 km/h (0 Bft) S-SW 202 ° 0 min 0,000 mm 0,0 UV-I 30 W/m² 5,7 °C 6,4 °C 0,0 km/h (0 Bft)
04.10.2018 09:02 6,4 °C 95 % 1026,1 hPa 0,0 mm 0,0 km/h (0 Bft) S-SW 202 ° 0 min 0,000 mm 0,0 UV-I 30 W/m² 5,7 °C 6,4 °C 0,0 km/h (0 Bft)
04.10.2018 09:03 6,4 °C 95 % 1026,1 hPa 0,0 mm 0,0 km/h (0 Bft) S-SW 202 ° 0 min 0,000 mm 0,0 UV-I 28 W/m² 5,7 °C 6,4 °C 0,0 km/h (0 Bft)
04.10.2018 09:04 6,5 °C 95 % 1026,1 hPa 0,0 mm 0,0 km/h (0 Bft) S-SW 202 ° 0 min 0,000 mm 0,0 UV-I 28 W/m² 5,8 °C 6,5 °C 0,0 km/h (0 Bft)
04.10.2018 09:05 6,6 °C 95 % 1026,1 hPa 0,0 mm 0,0 km/h (0 Bft) S-SW 202 ° 0 min 0,000 mm 0,0 UV-I 28 W/m² 5,9 °C 6,6 °C 0,0 km/h (0 Bft)
04.10.2018 09:06 6,6 °C 95 % 1026,2 hPa 0,0 mm 0,0 km/h (0 Bft) S-SW 202 ° 0 min 0,000 mm 0,0 UV-I 26 W/m² 5,9 °C 6,6 °C 0,0 km/h (0 Bft)
04.10.2018 09:07 6,6 °C 95 % 1026,2 hPa 0,0 mm 0,0 km/h (0 Bft) S-SW 202 ° 0 min 0,000 mm 0,0 UV-I 26 W/m² 5,9 °C 6,6 °C 0,0 km/h (0 Bft)
04.10.2018 09:08 6,6 °C 95 % 1026,1 hPa 0,0 mm 0,0 km/h (0 Bft) S-SW 202 ° 0 min 0,000 mm 0,0 UV-I 28 W/m² 5,9 °C 6,6 °C 0,0 km/h (0 Bft)
04.10.2018 09:09 6,6 °C 95 % 1026,2 hPa 0,0 mm 0,0 km/h (0 Bft) S-SW 202 ° 0 min 0,000 mm 0,0 UV-I 28 W/m² 5,9 °C 6,6 °C 0,0 km/h (0 Bft)
04.10.2018 09:10 6,7 °C 95 % 1026,2 hPa 0,0 mm 0,0 km/h (0 Bft) S-SW 202 ° 0 min 0,000 mm 0,0 UV-I 28 W/m² 6,0 °C 6,7 °C 0,0 km/h (0 Bft)
04.10.2018 09:11 6,7 °C 95 % 1026,2 hPa 0,0 mm 0,0 km/h (0 Bft) S-SW 202 ° 0 min 0,000 mm 0,0 UV-I 28 W/m² 6,0 °C 6,7 °C 0,0 km/h (0 Bft)
04.10.2018 09:12 6,8 °C 95 % 1026,2 hPa 0,0 mm 0,0 km/h (0 Bft) S-SW 202 ° 0 min 0,000 mm 0,0 UV-I 30 W/m² 6,1 °C 6,8 °C 0,0 km/h (0 Bft)
04.10.2018 09:13 6,8 °C 95 % 1026,2 hPa 0,0 mm 0,0 km/h (0 Bft) S-SW 202 ° 0 min 0,000 mm 0,0 UV-I 28 W/m² 6,1 °C 6,8 °C 0,0 km/h (0 Bft)
04.10.2018 09:14 6,8 °C 95 % 1026,2 hPa 0,0 mm 0,0 km/h (0 Bft) S-SW 202 ° 0 min 0,000 mm 0,0 UV-I 28 W/m² 6,1 °C 6,8 °C 0,0 km/h (0 Bft)
04.10.2018 09:15 6,9 °C 95 % 1026,2 hPa 0,0 mm 0,0 km/h (0 Bft) S-SW 202 ° 0 min 0,000 mm 0,0 UV-I 26 W/m² 6,2 °C 6,9 °C 0,0 km/h (0 Bft)
04.10.2018 09:16 6,9 °C 95 % 1026,2 hPa 0,0 mm 0,0 km/h (0 Bft) S-SW 202 ° 0 min 0,000 mm 0,0 UV-I 26 W/m² 6,2 °C 6,9 °C 0,0 km/h (0 Bft)
04.10.2018 09:17 6,9 °C 95 % 1026,2 hPa 0,0 mm 0,0 km/h (0 Bft) S-SW 202 ° 0 min 0,000 mm 0,0 UV-I 26 W/m² 6,2 °C 6,9 °C 0,0 km/h (0 Bft)
04.10.2018 09:18 6,8 °C 94 % 1026,2 hPa 0,0 mm 0,0 km/h (0 Bft) S-SW 202 ° 0 min 0,000 mm 0,0 UV-I 26 W/m² 5,9 °C 6,8 °C 0,0 km/h (0 Bft)
04.10.2018 09:19 6,8 °C 95 % 1026,2 hPa 0,0 mm 0,0 km/h (0 Bft) S-SW 202 ° 0 min 0,000 mm 0,0 UV-I 26 W/m² 6,1 °C 6,8 °C 0,0 km/h (0 Bft)
04.10.2018 09:20 6,9 °C 95 % 1026,2 hPa 0,0 mm 0,0 km/h (0 Bft) S-SW 202 ° 0 min 0,000 mm 0,0 UV-I 26 W/m² 6,2 °C 6,9 °C 0,0 km/h (0 Bft)
04.10.2018 09:21 7,1 °C 95 % 1026,2 hPa 0,0 mm 0,0 km/h (0 Bft) S-SW 202 ° 0 min 0,000 mm 0,0 UV-I 26 W/m² 6,4 °C 7,1 °C 0,0 km/h (0 Bft)
04.10.2018 09:22 7,1 °C 95 % 1026,2 hPa 0,0 mm 0,0 km/h (0 Bft) S-SW 202 ° 0 min 0,000 mm 0,0 UV-I 28 W/m² 6,4 °C 7,1 °C 0,0 km/h (0 Bft)
04.10.2018 09:23 7,2 °C 95 % 1026,2 hPa 0,0 mm 0,0 km/h (0 Bft) S-SW 202 ° 0 min 0,000 mm 0,0 UV-I 28 W/m² 6,5 °C 7,2 °C 0,0 km/h (0 Bft)
04.10.2018 09:24 7,2 °C 95 % 1026,2 hPa 0,0 mm 0,0 km/h (0 Bft) S-SW 202 ° 0 min 0,000 mm 0,0 UV-I 28 W/m² 6,5 °C 7,2 °C 0,0 km/h (0 Bft)
04.10.2018 09:25 7,3 °C 95 % 1026,2 hPa 0,0 mm 0,0 km/h (0 Bft) S-SW 202 ° 0 min 0,000 mm 0,0 UV-I 28 W/m² 6,6 °C 7,3 °C 0,0 km/h (0 Bft)
04.10.2018 09:26 7,4 °C 95 % 1026,2 hPa 0,0 mm 0,0 km/h (0 Bft) S-SW 202 ° 0 min 0,000 mm 0,0 UV-I 26 W/m² 6,7 °C 7,4 °C 0,0 km/h (0 Bft)
04.10.2018 09:27 7,4 °C 95 % 1026,2 hPa 0,0 mm 0,0 km/h (0 Bft) S-SW 202 ° 0 min 0,000 mm 0,0 UV-I 26 W/m² 6,7 °C 7,4 °C 0,0 km/h (0 Bft)
04.10.2018 09:28 7,4 °C 95 % 1026,2 hPa 0,0 mm 0,0 km/h (0 Bft) S-SW 202 ° 0 min 0,000 mm 0,0 UV-I 26 W/m² 6,7 °C 7,4 °C 0,0 km/h (0 Bft)
04.10.2018 09:29 7,6 °C 95 % 1026,1 hPa 0,0 mm 0,0 km/h (0 Bft) S-SW 202 ° 0 min 0,000 mm 0,0 UV-I 26 W/m² 6,9 °C 7,6 °C 0,0 km/h (0 Bft)
04.10.2018 09:30 7,6 °C 95 % 1026,1 hPa 0,0 mm 0,0 km/h (0 Bft) S-SW 202 ° 0 min 0,000 mm 0,0 UV-I 26 W/m² 6,9 °C 7,6 °C 0,0 km/h (0 Bft)
04.10.2018 09:31 7,7 °C 95 % 1026,1 hPa 0,0 mm 0,0 km/h (0 Bft) S-SW 202 ° 0 min 0,000 mm 0,0 UV-I 26 W/m² 7,0 °C 7,7 °C 0,0 km/h (0 Bft)
04.10.2018 09:32 7,7 °C 95 % 1026,1 hPa 0,0 mm 0,0 km/h (0 Bft) S-SW 202 ° 0 min 0,000 mm 0,0 UV-I 28 W/m² 7,0 °C 7,7 °C 0,0 km/h (0 Bft)
04.10.2018 09:33 7,8 °C 95 % 1026,1 hPa 0,0 mm 0,0 km/h (0 Bft) S-SW 202 ° 0 min 0,000 mm 0,0 UV-I 30 W/m² 7,0 °C 7,8 °C 0,0 km/h (0 Bft)
04.10.2018 09:34 7,8 °C 95 % 1026,1 hPa 0,0 mm 1,1 km/h (1 Bft) O-SO 115 ° 0 min 0,000 mm 0,0 UV-I 40 W/m² 7,0 °C 7,8 °C 3,2 km/h (1 Bft)
04.10.2018 09:35 7,8 °C 95 % 1026,1 hPa 0,0 mm 0,0 km/h (0 Bft) O-SO 115 ° 0 min 0,000 mm 0,0 UV-I 54 W/m² 7,0 °C 7,8 °C 0,0 km/h (0 Bft)
04.10.2018 09:36 7,9 °C 95 % 1026,1 hPa 0,0 mm 0,0 km/h (0 Bft) O-SO 115 ° 0 min 0,000 mm 0,0 UV-I 49 W/m² 7,1 °C 7,9 °C 0,0 km/h (0 Bft)
04.10.2018 09:37 8,0 °C 95 % 1026,1 hPa 0,0 mm 0,0 km/h (0 Bft) O-SO 115 ° 0 min 0,000 mm 0,0 UV-I 40 W/m² 7,2 °C 8,0 °C 0,0 km/h (0 Bft)
04.10.2018 09:38 7,9 °C 95 % 1026,1 hPa 0,0 mm 0,0 km/h (0 Bft) O-SO 115 ° 0 min 0,000 mm 0,0 UV-I 63 W/m² 7,1 °C 7,9 °C 0,0 km/h (0 Bft)
04.10.2018 09:39 7,9 °C 94 % 1026,1 hPa 0,0 mm 0,3 km/h (0 Bft) O-SO 115 ° 0 min 0,000 mm 1,0 UV-I 63 W/m² 7,0 °C 7,9 °C 1,6 km/h (1 Bft)
04.10.2018 09:40 7,9 °C 94 % 1026,2 hPa 0,0 mm 0,7 km/h (0 Bft) O-SO 114 ° 0 min 0,000 mm 0,0 UV-I 53 W/m² 7,0 °C 7,9 °C 3,2 km/h (1 Bft)
04.10.2018 09:41 8,0 °C 95 % 1026,1 hPa 0,0 mm 0,0 km/h (0 Bft) O-SO 114 ° 0 min 0,000 mm 0,0 UV-I 47 W/m² 7,2 °C 8,0 °C 0,0 km/h (0 Bft)
04.10.2018 09:42 8,0 °C 94 % 1026,1 hPa 0,0 mm 1,2 km/h (1 Bft) O-SO 113 ° 0 min 0,000 mm 1,0 UV-I 65 W/m² 7,1 °C 8,0 °C 3,2 km/h (1 Bft)
04.10.2018 09:43 8,1 °C 94 % 1026,1 hPa 0,0 mm 1,8 km/h (1 Bft) O-SO 113 ° 0 min 0,000 mm 0,0 UV-I 37 W/m² 7,2 °C 8,1 °C 3,2 km/h (1 Bft)
04.10.2018 09:44 8,1 °C 94 % 1026,1 hPa 0,0 mm 1,3 km/h (1 Bft) O-SO 113 ° 0 min 0,000 mm 0,0 UV-I 42 W/m² 7,2 °C 8,1 °C 3,2 km/h (1 Bft)
04.10.2018 09:45 8,2 °C 94 % 1026,1 hPa 0,0 mm 0,0 km/h (0 Bft) O-SO 113 ° 0 min 0,000 mm 1,0 UV-I 65 W/m² 7,3 °C 8,2 °C 0,0 km/h (0 Bft)
04.10.2018 09:46 8,2 °C 94 % 1026,1 hPa 0,0 mm 0,5 km/h (0 Bft) O-SO 113 ° 0 min 0,000 mm 1,1 UV-I 72 W/m² 7,3 °C 8,2 °C 1,6 km/h (1 Bft)
04.10.2018 09:47 8,3 °C 95 % 1026,1 hPa 0,0 mm 2,3 km/h (1 Bft) O-NO 76 ° 0 min 0,000 mm 1,1 UV-I 63 W/m² 7,5 °C 8,3 °C 4,8 km/h (1 Bft)
04.10.2018 09:48 8,4 °C 94 % 1026,1 hPa 0,0 mm 2,0 km/h (1 Bft) O-NO 76 ° 0 min 0,000 mm 1,1 UV-I 62 W/m² 7,5 °C 8,4 °C 4,8 km/h (1 Bft)
04.10.2018 09:49 8,5 °C 94 % 1026,1 hPa 0,0 mm 0,0 km/h (0 Bft) O-NO 76 ° 0 min 0,000 mm 1,1 UV-I 116 W/m² 7,6 °C 8,5 °C 0,0 km/h (0 Bft)
04.10.2018 09:50 8,6 °C 94 % 1026,1 hPa 0,0 mm 2,3 km/h (1 Bft) NO 42 ° 0 min 0,000 mm 1,2 UV-I 107 W/m² 7,7 °C 8,6 °C 4,8 km/h (1 Bft)
04.10.2018 09:51 8,6 °C 94 % 1026,1 hPa 0,0 mm 1,3 km/h (1 Bft) O-NO 61 ° 0 min 0,000 mm 1,2 UV-I 77 W/m² 7,7 °C 8,6 °C 3,2 km/h (1 Bft)
04.10.2018 09:52 8,7 °C 94 % 1026,0 hPa 0,0 mm 1,9 km/h (1 Bft) O-NO 61 ° 0 min 0,000 mm 1,1 UV-I 69 W/m² 7,8 °C 8,7 °C 4,8 km/h (1 Bft)
04.10.2018 09:53 8,8 °C 94 % 1026,1 hPa 0,0 mm 3,3 km/h (1 Bft) O-NO 60 ° 0 min 0,000 mm 1,1 UV-I 74 W/m² 7,9 °C 8,8 °C 4,8 km/h (1 Bft)
04.10.2018 09:54 8,9 °C 94 % 1026,0 hPa 0,0 mm 0,7 km/h (0 Bft) O-NO 60 ° 0 min 0,000 mm 1,2 UV-I 93 W/m² 8,0 °C 8,9 °C 3,2 km/h (1 Bft)
04.10.2018 09:55 8,9 °C 94 % 1026,0 hPa 0,0 mm 1,7 km/h (1 Bft) O-SO 109 ° 0 min 0,000 mm 1,2 UV-I 105 W/m² 8,0 °C 8,9 °C 4,8 km/h (1 Bft)
04.10.2018 09:56 9,0 °C 94 % 1026,0 hPa 0,0 mm 1,1 km/h (1 Bft) O 101 ° 0 min 0,000 mm 1,2 UV-I 118 W/m² 8,1 °C 9,0 °C 3,2 km/h (1 Bft)
04.10.2018 09:57 9,1 °C 94 % 1026,1 hPa 0,0 mm 2,4 km/h (1 Bft) O-NO 58 ° 0 min 0,000 mm 1,2 UV-I 118 W/m² 8,2 °C 9,1 °C 6,4 km/h (2 Bft)
04.10.2018 09:58 9,0 °C 93 % 1026,0 hPa 0,0 mm 2,3 km/h (1 Bft) O-NO 58 ° 0 min 0,000 mm 1,2 UV-I 98 W/m² 7,9 °C 9,0 °C 6,4 km/h (2 Bft)
04.10.2018 09:59 8,9 °C 93 % 1026,0 hPa 0,0 mm 2,9 km/h (1 Bft) O-NO 58 ° 0 min 0,000 mm 1,2 UV-I 107 W/m² 7,8 °C 8,9 °C 4,8 km/h (1 Bft)
04.10.2018 10:00 8,9 °C 93 % 1026,1 hPa 0,0 mm 1,2 km/h (1 Bft) O-NO 58 ° 0 min 0,000 mm 1,3 UV-I 156 W/m² 7,8 °C 8,9 °C 3,2 km/h (1 Bft)
04.10.2018 10:01 9,0 °C 93 % 1026,0 hPa 0,0 mm 2,2 km/h (1 Bft) O-NO 58 ° 0 min 0,025 mm 1,3 UV-I 153 W/m² 7,9 °C 9,0 °C 4,8 km/h (1 Bft)
04.10.2018 10:02 9,0 °C 93 % 1026,0 hPa 0,0 mm 2,0 km/h (1 Bft) O-NO 59 ° 0 min 0,000 mm 1,3 UV-I 155 W/m² 7,9 °C 9,0 °C 4,8 km/h (1 Bft)
04.10.2018 10:03 9,0 °C 93 % 1026,1 hPa 0,0 mm 2,1 km/h (1 Bft) O-NO 59 ° 0 min 0,000 mm 1,3 UV-I 141 W/m² 7,9 °C 9,0 °C 4,8 km/h (1 Bft)
04.10.2018 10:04 9,1 °C 93 % 1026,0 hPa 0,0 mm 2,4 km/h (1 Bft) O-NO 59 ° 0 min 0,000 mm 1,3 UV-I 114 W/m² 8,0 °C 9,1 °C 4,8 km/h (1 Bft)
04.10.2018 10:05 9,1 °C 93 % 1026,0 hPa 0,0 mm 3,4 km/h (1 Bft) O-NO 59 ° 0 min 0,000 mm 1,3 UV-I 72 W/m² 8,0 °C 9,1 °C 4,8 km/h (1 Bft)
04.10.2018 10:06 9,2 °C 93 % 1026,0 hPa 0,0 mm 1,7 km/h (1 Bft) O-NO 59 ° 0 min 0,000 mm 1,2 UV-I 72 W/m² 8,1 °C 9,2 °C 3,2 km/h (1 Bft)
04.10.2018 10:07 9,2 °C 93 % 1026,0 hPa 0,0 mm 4,8 km/h (1 Bft) N-NO 27 ° 0 min 0,000 mm 1,2 UV-I 70 W/m² 8,1 °C 8,9 °C 6,4 km/h (2 Bft)
04.10.2018 10:08 9,3 °C 93 % 1026,0 hPa 0,0 mm 4,0 km/h (1 Bft) N-NO 23 ° 0 min 0,000 mm 1,3 UV-I 84 W/m² 8,2 °C 9,3 °C 6,4 km/h (2 Bft)
04.10.2018 10:09 9,4 °C 92 % 1026,0 hPa 0,0 mm 0,6 km/h (0 Bft) N-NO 23 ° 0 min 0,000 mm 1,2 UV-I 74 W/m² 8,2 °C 9,4 °C 3,2 km/h (1 Bft)
04.10.2018 10:10 9,4 °C 92 % 1026,0 hPa 0,0 mm 0,5 km/h (0 Bft) N-NO 23 ° 0 min 0,000 mm 1,3 UV-I 72 W/m² 8,2 °C 9,4 °C 1,6 km/h (1 Bft)
04.10.2018 10:11 9,4 °C 92 % 1026,0 hPa 0,0 mm 0,2 km/h (0 Bft) N-NO 23 ° 0 min 0,000 mm 1,3 UV-I 58 W/m² 8,2 °C 9,4 °C 1,6 km/h (1 Bft)
04.10.2018 10:12 9,4 °C 92 % 1026,0 hPa 0,0 mm 2,3 km/h (1 Bft) N-NO 24 ° 0 min 0,000 mm 0,0 UV-I 42 W/m² 8,2 °C 9,4 °C 4,8 km/h (1 Bft)
04.10.2018 10:13 9,5 °C 92 % 1026,0 hPa 0,0 mm 4,7 km/h (1 Bft) NO 55 ° 0 min 0,000 mm 0,0 UV-I 60 W/m² 8,3 °C 9,3 °C 6,4 km/h (2 Bft)
04.10.2018 10:14 9,5 °C 92 % 1026,0 hPa 0,0 mm 2,7 km/h (1 Bft) O-NO 75 ° 0 min 0,000 mm 1,2 UV-I 56 W/m² 8,3 °C 9,5 °C 6,4 km/h (2 Bft)
04.10.2018 10:15 9,6 °C 92 % 1026,0 hPa 0,0 mm 5,5 km/h (1 Bft) O-NO 57 ° 0 min 0,000 mm 0,0 UV-I 51 W/m² 8,4 °C 9,2 °C 8,0 km/h (2 Bft)
04.10.2018 10:16 9,7 °C 92 % 1026,0 hPa 0,0 mm 2,9 km/h (1 Bft) NO 51 ° 0 min 0,000 mm 0,0 UV-I 46 W/m² 8,5 °C 9,7 °C 6,4 km/h (2 Bft)
04.10.2018 10:17 9,7 °C 91 % 1026,0 hPa 0,0 mm 1,9 km/h (1 Bft) NO 51 ° 0 min 0,000 mm 0,0 UV-I 42 W/m² 8,3 °C 9,7 °C 4,8 km/h (1 Bft)
04.10.2018 10:18 9,7 °C 91 % 1026,0 hPa 0,0 mm 3,6 km/h (1 Bft) NO 51 ° 0 min 0,000 mm 0,0 UV-I 37 W/m² 8,3 °C 9,7 °C 4,8 km/h (1 Bft)
04.10.2018 10:19 9,7 °C 91 % 1025,9 hPa 0,0 mm 0,5 km/h (0 Bft) O-NO 65 ° 0 min 0,000 mm 0,0 UV-I 44 W/m² 8,3 °C 9,7 °C 3,2 km/h (1 Bft)
04.10.2018 10:20 9,7 °C 91 % 1026,0 hPa 0,0 mm 1,8 km/h (1 Bft) O-NO 65 ° 0 min 0,000 mm 0,0 UV-I 44 W/m² 8,3 °C 9,7 °C 4,8 km/h (1 Bft)
04.10.2018 10:21 9,7 °C 91 % 1026,0 hPa 0,0 mm 1,1 km/h (1 Bft) O-NO 65 ° 0 min 0,000 mm 0,0 UV-I 39 W/m² 8,3 °C 9,7 °C 3,2 km/h (1 Bft)
04.10.2018 10:22 9,7 °C 91 % 1026,0 hPa 0,0 mm 1,0 km/h (0 Bft) O-NO 58 ° 0 min 0,000 mm 0,0 UV-I 39 W/m² 8,3 °C 9,7 °C 3,2 km/h (1 Bft)
04.10.2018 10:23 9,8 °C 91 % 1026,0 hPa 0,0 mm 3,4 km/h (1 Bft) NO 55 ° 0 min 0,000 mm 0,0 UV-I 39 W/m² 8,4 °C 9,8 °C 6,4 km/h (2 Bft)
04.10.2018 10:24 9,9 °C 91 % 1026,0 hPa 0,0 mm 3,4 km/h (1 Bft) O-NO 76 ° 0 min 0,000 mm 0,0 UV-I 49 W/m² 8,5 °C 9,9 °C 6,4 km/h (2 Bft)
04.10.2018 10:25 9,9 °C 91 % 1026,0 hPa 0,0 mm 3,6 km/h (1 Bft) O-NO 61 ° 0 min 0,000 mm 0,0 UV-I 46 W/m² 8,5 °C 9,9 °C 6,4 km/h (2 Bft)
04.10.2018 10:26 9,9 °C 91 % 1025,9 hPa 0,0 mm 4,4 km/h (1 Bft) O-NO 61 ° 0 min 0,000 mm 0,0 UV-I 40 W/m² 8,5 °C 9,9 °C 6,4 km/h (2 Bft)
04.10.2018 10:27 9,9 °C 91 % 1026,0 hPa 0,0 mm 2,9 km/h (1 Bft) O-NO 68 ° 0 min 0,000 mm 0,0 UV-I 44 W/m² 8,5 °C 9,9 °C 4,8 km/h (1 Bft)
04.10.2018 10:28 9,9 °C 90 % 1025,9 hPa 0,0 mm 4,4 km/h (1 Bft) O-NO 57 ° 0 min 0,000 mm 0,0 UV-I 49 W/m² 8,3 °C 9,9 °C 6,4 km/h (2 Bft)
04.10.2018 10:29 9,9 °C 90 % 1026,0 hPa 0,0 mm 1,4 km/h (1 Bft) O-NO 57 ° 0 min 0,000 mm 0,0 UV-I 47 W/m² 8,3 °C 9,9 °C 3,2 km/h (1 Bft)
04.10.2018 10:30 9,9 °C 90 % 1025,9 hPa 0,0 mm 3,8 km/h (1 Bft) O-NO 67 ° 0 min 0,000 mm 1,3 UV-I 102 W/m² 8,3 °C 9,9 °C 6,4 km/h (2 Bft)
04.10.2018 10:31 10,0 °C 90 % 1025,9 hPa 0,0 mm 3,8 km/h (1 Bft) O-NO 70 ° 0 min 0,000 mm 1,3 UV-I 130 W/m² 8,4 °C 10,0 °C 6,4 km/h (2 Bft)
04.10.2018 10:32 10,1 °C 90 % 1025,9 hPa 0,0 mm 2,0 km/h (1 Bft) O-NO 70 ° 0 min 0,000 mm 1,4 UV-I 130 W/m² 8,5 °C 10,1 °C 3,2 km/h (1 Bft)
04.10.2018 10:33 10,1 °C 90 % 1025,9 hPa 0,0 mm 3,1 km/h (1 Bft) O-NO 71 ° 0 min 0,000 mm 1,6 UV-I 156 W/m² 8,5 °C 10,1 °C 4,8 km/h (1 Bft)
04.10.2018 10:34 10,1 °C 90 % 1026,0 hPa 0,0 mm 4,5 km/h (1 Bft) O-NO 76 ° 0 min 0,000 mm 1,6 UV-I 197 W/m² 8,5 °C 10,1 °C 6,4 km/h (2 Bft)
04.10.2018 10:35 10,0 °C 89 % 1025,9 hPa 0,0 mm 3,6 km/h (1 Bft) O-NO 77 ° 0 min 0,000 mm 1,8 UV-I 204 W/m² 8,3 °C 10,0 °C 4,8 km/h (1 Bft)
04.10.2018 10:36 10,0 °C 89 % 1025,8 hPa 0,0 mm 0,7 km/h (0 Bft) O-NO 77 ° 0 min 0,000 mm 1,6 UV-I 176 W/m² 8,3 °C 10,0 °C 3,2 km/h (1 Bft)
04.10.2018 10:37 10,0 °C 90 % 1025,8 hPa 0,0 mm 1,7 km/h (1 Bft) O-NO 77 ° 0 min 0,000 mm 1,8 UV-I 207 W/m² 8,4 °C 10,0 °C 3,2 km/h (1 Bft)
04.10.2018 10:38 10,0 °C 89 % 1025,8 hPa 0,0 mm 2,9 km/h (1 Bft) O-NO 77 ° 0 min 0,000 mm 1,9 UV-I 276 W/m² 8,3 °C 10,0 °C 3,2 km/h (1 Bft)
04.10.2018 10:39 10,0 °C 89 % 1025,8 hPa 0,0 mm 1,9 km/h (1 Bft) O-NO 77 ° 0 min 0,000 mm 2,1 UV-I 357 W/m² 8,3 °C 10,0 °C 3,2 km/h (1 Bft)
04.10.2018 10:40 10,1 °C 90 % 1025,8 hPa 0,0 mm 0,1 km/h (0 Bft) O-NO 77 ° 0 min 0,000 mm 2,2 UV-I 424 W/m² 8,5 °C 10,1 °C 1,6 km/h (1 Bft)
04.10.2018 10:41 10,1 °C 89 % 1025,8 hPa 0,0 mm 0,0 km/h (0 Bft) O-NO 77 ° 0 min 0,000 mm 2,3 UV-I 431 W/m² 8,4 °C 10,1 °C 0,0 km/h (0 Bft)
04.10.2018 10:42 10,1 °C 90 % 1025,8 hPa 0,0 mm 0,5 km/h (0 Bft) O-NO 77 ° 0 min 0,000 mm 2,4 UV-I 408 W/m² 8,5 °C 10,1 °C 1,6 km/h (1 Bft)
04.10.2018 10:43 10,3 °C 90 % 1025,8 hPa 0,0 mm 3,2 km/h (1 Bft) NO 54 ° 0 min 0,000 mm 1,8 UV-I 200 W/m² 8,7 °C 10,3 °C 4,8 km/h (1 Bft)
04.10.2018 10:44 10,4 °C 89 % 1025,8 hPa 0,0 mm 6,2 km/h (2 Bft) NO 44 ° 0 min 0,000 mm 1,8 UV-I 229 W/m² 8,7 °C 10,4 °C 8,0 km/h (2 Bft)
04.10.2018 10:45 10,5 °C 89 % 1025,7 hPa 0,0 mm 4,7 km/h (1 Bft) N-NO 28 ° 0 min 0,000 mm 2,0 UV-I 316 W/m² 8,8 °C 10,5 °C 8,0 km/h (2 Bft)
04.10.2018 10:46 10,7 °C 88 % 1025,8 hPa 0,0 mm 6,9 km/h (2 Bft) NO 34 ° 0 min 0,000 mm 2,2 UV-I 381 W/m² 8,8 °C 10,7 °C 12,9 km/h (3 Bft)
04.10.2018 10:47 10,6 °C 88 % 1025,8 hPa 0,0 mm 2,2 km/h (1 Bft) O-NO 57 ° 0 min 0,000 mm 2,4 UV-I 432 W/m² 8,7 °C 10,6 °C 4,8 km/h (1 Bft)
04.10.2018 10:48 10,7 °C 88 % 1025,7 hPa 0,0 mm 3,8 km/h (1 Bft) NO 37 ° 0 min 0,000 mm 2,5 UV-I 471 W/m² 8,8 °C 10,7 °C 6,4 km/h (2 Bft)
04.10.2018 10:49 10,7 °C 88 % 1025,8 hPa 0,0 mm 4,5 km/h (1 Bft) NO 40 ° 0 min 0,000 mm 2,5 UV-I 473 W/m² 8,8 °C 10,7 °C 8,0 km/h (2 Bft)
04.10.2018 10:50 10,8 °C 88 % 1025,8 hPa 0,0 mm 3,6 km/h (1 Bft) O-NO 60 ° 0 min 0,000 mm 2,5 UV-I 476 W/m² 8,9 °C 10,8 °C 6,4 km/h (2 Bft)
04.10.2018 10:51 10,9 °C 88 % 1025,8 hPa 0,0 mm 4,2 km/h (1 Bft) O-NO 68 ° 0 min 0,000 mm 2,5 UV-I 480 W/m² 9,0 °C 10,9 °C 6,4 km/h (2 Bft)
04.10.2018 10:52 11,1 °C 87 % 1025,8 hPa 0,0 mm 4,5 km/h (1 Bft) NO 55 ° 0 min 0,000 mm 2,6 UV-I 483 W/m² 9,0 °C 11,1 °C 6,4 km/h (2 Bft)
04.10.2018 10:53 11,1 °C 87 % 1025,8 hPa 0,0 mm 4,8 km/h (1 Bft) NO 50 ° 0 min 0,000 mm 2,6 UV-I 489 W/m² 9,0 °C 11,1 °C 8,0 km/h (2 Bft)
04.10.2018 10:54 11,3 °C 87 % 1025,8 hPa 0,0 mm 3,0 km/h (1 Bft) O-NO 63 ° 0 min 0,000 mm 2,6 UV-I 494 W/m² 9,2 °C 11,3 °C 4,8 km/h (1 Bft)
04.10.2018 10:55 11,2 °C 86 % 1025,9 hPa 0,0 mm 2,8 km/h (1 Bft) NO 42 ° 0 min 0,000 mm 2,6 UV-I 501 W/m² 8,9 °C 11,2 °C 4,8 km/h (1 Bft)
04.10.2018 10:56 11,2 °C 86 % 1025,8 hPa 0,0 mm 4,1 km/h (1 Bft) NO 54 ° 0 min 0,000 mm 2,7 UV-I 504 W/m² 8,9 °C 11,2 °C 6,4 km/h (2 Bft)
04.10.2018 10:57 11,3 °C 86 % 1025,8 hPa 0,0 mm 2,2 km/h (1 Bft) O-NO 57 ° 0 min 0,000 mm 2,7 UV-I 508 W/m² 9,0 °C 11,3 °C 3,2 km/h (1 Bft)
04.10.2018 10:58 11,3 °C 86 % 1025,8 hPa 0,0 mm 3,4 km/h (1 Bft) O-NO 65 ° 0 min 0,000 mm 2,7 UV-I 512 W/m² 9,0 °C 11,3 °C 4,8 km/h (1 Bft)
04.10.2018 10:59 11,3 °C 86 % 1025,8 hPa 0,0 mm 2,5 km/h (1 Bft) O-NO 62 ° 0 min 0,000 mm 2,7 UV-I 515 W/m² 9,0 °C 11,3 °C 4,8 km/h (1 Bft)
04.10.2018 11:00 11,3 °C 85 % 1025,8 hPa 0,0 mm 0,8 km/h (0 Bft) O-NO 62 ° 0 min 0,000 mm 2,8 UV-I 520 W/m² 8,9 °C 11,3 °C 3,2 km/h (1 Bft)
04.10.2018 11:01 11,1 °C 85 % 1025,8 hPa 0,0 mm 2,3 km/h (1 Bft) O-NO 62 ° 0 min 0,102 mm 2,8 UV-I 522 W/m² 8,7 °C 11,1 °C 4,8 km/h (1 Bft)
04.10.2018 11:02 11,0 °C 86 % 1025,8 hPa 0,0 mm 2,9 km/h (1 Bft) O-NO 71 ° 0 min 0,000 mm 2,8 UV-I 526 W/m² 8,7 °C 11,0 °C 4,8 km/h (1 Bft)
04.10.2018 11:03 11,1 °C 87 % 1025,8 hPa 0,0 mm 3,5 km/h (1 Bft) NO 35 ° 0 min 0,000 mm 2,8 UV-I 526 W/m² 9,0 °C 11,1 °C 6,4 km/h (2 Bft)
04.10.2018 11:04 11,2 °C 87 % 1025,8 hPa 0,0 mm 7,1 km/h (2 Bft) O-NO 68 ° 0 min 0,000 mm 2,9 UV-I 526 W/m² 9,1 °C 11,2 °C 12,9 km/h (3 Bft)
04.10.2018 11:05 11,3 °C 88 % 1025,8 hPa 0,0 mm 5,3 km/h (1 Bft) NO 53 ° 0 min 0,000 mm 2,9 UV-I 529 W/m² 9,4 °C 11,3 °C 9,7 km/h (2 Bft)
04.10.2018 11:06 11,4 °C 87 % 1025,7 hPa 0,0 mm 4,7 km/h (1 Bft) N-NO 26 ° 0 min 0,000 mm 2,9 UV-I 529 W/m² 9,3 °C 11,4 °C 6,4 km/h (2 Bft)
04.10.2018 11:07 11,6 °C 86 % 1025,7 hPa 0,0 mm 7,1 km/h (2 Bft) NO 38 ° 0 min 0,000 mm 2,9 UV-I 533 W/m² 9,3 °C 11,6 °C 12,9 km/h (3 Bft)
04.10.2018 11:08 11,8 °C 86 % 1025,8 hPa 0,0 mm 7,2 km/h (2 Bft) NO 38 ° 0 min 0,000 mm 3,0 UV-I 534 W/m² 9,5 °C 11,8 °C 11,3 km/h (2 Bft)
04.10.2018 11:09 11,9 °C 83 % 1025,7 hPa 0,0 mm 7,2 km/h (2 Bft) NO 45 ° 0 min 0,000 mm 3,0 UV-I 536 W/m² 9,1 °C 11,9 °C 11,3 km/h (2 Bft)
04.10.2018 11:10 11,8 °C 83 % 1025,8 hPa 0,0 mm 2,3 km/h (1 Bft) NO 45 ° 0 min 0,000 mm 3,0 UV-I 536 W/m² 9,0 °C 11,8 °C 4,8 km/h (1 Bft)
04.10.2018 11:11 11,9 °C 85 % 1025,7 hPa 0,0 mm 2,4 km/h (1 Bft) NO 49 ° 0 min 0,000 mm 3,0 UV-I 538 W/m² 9,5 °C 11,9 °C 3,2 km/h (1 Bft)
04.10.2018 11:12 11,8 °C 84 % 1025,7 hPa 0,0 mm 1,7 km/h (1 Bft) NO 53 ° 0 min 0,000 mm 3,0 UV-I 541 W/m² 9,2 °C 11,8 °C 3,2 km/h (1 Bft)
04.10.2018 11:13 11,7 °C 84 % 1025,7 hPa 0,0 mm 1,6 km/h (1 Bft) NO 53 ° 0 min 0,000 mm 3,1 UV-I 543 W/m² 9,1 °C 11,7 °C 3,2 km/h (1 Bft)
04.10.2018 11:14 11,7 °C 84 % 1025,8 hPa 0,0 mm 4,5 km/h (1 Bft) NO 35 ° 0 min 0,000 mm 3,1 UV-I 547 W/m² 9,1 °C 11,7 °C 8,0 km/h (2 Bft)
04.10.2018 11:15 11,8 °C 85 % 1025,8 hPa 0,0 mm 3,4 km/h (1 Bft) O-NO 59 ° 0 min 0,000 mm 3,1 UV-I 547 W/m² 9,4 °C 11,8 °C 4,8 km/h (1 Bft)
04.10.2018 11:16 11,9 °C 84 % 1025,8 hPa 0,0 mm 4,6 km/h (1 Bft) O-NO 74 ° 0 min 0,000 mm 3,1 UV-I 548 W/m² 9,3 °C 11,9 °C 6,4 km/h (2 Bft)
04.10.2018 11:17 12,0 °C 84 % 1025,8 hPa 0,0 mm 6,2 km/h (2 Bft) NO 36 ° 0 min 0,000 mm 3,1 UV-I 547 W/m² 9,4 °C 12,0 °C 8,0 km/h (2 Bft)
04.10.2018 11:18 12,1 °C 83 % 1025,7 hPa 0,0 mm 3,4 km/h (1 Bft) NO 37 ° 0 min 0,000 mm 3,1 UV-I 545 W/m² 9,3 °C 12,1 °C 6,4 km/h (2 Bft)
04.10.2018 11:19 12,2 °C 83 % 1025,8 hPa 0,0 mm 4,5 km/h (1 Bft) N-NO 12 ° 0 min 0,000 mm 3,1 UV-I 534 W/m² 9,4 °C 12,2 °C 6,4 km/h (2 Bft)
04.10.2018 11:20 12,4 °C 85 % 1025,8 hPa 0,0 mm 5,5 km/h (1 Bft) N-NO 15 ° 0 min 0,000 mm 3,1 UV-I 548 W/m² 9,9 °C 12,4 °C 6,4 km/h (2 Bft)
04.10.2018 11:21 12,4 °C 83 % 1025,7 hPa 0,0 mm 3,5 km/h (1 Bft) N-NO 32 ° 0 min 0,000 mm 3,2 UV-I 555 W/m² 9,6 °C 12,4 °C 6,4 km/h (2 Bft)
04.10.2018 11:22 12,3 °C 83 % 1025,8 hPa 0,0 mm 4,4 km/h (1 Bft) S-SO 160 ° 0 min 0,000 mm 3,2 UV-I 557 W/m² 9,5 °C 12,3 °C 6,4 km/h (2 Bft)
04.10.2018 11:23 12,2 °C 83 % 1025,8 hPa 0,0 mm 6,9 km/h (2 Bft) O 90 ° 0 min 0,000 mm 3,2 UV-I 559 W/m² 9,4 °C 12,2 °C 11,3 km/h (2 Bft)
04.10.2018 11:24 12,2 °C 83 % 1025,8 hPa 0,0 mm 3,6 km/h (1 Bft) O-SO 102 ° 0 min 0,000 mm 3,3 UV-I 561 W/m² 9,4 °C 12,2 °C 4,8 km/h (1 Bft)
04.10.2018 11:25 12,1 °C 83 % 1025,8 hPa 0,0 mm 4,8 km/h (1 Bft) O-NO 76 ° 0 min 0,000 mm 3,3 UV-I 561 W/m² 9,3 °C 12,1 °C 9,7 km/h (2 Bft)
04.10.2018 11:26 12,1 °C 83 % 1025,8 hPa 0,0 mm 4,3 km/h (1 Bft) NO 56 ° 0 min 0,000 mm 3,3 UV-I 563 W/m² 9,3 °C 12,1 °C 14,5 km/h (3 Bft)
04.10.2018 11:27 12,1 °C 84 % 1025,8 hPa 0,0 mm 6,8 km/h (2 Bft) NO 40 ° 0 min 0,000 mm 3,3 UV-I 564 W/m² 9,5 °C 12,1 °C 9,7 km/h (2 Bft)
04.10.2018 11:28 12,2 °C 84 % 1025,7 hPa 0,0 mm 6,2 km/h (2 Bft) N-NO 27 ° 0 min 0,000 mm 3,3 UV-I 566 W/m² 9,6 °C 12,2 °C 9,7 km/h (2 Bft)
04.10.2018 11:29 12,3 °C 83 % 1025,7 hPa 0,0 mm 4,3 km/h (1 Bft) O-NO 63 ° 0 min 0,000 mm 3,3 UV-I 557 W/m² 9,5 °C 12,3 °C 8,0 km/h (2 Bft)
04.10.2018 11:30 12,3 °C 83 % 1025,8 hPa 0,0 mm 4,0 km/h (1 Bft) O-NO 62 ° 0 min 0,000 mm 3,3 UV-I 568 W/m² 9,5 °C 12,3 °C 8,0 km/h (2 Bft)
04.10.2018 11:31 12,3 °C 83 % 1025,7 hPa 0,0 mm 4,2 km/h (1 Bft) N 11 ° 0 min 0,000 mm 3,3 UV-I 570 W/m² 9,5 °C 12,3 °C 4,8 km/h (1 Bft)
04.10.2018 11:32 12,5 °C 83 % 1025,7 hPa 0,0 mm 3,8 km/h (1 Bft) N-NO 28 ° 0 min 0,000 mm 3,0 UV-I 570 W/m² 9,7 °C 12,5 °C 6,4 km/h (2 Bft)
04.10.2018 11:33 12,5 °C 84 % 1025,7 hPa 0,0 mm 2,9 km/h (1 Bft) N 355 ° 0 min 0,000 mm 3,4 UV-I 570 W/m² 9,9 °C 12,5 °C 6,4 km/h (2 Bft)
04.10.2018 11:34 12,7 °C 85 % 1025,7 hPa 0,0 mm 6,0 km/h (2 Bft) O-NO 67 ° 0 min 0,000 mm 3,4 UV-I 571 W/m² 10,2 °C 12,7 °C 8,0 km/h (2 Bft)
04.10.2018 11:35 12,7 °C 83 % 1025,7 hPa 0,0 mm 3,3 km/h (1 Bft) O-NO 66 ° 0 min 0,000 mm 3,4 UV-I 578 W/m² 9,9 °C 12,7 °C 6,4 km/h (2 Bft)
04.10.2018 11:36 12,6 °C 81 % 1025,7 hPa 0,0 mm 3,9 km/h (1 Bft) NO 51 ° 0 min 0,000 mm 3,4 UV-I 578 W/m² 9,4 °C 12,6 °C 4,8 km/h (1 Bft)
04.10.2018 11:37 12,6 °C 82 % 1025,7 hPa 0,0 mm 5,8 km/h (2 Bft) NO 55 ° 0 min 0,000 mm 3,4 UV-I 580 W/m² 9,6 °C 12,6 °C 8,0 km/h (2 Bft)
04.10.2018 11:38 12,6 °C 81 % 1025,6 hPa 0,0 mm 5,9 km/h (2 Bft) O-NO 76 ° 0 min 0,000 mm 3,5 UV-I 584 W/m² 9,4 °C 12,6 °C 9,7 km/h (2 Bft)
04.10.2018 11:39 12,6 °C 81 % 1025,7 hPa 0,0 mm 6,1 km/h (2 Bft) O 85 ° 0 min 0,000 mm 3,3 UV-I 584 W/m² 9,4 °C 12,6 °C 8,0 km/h (2 Bft)
04.10.2018 11:40 12,5 °C 81 % 1025,7 hPa 0,0 mm 1,8 km/h (1 Bft) O 84 ° 0 min 0,000 mm 3,4 UV-I 584 W/m² 9,3 °C 12,5 °C 4,8 km/h (1 Bft)
04.10.2018 11:41 12,4 °C 82 % 1025,7 hPa 0,0 mm 4,8 km/h (1 Bft) O-NO 63 ° 0 min 0,000 mm 3,5 UV-I 587 W/m² 9,4 °C 12,4 °C 9,7 km/h (2 Bft)
04.10.2018 11:42 12,5 °C 82 % 1025,7 hPa 0,0 mm 6,6 km/h (2 Bft) O-NO 62 ° 0 min 0,000 mm 3,5 UV-I 587 W/m² 9,5 °C 12,5 °C 11,3 km/h (2 Bft)
04.10.2018 11:43 12,6 °C 82 % 1025,7 hPa 0,0 mm 6,9 km/h (2 Bft) N-NO 32 ° 0 min 0,000 mm 3,5 UV-I 592 W/m² 9,6 °C 12,6 °C 9,7 km/h (2 Bft)
04.10.2018 11:44 12,7 °C 82 % 1025,7 hPa 0,0 mm 6,3 km/h (2 Bft) N-NO 30 ° 0 min 0,000 mm 3,5 UV-I 591 W/m² 9,7 °C 12,7 °C 9,7 km/h (2 Bft)
04.10.2018 11:45 12,6 °C 81 % 1025,7 hPa 0,0 mm 3,6 km/h (1 Bft) N-NO 29 ° 0 min 0,000 mm 3,5 UV-I 582 W/m² 9,4 °C 12,6 °C 6,4 km/h (2 Bft)
04.10.2018 11:46 12,7 °C 82 % 1025,7 hPa 0,0 mm 4,8 km/h (1 Bft) N 5 ° 0 min 0,000 mm 3,4 UV-I 550 W/m² 9,7 °C 12,7 °C 8,0 km/h (2 Bft)
04.10.2018 11:47 12,9 °C 83 % 1025,7 hPa 0,0 mm 4,7 km/h (1 Bft) N-NO 13 ° 0 min 0,000 mm 3,4 UV-I 555 W/m² 10,1 °C 12,9 °C 8,0 km/h (2 Bft)
04.10.2018 11:48 12,9 °C 81 % 1025,7 hPa 0,0 mm 5,3 km/h (1 Bft) O-NO 59 ° 0 min 0,000 mm 3,5 UV-I 570 W/m² 9,7 °C 12,9 °C 9,7 km/h (2 Bft)
04.10.2018 11:49 12,9 °C 81 % 1025,7 hPa 0,0 mm 3,8 km/h (1 Bft) O 80 ° 0 min 0,000 mm 3,5 UV-I 585 W/m² 9,7 °C 12,9 °C 4,8 km/h (1 Bft)
04.10.2018 11:50 12,9 °C 81 % 1025,7 hPa 0,0 mm 5,4 km/h (1 Bft) O-NO 60 ° 0 min 0,000 mm 3,5 UV-I 589 W/m² 9,7 °C 12,9 °C 9,7 km/h (2 Bft)
04.10.2018 11:51 12,8 °C 81 % 1025,7 hPa 0,0 mm 3,7 km/h (1 Bft) S 181 ° 0 min 0,000 mm 3,5 UV-I 584 W/m² 9,6 °C 12,8 °C 8,0 km/h (2 Bft)
04.10.2018 11:52 12,7 °C 81 % 1025,6 hPa 0,0 mm 1,1 km/h (1 Bft) O-SO 119 ° 0 min 0,000 mm 3,5 UV-I 584 W/m² 9,5 °C 12,7 °C 4,8 km/h (1 Bft)
04.10.2018 11:53 12,6 °C 81 % 1025,6 hPa 0,0 mm 4,4 km/h (1 Bft) O-NO 78 ° 0 min 0,000 mm 3,5 UV-I 571 W/m² 9,4 °C 12,6 °C 6,4 km/h (2 Bft)
04.10.2018 11:54 12,6 °C 81 % 1025,6 hPa 0,0 mm 8,9 km/h (2 Bft) O 86 ° 0 min 0,000 mm 3,6 UV-I 578 W/m² 9,4 °C 12,6 °C 14,5 km/h (3 Bft)
04.10.2018 11:55 12,7 °C 82 % 1025,6 hPa 0,0 mm 7,4 km/h (2 Bft) NO 42 ° 0 min 0,000 mm 3,6 UV-I 592 W/m² 9,7 °C 12,7 °C 12,9 km/h (3 Bft)
04.10.2018 11:56 12,7 °C 82 % 1025,6 hPa 0,0 mm 5,6 km/h (1 Bft) N-NO 24 ° 1 min 0,000 mm 3,6 UV-I 603 W/m² 9,7 °C 12,7 °C 9,7 km/h (2 Bft)
04.10.2018 11:57 12,8 °C 81 % 1025,6 hPa 0,0 mm 5,0 km/h (1 Bft) NO 44 ° 1 min 0,000 mm 3,6 UV-I 608 W/m² 9,6 °C 12,8 °C 8,0 km/h (2 Bft)
04.10.2018 11:58 13,1 °C 82 % 1025,6 hPa 0,0 mm 6,4 km/h (2 Bft) NO 44 ° 1 min 0,000 mm 3,7 UV-I 610 W/m² 10,1 °C 13,1 °C 9,7 km/h (2 Bft)
04.10.2018 11:59 13,1 °C 80 % 1025,6 hPa 0,0 mm 6,1 km/h (2 Bft) NO 44 ° 1 min 0,000 mm 3,7 UV-I 615 W/m² 9,7 °C 13,1 °C 9,7 km/h (2 Bft)
04.10.2018 12:00 13,1 °C 80 % 1025,5 hPa 0,0 mm 2,3 km/h (1 Bft) NO 44 ° 1 min 0,000 mm 3,7 UV-I 619 W/m² 9,7 °C 13,1 °C 4,8 km/h (1 Bft)
04.10.2018 12:01 13,1 °C 80 % 1025,5 hPa 0,0 mm 4,1 km/h (1 Bft) O-NO 70 ° 1 min 0,279 mm 3,4 UV-I 612 W/m² 9,7 °C 13,1 °C 8,0 km/h (2 Bft)
04.10.2018 12:02 13,2 °C 81 % 1025,5 hPa 0,0 mm 7,0 km/h (2 Bft) N-NO 23 ° 0 min 0,000 mm 3,3 UV-I 584 W/m² 10,0 °C 13,2 °C 9,7 km/h (2 Bft)
04.10.2018 12:03 13,2 °C 81 % 1025,5 hPa 0,0 mm 3,4 km/h (1 Bft) O 96 ° 1 min 0,000 mm 3,7 UV-I 624 W/m² 10,0 °C 13,2 °C 6,4 km/h (2 Bft)
04.10.2018 12:04 13,2 °C 80 % 1025,5 hPa 0,0 mm 3,0 km/h (1 Bft) NO 45 ° 1 min 0,000 mm 3,7 UV-I 628 W/m² 9,8 °C 13,2 °C 6,4 km/h (2 Bft)
04.10.2018 12:05 13,2 °C 82 % 1025,5 hPa 0,0 mm 3,9 km/h (1 Bft) O-NO 77 ° 1 min 0,000 mm 3,8 UV-I 628 W/m² 10,2 °C 13,2 °C 8,0 km/h (2 Bft)
04.10.2018 12:06 13,3 °C 82 % 1025,5 hPa 0,0 mm 5,9 km/h (2 Bft) NO 55 ° 1 min 0,000 mm 3,7 UV-I 619 W/m² 10,3 °C 13,3 °C 12,9 km/h (3 Bft)
04.10.2018 12:07 13,3 °C 81 % 1025,5 hPa 0,0 mm 5,3 km/h (1 Bft) NO 46 ° 1 min 0,000 mm 3,6 UV-I 601 W/m² 10,1 °C 13,3 °C 8,0 km/h (2 Bft)
04.10.2018 12:08 13,4 °C 81 % 1025,5 hPa 0,0 mm 5,7 km/h (1 Bft) O 83 ° 1 min 0,000 mm 3,7 UV-I 612 W/m² 10,2 °C 13,4 °C 12,9 km/h (3 Bft)
04.10.2018 12:09 13,4 °C 81 % 1025,5 hPa 0,0 mm 5,9 km/h (2 Bft) O-SO 105 ° 1 min 0,000 mm 3,8 UV-I 638 W/m² 10,2 °C 13,4 °C 8,0 km/h (2 Bft)
04.10.2018 12:10 13,3 °C 81 % 1025,5 hPa 0,0 mm 4,4 km/h (1 Bft) NO 43 ° 0 min 0,000 mm 3,7 UV-I 568 W/m² 10,1 °C 13,3 °C 9,7 km/h (2 Bft)
04.10.2018 12:11 13,3 °C 82 % 1025,5 hPa 0,0 mm 5,1 km/h (1 Bft) NO 53 ° 0 min 0,000 mm 3,7 UV-I 591 W/m² 10,3 °C 13,3 °C 8,0 km/h (2 Bft)
04.10.2018 12:12 13,3 °C 82 % 1025,5 hPa 0,0 mm 5,3 km/h (1 Bft) O-NO 61 ° 1 min 0,000 mm 3,8 UV-I 622 W/m² 10,3 °C 13,3 °C 8,0 km/h (2 Bft)
04.10.2018 12:13 13,2 °C 81 % 1025,4 hPa 0,0 mm 3,3 km/h (1 Bft) NO 38 ° 1 min 0,000 mm 2,7 UV-I 626 W/m² 10,0 °C 13,2 °C 6,4 km/h (2 Bft)
04.10.2018 12:14 13,2 °C 82 % 1025,5 hPa 0,0 mm 4,3 km/h (1 Bft) O-NO 61 ° 1 min 0,000 mm 3,7 UV-I 628 W/m² 10,2 °C 13,2 °C 8,0 km/h (2 Bft)
04.10.2018 12:15 13,1 °C 82 % 1025,5 hPa 0,0 mm 5,4 km/h (1 Bft) O 82 ° 1 min 0,000 mm 2,6 UV-I 628 W/m² 10,1 °C 13,1 °C 11,3 km/h (2 Bft)
04.10.2018 12:16 13,1 °C 82 % 1025,5 hPa 0,0 mm 5,2 km/h (1 Bft) N-NW 333 ° 1 min 0,000 mm 3,7 UV-I 628 W/m² 10,1 °C 13,1 °C 12,9 km/h (3 Bft)
04.10.2018 12:17 12,9 °C 82 % 1025,5 hPa 0,0 mm 5,6 km/h (1 Bft) N-NO 30 ° 0 min 0,000 mm 2,2 UV-I 141 W/m² 9,9 °C 12,9 °C 8,0 km/h (2 Bft)
04.10.2018 12:18 12,9 °C 82 % 1025,5 hPa 0,0 mm 5,2 km/h (1 Bft) NO 56 ° 0 min 0,000 mm 3,8 UV-I 141 W/m² 9,9 °C 12,9 °C 6,4 km/h (2 Bft)
04.10.2018 12:19 12,9 °C 82 % 1025,5 hPa 0,0 mm 5,4 km/h (1 Bft) N 9 ° 1 min 0,000 mm 3,8 UV-I 659 W/m² 9,9 °C 12,9 °C 8,0 km/h (2 Bft)
04.10.2018 12:20 13,1 °C 82 % 1025,5 hPa 0,0 mm 3,5 km/h (1 Bft) NO 50 ° 1 min 0,000 mm 3,8 UV-I 622 W/m² 10,1 °C 13,1 °C 9,7 km/h (2 Bft)
04.10.2018 12:21 13,1 °C 82 % 1025,5 hPa 0,0 mm 3,2 km/h (1 Bft) NO 50 ° 1 min 0,000 mm 3,8 UV-I 661 W/m² 10,1 °C 13,1 °C 4,8 km/h (1 Bft)
04.10.2018 12:22 13,2 °C 82 % 1025,5 hPa 0,0 mm 5,9 km/h (2 Bft) O-NO 63 ° 1 min 0,000 mm 3,1 UV-I 661 W/m² 10,2 °C 13,2 °C 12,9 km/h (3 Bft)
04.10.2018 12:23 13,3 °C 81 % 1025,5 hPa 0,0 mm 8,2 km/h (2 Bft) NO 51 ° 1 min 0,000 mm 3,8 UV-I 636 W/m² 10,1 °C 13,3 °C 11,3 km/h (2 Bft)
04.10.2018 12:24 13,3 °C 81 % 1025,5 hPa 0,0 mm 6,1 km/h (2 Bft) O-NO 71 ° 1 min 0,000 mm 3,1 UV-I 645 W/m² 10,1 °C 13,3 °C 11,3 km/h (2 Bft)
04.10.2018 12:25 13,3 °C 82 % 1025,5 hPa 0,0 mm 7,8 km/h (2 Bft) O-NO 77 ° 1 min 0,000 mm 3,9 UV-I 656 W/m² 10,3 °C 13,3 °C 14,5 km/h (3 Bft)
04.10.2018 12:26 13,3 °C 83 % 1025,4 hPa 0,0 mm 3,0 km/h (1 Bft) NO 51 ° 1 min 0,000 mm 2,7 UV-I 621 W/m² 10,5 °C 13,3 °C 8,0 km/h (2 Bft)
04.10.2018 12:27 13,2 °C 83 % 1025,5 hPa 0,0 mm 7,4 km/h (2 Bft) NO 51 ° 1 min 0,000 mm 3,8 UV-I 642 W/m² 10,4 °C 13,2 °C 11,3 km/h (2 Bft)
04.10.2018 12:28 13,3 °C 82 % 1025,4 hPa 0,0 mm 4,7 km/h (1 Bft) NO 36 ° 1 min 0,000 mm 2,6 UV-I 642 W/m² 10,3 °C 13,3 °C 6,4 km/h (2 Bft)
04.10.2018 12:29 13,3 °C 83 % 1025,4 hPa 0,0 mm 5,7 km/h (1 Bft) NO 34 ° 1 min 0,000 mm 3,9 UV-I 650 W/m² 10,5 °C 13,3 °C 8,0 km/h (2 Bft)
04.10.2018 12:30 13,3 °C 82 % 1025,5 hPa 0,0 mm 4,7 km/h (1 Bft) NO 39 ° 1 min 0,000 mm 3,9 UV-I 664 W/m² 10,3 °C 13,3 °C 8,0 km/h (2 Bft)
04.10.2018 12:31 13,3 °C 81 % 1025,4 hPa 0,0 mm 7,6 km/h (2 Bft) O-NO 62 ° 0 min 0,000 mm 2,6 UV-I 599 W/m² 10,1 °C 13,3 °C 12,9 km/h (3 Bft)
04.10.2018 12:32 13,3 °C 82 % 1025,4 hPa 0,0 mm 5,2 km/h (1 Bft) N-NO 18 ° 1 min 0,000 mm 3,9 UV-I 670 W/m² 10,3 °C 13,3 °C 8,0 km/h (2 Bft)
04.10.2018 12:33 13,3 °C 82 % 1025,4 hPa 0,0 mm 5,1 km/h (1 Bft) N-NO 19 ° 1 min 0,000 mm 4,0 UV-I 722 W/m² 10,3 °C 13,3 °C 8,0 km/h (2 Bft)
04.10.2018 12:34 13,6 °C 84 % 1025,4 hPa 0,0 mm 4,6 km/h (1 Bft) N-NO 15 ° 1 min 0,000 mm 4,1 UV-I 726 W/m² 10,9 °C 13,6 °C 11,3 km/h (2 Bft)
04.10.2018 12:35 13,6 °C 82 % 1025,4 hPa 0,0 mm 5,5 km/h (1 Bft) N-NO 28 ° 1 min 0,000 mm 2,3 UV-I 726 W/m² 10,6 °C 13,6 °C 8,0 km/h (2 Bft)
04.10.2018 12:36 13,5 °C 82 % 1025,5 hPa 0,0 mm 4,2 km/h (1 Bft) N-NO 15 ° 1 min 0,000 mm 3,6 UV-I 726 W/m² 10,5 °C 13,5 °C 8,0 km/h (2 Bft)
04.10.2018 12:37 13,4 °C 82 % 1025,4 hPa 0,0 mm 6,6 km/h (2 Bft) N-NO 19 ° 1 min 0,000 mm 2,4 UV-I 726 W/m² 10,4 °C 13,4 °C 9,7 km/h (2 Bft)
04.10.2018 12:38 13,4 °C 82 % 1025,5 hPa 0,0 mm 5,0 km/h (1 Bft) NO 40 ° 1 min 0,000 mm 4,2 UV-I 726 W/m² 10,4 °C 13,4 °C 6,4 km/h (2 Bft)
04.10.2018 12:39 13,4 °C 81 % 1025,5 hPa 0,0 mm 5,2 km/h (1 Bft) O-NO 71 ° 1 min 0,000 mm 2,6 UV-I 726 W/m² 10,2 °C 13,4 °C 8,0 km/h (2 Bft)
04.10.2018 12:40 13,3 °C 81 % 1025,5 hPa 0,0 mm 7,3 km/h (2 Bft) O-NO 71 ° 1 min 0,000 mm 4,0 UV-I 726 W/m² 10,1 °C 13,3 °C 11,3 km/h (2 Bft)
04.10.2018 12:41 13,2 °C 82 % 1025,4 hPa 0,0 mm 4,3 km/h (1 Bft) NO 42 ° 1 min 0,000 mm 4,0 UV-I 686 W/m² 10,2 °C 13,2 °C 6,4 km/h (2 Bft)
04.10.2018 12:42 13,3 °C 82 % 1025,4 hPa 0,0 mm 2,7 km/h (1 Bft) O-NO 74 ° 1 min 0,000 mm 4,0 UV-I 687 W/m² 10,3 °C 13,3 °C 4,8 km/h (1 Bft)
04.10.2018 12:43 13,4 °C 82 % 1025,4 hPa 0,0 mm 2,0 km/h (1 Bft) NO 44 ° 1 min 0,000 mm 4,0 UV-I 689 W/m² 10,4 °C 13,4 °C 4,8 km/h (1 Bft)
04.10.2018 12:44 13,7 °C 84 % 1025,4 hPa 0,0 mm 3,6 km/h (1 Bft) O-NO 64 ° 1 min 0,000 mm 4,0 UV-I 700 W/m² 11,0 °C 13,7 °C 4,8 km/h (1 Bft)
04.10.2018 12:45 13,8 °C 83 % 1025,4 hPa 0,0 mm 2,5 km/h (1 Bft) O-NO 70 ° 1 min 0,000 mm 4,1 UV-I 694 W/m² 11,0 °C 13,8 °C 6,4 km/h (2 Bft)
04.10.2018 12:46 13,7 °C 81 % 1025,4 hPa 0,0 mm 6,3 km/h (2 Bft) O-NO 68 ° 1 min 0,000 mm 4,0 UV-I 694 W/m² 10,5 °C 13,7 °C 12,9 km/h (3 Bft)
04.10.2018 12:47 13,7 °C 81 % 1025,4 hPa 0,0 mm 10,3 km/h (2 Bft) O 85 ° 1 min 0,000 mm 2,4 UV-I 694 W/m² 10,5 °C 13,7 °C 14,5 km/h (3 Bft)
04.10.2018 12:48 13,7 °C 81 % 1025,4 hPa 0,0 mm 6,0 km/h (2 Bft) O 97 ° 0 min 0,000 mm 2,2 UV-I 185 W/m² 10,5 °C 13,7 °C 9,7 km/h (2 Bft)
04.10.2018 12:49 13,4 °C 81 % 1025,4 hPa 0,0 mm 4,2 km/h (1 Bft) O-NO 66 ° 0 min 0,000 mm 3,7 UV-I 185 W/m² 10,2 °C 13,4 °C 6,4 km/h (2 Bft)
04.10.2018 12:50 13,4 °C 81 % 1025,4 hPa 0,0 mm 5,1 km/h (1 Bft) O 80 ° 0 min 0,000 mm 4,0 UV-I 185 W/m² 10,2 °C 13,4 °C 6,4 km/h (2 Bft)
04.10.2018 12:51 13,3 °C 81 % 1025,3 hPa 0,0 mm 6,0 km/h (2 Bft) O 82 ° 1 min 0,000 mm 4,0 UV-I 657 W/m² 10,1 °C 13,3 °C 9,7 km/h (2 Bft)
04.10.2018 12:52 13,3 °C 81 % 1025,3 hPa 0,0 mm 5,8 km/h (2 Bft) N-NO 27 ° 1 min 0,000 mm 3,9 UV-I 652 W/m² 10,1 °C 13,3 °C 8,0 km/h (2 Bft)
04.10.2018 12:53 13,4 °C 82 % 1025,3 hPa 0,0 mm 4,8 km/h (1 Bft) O-NO 63 ° 1 min 0,000 mm 3,9 UV-I 640 W/m² 10,4 °C 13,4 °C 8,0 km/h (2 Bft)
04.10.2018 12:54 13,5 °C 82 % 1025,2 hPa 0,0 mm 6,2 km/h (2 Bft) NO 53 ° 1 min 0,000 mm 3,9 UV-I 650 W/m² 10,5 °C 13,5 °C 9,7 km/h (2 Bft)
04.10.2018 12:55 13,6 °C 82 % 1025,4 hPa 0,0 mm 8,5 km/h (2 Bft) O-NO 77 ° 1 min 0,000 mm 3,9 UV-I 622 W/m² 10,6 °C 13,6 °C 14,5 km/h (3 Bft)
04.10.2018 12:56 13,5 °C 81 % 1025,3 hPa 0,0 mm 6,8 km/h (2 Bft) NO 44 ° 1 min 0,000 mm 4,0 UV-I 650 W/m² 10,3 °C 13,5 °C 9,7 km/h (2 Bft)
04.10.2018 12:57 13,7 °C 82 % 1025,3 hPa 0,0 mm 6,8 km/h (2 Bft) NO 40 ° 1 min 0,000 mm 3,8 UV-I 642 W/m² 10,7 °C 13,7 °C 9,7 km/h (2 Bft)
04.10.2018 12:58 13,8 °C 81 % 1025,3 hPa 0,0 mm 10,5 km/h (2 Bft) O 94 ° 1 min 0,000 mm 3,9 UV-I 642 W/m² 10,6 °C 13,8 °C 16,1 km/h (3 Bft)
04.10.2018 12:59 13,7 °C 81 % 1025,3 hPa 0,0 mm 11,1 km/h (2 Bft) O-NO 64 ° 1 min 0,000 mm 3,9 UV-I 650 W/m² 10,5 °C 13,7 °C 16,1 km/h (3 Bft)
04.10.2018 13:00 13,7 °C 80 % 1025,3 hPa 0,0 mm 7,0 km/h (2 Bft) NO 37 ° 1 min 0,000 mm 4,0 UV-I 650 W/m² 10,3 °C 13,7 °C 14,5 km/h (3 Bft)
04.10.2018 13:01 13,8 °C 80 % 1025,3 hPa 0,0 mm 3,3 km/h (1 Bft) NO 55 ° 1 min 0,305 mm 2,5 UV-I 650 W/m² 10,4 °C 13,8 °C 11,3 km/h (2 Bft)
04.10.2018 13:02 13,7 °C 79 % 1025,3 hPa 0,0 mm 7,1 km/h (2 Bft) NO 34 ° 1 min 0,000 mm 3,6 UV-I 650 W/m² 10,1 °C 13,7 °C 9,7 km/h (2 Bft)
04.10.2018 13:03 13,7 °C 80 % 1025,3 hPa 0,0 mm 5,2 km/h (1 Bft) N-NO 30 ° 1 min 0,000 mm 3,8 UV-I 650 W/m² 10,3 °C 13,7 °C 9,7 km/h (2 Bft)
04.10.2018 13:04 13,6 °C 80 % 1025,3 hPa 0,0 mm 3,6 km/h (1 Bft) O-NO 57 ° 1 min 0,000 mm 3,8 UV-I 635 W/m² 10,2 °C 13,6 °C 4,8 km/h (1 Bft)
04.10.2018 13:05 13,6 °C 81 % 1025,2 hPa 0,0 mm 4,2 km/h (1 Bft) N-NO 19 ° 1 min 0,000 mm 3,9 UV-I 631 W/m² 10,4 °C 13,6 °C 12,9 km/h (3 Bft)
04.10.2018 13:06 13,7 °C 79 % 1025,2 hPa 0,0 mm 12,3 km/h (3 Bft) NO 36 ° 1 min 0,000 mm 3,9 UV-I 636 W/m² 10,1 °C 13,7 °C 17,7 km/h (3 Bft)
04.10.2018 13:07 13,8 °C 79 % 1025,2 hPa 0,0 mm 6,6 km/h (2 Bft) NO 44 ° 1 min 0,000 mm 3,9 UV-I 633 W/m² 10,2 °C 13,8 °C 14,5 km/h (3 Bft)
04.10.2018 13:08 13,8 °C 80 % 1025,2 hPa 0,0 mm 8,4 km/h (2 Bft) O-NO 62 ° 1 min 0,000 mm 3,9 UV-I 624 W/m² 10,4 °C 13,8 °C 14,5 km/h (3 Bft)
04.10.2018 13:09 13,8 °C 79 % 1025,2 hPa 0,0 mm 8,4 km/h (2 Bft) O 79 ° 1 min 0,000 mm 3,9 UV-I 628 W/m² 10,2 °C 13,8 °C 14,5 km/h (3 Bft)
04.10.2018 13:10 13,8 °C 79 % 1025,2 hPa 0,0 mm 9,2 km/h (2 Bft) O-NO 63 ° 1 min 0,000 mm 3,9 UV-I 640 W/m² 10,2 °C 13,8 °C 14,5 km/h (3 Bft)
04.10.2018 13:11 13,8 °C 79 % 1025,2 hPa 0,0 mm 9,6 km/h (2 Bft) N-NO 30 ° 1 min 0,000 mm 3,9 UV-I 638 W/m² 10,2 °C 13,8 °C 17,7 km/h (3 Bft)
04.10.2018 13:12 13,8 °C 79 % 1025,1 hPa 0,0 mm 3,0 km/h (1 Bft) O-NO 71 ° 1 min 0,000 mm 3,9 UV-I 638 W/m² 10,2 °C 13,8 °C 6,4 km/h (2 Bft)
04.10.2018 13:13 13,8 °C 79 % 1025,2 hPa 0,0 mm 7,4 km/h (2 Bft) NO 55 ° 1 min 0,000 mm 3,9 UV-I 636 W/m² 10,2 °C 13,8 °C 14,5 km/h (3 Bft)
04.10.2018 13:14 13,8 °C 79 % 1025,2 hPa 0,0 mm 6,3 km/h (2 Bft) O 86 ° 1 min 0,000 mm 3,9 UV-I 636 W/m² 10,2 °C 13,8 °C 8,0 km/h (2 Bft)
04.10.2018 13:15 13,8 °C 79 % 1025,1 hPa 0,0 mm 9,7 km/h (2 Bft) O 96 ° 1 min 0,000 mm 3,8 UV-I 628 W/m² 10,2 °C 13,8 °C 12,9 km/h (3 Bft)
04.10.2018 13:16 13,8 °C 79 % 1025,1 hPa 0,0 mm 6,1 km/h (2 Bft) NO 39 ° 1 min 0,000 mm 3,8 UV-I 624 W/m² 10,2 °C 13,8 °C 11,3 km/h (2 Bft)
04.10.2018 13:17 13,8 °C 79 % 1025,1 hPa 0,0 mm 6,8 km/h (2 Bft) NO 47 ° 1 min 0,000 mm 3,8 UV-I 626 W/m² 10,2 °C 13,8 °C 9,7 km/h (2 Bft)
04.10.2018 13:18 13,8 °C 78 % 1025,0 hPa 0,0 mm 7,4 km/h (2 Bft) N-NO 28 ° 1 min 0,000 mm 3,9 UV-I 629 W/m² 10,0 °C 13,8 °C 11,3 km/h (2 Bft)
04.10.2018 13:19 13,8 °C 78 % 1025,0 hPa 0,0 mm 10,7 km/h (2 Bft) N-NO 30 ° 1 min 0,000 mm 3,8 UV-I 624 W/m² 10,0 °C 13,8 °C 14,5 km/h (3 Bft)
04.10.2018 13:20 13,8 °C 78 % 1025,0 hPa 0,0 mm 11,8 km/h (2 Bft) O 82 ° 1 min 0,000 mm 3,9 UV-I 626 W/m² 10,0 °C 13,8 °C 16,1 km/h (3 Bft)
04.10.2018 13:21 13,8 °C 78 % 1025,0 hPa 0,0 mm 7,0 km/h (2 Bft) NO 44 ° 1 min 0,000 mm 3,8 UV-I 628 W/m² 10,0 °C 13,8 °C 11,3 km/h (2 Bft)
04.10.2018 13:22 13,8 °C 80 % 1024,9 hPa 0,0 mm 5,1 km/h (1 Bft) N-NO 32 ° 1 min 0,000 mm 3,8 UV-I 628 W/m² 10,4 °C 13,8 °C 6,4 km/h (2 Bft)
04.10.2018 13:23 14,1 °C 79 % 1024,9 hPa 0,0 mm 4,8 km/h (1 Bft) N 350 ° 1 min 0,000 mm 3,9 UV-I 631 W/m² 10,5 °C 14,1 °C 8,0 km/h (2 Bft)
04.10.2018 13:24 14,3 °C 79 % 1024,9 hPa 0,0 mm 6,0 km/h (2 Bft) O 80 ° 1 min 0,000 mm 3,9 UV-I 629 W/m² 10,7 °C 14,3 °C 8,0 km/h (2 Bft)
04.10.2018 13:25 14,3 °C 79 % 1024,9 hPa 0,0 mm 6,8 km/h (2 Bft) N-NO 17 ° 1 min 0,000 mm 3,9 UV-I 631 W/m² 10,7 °C 14,3 °C 11,3 km/h (2 Bft)
04.10.2018 13:26 14,2 °C 78 % 1024,9 hPa 0,0 mm 7,0 km/h (2 Bft) O 92 ° 1 min 0,000 mm 3,9 UV-I 631 W/m² 10,4 °C 14,2 °C 11,3 km/h (2 Bft)
04.10.2018 13:27 14,1 °C 78 % 1024,9 hPa 0,0 mm 8,5 km/h (2 Bft) O 92 ° 1 min 0,000 mm 3,9 UV-I 631 W/m² 10,3 °C 14,1 °C 12,9 km/h (3 Bft)
04.10.2018 13:28 14,1 °C 79 % 1024,8 hPa 0,0 mm 9,1 km/h (2 Bft) NO 48 ° 1 min 0,000 mm 3,9 UV-I 631 W/m² 10,5 °C 14,1 °C 12,9 km/h (3 Bft)
04.10.2018 13:29 14,1 °C 79 % 1024,9 hPa 0,0 mm 10,1 km/h (2 Bft) NO 53 ° 1 min 0,000 mm 3,9 UV-I 633 W/m² 10,5 °C 14,1 °C 19,3 km/h (3 Bft)
04.10.2018 13:30 14,1 °C 78 % 1024,8 hPa 0,0 mm 8,6 km/h (2 Bft) NO 49 ° 1 min 0,000 mm 3,9 UV-I 631 W/m² 10,3 °C 14,1 °C 16,1 km/h (3 Bft)
04.10.2018 13:31 14,1 °C 79 % 1024,8 hPa 0,0 mm 7,8 km/h (2 Bft) N 11 ° 1 min 0,000 mm 3,9 UV-I 631 W/m² 10,5 °C 14,1 °C 12,9 km/h (3 Bft)
04.10.2018 13:32 14,2 °C 79 % 1024,8 hPa 0,0 mm 7,1 km/h (2 Bft) NW 324 ° 1 min 0,000 mm 3,9 UV-I 629 W/m² 10,6 °C 14,2 °C 12,9 km/h (3 Bft)
04.10.2018 13:33 14,3 °C 79 % 1024,7 hPa 0,0 mm 9,2 km/h (2 Bft) O-NO 68 ° 1 min 0,000 mm 3,8 UV-I 626 W/m² 10,7 °C 14,3 °C 14,5 km/h (3 Bft)
04.10.2018 13:34 14,3 °C 78 % 1024,8 hPa 0,0 mm 6,8 km/h (2 Bft) NO 53 ° 1 min 0,000 mm 3,8 UV-I 628 W/m² 10,5 °C 14,3 °C 12,9 km/h (3 Bft)
04.10.2018 13:35 14,3 °C 79 % 1024,8 hPa 0,0 mm 10,3 km/h (2 Bft) NO 36 ° 1 min 0,000 mm 3,8 UV-I 624 W/m² 10,7 °C 14,3 °C 14,5 km/h (3 Bft)
04.10.2018 13:36 14,4 °C 78 % 1024,8 hPa 0,0 mm 9,9 km/h (2 Bft) O 90 ° 1 min 0,000 mm 3,8 UV-I 624 W/m² 10,6 °C 14,4 °C 14,5 km/h (3 Bft)
04.10.2018 13:37 14,3 °C 78 % 1024,7 hPa 0,0 mm 6,6 km/h (2 Bft) N-NO 32 ° 1 min 0,000 mm 3,8 UV-I 622 W/m² 10,5 °C 14,3 °C 9,7 km/h (2 Bft)
04.10.2018 13:38 14,3 °C 77 % 1024,8 hPa 0,0 mm 5,3 km/h (1 Bft) O 84 ° 1 min 0,000 mm 3,8 UV-I 619 W/m² 10,3 °C 14,3 °C 8,0 km/h (2 Bft)
04.10.2018 13:39 14,3 °C 77 % 1024,7 hPa 0,0 mm 7,2 km/h (2 Bft) N-NO 30 ° 1 min 0,000 mm 3,8 UV-I 624 W/m² 10,3 °C 14,3 °C 14,5 km/h (3 Bft)
04.10.2018 13:40 14,3 °C 78 % 1024,7 hPa 0,0 mm 7,2 km/h (2 Bft) NO 35 ° 1 min 0,000 mm 3,8 UV-I 621 W/m² 10,5 °C 14,3 °C 16,1 km/h (3 Bft)
04.10.2018 13:41 14,3 °C 77 % 1024,7 hPa 0,0 mm 5,8 km/h (2 Bft) NO 38 ° 1 min 0,000 mm 3,8 UV-I 619 W/m² 10,3 °C 14,3 °C 11,3 km/h (2 Bft)
04.10.2018 13:42 14,4 °C 77 % 1024,7 hPa 0,0 mm 8,4 km/h (2 Bft) NO 44 ° 1 min 0,000 mm 3,8 UV-I 615 W/m² 10,4 °C 14,4 °C 17,7 km/h (3 Bft)
04.10.2018 13:43 14,4 °C 77 % 1024,6 hPa 0,0 mm 8,2 km/h (2 Bft) O-NO 57 ° 1 min 0,000 mm 3,8 UV-I 619 W/m² 10,4 °C 14,4 °C 14,5 km/h (3 Bft)
04.10.2018 13:44 14,4 °C 77 % 1024,7 hPa 0,0 mm 9,3 km/h (2 Bft) NO 40 ° 1 min 0,000 mm 3,8 UV-I 619 W/m² 10,4 °C 14,4 °C 19,3 km/h (3 Bft)
04.10.2018 13:45 14,5 °C 77 % 1024,6 hPa 0,0 mm 7,7 km/h (2 Bft) O-NO 70 ° 1 min 0,000 mm 3,8 UV-I 613 W/m² 10,5 °C 14,5 °C 17,7 km/h (3 Bft)
04.10.2018 13:46 14,6 °C 77 % 1024,6 hPa 0,0 mm 6,0 km/h (2 Bft) O-NO 65 ° 1 min 0,000 mm 3,8 UV-I 621 W/m² 10,6 °C 14,6 °C 14,5 km/h (3 Bft)
04.10.2018 13:47 14,6 °C 77 % 1024,7 hPa 0,0 mm 5,1 km/h (1 Bft) O 80 ° 1 min 0,000 mm 3,8 UV-I 617 W/m² 10,6 °C 14,6 °C 12,9 km/h (3 Bft)
04.10.2018 13:48 14,6 °C 76 % 1024,6 hPa 0,0 mm 6,2 km/h (2 Bft) O-NO 69 ° 1 min 0,000 mm 3,8 UV-I 619 W/m² 10,4 °C 14,6 °C 12,9 km/h (3 Bft)
04.10.2018 13:49 14,5 °C 76 % 1024,6 hPa 0,0 mm 5,6 km/h (1 Bft) NO 44 ° 1 min 0,000 mm 3,8 UV-I 619 W/m² 10,3 °C 14,5 °C 8,0 km/h (2 Bft)
04.10.2018 13:50 14,5 °C 76 % 1024,6 hPa 0,0 mm 3,8 km/h (1 Bft) N 360 ° 1 min 0,000 mm 3,8 UV-I 621 W/m² 10,3 °C 14,5 °C 8,0 km/h (2 Bft)
04.10.2018 13:51 14,6 °C 77 % 1024,6 hPa 0,0 mm 1,3 km/h (1 Bft) NO 34 ° 1 min 0,000 mm 3,8 UV-I 617 W/m² 10,6 °C 14,6 °C 4,8 km/h (1 Bft)
04.10.2018 13:52 14,8 °C 78 % 1024,5 hPa 0,0 mm 9,5 km/h (2 Bft) O-NO 62 ° 1 min 0,000 mm 3,8 UV-I 617 W/m² 11,0 °C 14,8 °C 17,7 km/h (3 Bft)
04.10.2018 13:53 14,8 °C 76 % 1024,6 hPa 0,0 mm 7,8 km/h (2 Bft) NO 43 ° 1 min 0,000 mm 3,8 UV-I 617 W/m² 10,6 °C 14,8 °C 12,9 km/h (3 Bft)
04.10.2018 13:54 14,8 °C 76 % 1024,5 hPa 0,0 mm 4,9 km/h (1 Bft) N 355 ° 1 min 0,000 mm 3,8 UV-I 617 W/m² 10,6 °C 14,8 °C 6,4 km/h (2 Bft)
04.10.2018 13:55 14,9 °C 77 % 1024,5 hPa 0,0 mm 6,7 km/h (2 Bft) O-NO 57 ° 1 min 0,000 mm 3,8 UV-I 617 W/m² 10,9 °C 14,9 °C 12,9 km/h (3 Bft)
04.10.2018 13:56 14,7 °C 74 % 1024,5 hPa 0,0 mm 9,7 km/h (2 Bft) NO 41 ° 1 min 0,000 mm 3,8 UV-I 617 W/m² 10,1 °C 14,7 °C 17,7 km/h (3 Bft)
04.10.2018 13:57 14,7 °C 74 % 1024,5 hPa 0,0 mm 6,8 km/h (2 Bft) NO 54 ° 1 min 0,000 mm 3,8 UV-I 617 W/m² 10,1 °C 14,7 °C 11,3 km/h (2 Bft)
04.10.2018 13:58 14,8 °C 76 % 1024,5 hPa 0,0 mm 4,1 km/h (1 Bft) NO 44 ° 1 min 0,000 mm 3,8 UV-I 617 W/m² 10,6 °C 14,8 °C 8,0 km/h (2 Bft)
04.10.2018 13:59 15,0 °C 77 % 1024,4 hPa 0,0 mm 4,2 km/h (1 Bft) O-NO 63 ° 1 min 0,000 mm 3,8 UV-I 617 W/m² 11,0 °C 15,0 °C 9,7 km/h (2 Bft)
04.10.2018 14:00 15,1 °C 75 % 1024,4 hPa 0,0 mm 6,6 km/h (2 Bft) O-SO 114 ° 1 min 0,000 mm 3,8 UV-I 615 W/m² 10,7 °C 15,1 °C 12,9 km/h (3 Bft)
04.10.2018 14:01 14,9 °C 76 % 1024,5 hPa 0,0 mm 5,4 km/h (1 Bft) O 91 ° 1 min 0,330 mm 3,8 UV-I 613 W/m² 10,7 °C 14,9 °C 9,7 km/h (2 Bft)
04.10.2018 14:02 14,9 °C 74 % 1024,4 hPa 0,0 mm 2,1 km/h (1 Bft) NO 54 ° 1 min 0,000 mm 3,8 UV-I 612 W/m² 10,3 °C 14,9 °C 8,0 km/h (2 Bft)
04.10.2018 14:03 14,8 °C 75 % 1024,4 hPa 0,0 mm 3,3 km/h (1 Bft) SO 124 ° 1 min 0,000 mm 3,8 UV-I 612 W/m² 10,4 °C 14,8 °C 8,0 km/h (2 Bft)
04.10.2018 14:04 14,9 °C 75 % 1024,4 hPa 0,0 mm 6,8 km/h (2 Bft) S 169 ° 1 min 0,000 mm 3,7 UV-I 612 W/m² 10,5 °C 14,9 °C 14,5 km/h (3 Bft)
04.10.2018 14:05 14,9 °C 74 % 1024,4 hPa 0,0 mm 3,2 km/h (1 Bft) O-NO 67 ° 1 min 0,000 mm 3,7 UV-I 610 W/m² 10,3 °C 14,9 °C 4,8 km/h (1 Bft)
04.10.2018 14:06 14,9 °C 76 % 1024,4 hPa 0,0 mm 3,8 km/h (1 Bft) O 92 ° 1 min 0,000 mm 3,7 UV-I 610 W/m² 10,7 °C 14,9 °C 4,8 km/h (1 Bft)
04.10.2018 14:07 14,9 °C 75 % 1024,3 hPa 0,0 mm 5,1 km/h (1 Bft) O 84 ° 1 min 0,000 mm 3,7 UV-I 608 W/m² 10,5 °C 14,9 °C 12,9 km/h (3 Bft)
04.10.2018 14:08 14,9 °C 75 % 1024,3 hPa 0,0 mm 4,4 km/h (1 Bft) O-NO 59 ° 1 min 0,000 mm 3,7 UV-I 608 W/m² 10,5 °C 14,9 °C 9,7 km/h (2 Bft)
04.10.2018 14:09 15,0 °C 75 % 1024,3 hPa 0,0 mm 4,9 km/h (1 Bft) O-NO 67 ° 1 min 0,000 mm 3,7 UV-I 606 W/m² 10,6 °C 15,0 °C 14,5 km/h (3 Bft)
04.10.2018 14:10 15,2 °C 75 % 1024,3 hPa 0,0 mm 10,1 km/h (2 Bft) N-NW 344 ° 1 min 0,000 mm 3,7 UV-I 605 W/m² 10,8 °C 15,2 °C 16,1 km/h (3 Bft)
04.10.2018 14:11 15,2 °C 76 % 1024,4 hPa 0,0 mm 5,1 km/h (1 Bft) O-NO 67 ° 1 min 0,000 mm 3,7 UV-I 605 W/m² 11,0 °C 15,2 °C 9,7 km/h (2 Bft)
04.10.2018 14:12 15,2 °C 73 % 1024,3 hPa 0,0 mm 10,4 km/h (2 Bft) NO 36 ° 1 min 0,000 mm 3,7 UV-I 605 W/m² 10,4 °C 15,2 °C 16,1 km/h (3 Bft)
04.10.2018 14:13 15,2 °C 72 % 1024,3 hPa 0,0 mm 8,5 km/h (2 Bft) N-NO 18 ° 1 min 0,000 mm 3,7 UV-I 601 W/m² 10,2 °C 15,2 °C 16,1 km/h (3 Bft)
04.10.2018 14:14 15,2 °C 73 % 1024,3 hPa 0,0 mm 10,4 km/h (2 Bft) N-NO 29 ° 0 min 0,000 mm 3,6 UV-I 599 W/m² 10,4 °C 15,2 °C 16,1 km/h (3 Bft)
04.10.2018 14:15 15,2 °C 73 % 1024,3 hPa 0,0 mm 3,4 km/h (1 Bft) NO 34 ° 0 min 0,000 mm 3,6 UV-I 598 W/m² 10,4 °C 15,2 °C 4,8 km/h (1 Bft)
04.10.2018 14:16 15,3 °C 74 % 1024,3 hPa 0,0 mm 4,6 km/h (1 Bft) O-NO 78 ° 0 min 0,000 mm 3,6 UV-I 596 W/m² 10,7 °C 15,3 °C 8,0 km/h (2 Bft)
04.10.2018 14:17 15,4 °C 73 % 1024,3 hPa 0,0 mm 6,2 km/h (2 Bft) O 100 ° 0 min 0,000 mm 3,6 UV-I 596 W/m² 10,6 °C 15,4 °C 11,3 km/h (2 Bft)
04.10.2018 14:18 15,3 °C 73 % 1024,3 hPa 0,0 mm 8,7 km/h (2 Bft) NO 37 ° 0 min 0,000 mm 3,6 UV-I 594 W/m² 10,5 °C 15,3 °C 14,5 km/h (3 Bft)
04.10.2018 14:19 15,3 °C 72 % 1024,3 hPa 0,0 mm 13,7 km/h (3 Bft) NO 36 ° 0 min 0,000 mm 3,6 UV-I 592 W/m² 10,3 °C 15,3 °C 20,9 km/h (4 Bft)
04.10.2018 14:20 15,3 °C 72 % 1024,4 hPa 0,0 mm 10,5 km/h (2 Bft) NO 38 ° 0 min 0,000 mm 3,6 UV-I 592 W/m² 10,3 °C 15,3 °C 14,5 km/h (3 Bft)
04.10.2018 14:21 15,3 °C 72 % 1024,3 hPa 0,0 mm 5,3 km/h (1 Bft) O-NO 67 ° 0 min 0,000 mm 3,5 UV-I 591 W/m² 10,3 °C 15,3 °C 8,0 km/h (2 Bft)
04.10.2018 14:22 15,3 °C 73 % 1024,3 hPa 0,0 mm 5,4 km/h (1 Bft) O-NO 78 ° 0 min 0,000 mm 3,5 UV-I 589 W/m² 10,5 °C 15,3 °C 8,0 km/h (2 Bft)
04.10.2018 14:23 15,3 °C 73 % 1024,3 hPa 0,0 mm 7,8 km/h (2 Bft) N 11 ° 0 min 0,000 mm 3,5 UV-I 587 W/m² 10,5 °C 15,3 °C 12,9 km/h (3 Bft)
04.10.2018 14:24 15,3 °C 74 % 1024,3 hPa 0,0 mm 7,6 km/h (2 Bft) NO 39 ° 0 min 0,000 mm 3,5 UV-I 585 W/m² 10,7 °C 15,3 °C 14,5 km/h (3 Bft)
04.10.2018 14:25 15,3 °C 73 % 1024,4 hPa 0,0 mm 5,8 km/h (2 Bft) O-NO 76 ° 0 min 0,000 mm 3,5 UV-I 584 W/m² 10,5 °C 15,3 °C 16,1 km/h (3 Bft)
04.10.2018 14:26 15,3 °C 73 % 1024,3 hPa 0,0 mm 4,2 km/h (1 Bft) N-NO 29 ° 0 min 0,000 mm 3,5 UV-I 584 W/m² 10,5 °C 15,3 °C 11,3 km/h (2 Bft)
04.10.2018 14:27 15,4 °C 74 % 1024,3 hPa 0,0 mm 7,9 km/h (2 Bft) NO 55 ° 0 min 0,000 mm 3,5 UV-I 580 W/m² 10,8 °C 15,4 °C 12,9 km/h (3 Bft)
04.10.2018 14:28 15,5 °C 73 % 1024,3 hPa 0,0 mm 6,9 km/h (2 Bft) NO 34 ° 0 min 0,000 mm 3,5 UV-I 580 W/m² 10,7 °C 15,5 °C 9,7 km/h (2 Bft)
04.10.2018 14:29 15,5 °C 72 % 1024,3 hPa 0,0 mm 9,9 km/h (2 Bft) NO 38 ° 0 min 0,000 mm 3,4 UV-I 580 W/m² 10,5 °C 15,5 °C 17,7 km/h (3 Bft)
04.10.2018 14:30 15,5 °C 72 % 1024,3 hPa 0,0 mm 5,5 km/h (1 Bft) N-NO 32 ° 0 min 0,000 mm 3,4 UV-I 577 W/m² 10,5 °C 15,5 °C 11,3 km/h (2 Bft)
04.10.2018 14:31 15,5 °C 73 % 1024,3 hPa 0,0 mm 5,8 km/h (2 Bft) SO 130 ° 0 min 0,000 mm 3,4 UV-I 577 W/m² 10,7 °C 15,5 °C 11,3 km/h (2 Bft)
04.10.2018 14:32 15,4 °C 73 % 1024,3 hPa 0,0 mm 7,5 km/h (2 Bft) O 89 ° 0 min 0,000 mm 3,4 UV-I 577 W/m² 10,6 °C 15,4 °C 11,3 km/h (2 Bft)
04.10.2018 14:33 15,4 °C 73 % 1024,3 hPa 0,0 mm 5,6 km/h (1 Bft) NO 51 ° 0 min 0,000 mm 3,4 UV-I 573 W/m² 10,6 °C 15,4 °C 9,7 km/h (2 Bft)
04.10.2018 14:34 15,3 °C 74 % 1024,3 hPa 0,0 mm 5,0 km/h (1 Bft) O-NO 70 ° 0 min 0,000 mm 3,4 UV-I 568 W/m² 10,7 °C 15,3 °C 8,0 km/h (2 Bft)
04.10.2018 14:35 15,3 °C 73 % 1024,2 hPa 0,0 mm 7,5 km/h (2 Bft) NO 55 ° 0 min 0,000 mm 3,4 UV-I 573 W/m² 10,5 °C 15,3 °C 12,9 km/h (3 Bft)
04.10.2018 14:36 15,3 °C 73 % 1024,3 hPa 0,0 mm 9,1 km/h (2 Bft) O 80 ° 0 min 0,000 mm 3,3 UV-I 568 W/m² 10,5 °C 15,3 °C 17,7 km/h (3 Bft)
04.10.2018 14:37 15,3 °C 74 % 1024,3 hPa 0,0 mm 6,3 km/h (2 Bft) O-NO 71 ° 0 min 0,000 mm 3,4 UV-I 570 W/m² 10,7 °C 15,3 °C 11,3 km/h (2 Bft)
04.10.2018 14:38 15,3 °C 73 % 1024,3 hPa 0,0 mm 8,0 km/h (2 Bft) O 88 ° 0 min 0,000 mm 3,3 UV-I 566 W/m² 10,5 °C 15,3 °C 11,3 km/h (2 Bft)
04.10.2018 14:39 15,3 °C 73 % 1024,2 hPa 0,0 mm 4,6 km/h (1 Bft) N-NO 16 ° 0 min 0,000 mm 3,3 UV-I 568 W/m² 10,5 °C 15,3 °C 12,9 km/h (3 Bft)
04.10.2018 14:40 15,3 °C 73 % 1024,3 hPa 0,0 mm 8,6 km/h (2 Bft) O-NO 72 ° 0 min 0,000 mm 3,3 UV-I 568 W/m² 10,5 °C 15,3 °C 16,1 km/h (3 Bft)
04.10.2018 14:41 15,3 °C 73 % 1024,3 hPa 0,0 mm 7,0 km/h (2 Bft) O-NO 67 ° 0 min 0,000 mm 3,3 UV-I 566 W/m² 10,5 °C 15,3 °C 12,9 km/h (3 Bft)
04.10.2018 14:42 15,2 °C 73 % 1024,3 hPa 0,0 mm 6,2 km/h (2 Bft) O 80 ° 0 min 0,000 mm 3,3 UV-I 563 W/m² 10,4 °C 15,2 °C 11,3 km/h (2 Bft)
04.10.2018 14:43 15,2 °C 76 % 1024,3 hPa 0,0 mm 5,0 km/h (1 Bft) N-NO 24 ° 0 min 0,000 mm 3,3 UV-I 563 W/m² 11,0 °C 15,2 °C 11,3 km/h (2 Bft)
04.10.2018 14:44 15,3 °C 75 % 1024,2 hPa 0,0 mm 3,5 km/h (1 Bft) O-NO 70 ° 0 min 0,000 mm 3,3 UV-I 563 W/m² 10,9 °C 15,3 °C 4,8 km/h (1 Bft)
04.10.2018 14:45 15,3 °C 76 % 1024,2 hPa 0,0 mm 8,6 km/h (2 Bft) O-NO 64 ° 0 min 0,000 mm 3,3 UV-I 561 W/m² 11,1 °C 15,3 °C 16,1 km/h (3 Bft)
04.10.2018 14:46 15,3 °C 75 % 1024,2 hPa 0,0 mm 5,1 km/h (1 Bft) O 88 ° 0 min 0,000 mm 3,2 UV-I 557 W/m² 10,9 °C 15,3 °C 9,7 km/h (2 Bft)
04.10.2018 14:47 15,4 °C 74 % 1024,2 hPa 0,0 mm 8,0 km/h (2 Bft) O-NO 75 ° 0 min 0,000 mm 3,2 UV-I 554 W/m² 10,8 °C 15,4 °C 14,5 km/h (3 Bft)
04.10.2018 14:48 15,4 °C 75 % 1024,2 hPa 0,0 mm 7,1 km/h (2 Bft) N-NO 20 ° 0 min 0,000 mm 3,2 UV-I 554 W/m² 11,0 °C 15,4 °C 12,9 km/h (3 Bft)
04.10.2018 14:49 15,5 °C 74 % 1024,1 hPa 0,0 mm 3,8 km/h (1 Bft) NO 55 ° 0 min 0,000 mm 3,2 UV-I 554 W/m² 10,9 °C 15,5 °C 8,0 km/h (2 Bft)
04.10.2018 14:50 15,6 °C 74 % 1024,1 hPa 0,0 mm 7,7 km/h (2 Bft) O-SO 121 ° 0 min 0,000 mm 3,2 UV-I 552 W/m² 11,0 °C 15,6 °C 12,9 km/h (3 Bft)
04.10.2018 14:51 15,4 °C 74 % 1024,1 hPa 0,0 mm 4,1 km/h (1 Bft) O 98 ° 0 min 0,000 mm 3,2 UV-I 550 W/m² 10,8 °C 15,4 °C 8,0 km/h (2 Bft)
04.10.2018 14:52 15,4 °C 74 % 1024,1 hPa 0,0 mm 6,9 km/h (2 Bft) O-NO 59 ° 0 min 0,000 mm 3,2 UV-I 548 W/m² 10,8 °C 15,4 °C 11,3 km/h (2 Bft)
04.10.2018 14:53 15,5 °C 75 % 1024,1 hPa 0,0 mm 6,1 km/h (2 Bft) O-NO 67 ° 0 min 0,000 mm 3,2 UV-I 547 W/m² 11,1 °C 15,5 °C 12,9 km/h (3 Bft)
04.10.2018 14:54 15,6 °C 74 % 1024,2 hPa 0,0 mm 9,2 km/h (2 Bft) NO 42 ° 0 min 0,000 mm 3,1 UV-I 545 W/m² 11,0 °C 15,6 °C 16,1 km/h (3 Bft)
04.10.2018 14:55 15,5 °C 74 % 1024,2 hPa 0,0 mm 9,6 km/h (2 Bft) O 80 ° 0 min 0,000 mm 3,1 UV-I 545 W/m² 10,9 °C 15,5 °C 14,5 km/h (3 Bft)
04.10.2018 14:56 15,5 °C 74 % 1024,2 hPa 0,0 mm 10,7 km/h (2 Bft) O 82 ° 0 min 0,000 mm 3,1 UV-I 541 W/m² 10,9 °C 15,5 °C 14,5 km/h (3 Bft)
04.10.2018 14:57 15,5 °C 74 % 1024,2 hPa 0,0 mm 5,0 km/h (1 Bft) N 11 ° 0 min 0,000 mm 3,1 UV-I 540 W/m² 10,9 °C 15,5 °C 9,7 km/h (2 Bft)
04.10.2018 14:58 15,6 °C 74 % 1024,1 hPa 0,0 mm 9,7 km/h (2 Bft) O 80 ° 0 min 0,000 mm 3,1 UV-I 534 W/m² 11,0 °C 15,6 °C 17,7 km/h (3 Bft)
04.10.2018 14:59 15,5 °C 74 % 1024,2 hPa 0,0 mm 12,0 km/h (2 Bft) O 85 ° 0 min 0,000 mm 3,1 UV-I 534 W/m² 10,9 °C 15,5 °C 16,1 km/h (3 Bft)
04.10.2018 15:00 15,4 °C 73 % 1024,1 hPa 0,0 mm 11,1 km/h (2 Bft) O-NO 64 ° 0 min 0,000 mm 3,0 UV-I 531 W/m² 10,6 °C 15,4 °C 17,7 km/h (3 Bft)
04.10.2018 15:01 15,4 °C 74 % 1024,2 hPa 0,0 mm 8,4 km/h (2 Bft) NO 50 ° 0 min 0,331 mm 3,0 UV-I 526 W/m² 10,8 °C 15,4 °C 16,1 km/h (3 Bft)
04.10.2018 15:02 15,3 °C 73 % 1024,1 hPa 0,0 mm 3,8 km/h (1 Bft) NO 37 ° 0 min 0,000 mm 3,0 UV-I 526 W/m² 10,5 °C 15,3 °C 6,4 km/h (2 Bft)
04.10.2018 15:03 15,3 °C 74 % 1024,2 hPa 0,0 mm 8,0 km/h (2 Bft) NO 36 ° 0 min 0,000 mm 2,9 UV-I 519 W/m² 10,7 °C 15,3 °C 12,9 km/h (3 Bft)
04.10.2018 15:04 15,4 °C 74 % 1024,1 hPa 0,0 mm 7,0 km/h (2 Bft) N 5 ° 0 min 0,000 mm 2,9 UV-I 517 W/m² 10,8 °C 15,4 °C 11,3 km/h (2 Bft)
04.10.2018 15:05 15,4 °C 75 % 1024,1 hPa 0,0 mm 9,9 km/h (2 Bft) O 90 ° 0 min 0,000 mm 3,0 UV-I 524 W/m² 11,0 °C 15,4 °C 14,5 km/h (3 Bft)
04.10.2018 15:06 15,5 °C 74 % 1024,2 hPa 0,0 mm 8,5 km/h (2 Bft) O-NO 59 ° 0 min 0,000 mm 2,9 UV-I 522 W/m² 10,9 °C 15,5 °C 16,1 km/h (3 Bft)
04.10.2018 15:07 15,5 °C 74 % 1024,2 hPa 0,0 mm 9,5 km/h (2 Bft) O-NO 67 ° 0 min 0,000 mm 2,9 UV-I 519 W/m² 10,9 °C 15,5 °C 14,5 km/h (3 Bft)
04.10.2018 15:08 15,5 °C 73 % 1024,1 hPa 0,0 mm 6,1 km/h (2 Bft) NO 35 ° 0 min 0,000 mm 2,9 UV-I 519 W/m² 10,7 °C 15,5 °C 12,9 km/h (3 Bft)
04.10.2018 15:09 15,6 °C 74 % 1024,1 hPa 0,0 mm 5,2 km/h (1 Bft) NO 46 ° 0 min 0,000 mm 2,9 UV-I 513 W/m² 11,0 °C 15,6 °C 9,7 km/h (2 Bft)
04.10.2018 15:10 15,6 °C 74 % 1024,1 hPa 0,0 mm 5,8 km/h (2 Bft) O-NO 74 ° 0 min 0,000 mm 2,8 UV-I 510 W/m² 11,0 °C 15,6 °C 9,7 km/h (2 Bft)
04.10.2018 15:11 15,7 °C 73 % 1024,2 hPa 0,0 mm 6,8 km/h (2 Bft) NO 38 ° 0 min 0,000 mm 2,8 UV-I 512 W/m² 10,9 °C 15,7 °C 11,3 km/h (2 Bft)
04.10.2018 15:12 15,8 °C 73 % 1024,1 hPa 0,0 mm 6,8 km/h (2 Bft) O-NO 59 ° 0 min 0,000 mm 2,8 UV-I 510 W/m² 11,0 °C 15,8 °C 12,9 km/h (3 Bft)
04.10.2018 15:13 15,7 °C 73 % 1024,2 hPa 0,0 mm 9,9 km/h (2 Bft) NO 38 ° 0 min 0,000 mm 2,8 UV-I 508 W/m² 10,9 °C 15,7 °C 17,7 km/h (3 Bft)
04.10.2018 15:14 15,7 °C 73 % 1024,2 hPa 0,0 mm 12,1 km/h (2 Bft) N-NO 30 ° 0 min 0,000 mm 2,8 UV-I 504 W/m² 10,9 °C 15,7 °C 16,1 km/h (3 Bft)
04.10.2018 15:15 15,6 °C 73 % 1024,2 hPa 0,0 mm 7,8 km/h (2 Bft) NO 49 ° 0 min 0,000 mm 2,8 UV-I 504 W/m² 10,8 °C 15,6 °C 14,5 km/h (3 Bft)
04.10.2018 15:16 15,6 °C 74 % 1024,1 hPa 0,0 mm 7,4 km/h (2 Bft) O 98 ° 0 min 0,000 mm 2,8 UV-I 503 W/m² 11,0 °C 15,6 °C 16,1 km/h (3 Bft)
04.10.2018 15:17 15,4 °C 74 % 1024,1 hPa 0,0 mm 3,8 km/h (1 Bft) N-NO 30 ° 0 min 0,000 mm 2,7 UV-I 499 W/m² 10,8 °C 15,4 °C 8,0 km/h (2 Bft)
04.10.2018 15:18 15,5 °C 74 % 1024,2 hPa 0,0 mm 7,0 km/h (2 Bft) O 79 ° 0 min 0,000 mm 2,7 UV-I 497 W/m² 10,9 °C 15,5 °C 11,3 km/h (2 Bft)
04.10.2018 15:19 15,4 °C 74 % 1024,1 hPa 0,0 mm 6,1 km/h (2 Bft) O-NO 60 ° 0 min 0,000 mm 2,7 UV-I 497 W/m² 10,8 °C 15,4 °C 11,3 km/h (2 Bft)
04.10.2018 15:20 15,5 °C 74 % 1024,1 hPa 0,0 mm 7,4 km/h (2 Bft) O-NO 68 ° 0 min 0,000 mm 2,7 UV-I 494 W/m² 10,9 °C 15,5 °C 14,5 km/h (3 Bft)
04.10.2018 15:21 15,5 °C 73 % 1024,1 hPa 0,0 mm 2,8 km/h (1 Bft) N-NO 21 ° 0 min 0,000 mm 2,7 UV-I 496 W/m² 10,7 °C 15,5 °C 11,3 km/h (2 Bft)
04.10.2018 15:22 15,5 °C 74 % 1024,0 hPa 0,0 mm 1,3 km/h (1 Bft) O 79 ° 0 min 0,000 mm 2,7 UV-I 492 W/m² 10,9 °C 15,5 °C 4,8 km/h (1 Bft)
04.10.2018 15:23 15,4 °C 74 % 1024,1 hPa 0,0 mm 9,3 km/h (2 Bft) O 82 ° 0 min 0,000 mm 2,7 UV-I 489 W/m² 10,8 °C 15,4 °C 16,1 km/h (3 Bft)
04.10.2018 15:24 15,4 °C 74 % 1024,0 hPa 0,0 mm 11,3 km/h (2 Bft) NO 37 ° 0 min 0,000 mm 2,6 UV-I 487 W/m² 10,8 °C 15,4 °C 17,7 km/h (3 Bft)
04.10.2018 15:25 15,5 °C 74 % 1024,0 hPa 0,0 mm 7,1 km/h (2 Bft) N-NO 31 ° 0 min 0,000 mm 2,6 UV-I 485 W/m² 10,9 °C 15,5 °C 9,7 km/h (2 Bft)
04.10.2018 15:26 15,6 °C 74 % 1024,0 hPa 0,0 mm 8,9 km/h (2 Bft) N-NO 32 ° 0 min 0,000 mm 2,6 UV-I 482 W/m² 11,0 °C 15,6 °C 14,5 km/h (3 Bft)
04.10.2018 15:27 15,6 °C 73 % 1023,9 hPa 0,0 mm 7,6 km/h (2 Bft) N-NO 22 ° 0 min 0,000 mm 2,6 UV-I 480 W/m² 10,8 °C 15,6 °C 11,3 km/h (2 Bft)
04.10.2018 15:28 15,6 °C 72 % 1024,0 hPa 0,0 mm 12,7 km/h (3 Bft) O-SO 107 ° 0 min 0,000 mm 2,6 UV-I 478 W/m² 10,6 °C 15,6 °C 16,1 km/h (3 Bft)
04.10.2018 15:29 15,6 °C 73 % 1023,9 hPa 0,0 mm 3,7 km/h (1 Bft) NO 55 ° 0 min 0,000 mm 2,5 UV-I 476 W/m² 10,8 °C 15,6 °C 6,4 km/h (2 Bft)
04.10.2018 15:30 15,6 °C 73 % 1024,0 hPa 0,0 mm 5,8 km/h (2 Bft) NO 55 ° 0 min 0,000 mm 2,5 UV-I 475 W/m² 10,8 °C 15,6 °C 9,7 km/h (2 Bft)
04.10.2018 15:31 15,6 °C 75 % 1023,9 hPa 0,0 mm 1,3 km/h (1 Bft) O-SO 109 ° 0 min 0,000 mm 2,5 UV-I 473 W/m² 11,2 °C 15,6 °C 3,2 km/h (1 Bft)
04.10.2018 15:32 15,6 °C 74 % 1023,9 hPa 0,0 mm 7,2 km/h (2 Bft) N 360 ° 0 min 0,000 mm 2,5 UV-I 471 W/m² 11,0 °C 15,6 °C 16,1 km/h (3 Bft)
04.10.2018 15:33 15,5 °C 73 % 1023,9 hPa 0,0 mm 6,8 km/h (2 Bft) NO 51 ° 0 min 0,000 mm 2,5 UV-I 469 W/m² 10,7 °C 15,5 °C 12,9 km/h (3 Bft)
04.10.2018 15:34 15,6 °C 73 % 1023,9 hPa 0,0 mm 11,8 km/h (2 Bft) O-NO 75 ° 0 min 0,000 mm 2,4 UV-I 466 W/m² 10,8 °C 15,6 °C 16,1 km/h (3 Bft)
04.10.2018 15:35 15,6 °C 73 % 1023,8 hPa 0,0 mm 7,5 km/h (2 Bft) O-NO 61 ° 0 min 0,000 mm 2,4 UV-I 457 W/m² 10,8 °C 15,6 °C 14,5 km/h (3 Bft)
04.10.2018 15:36 15,6 °C 73 % 1023,8 hPa 0,0 mm 13,2 km/h (3 Bft) N-NO 18 ° 0 min 0,000 mm 2,4 UV-I 457 W/m² 10,8 °C 15,6 °C 17,7 km/h (3 Bft)
04.10.2018 15:37 15,6 °C 73 % 1023,8 hPa 0,0 mm 8,6 km/h (2 Bft) NO 51 ° 0 min 0,000 mm 2,4 UV-I 457 W/m² 10,8 °C 15,6 °C 14,5 km/h (3 Bft)
04.10.2018 15:38 15,7 °C 72 % 1023,8 hPa 0,0 mm 8,2 km/h (2 Bft) O-NO 76 ° 0 min 0,000 mm 2,4 UV-I 457 W/m² 10,7 °C 15,7 °C 11,3 km/h (2 Bft)
04.10.2018 15:39 15,7 °C 73 % 1023,8 hPa 0,0 mm 6,9 km/h (2 Bft) O-NO 59 ° 0 min 0,000 mm 2,3 UV-I 455 W/m² 10,9 °C 15,7 °C 14,5 km/h (3 Bft)
04.10.2018 15:40 15,7 °C 73 % 1023,8 hPa 0,0 mm 5,0 km/h (1 Bft) N-NO 24 ° 0 min 0,000 mm 2,3 UV-I 452 W/m² 10,9 °C 15,7 °C 8,0 km/h (2 Bft)
04.10.2018 15:41 15,7 °C 73 % 1023,8 hPa 0,0 mm 10,7 km/h (2 Bft) NO 55 ° 0 min 0,000 mm 2,3 UV-I 436 W/m² 10,9 °C 15,7 °C 14,5 km/h (3 Bft)
04.10.2018 15:42 15,7 °C 72 % 1023,8 hPa 0,0 mm 8,4 km/h (2 Bft) O-NO 74 ° 0 min 0,000 mm 1,5 UV-I 436 W/m² 10,7 °C 15,7 °C 14,5 km/h (3 Bft)
04.10.2018 15:43 15,6 °C 72 % 1023,8 hPa 0,0 mm 9,3 km/h (2 Bft) O-NO 64 ° 0 min 0,000 mm 1,5 UV-I 436 W/m² 10,6 °C 15,6 °C 16,1 km/h (3 Bft)
04.10.2018 15:44 15,6 °C 73 % 1023,7 hPa 0,0 mm 12,7 km/h (3 Bft) N-NO 17 ° 0 min 0,000 mm 2,3 UV-I 446 W/m² 10,8 °C 15,6 °C 19,3 km/h (3 Bft)
04.10.2018 15:45 15,6 °C 74 % 1023,8 hPa 0,0 mm 6,7 km/h (2 Bft) O-NO 63 ° 0 min 0,000 mm 2,3 UV-I 443 W/m² 11,0 °C 15,6 °C 9,7 km/h (2 Bft)
04.10.2018 15:46 15,6 °C 74 % 1023,7 hPa 0,0 mm 9,8 km/h (2 Bft) O 91 ° 0 min 0,000 mm 2,2 UV-I 441 W/m² 11,0 °C 15,6 °C 16,1 km/h (3 Bft)
04.10.2018 15:47 15,5 °C 73 % 1023,7 hPa 0,0 mm 8,4 km/h (2 Bft) N-NO 27 ° 0 min 0,000 mm 2,2 UV-I 438 W/m² 10,7 °C 15,5 °C 11,3 km/h (2 Bft)
04.10.2018 15:48 15,4 °C 73 % 1023,7 hPa 0,0 mm 8,2 km/h (2 Bft) NO 34 ° 0 min 0,000 mm 2,2 UV-I 436 W/m² 10,6 °C 15,4 °C 17,7 km/h (3 Bft)
04.10.2018 15:49 15,5 °C 74 % 1023,7 hPa 0,0 mm 8,4 km/h (2 Bft) O-SO 102 ° 0 min 0,000 mm 2,2 UV-I 434 W/m² 10,9 °C 15,5 °C 12,9 km/h (3 Bft)
04.10.2018 15:50 15,6 °C 73 % 1023,8 hPa 0,0 mm 7,7 km/h (2 Bft) NO 42 ° 0 min 0,000 mm 2,2 UV-I 431 W/m² 10,8 °C 15,6 °C 14,5 km/h (3 Bft)
04.10.2018 15:51 15,6 °C 73 % 1023,7 hPa 0,0 mm 7,1 km/h (2 Bft) O-NO 58 ° 0 min 0,000 mm 2,2 UV-I 427 W/m² 10,8 °C 15,6 °C 14,5 km/h (3 Bft)
04.10.2018 15:52 15,6 °C 73 % 1023,7 hPa 0,0 mm 7,9 km/h (2 Bft) NO 53 ° 0 min 0,000 mm 2,2 UV-I 424 W/m² 10,8 °C 15,6 °C 12,9 km/h (3 Bft)
04.10.2018 15:53 15,6 °C 73 % 1023,7 hPa 0,0 mm 12,5 km/h (3 Bft) NO 46 ° 0 min 0,000 mm 2,1 UV-I 420 W/m² 10,8 °C 15,6 °C 20,9 km/h (4 Bft)
04.10.2018 15:54 15,6 °C 73 % 1023,8 hPa 0,0 mm 7,3 km/h (2 Bft) NO 42 ° 0 min 0,000 mm 2,1 UV-I 417 W/m² 10,8 °C 15,6 °C 17,7 km/h (3 Bft)
04.10.2018 15:55 15,6 °C 72 % 1023,7 hPa 0,0 mm 8,9 km/h (2 Bft) O-NO 57 ° 0 min 0,000 mm 2,1 UV-I 418 W/m² 10,6 °C 15,6 °C 14,5 km/h (3 Bft)
04.10.2018 15:56 15,5 °C 72 % 1023,7 hPa 0,0 mm 6,9 km/h (2 Bft) O 82 ° 0 min 0,000 mm 2,1 UV-I 415 W/m² 10,5 °C 15,5 °C 14,5 km/h (3 Bft)
04.10.2018 15:57 15,4 °C 73 % 1023,7 hPa 0,0 mm 9,5 km/h (2 Bft) O-NO 69 ° 0 min 0,000 mm 2,1 UV-I 413 W/m² 10,6 °C 15,4 °C 14,5 km/h (3 Bft)
04.10.2018 15:58 15,4 °C 74 % 1023,7 hPa 0,0 mm 10,7 km/h (2 Bft) NO 55 ° 0 min 0,000 mm 2,1 UV-I 415 W/m² 10,8 °C 15,4 °C 16,1 km/h (3 Bft)
04.10.2018 15:59 15,4 °C 73 % 1023,7 hPa 0,0 mm 7,2 km/h (2 Bft) NO 36 ° 0 min 0,000 mm 2,0 UV-I 411 W/m² 10,6 °C 15,4 °C 16,1 km/h (3 Bft)
04.10.2018 16:00 15,4 °C 73 % 1023,7 hPa 0,0 mm 10,5 km/h (2 Bft) NO 38 ° 0 min 0,000 mm 2,0 UV-I 408 W/m² 10,6 °C 15,4 °C 16,1 km/h (3 Bft)
04.10.2018 16:01 15,4 °C 73 % 1023,6 hPa 0,0 mm 8,7 km/h (2 Bft) NO 47 ° 0 min 0,279 mm 2,0 UV-I 404 W/m² 10,6 °C 15,4 °C 14,5 km/h (3 Bft)
04.10.2018 16:02 15,4 °C 73 % 1023,6 hPa 0,0 mm 5,2 km/h (1 Bft) NO 56 ° 0 min 0,000 mm 1,9 UV-I 399 W/m² 10,6 °C 15,4 °C 8,0 km/h (2 Bft)
04.10.2018 16:03 15,4 °C 73 % 1023,6 hPa 0,0 mm 6,6 km/h (2 Bft) NO 51 ° 0 min 0,000 mm 1,9 UV-I 397 W/m² 10,6 °C 15,4 °C 11,3 km/h (2 Bft)
04.10.2018 16:04 15,4 °C 73 % 1023,6 hPa 0,0 mm 9,1 km/h (2 Bft) O 101 ° 0 min 0,000 mm 1,9 UV-I 394 W/m² 10,6 °C 15,4 °C 14,5 km/h (3 Bft)
04.10.2018 16:05 15,4 °C 73 % 1023,6 hPa 0,0 mm 7,0 km/h (2 Bft) O-NO 75 ° 0 min 0,000 mm 1,9 UV-I 392 W/m² 10,6 °C 15,4 °C 11,3 km/h (2 Bft)
04.10.2018 16:06 15,4 °C 73 % 1023,7 hPa 0,0 mm 7,8 km/h (2 Bft) NO 39 ° 0 min 0,000 mm 1,8 UV-I 390 W/m² 10,6 °C 15,4 °C 17,7 km/h (3 Bft)
04.10.2018 16:07 15,4 °C 73 % 1023,6 hPa 0,0 mm 8,0 km/h (2 Bft) NO 39 ° 0 min 0,000 mm 1,8 UV-I 387 W/m² 10,6 °C 15,4 °C 12,9 km/h (3 Bft)
04.10.2018 16:08 15,4 °C 73 % 1023,6 hPa 0,0 mm 8,5 km/h (2 Bft) O-NO 67 ° 0 min 0,000 mm 1,8 UV-I 388 W/m² 10,6 °C 15,4 °C 14,5 km/h (3 Bft)
04.10.2018 16:09 15,4 °C 73 % 1023,6 hPa 0,0 mm 6,6 km/h (2 Bft) NO 40 ° 0 min 0,000 mm 1,8 UV-I 387 W/m² 10,6 °C 15,4 °C 9,7 km/h (2 Bft)
04.10.2018 16:10 15,4 °C 73 % 1023,6 hPa 0,0 mm 4,3 km/h (1 Bft) O-NO 66 ° 0 min 0,000 mm 1,7 UV-I 376 W/m² 10,6 °C 15,4 °C 8,0 km/h (2 Bft)
04.10.2018 16:11 15,4 °C 73 % 1023,6 hPa 0,0 mm 10,3 km/h (2 Bft) NO 44 ° 0 min 0,000 mm 1,7 UV-I 378 W/m² 10,6 °C 15,4 °C 16,1 km/h (3 Bft)
04.10.2018 16:12 15,4 °C 73 % 1023,7 hPa 0,0 mm 7,4 km/h (2 Bft) N-NO 21 ° 0 min 0,000 mm 1,7 UV-I 357 W/m² 10,6 °C 15,4 °C 9,7 km/h (2 Bft)
04.10.2018 16:13 15,4 °C 72 % 1023,7 hPa 0,0 mm 5,8 km/h (2 Bft) O 95 ° 0 min 0,000 mm 1,5 UV-I 329 W/m² 10,4 °C 15,4 °C 8,0 km/h (2 Bft)
04.10.2018 16:14 15,4 °C 72 % 1023,6 hPa 0,0 mm 7,8 km/h (2 Bft) NO 47 ° 0 min 0,000 mm 1,3 UV-I 329 W/m² 10,4 °C 15,4 °C 11,3 km/h (2 Bft)
04.10.2018 16:15 15,3 °C 73 % 1023,7 hPa 0,0 mm 6,2 km/h (2 Bft) O-NO 64 ° 0 min 0,000 mm 0,0 UV-I 329 W/m² 10,5 °C 15,3 °C 9,7 km/h (2 Bft)
04.10.2018 16:16 15,3 °C 73 % 1023,6 hPa 0,0 mm 4,2 km/h (1 Bft) O 79 ° 0 min 0,000 mm 0,0 UV-I 42 W/m² 10,5 °C 15,3 °C 6,4 km/h (2 Bft)
04.10.2018 16:17 15,3 °C 73 % 1023,6 hPa 0,0 mm 2,5 km/h (1 Bft) N-NO 29 ° 0 min 0,000 mm 0,0 UV-I 49 W/m² 10,5 °C 15,3 °C 4,8 km/h (1 Bft)
04.10.2018 16:18 15,3 °C 73 % 1023,6 hPa 0,0 mm 4,2 km/h (1 Bft) N-NO 28 ° 0 min 0,000 mm 0,0 UV-I 46 W/m² 10,5 °C 15,3 °C 9,7 km/h (2 Bft)
04.10.2018 16:19 15,3 °C 73 % 1023,7 hPa 0,0 mm 11,4 km/h (2 Bft) O-NO 74 ° 0 min 0,000 mm 0,0 UV-I 39 W/m² 10,5 °C 15,3 °C 14,5 km/h (3 Bft)
04.10.2018 16:20 15,3 °C 73 % 1023,6 hPa 0,0 mm 11,3 km/h (2 Bft) O-NO 71 ° 0 min 0,000 mm 0,0 UV-I 35 W/m² 10,5 °C 15,3 °C 16,1 km/h (3 Bft)
04.10.2018 16:21 15,3 °C 72 % 1023,7 hPa 0,0 mm 11,2 km/h (2 Bft) N-NO 33 ° 0 min 0,000 mm 0,0 UV-I 47 W/m² 10,3 °C 15,3 °C 22,5 km/h (4 Bft)
04.10.2018 16:22 15,3 °C 72 % 1023,6 hPa 0,0 mm 6,4 km/h (2 Bft) O-NO 74 ° 0 min 0,000 mm 0,0 UV-I 42 W/m² 10,3 °C 15,3 °C 14,5 km/h (3 Bft)
04.10.2018 16:23 15,2 °C 72 % 1023,7 hPa 0,0 mm 7,8 km/h (2 Bft) O-NO 76 ° 0 min 0,000 mm 0,0 UV-I 35 W/m² 10,2 °C 15,2 °C 14,5 km/h (3 Bft)
04.10.2018 16:24 15,2 °C 73 % 1023,6 hPa 0,0 mm 3,1 km/h (1 Bft) N-NO 28 ° 0 min 0,000 mm 0,0 UV-I 35 W/m² 10,4 °C 15,2 °C 4,8 km/h (1 Bft)
04.10.2018 16:25 15,2 °C 72 % 1023,6 hPa 0,0 mm 9,4 km/h (2 Bft) NO 38 ° 0 min 0,000 mm 0,0 UV-I 35 W/m² 10,2 °C 15,2 °C 17,7 km/h (3 Bft)
04.10.2018 16:26 15,2 °C 72 % 1023,6 hPa 0,0 mm 9,0 km/h (2 Bft) N-NO 26 ° 0 min 0,000 mm 0,0 UV-I 32 W/m² 10,2 °C 15,2 °C 16,1 km/h (3 Bft)
04.10.2018 16:27 15,1 °C 72 % 1023,6 hPa 0,0 mm 10,0 km/h (2 Bft) NO 38 ° 0 min 0,000 mm 0,0 UV-I 32 W/m² 10,1 °C 15,1 °C 16,1 km/h (3 Bft)
04.10.2018 16:28 15,1 °C 72 % 1023,6 hPa 0,0 mm 5,2 km/h (1 Bft) N-NO 31 ° 0 min 0,000 mm 0,0 UV-I 32 W/m² 10,1 °C 15,1 °C 9,7 km/h (2 Bft)
04.10.2018 16:29 15,1 °C 72 % 1023,6 hPa 0,0 mm 8,3 km/h (2 Bft) NO 50 ° 0 min 0,000 mm 0,0 UV-I 35 W/m² 10,1 °C 15,1 °C 14,5 km/h (3 Bft)
04.10.2018 16:30 15,1 °C 72 % 1023,6 hPa 0,0 mm 6,3 km/h (2 Bft) NO 39 ° 0 min 0,000 mm 0,0 UV-I 35 W/m² 10,1 °C 15,1 °C 14,5 km/h (3 Bft)
04.10.2018 16:31 15,1 °C 72 % 1023,6 hPa 0,0 mm 8,9 km/h (2 Bft) O-NO 64 ° 0 min 0,000 mm 0,0 UV-I 33 W/m² 10,1 °C 15,1 °C 14,5 km/h (3 Bft)
04.10.2018 16:32 15,1 °C 72 % 1023,5 hPa 0,0 mm 5,1 km/h (1 Bft) NO 51 ° 0 min 0,000 mm 0,0 UV-I 30 W/m² 10,1 °C 15,1 °C 9,7 km/h (2 Bft)
04.10.2018 16:33 15,1 °C 72 % 1023,6 hPa 0,0 mm 7,0 km/h (2 Bft) O 86 ° 0 min 0,000 mm 0,0 UV-I 30 W/m² 10,1 °C 15,1 °C 14,5 km/h (3 Bft)
04.10.2018 16:34 15,0 °C 73 % 1023,6 hPa 0,0 mm 9,1 km/h (2 Bft) NO 51 ° 0 min 0,000 mm 0,0 UV-I 30 W/m² 10,2 °C 15,0 °C 14,5 km/h (3 Bft)
04.10.2018 16:35 15,0 °C 74 % 1023,6 hPa 0,0 mm 3,6 km/h (1 Bft) N-NO 30 ° 0 min 0,000 mm 0,0 UV-I 30 W/m² 10,4 °C 15,0 °C 6,4 km/h (2 Bft)
04.10.2018 16:36 14,9 °C 73 % 1023,5 hPa 0,0 mm 3,1 km/h (1 Bft) O 82 ° 0 min 0,000 mm 0,0 UV-I 30 W/m² 10,1 °C 14,9 °C 6,4 km/h (2 Bft)
04.10.2018 16:37 14,9 °C 74 % 1023,5 hPa 0,0 mm 2,5 km/h (1 Bft) NO 46 ° 0 min 0,000 mm 0,0 UV-I 30 W/m² 10,3 °C 14,9 °C 6,4 km/h (2 Bft)
04.10.2018 16:38 14,9 °C 74 % 1023,5 hPa 0,0 mm 8,4 km/h (2 Bft) O-NO 77 ° 0 min 0,000 mm 0,0 UV-I 32 W/m² 10,3 °C 14,9 °C 14,5 km/h (3 Bft)
04.10.2018 16:39 14,9 °C 74 % 1023,6 hPa 0,0 mm 10,7 km/h (2 Bft) NO 35 ° 0 min 0,000 mm 0,0 UV-I 37 W/m² 10,3 °C 14,9 °C 14,5 km/h (3 Bft)
04.10.2018 16:40 14,9 °C 72 % 1023,6 hPa 0,0 mm 5,1 km/h (1 Bft) N-NO 31 ° 0 min 0,000 mm 0,0 UV-I 40 W/m² 9,9 °C 14,9 °C 11,3 km/h (2 Bft)
04.10.2018 16:41 14,9 °C 73 % 1023,5 hPa 0,0 mm 4,4 km/h (1 Bft) NO 34 ° 0 min 0,000 mm 0,0 UV-I 35 W/m² 10,1 °C 14,9 °C 9,7 km/h (2 Bft)
04.10.2018 16:42 14,9 °C 72 % 1023,5 hPa 0,0 mm 7,0 km/h (2 Bft) NO 36 ° 0 min 0,000 mm 0,0 UV-I 35 W/m² 9,9 °C 14,9 °C 11,3 km/h (2 Bft)
04.10.2018 16:43 14,9 °C 72 % 1023,6 hPa 0,0 mm 10,4 km/h (2 Bft) O-NO 75 ° 0 min 0,000 mm 0,0 UV-I 39 W/m² 9,9 °C 14,9 °C 17,7 km/h (3 Bft)
04.10.2018 16:44 14,9 °C 72 % 1023,5 hPa 0,0 mm 7,6 km/h (2 Bft) NO 46 ° 0 min 0,000 mm 0,9 UV-I 67 W/m² 9,9 °C 14,9 °C 14,5 km/h (3 Bft)
04.10.2018 16:45 14,9 °C 72 % 1023,5 hPa 0,0 mm 6,0 km/h (2 Bft) NO 41 ° 0 min 0,000 mm 0,9 UV-I 83 W/m² 9,9 °C 14,9 °C 9,7 km/h (2 Bft)
04.10.2018 16:46 14,9 °C 72 % 1023,5 hPa 0,0 mm 9,1 km/h (2 Bft) N-NO 30 ° 0 min 0,000 mm 0,9 UV-I 40 W/m² 9,9 °C 14,9 °C 19,3 km/h (3 Bft)
04.10.2018 16:47 14,9 °C 72 % 1023,5 hPa 0,0 mm 9,0 km/h (2 Bft) N-NO 23 ° 0 min 0,000 mm 0,0 UV-I 35 W/m² 9,9 °C 14,9 °C 17,7 km/h (3 Bft)
04.10.2018 16:48 14,9 °C 72 % 1023,5 hPa 0,0 mm 7,6 km/h (2 Bft) NO 49 ° 0 min 0,000 mm 0,0 UV-I 30 W/m² 9,9 °C 14,9 °C 11,3 km/h (2 Bft)
04.10.2018 16:49 14,9 °C 72 % 1023,4 hPa 0,0 mm 6,2 km/h (2 Bft) NO 55 ° 0 min 0,000 mm 0,0 UV-I 28 W/m² 9,9 °C 14,9 °C 11,3 km/h (2 Bft)
04.10.2018 16:50 14,9 °C 72 % 1023,5 hPa 0,0 mm 7,0 km/h (2 Bft) NO 56 ° 0 min 0,000 mm 0,0 UV-I 35 W/m² 9,9 °C 14,9 °C 9,7 km/h (2 Bft)
04.10.2018 16:51 14,9 °C 72 % 1023,4 hPa 0,0 mm 5,7 km/h (1 Bft) N-NO 26 ° 0 min 0,000 mm 0,0 UV-I 32 W/m² 9,9 °C 14,9 °C 8,0 km/h (2 Bft)
04.10.2018 16:52 14,9 °C 72 % 1023,4 hPa 0,0 mm 6,2 km/h (2 Bft) O-NO 70 ° 0 min 0,000 mm 0,0 UV-I 30 W/m² 9,9 °C 14,9 °C 9,7 km/h (2 Bft)
04.10.2018 16:53 14,9 °C 72 % 1023,4 hPa 0,0 mm 7,4 km/h (2 Bft) NO 56 ° 0 min 0,000 mm 0,0 UV-I 28 W/m² 9,9 °C 14,9 °C 9,7 km/h (2 Bft)
04.10.2018 16:54 14,9 °C 72 % 1023,4 hPa 0,0 mm 5,4 km/h (1 Bft) NO 44 ° 0 min 0,000 mm 0,0 UV-I 30 W/m² 9,9 °C 14,9 °C 11,3 km/h (2 Bft)
04.10.2018 16:55 14,9 °C 73 % 1023,5 hPa 0,0 mm 4,6 km/h (1 Bft) NO 46 ° 0 min 0,000 mm 0,0 UV-I 26 W/m² 10,1 °C 14,9 °C 9,7 km/h (2 Bft)
04.10.2018 16:56 14,9 °C 72 % 1023,4 hPa 0,0 mm 4,9 km/h (1 Bft) O 95 ° 0 min 0,000 mm 0,0 UV-I 26 W/m² 9,9 °C 14,9 °C 12,9 km/h (3 Bft)
04.10.2018 16:57 14,8 °C 72 % 1023,4 hPa 0,0 mm 6,4 km/h (2 Bft) O-NO 73 ° 0 min 0,000 mm 0,0 UV-I 26 W/m² 9,8 °C 14,8 °C 11,3 km/h (2 Bft)
04.10.2018 16:58 14,8 °C 72 % 1023,4 hPa 0,0 mm 9,0 km/h (2 Bft) NO 53 ° 0 min 0,000 mm 0,0 UV-I 26 W/m² 9,8 °C 14,8 °C 14,5 km/h (3 Bft)
04.10.2018 16:59 14,8 °C 72 % 1023,5 hPa 0,0 mm 9,4 km/h (2 Bft) O-SO 107 ° 0 min 0,000 mm 0,0 UV-I 26 W/m² 9,8 °C 14,8 °C 16,1 km/h (3 Bft)
04.10.2018 17:00 14,8 °C 71 % 1023,5 hPa 0,0 mm 8,3 km/h (2 Bft) N 5 ° 0 min 0,000 mm 0,0 UV-I 26 W/m² 9,6 °C 14,8 °C 11,3 km/h (2 Bft)
04.10.2018 17:01 14,8 °C 72 % 1023,5 hPa 0,0 mm 5,3 km/h (1 Bft) NO 39 ° 0 min 0,076 mm 0,0 UV-I 26 W/m² 9,8 °C 14,8 °C 8,0 km/h (2 Bft)
04.10.2018 17:02 14,8 °C 72 % 1023,5 hPa 0,0 mm 7,3 km/h (2 Bft) NO 49 ° 0 min 0,000 mm 0,0 UV-I 26 W/m² 9,8 °C 14,8 °C 14,5 km/h (3 Bft)
04.10.2018 17:03 14,8 °C 72 % 1023,5 hPa 0,0 mm 8,6 km/h (2 Bft) NO 42 ° 0 min 0,000 mm 0,0 UV-I 26 W/m² 9,8 °C 14,8 °C 14,5 km/h (3 Bft)
04.10.2018 17:04 14,8 °C 72 % 1023,4 hPa 0,0 mm 9,0 km/h (2 Bft) NO 56 ° 0 min 0,000 mm 0,0 UV-I 26 W/m² 9,8 °C 14,8 °C 12,9 km/h (3 Bft)
04.10.2018 17:05 14,8 °C 71 % 1023,4 hPa 0,0 mm 6,6 km/h (2 Bft) NO 55 ° 0 min 0,000 mm 0,0 UV-I 26 W/m² 9,6 °C 14,8 °C 16,1 km/h (3 Bft)
04.10.2018 17:06 14,8 °C 71 % 1023,4 hPa 0,0 mm 8,2 km/h (2 Bft) N-NO 26 ° 0 min 0,000 mm 0,0 UV-I 26 W/m² 9,6 °C 14,8 °C 14,5 km/h (3 Bft)
04.10.2018 17:07 14,8 °C 72 % 1023,5 hPa 0,0 mm 6,9 km/h (2 Bft) O 80 ° 0 min 0,000 mm 0,0 UV-I 26 W/m² 9,8 °C 14,8 °C 9,7 km/h (2 Bft)
04.10.2018 17:08 14,7 °C 72 % 1023,4 hPa 0,0 mm 8,0 km/h (2 Bft) NO 39 ° 0 min 0,000 mm 0,0 UV-I 26 W/m² 9,7 °C 14,7 °C 14,5 km/h (3 Bft)
04.10.2018 17:09 14,7 °C 72 % 1023,4 hPa 0,0 mm 8,0 km/h (2 Bft) O-NO 58 ° 0 min 0,000 mm 0,0 UV-I 26 W/m² 9,7 °C 14,7 °C 12,9 km/h (3 Bft)
04.10.2018 17:10 14,7 °C 72 % 1023,4 hPa 0,0 mm 6,2 km/h (2 Bft) O-NO 61 ° 0 min 0,000 mm 0,0 UV-I 26 W/m² 9,7 °C 14,7 °C 9,7 km/h (2 Bft)
04.10.2018 17:11 14,7 °C 72 % 1023,4 hPa 0,0 mm 7,1 km/h (2 Bft) NO 47 ° 0 min 0,000 mm 0,0 UV-I 26 W/m² 9,7 °C 14,7 °C 11,3 km/h (2 Bft)
04.10.2018 17:12 14,7 °C 72 % 1023,4 hPa 0,0 mm 7,0 km/h (2 Bft) SO 134 ° 0 min 0,000 mm 0,0 UV-I 25 W/m² 9,7 °C 14,7 °C 9,7 km/h (2 Bft)
04.10.2018 17:13 14,7 °C 72 % 1023,4 hPa 0,0 mm 7,3 km/h (2 Bft) N-NO 33 ° 0 min 0,000 mm 0,0 UV-I 25 W/m² 9,7 °C 14,7 °C 14,5 km/h (3 Bft)
04.10.2018 17:14 14,7 °C 72 % 1023,4 hPa 0,0 mm 5,1 km/h (1 Bft) O-NO 57 ° 0 min 0,000 mm 0,0 UV-I 25 W/m² 9,7 °C 14,7 °C 8,0 km/h (2 Bft)
04.10.2018 17:15 14,6 °C 72 % 1023,4 hPa 0,0 mm 7,2 km/h (2 Bft) NO 55 ° 0 min 0,000 mm 0,0 UV-I 25 W/m² 9,6 °C 14,6 °C 9,7 km/h (2 Bft)
04.10.2018 17:16 14,6 °C 72 % 1023,4 hPa 0,0 mm 2,3 km/h (1 Bft) NO 49 ° 0 min 0,000 mm 0,0 UV-I 25 W/m² 9,6 °C 14,6 °C 4,8 km/h (1 Bft)
04.10.2018 17:17 14,6 °C 72 % 1023,4 hPa 0,0 mm 6,8 km/h (2 Bft) N-NO 29 ° 0 min 0,000 mm 0,0 UV-I 25 W/m² 9,6 °C 14,6 °C 11,3 km/h (2 Bft)
04.10.2018 17:18 14,7 °C 72 % 1023,4 hPa 0,0 mm 4,2 km/h (1 Bft) O-NO 76 ° 0 min 0,000 mm 0,0 UV-I 25 W/m² 9,7 °C 14,7 °C 9,7 km/h (2 Bft)
04.10.2018 17:19 14,6 °C 72 % 1023,4 hPa 0,0 mm 4,2 km/h (1 Bft) N-NO 27 ° 0 min 0,000 mm 0,0 UV-I 25 W/m² 9,6 °C 14,6 °C 8,0 km/h (2 Bft)
04.10.2018 17:20 14,6 °C 72 % 1023,4 hPa 0,0 mm 7,5 km/h (2 Bft) O-NO 63 ° 0 min 0,000 mm 0,0 UV-I 25 W/m² 9,6 °C 14,6 °C 14,5 km/h (3 Bft)
04.10.2018 17:21 14,6 °C 72 % 1023,3 hPa 0,0 mm 8,3 km/h (2 Bft) NO 44 ° 0 min 0,000 mm 0,0 UV-I 25 W/m² 9,6 °C 14,6 °C 9,7 km/h (2 Bft)
04.10.2018 17:22 14,6 °C 72 % 1023,4 hPa 0,0 mm 5,3 km/h (1 Bft) N-NO 29 ° 0 min 0,000 mm 0,0 UV-I 25 W/m² 9,6 °C 14,6 °C 14,5 km/h (3 Bft)
04.10.2018 17:23 14,6 °C 72 % 1023,4 hPa 0,0 mm 5,2 km/h (1 Bft) NO 55 ° 0 min 0,000 mm 0,0 UV-I 25 W/m² 9,6 °C 14,6 °C 11,3 km/h (2 Bft)
04.10.2018 17:24 14,5 °C 72 % 1023,3 hPa 0,0 mm 5,3 km/h (1 Bft) NO 48 ° 0 min 0,000 mm 0,0 UV-I 25 W/m² 9,5 °C 14,5 °C 8,0 km/h (2 Bft)
04.10.2018 17:25 14,4 °C 73 % 1023,3 hPa 0,0 mm 5,0 km/h (1 Bft) O-NO 63 ° 0 min 0,000 mm 0,0 UV-I 25 W/m² 9,6 °C 14,4 °C 6,4 km/h (2 Bft)
04.10.2018 17:26 14,4 °C 73 % 1023,4 hPa 0,0 mm 5,7 km/h (1 Bft) O-NO 67 ° 0 min 0,000 mm 0,0 UV-I 25 W/m² 9,6 °C 14,4 °C 8,0 km/h (2 Bft)
04.10.2018 17:27 14,4 °C 73 % 1023,4 hPa 0,0 mm 6,6 km/h (2 Bft) N 360 ° 0 min 0,000 mm 0,0 UV-I 25 W/m² 9,6 °C 14,4 °C 11,3 km/h (2 Bft)
04.10.2018 17:28 14,4 °C 73 % 1023,3 hPa 0,0 mm 7,9 km/h (2 Bft) O-SO 103 ° 0 min 0,000 mm 0,0 UV-I 25 W/m² 9,6 °C 14,4 °C 12,9 km/h (3 Bft)
04.10.2018 17:29 14,4 °C 73 % 1023,4 hPa 0,0 mm 6,9 km/h (2 Bft) O 84 ° 0 min 0,000 mm 0,0 UV-I 23 W/m² 9,6 °C 14,4 °C 12,9 km/h (3 Bft)
04.10.2018 17:30 14,4 °C 73 % 1023,3 hPa 0,0 mm 4,0 km/h (1 Bft) N-NO 27 ° 0 min 0,000 mm 0,0 UV-I 23 W/m² 9,6 °C 14,4 °C 6,4 km/h (2 Bft)
04.10.2018 17:31 14,3 °C 73 % 1023,4 hPa 0,0 mm 7,8 km/h (2 Bft) O-NO 57 ° 0 min 0,000 mm 0,0 UV-I 23 W/m² 9,5 °C 14,3 °C 11,3 km/h (2 Bft)
04.10.2018 17:32 14,4 °C 73 % 1023,3 hPa 0,0 mm 9,9 km/h (2 Bft) NO 42 ° 0 min 0,000 mm 0,0 UV-I 23 W/m² 9,6 °C 14,4 °C 14,5 km/h (3 Bft)
04.10.2018 17:33 14,4 °C 73 % 1023,3 hPa 0,0 mm 7,2 km/h (2 Bft) NO 51 ° 0 min 0,000 mm 0,0 UV-I 23 W/m² 9,6 °C 14,4 °C 14,5 km/h (3 Bft)
04.10.2018 17:34 14,4 °C 73 % 1023,3 hPa 0,0 mm 6,8 km/h (2 Bft) N-NO 32 ° 0 min 0,000 mm 0,0 UV-I 23 W/m² 9,6 °C 14,4 °C 9,7 km/h (2 Bft)
04.10.2018 17:35 14,4 °C 73 % 1023,3 hPa 0,0 mm 7,3 km/h (2 Bft) NO 48 ° 0 min 0,000 mm 0,0 UV-I 23 W/m² 9,6 °C 14,4 °C 11,3 km/h (2 Bft)
04.10.2018 17:36 14,4 °C 73 % 1023,3 hPa 0,0 mm 6,3 km/h (2 Bft) N-NO 27 ° 0 min 0,000 mm 0,0 UV-I 23 W/m² 9,6 °C 14,4 °C 9,7 km/h (2 Bft)
04.10.2018 17:37 14,4 °C 73 % 1023,2 hPa 0,0 mm 4,5 km/h (1 Bft) O-NO 77 ° 0 min 0,000 mm 0,0 UV-I 23 W/m² 9,6 °C 14,4 °C 9,7 km/h (2 Bft)
04.10.2018 17:38 14,4 °C 73 % 1023,2 hPa 0,0 mm 3,0 km/h (1 Bft) NO 49 ° 0 min 0,000 mm 0,0 UV-I 23 W/m² 9,6 °C 14,4 °C 4,8 km/h (1 Bft)
04.10.2018 17:39 14,3 °C 73 % 1023,3 hPa 0,0 mm 1,0 km/h (0 Bft) NO 49 ° 0 min 0,000 mm 0,0 UV-I 21 W/m² 9,5 °C 14,3 °C 3,2 km/h (1 Bft)
04.10.2018 17:40 14,2 °C 74 % 1023,3 hPa 0,0 mm 0,2 km/h (0 Bft) NO 49 ° 0 min 0,000 mm 0,0 UV-I 21 W/m² 9,6 °C 14,2 °C 1,6 km/h (1 Bft)
04.10.2018 17:41 14,1 °C 75 % 1023,3 hPa 0,0 mm 9,1 km/h (2 Bft) NO 51 ° 0 min 0,000 mm 0,0 UV-I 21 W/m² 9,7 °C 14,1 °C 14,5 km/h (3 Bft)
04.10.2018 17:42 14,0 °C 75 % 1023,2 hPa 0,0 mm 3,7 km/h (1 Bft) O 98 ° 0 min 0,000 mm 0,0 UV-I 21 W/m² 9,6 °C 14,0 °C 4,8 km/h (1 Bft)
04.10.2018 17:43 13,9 °C 76 % 1023,2 hPa 0,0 mm 3,3 km/h (1 Bft) N-NO 15 ° 0 min 0,000 mm 0,0 UV-I 21 W/m² 9,7 °C 13,9 °C 6,4 km/h (2 Bft)
04.10.2018 17:44 13,8 °C 76 % 1023,3 hPa 0,0 mm 4,3 km/h (1 Bft) NO 55 ° 0 min 0,000 mm 0,0 UV-I 21 W/m² 9,6 °C 13,8 °C 9,7 km/h (2 Bft)
04.10.2018 17:45 13,7 °C 77 % 1023,2 hPa 0,0 mm 4,8 km/h (1 Bft) O-SO 110 ° 0 min 0,000 mm 0,0 UV-I 21 W/m² 9,7 °C 13,7 °C 9,7 km/h (2 Bft)
04.10.2018 17:46 13,7 °C 77 % 1023,3 hPa 0,0 mm 3,8 km/h (1 Bft) O 91 ° 0 min 0,000 mm 0,0 UV-I 21 W/m² 9,7 °C 13,7 °C 8,0 km/h (2 Bft)
04.10.2018 17:47 13,7 °C 77 % 1023,2 hPa 0,0 mm 3,4 km/h (1 Bft) O-SO 102 ° 0 min 0,000 mm 0,0 UV-I 21 W/m² 9,7 °C 13,7 °C 4,8 km/h (1 Bft)
04.10.2018 17:48 13,7 °C 77 % 1023,2 hPa 0,0 mm 2,7 km/h (1 Bft) N-NO 26 ° 0 min 0,000 mm 0,0 UV-I 21 W/m² 9,7 °C 13,7 °C 8,0 km/h (2 Bft)
04.10.2018 17:49 13,7 °C 77 % 1023,2 hPa 0,0 mm 2,8 km/h (1 Bft) NO 52 ° 0 min 0,000 mm 0,0 UV-I 19 W/m² 9,7 °C 13,7 °C 4,8 km/h (1 Bft)
04.10.2018 17:50 13,7 °C 77 % 1023,3 hPa 0,0 mm 1,2 km/h (1 Bft) NO 52 ° 0 min 0,000 mm 0,0 UV-I 19 W/m² 9,7 °C 13,7 °C 3,2 km/h (1 Bft)
04.10.2018 17:51 13,5 °C 78 % 1023,2 hPa 0,0 mm 1,6 km/h (1 Bft) O-SO 121 ° 0 min 0,000 mm 0,0 UV-I 19 W/m² 9,7 °C 13,5 °C 3,2 km/h (1 Bft)
04.10.2018 17:52 13,4 °C 78 % 1023,2 hPa 0,0 mm 0,0 km/h (0 Bft) O-SO 121 ° 0 min 0,000 mm 0,0 UV-I 19 W/m² 9,6 °C 13,4 °C 0,0 km/h (0 Bft)
04.10.2018 17:53 13,4 °C 79 % 1023,2 hPa 0,0 mm 0,8 km/h (0 Bft) NO 46 ° 0 min 0,000 mm 0,0 UV-I 19 W/m² 9,8 °C 13,4 °C 3,2 km/h (1 Bft)
04.10.2018 17:54 13,4 °C 79 % 1023,2 hPa 0,0 mm 0,9 km/h (0 Bft) NO 46 ° 0 min 0,000 mm 0,0 UV-I 19 W/m² 9,8 °C 13,4 °C 1,6 km/h (1 Bft)
04.10.2018 17:55 13,4 °C 79 % 1023,2 hPa 0,0 mm 2,7 km/h (1 Bft) O-SO 112 ° 0 min 0,000 mm 0,0 UV-I 19 W/m² 9,8 °C 13,4 °C 6,4 km/h (2 Bft)
04.10.2018 17:56 13,4 °C 79 % 1023,2 hPa 0,0 mm 1,8 km/h (1 Bft) O-SO 103 ° 0 min 0,000 mm 0,0 UV-I 19 W/m² 9,8 °C 13,4 °C 3,2 km/h (1 Bft)
04.10.2018 17:57 13,4 °C 79 % 1023,2 hPa 0,0 mm 1,2 km/h (1 Bft) O-SO 103 ° 0 min 0,000 mm 0,0 UV-I 18 W/m² 9,8 °C 13,4 °C 1,6 km/h (1 Bft)
04.10.2018 17:58 13,3 °C 79 % 1023,2 hPa 0,0 mm 0,0 km/h (0 Bft) O-SO 103 ° 0 min 0,000 mm 0,0 UV-I 18 W/m² 9,7 °C 13,3 °C 0,0 km/h (0 Bft)
04.10.2018 17:59 13,3 °C 79 % 1023,2 hPa 0,0 mm 3,6 km/h (1 Bft) O-NO 57 ° 0 min 0,000 mm 0,0 UV-I 18 W/m² 9,7 °C 13,3 °C 9,7 km/h (2 Bft)
04.10.2018 18:00 13,2 °C 80 % 1023,2 hPa 0,0 mm 3,4 km/h (1 Bft) SO 146 ° 0 min 0,000 mm 0,0 UV-I 18 W/m² 9,8 °C 13,2 °C 4,8 km/h (1 Bft)
04.10.2018 18:01 13,2 °C 80 % 1023,2 hPa 0,0 mm 3,2 km/h (1 Bft) NO 42 ° 0 min 0,026 mm 0,0 UV-I 18 W/m² 9,8 °C 13,2 °C 8,0 km/h (2 Bft)
04.10.2018 18:02 13,2 °C 80 % 1023,2 hPa 0,0 mm 3,5 km/h (1 Bft) O 94 ° 0 min 0,000 mm 0,0 UV-I 18 W/m² 9,8 °C 13,2 °C 9,7 km/h (2 Bft)
04.10.2018 18:03 13,2 °C 80 % 1023,2 hPa 0,0 mm 2,8 km/h (1 Bft) O-SO 102 ° 0 min 0,000 mm 0,0 UV-I 18 W/m² 9,8 °C 13,2 °C 9,7 km/h (2 Bft)
04.10.2018 18:04 13,2 °C 80 % 1023,2 hPa 0,0 mm 3,6 km/h (1 Bft) SO 132 ° 0 min 0,000 mm 0,0 UV-I 18 W/m² 9,8 °C 13,2 °C 6,4 km/h (2 Bft)
04.10.2018 18:05 13,1 °C 80 % 1023,2 hPa 0,0 mm 1,9 km/h (1 Bft) O 94 ° 0 min 0,000 mm 0,0 UV-I 16 W/m² 9,7 °C 13,1 °C 3,2 km/h (1 Bft)
04.10.2018 18:06 13,2 °C 79 % 1023,2 hPa 0,0 mm 2,0 km/h (1 Bft) O 96 ° 0 min 0,000 mm 0,0 UV-I 16 W/m² 9,6 °C 13,2 °C 6,4 km/h (2 Bft)
04.10.2018 18:07 13,2 °C 79 % 1023,2 hPa 0,0 mm 0,8 km/h (0 Bft) O-SO 111 ° 0 min 0,000 mm 0,0 UV-I 16 W/m² 9,6 °C 13,2 °C 3,2 km/h (1 Bft)
04.10.2018 18:08 13,2 °C 79 % 1023,2 hPa 0,0 mm 5,2 km/h (1 Bft) O-NO 74 ° 0 min 0,000 mm 0,0 UV-I 16 W/m² 9,6 °C 13,2 °C 6,4 km/h (2 Bft)
04.10.2018 18:09 13,1 °C 80 % 1023,2 hPa 0,0 mm 1,7 km/h (1 Bft) O-SO 105 ° 0 min 0,000 mm 0,0 UV-I 16 W/m² 9,7 °C 13,1 °C 4,8 km/h (1 Bft)
04.10.2018 18:10 13,1 °C 80 % 1023,2 hPa 0,0 mm 0,5 km/h (0 Bft) O-SO 105 ° 0 min 0,000 mm 0,0 UV-I 16 W/m² 9,7 °C 13,1 °C 1,6 km/h (1 Bft)
04.10.2018 18:11 12,9 °C 80 % 1023,2 hPa 0,0 mm 0,8 km/h (0 Bft) O-SO 105 ° 0 min 0,000 mm 0,0 UV-I 16 W/m² 9,5 °C 12,9 °C 3,2 km/h (1 Bft)
04.10.2018 18:12 12,9 °C 80 % 1023,2 hPa 0,0 mm 0,1 km/h (0 Bft) O-SO 105 ° 0 min 0,000 mm 0,0 UV-I 16 W/m² 9,5 °C 12,9 °C 1,6 km/h (1 Bft)
04.10.2018 18:13 12,9 °C 80 % 1023,2 hPa 0,0 mm 0,3 km/h (0 Bft) O-SO 105 ° 0 min 0,000 mm 0,0 UV-I 14 W/m² 9,5 °C 12,9 °C 1,6 km/h (1 Bft)
04.10.2018 18:14 12,8 °C 81 % 1023,2 hPa 0,0 mm 0,1 km/h (0 Bft) O-SO 105 ° 0 min 0,000 mm 0,0 UV-I 14 W/m² 9,6 °C 12,8 °C 1,6 km/h (1 Bft)
04.10.2018 18:15 12,8 °C 81 % 1023,2 hPa 0,0 mm 0,1 km/h (0 Bft) O-SO 105 ° 0 min 0,000 mm 0,0 UV-I 14 W/m² 9,6 °C 12,8 °C 1,6 km/h (1 Bft)
04.10.2018 18:16 12,8 °C 81 % 1023,2 hPa 0,0 mm 0,0 km/h (0 Bft) O-SO 105 ° 0 min 0,000 mm 0,0 UV-I 14 W/m² 9,6 °C 12,8 °C 0,0 km/h (0 Bft)
04.10.2018 18:17 12,8 °C 81 % 1023,2 hPa 0,0 mm 0,8 km/h (0 Bft) O-SO 105 ° 0 min 0,000 mm 0,0 UV-I 14 W/m² 9,6 °C 12,8 °C 3,2 km/h (1 Bft)
04.10.2018 18:18 12,8 °C 81 % 1023,2 hPa 0,0 mm 1,0 km/h (0 Bft) O-SO 105 ° 0 min 0,000 mm 0,0 UV-I 14 W/m² 9,6 °C 12,8 °C 3,2 km/h (1 Bft)
04.10.2018 18:19 12,7 °C 80 % 1023,2 hPa 0,0 mm 0,0 km/h (0 Bft) O-SO 105 ° 0 min 0,000 mm 0,0 UV-I 14 W/m² 9,3 °C 12,7 °C 0,0 km/h (0 Bft)
04.10.2018 18:20 12,6 °C 81 % 1023,2 hPa 0,0 mm 0,3 km/h (0 Bft) O-SO 105 ° 0 min 0,000 mm 0,0 UV-I 12 W/m² 9,4 °C 12,6 °C 1,6 km/h (1 Bft)
04.10.2018 18:21 12,7 °C 81 % 1023,2 hPa 0,0 mm 0,7 km/h (0 Bft) O-SO 106 ° 0 min 0,000 mm 0,0 UV-I 12 W/m² 9,5 °C 12,7 °C 1,6 km/h (1 Bft)
04.10.2018 18:22 12,7 °C 81 % 1023,2 hPa 0,0 mm 0,2 km/h (0 Bft) O-SO 107 ° 0 min 0,000 mm 0,0 UV-I 12 W/m² 9,5 °C 12,7 °C 1,6 km/h (1 Bft)
04.10.2018 18:23 12,6 °C 80 % 1023,2 hPa 0,0 mm 0,5 km/h (0 Bft) O-SO 107 ° 0 min 0,000 mm 0,0 UV-I 12 W/m² 9,2 °C 12,6 °C 1,6 km/h (1 Bft)
04.10.2018 18:24 12,5 °C 81 % 1023,2 hPa 0,0 mm 0,3 km/h (0 Bft) O-SO 107 ° 0 min 0,000 mm 0,0 UV-I 12 W/m² 9,3 °C 12,5 °C 1,6 km/h (1 Bft)
04.10.2018 18:25 12,5 °C 81 % 1023,2 hPa 0,0 mm 0,1 km/h (0 Bft) O-SO 107 ° 0 min 0,000 mm 0,0 UV-I 12 W/m² 9,3 °C 12,5 °C 1,6 km/h (1 Bft)
04.10.2018 18:26 12,4 °C 81 % 1023,2 hPa 0,0 mm 0,3 km/h (0 Bft) O-SO 107 ° 0 min 0,000 mm 0,0 UV-I 12 W/m² 9,2 °C 12,4 °C 1,6 km/h (1 Bft)
04.10.2018 18:27 12,4 °C 81 % 1023,2 hPa 0,0 mm 0,3 km/h (0 Bft) O-SO 107 ° 0 min 0,000 mm 0,0 UV-I 12 W/m² 9,2 °C 12,4 °C 1,6 km/h (1 Bft)
04.10.2018 18:28 12,3 °C 81 % 1023,2 hPa 0,0 mm 0,2 km/h (0 Bft) O-SO 107 ° 0 min 0,000 mm 0,0 UV-I 11 W/m² 9,1 °C 12,3 °C 1,6 km/h (1 Bft)
04.10.2018 18:29 12,2 °C 82 % 1023,2 hPa 0,0 mm 0,0 km/h (0 Bft) O-SO 107 ° 0 min 0,000 mm 0,0 UV-I 11 W/m² 9,2 °C 12,2 °C 0,0 km/h (0 Bft)
04.10.2018 18:30 12,1 °C 83 % 1023,2 hPa 0,0 mm 1,3 km/h (1 Bft) O-SO 107 ° 0 min 0,000 mm 0,0 UV-I 11 W/m² 9,3 °C 12,1 °C 3,2 km/h (1 Bft)
04.10.2018 18:31 12,1 °C 83 % 1023,2 hPa 0,0 mm 0,7 km/h (0 Bft) O-SO 107 ° 0 min 0,000 mm 0,0 UV-I 11 W/m² 9,3 °C 12,1 °C 1,6 km/h (1 Bft)
04.10.2018 18:32 12,0 °C 83 % 1023,2 hPa 0,0 mm 0,0 km/h (0 Bft) O-SO 107 ° 0 min 0,000 mm 0,0 UV-I 11 W/m² 9,2 °C 12,0 °C 0,0 km/h (0 Bft)
04.10.2018 18:33 11,9 °C 83 % 1023,2 hPa 0,0 mm 0,3 km/h (0 Bft) O-SO 107 ° 0 min 0,000 mm 0,0 UV-I 11 W/m² 9,1 °C 11,9 °C 1,6 km/h (1 Bft)
04.10.2018 18:34 11,9 °C 83 % 1023,2 hPa 0,0 mm 0,1 km/h (0 Bft) O-SO 107 ° 0 min 0,000 mm 0,0 UV-I 9 W/m² 9,1 °C 11,9 °C 1,6 km/h (1 Bft)
04.10.2018 18:35 11,9 °C 83 % 1023,2 hPa 0,0 mm 0,6 km/h (0 Bft) O-SO 107 ° 0 min 0,000 mm 0,0 UV-I 9 W/m² 9,1 °C 11,9 °C 1,6 km/h (1 Bft)
04.10.2018 18:36 11,9 °C 83 % 1023,2 hPa 0,0 mm 0,8 km/h (0 Bft) O-SO 107 ° 0 min 0,000 mm 0,0 UV-I 9 W/m² 9,1 °C 11,9 °C 1,6 km/h (1 Bft)
04.10.2018 18:37 11,9 °C 83 % 1023,3 hPa 0,0 mm 1,0 km/h (0 Bft) O-SO 108 ° 0 min 0,000 mm 0,0 UV-I 9 W/m² 9,1 °C 11,9 °C 3,2 km/h (1 Bft)
04.10.2018 18:38 11,8 °C 83 % 1023,2 hPa 0,0 mm 1,1 km/h (1 Bft) O-SO 108 ° 0 min 0,000 mm 0,0 UV-I 7 W/m² 9,0 °C 11,8 °C 1,6 km/h (1 Bft)
04.10.2018 18:39 11,7 °C 83 % 1023,2 hPa 0,0 mm 0,6 km/h (0 Bft) O-SO 108 ° 0 min 0,000 mm 0,0 UV-I 7 W/m² 8,9 °C 11,7 °C 3,2 km/h (1 Bft)
04.10.2018 18:40 11,7 °C 84 % 1023,2 hPa 0,0 mm 1,5 km/h (1 Bft) O-SO 108 ° 0 min 0,000 mm 0,0 UV-I 7 W/m² 9,1 °C 11,7 °C 3,2 km/h (1 Bft)
04.10.2018 18:41 11,6 °C 84 % 1023,2 hPa 0,0 mm 1,3 km/h (1 Bft) S-SO 159 ° 0 min 0,000 mm 0,0 UV-I 7 W/m² 9,0 °C 11,6 °C 3,2 km/h (1 Bft)
04.10.2018 18:42 11,6 °C 84 % 1023,2 hPa 0,0 mm 1,2 km/h (1 Bft) S-SO 159 ° 0 min 0,000 mm 0,0 UV-I 7 W/m² 9,0 °C 11,6 °C 3,2 km/h (1 Bft)
04.10.2018 18:43 11,5 °C 84 % 1023,2 hPa 0,0 mm 0,7 km/h (0 Bft) S-SO 159 ° 0 min 0,000 mm 0,0 UV-I 7 W/m² 8,9 °C 11,5 °C 3,2 km/h (1 Bft)
04.10.2018 18:44 11,4 °C 84 % 1023,2 hPa 0,0 mm 2,2 km/h (1 Bft) S-SO 159 ° 0 min 0,000 mm 0,0 UV-I 5 W/m² 8,8 °C 11,4 °C 3,2 km/h (1 Bft)
04.10.2018 18:45 11,4 °C 84 % 1023,2 hPa 0,0 mm 0,5 km/h (0 Bft) S-SO 159 ° 0 min 0,000 mm 0,0 UV-I 5 W/m² 8,8 °C 11,4 °C 1,6 km/h (1 Bft)
04.10.2018 18:46 11,3 °C 84 % 1023,2 hPa 0,0 mm 0,8 km/h (0 Bft) S-SO 159 ° 0 min 0,000 mm 0,0 UV-I 5 W/m² 8,7 °C 11,3 °C 3,2 km/h (1 Bft)
04.10.2018 18:47 11,3 °C 85 % 1023,2 hPa 0,0 mm 0,3 km/h (0 Bft) S-SO 159 ° 0 min 0,000 mm 0,0 UV-I 5 W/m² 8,9 °C 11,3 °C 1,6 km/h (1 Bft)
04.10.2018 18:48 11,3 °C 84 % 1023,2 hPa 0,0 mm 1,8 km/h (1 Bft) SO 144 ° 0 min 0,000 mm 0,0 UV-I 5 W/m² 8,7 °C 11,3 °C 3,2 km/h (1 Bft)
04.10.2018 18:49 11,3 °C 84 % 1023,2 hPa 0,0 mm 2,1 km/h (1 Bft) S-SO 147 ° 0 min 0,000 mm 0,0 UV-I 0 W/m² 8,7 °C 11,3 °C 3,2 km/h (1 Bft)
04.10.2018 18:50 11,3 °C 85 % 1023,2 hPa 0,0 mm 0,7 km/h (0 Bft) S-SO 147 ° 0 min 0,000 mm 0,0 UV-I 0 W/m² 8,9 °C 11,3 °C 3,2 km/h (1 Bft)
04.10.2018 18:51 11,4 °C 85 % 1023,2 hPa 0,0 mm 0,1 km/h (0 Bft) S-SO 147 ° 0 min 0,000 mm 0,0 UV-I 0 W/m² 9,0 °C 11,4 °C 1,6 km/h (1 Bft)
04.10.2018 18:52 11,4 °C 84 % 1023,2 hPa 0,0 mm 0,1 km/h (0 Bft) S-SO 147 ° 0 min 0,000 mm 0,0 UV-I 0 W/m² 8,8 °C 11,4 °C 1,6 km/h (1 Bft)
04.10.2018 18:53 11,3 °C 84 % 1023,2 hPa 0,0 mm 0,0 km/h (0 Bft) S-SO 147 ° 0 min 0,000 mm 0,0 UV-I 0 W/m² 8,7 °C 11,3 °C 0,0 km/h (0 Bft)
04.10.2018 18:54 11,3 °C 84 % 1023,2 hPa 0,0 mm 0,0 km/h (0 Bft) S-SO 147 ° 0 min 0,000 mm 0,0 UV-I 0 W/m² 8,7 °C 11,3 °C 0,0 km/h (0 Bft)
04.10.2018 18:55 11,3 °C 85 % 1023,2 hPa 0,0 mm 0,0 km/h (0 Bft) S-SO 147 ° 0 min 0,000 mm 0,0 UV-I 0 W/m² 8,9 °C 11,3 °C 0,0 km/h (0 Bft)
04.10.2018 18:56 11,3 °C 85 % 1023,2 hPa 0,0 mm 0,2 km/h (0 Bft) S-SO 147 ° 0 min 0,000 mm 0,0 UV-I 0 W/m² 8,9 °C 11,3 °C 1,6 km/h (1 Bft)
04.10.2018 18:57 11,2 °C 85 % 1023,3 hPa 0,0 mm 0,0 km/h (0 Bft) S-SO 147 ° 0 min 0,000 mm 0,0 UV-I 0 W/m² 8,8 °C 11,2 °C 0,0 km/h (0 Bft)
04.10.2018 18:58 11,2 °C 85 % 1023,2 hPa 0,0 mm 1,5 km/h (1 Bft) S-SO 147 ° 0 min 0,000 mm 0,0 UV-I 0 W/m² 8,8 °C 11,2 °C 3,2 km/h (1 Bft)
04.10.2018 18:59 11,1 °C 85 % 1023,2 hPa 0,0 mm 0,1 km/h (0 Bft) S-SO 147 ° 0 min 0,000 mm 0,0 UV-I 0 W/m² 8,7 °C 11,1 °C 1,6 km/h (1 Bft)
04.10.2018 19:00 10,9 °C 85 % 1023,2 hPa 0,0 mm 0,0 km/h (0 Bft) S-SO 147 ° 0 min 0,000 mm 0,0 UV-I 0 W/m² 8,5 °C 10,9 °C 0,0 km/h (0 Bft)
04.10.2018 19:01 10,9 °C 85 % 1023,2 hPa 0,0 mm 0,0 km/h (0 Bft) S-SO 147 ° 0 min 0,000 mm 0,0 UV-I 0 W/m² 8,5 °C 10,9 °C 0,0 km/h (0 Bft)
04.10.2018 19:02 10,9 °C 86 % 1023,2 hPa 0,0 mm 0,3 km/h (0 Bft) S-SO 147 ° 0 min 0,000 mm 0,0 UV-I 0 W/m² 8,7 °C 10,9 °C 1,6 km/h (1 Bft)
04.10.2018 19:03 10,8 °C 86 % 1023,3 hPa 0,0 mm 0,0 km/h (0 Bft) S-SO 147 ° 0 min 0,000 mm 0,0 UV-I 0 W/m² 8,6 °C 10,8 °C 0,0 km/h (0 Bft)
04.10.2018 19:04 10,8 °C 86 % 1023,3 hPa 0,0 mm 0,0 km/h (0 Bft) S-SO 147 ° 0 min 0,000 mm 0,0 UV-I 0 W/m² 8,6 °C 10,8 °C 0,0 km/h (0 Bft)
04.10.2018 19:05 10,9 °C 86 % 1023,3 hPa 0,0 mm 0,2 km/h (0 Bft) S-SO 147 ° 0 min 0,000 mm 0,0 UV-I 0 W/m² 8,7 °C 10,9 °C 1,6 km/h (1 Bft)
04.10.2018 19:06 10,8 °C 86 % 1023,3 hPa 0,0 mm 0,4 km/h (0 Bft) S-SO 147 ° 0 min 0,000 mm 0,0 UV-I 0 W/m² 8,6 °C 10,8 °C 1,6 km/h (1 Bft)
04.10.2018 19:07 10,8 °C 86 % 1023,3 hPa 0,0 mm 0,5 km/h (0 Bft) S-SO 147 ° 0 min 0,000 mm 0,0 UV-I 0 W/m² 8,6 °C 10,8 °C 1,6 km/h (1 Bft)
04.10.2018 19:08 10,8 °C 86 % 1023,3 hPa 0,0 mm 0,4 km/h (0 Bft) S-SO 147 ° 0 min 0,000 mm 0,0 UV-I 0 W/m² 8,6 °C 10,8 °C 1,6 km/h (1 Bft)
04.10.2018 19:09 10,7 °C 86 % 1023,3 hPa 0,0 mm 0,0 km/h (0 Bft) S-SO 147 ° 0 min 0,000 mm 0,0 UV-I 0 W/m² 8,5 °C 10,7 °C 0,0 km/h (0 Bft)
04.10.2018 19:10 10,7 °C 86 % 1023,3 hPa 0,0 mm 0,0 km/h (0 Bft) S-SO 147 ° 0 min 0,000 mm 0,0 UV-I 0 W/m² 8,5 °C 10,7 °C 0,0 km/h (0 Bft)
04.10.2018 19:11 10,7 °C 87 % 1023,3 hPa 0,0 mm 0,0 km/h (0 Bft) S-SO 147 ° 0 min 0,000 mm 0,0 UV-I 0 W/m² 8,6 °C 10,7 °C 0,0 km/h (0 Bft)
04.10.2018 19:12 10,7 °C 86 % 1023,3 hPa 0,0 mm 0,0 km/h (0 Bft) S-SO 147 ° 0 min 0,000 mm 0,0 UV-I 0 W/m² 8,5 °C 10,7 °C 0,0 km/h (0 Bft)
04.10.2018 19:13 10,6 °C 86 % 1023,3 hPa 0,0 mm 0,1 km/h (0 Bft) S-SO 147 ° 0 min 0,000 mm 0,0 UV-I 0 W/m² 8,4 °C 10,6 °C 1,6 km/h (1 Bft)
04.10.2018 19:14 10,6 °C 87 % 1023,3 hPa 0,0 mm 2,1 km/h (1 Bft) S-SO 147 ° 0 min 0,000 mm 0,0 UV-I 0 W/m² 8,5 °C 10,6 °C 3,2 km/h (1 Bft)
04.10.2018 19:15 10,4 °C 87 % 1023,3 hPa 0,0 mm 0,7 km/h (0 Bft) S-SO 147 ° 0 min 0,000 mm 0,0 UV-I 0 W/m² 8,3 °C 10,4 °C 1,6 km/h (1 Bft)
04.10.2018 19:16 10,4 °C 87 % 1023,3 hPa 0,0 mm 0,0 km/h (0 Bft) S-SO 147 ° 0 min 0,000 mm 0,0 UV-I 0 W/m² 8,3 °C 10,4 °C 0,0 km/h (0 Bft)
04.10.2018 19:17 10,4 °C 87 % 1023,3 hPa 0,0 mm 0,0 km/h (0 Bft) S-SO 147 ° 0 min 0,000 mm 0,0 UV-I 0 W/m² 8,3 °C 10,4 °C 0,0 km/h (0 Bft)
04.10.2018 19:18 10,4 °C 87 % 1023,3 hPa 0,0 mm 0,2 km/h (0 Bft) S-SO 147 ° 0 min 0,000 mm 0,0 UV-I 0 W/m² 8,3 °C 10,4 °C 1,6 km/h (1 Bft)
04.10.2018 19:19 10,4 °C 87 % 1023,3 hPa 0,0 mm 1,2 km/h (1 Bft) S-SO 147 ° 0 min 0,000 mm 0,0 UV-I 0 W/m² 8,3 °C 10,4 °C 1,6 km/h (1 Bft)
04.10.2018 19:20 10,4 °C 87 % 1023,3 hPa 0,0 mm 0,1 km/h (0 Bft) S-SO 147 ° 0 min 0,000 mm 0,0 UV-I 0 W/m² 8,3 °C 10,4 °C 1,6 km/h (1 Bft)
04.10.2018 19:21 10,4 °C 88 % 1023,3 hPa 0,0 mm 0,0 km/h (0 Bft) S-SO 147 ° 0 min 0,000 mm 0,0 UV-I 0 W/m² 8,5 °C 10,4 °C 0,0 km/h (0 Bft)
04.10.2018 19:22 10,4 °C 88 % 1023,3 hPa 0,0 mm 0,1 km/h (0 Bft) S-SO 147 ° 0 min 0,000 mm 0,0 UV-I 0 W/m² 8,5 °C 10,4 °C 1,6 km/h (1 Bft)
04.10.2018 19:23 10,3 °C 88 % 1023,3 hPa 0,0 mm 0,1 km/h (0 Bft) S-SO 147 ° 0 min 0,000 mm 0,0 UV-I 0 W/m² 8,4 °C 10,3 °C 1,6 km/h (1 Bft)
04.10.2018 19:24 10,3 °C 88 % 1023,3 hPa 0,0 mm 0,0 km/h (0 Bft) S-SO 147 ° 0 min 0,000 mm 0,0 UV-I 0 W/m² 8,4 °C 10,3 °C 0,0 km/h (0 Bft)
04.10.2018 19:25 10,3 °C 88 % 1023,4 hPa 0,0 mm 0,3 km/h (0 Bft) S-SO 147 ° 0 min 0,000 mm 0,0 UV-I 0 W/m² 8,4 °C 10,3 °C 1,6 km/h (1 Bft)
04.10.2018 19:26 10,3 °C 88 % 1023,4 hPa 0,0 mm 0,6 km/h (0 Bft) S-SO 147 ° 0 min 0,000 mm 0,0 UV-I 0 W/m² 8,4 °C 10,3 °C 1,6 km/h (1 Bft)
04.10.2018 19:27 10,4 °C 88 % 1023,4 hPa 0,0 mm 0,3 km/h (0 Bft) S-SO 147 ° 0 min 0,000 mm 0,0 UV-I 0 W/m² 8,5 °C 10,4 °C 1,6 km/h (1 Bft)
04.10.2018 19:28 10,4 °C 88 % 1023,4 hPa 0,0 mm 0,4 km/h (0 Bft) S-SO 147 ° 0 min 0,000 mm 0,0 UV-I 0 W/m² 8,5 °C 10,4 °C 1,6 km/h (1 Bft)
04.10.2018 19:29 10,3 °C 87 % 1023,4 hPa 0,0 mm 0,0 km/h (0 Bft) S-SO 147 ° 0 min 0,000 mm 0,0 UV-I 0 W/m² 8,2 °C 10,3 °C 0,0 km/h (0 Bft)
04.10.2018 19:30 10,2 °C 87 % 1023,4 hPa 0,0 mm 0,0 km/h (0 Bft) S-SO 147 ° 0 min 0,000 mm 0,0 UV-I 0 W/m² 8,1 °C 10,2 °C 0,0 km/h (0 Bft)
04.10.2018 19:31 10,0 °C 86 % 1023,4 hPa 0,0 mm 0,0 km/h (0 Bft) S-SO 147 ° 0 min 0,000 mm 0,0 UV-I 0 W/m² 7,8 °C 10,0 °C 0,0 km/h (0 Bft)
04.10.2018 19:32 9,8 °C 87 % 1023,4 hPa 0,0 mm 0,0 km/h (0 Bft) S-SO 147 ° 0 min 0,000 mm 0,0 UV-I 0 W/m² 7,7 °C 9,8 °C 0,0 km/h (0 Bft)
04.10.2018 19:33 9,7 °C 88 % 1023,4 hPa 0,0 mm 0,0 km/h (0 Bft) S-SO 147 ° 0 min 0,000 mm 0,0 UV-I 0 W/m² 7,8 °C 9,7 °C 0,0 km/h (0 Bft)
04.10.2018 19:34 9,7 °C 88 % 1023,4 hPa 0,0 mm 0,0 km/h (0 Bft) S-SO 147 ° 0 min 0,000 mm 0,0 UV-I 0 W/m² 7,8 °C 9,7 °C 0,0 km/h (0 Bft)
04.10.2018 19:35 9,6 °C 88 % 1023,4 hPa 0,0 mm 0,0 km/h (0 Bft) S-SO 147 ° 0 min 0,000 mm 0,0 UV-I 0 W/m² 7,7 °C 9,6 °C 0,0 km/h (0 Bft)
04.10.2018 19:36 9,6 °C 89 % 1023,4 hPa 0,0 mm 0,0 km/h (0 Bft) S-SO 147 ° 0 min 0,000 mm 0,0 UV-I 0 W/m² 7,9 °C 9,6 °C 0,0 km/h (0 Bft)
04.10.2018 19:37 9,6 °C 89 % 1023,4 hPa 0,0 mm 0,0 km/h (0 Bft) S-SO 147 ° 0 min 0,000 mm 0,0 UV-I 0 W/m² 7,9 °C 9,6 °C 0,0 km/h (0 Bft)
04.10.2018 19:38 9,6 °C 89 % 1023,3 hPa 0,0 mm 0,0 km/h (0 Bft) S-SO 147 ° 0 min 0,000 mm 0,0 UV-I 0 W/m² 7,9 °C 9,6 °C 0,0 km/h (0 Bft)
04.10.2018 19:39 9,6 °C 89 % 1023,3 hPa 0,0 mm 0,0 km/h (0 Bft) S-SO 147 ° 0 min 0,000 mm 0,0 UV-I 0 W/m² 7,9 °C 9,6 °C 0,0 km/h (0 Bft)
04.10.2018 19:40 9,6 °C 89 % 1023,3 hPa 0,0 mm 0,0 km/h (0 Bft) S-SO 147 ° 0 min 0,000 mm 0,0 UV-I 0 W/m² 7,9 °C 9,6 °C 0,0 km/h (0 Bft)
04.10.2018 19:41 9,6 °C 90 % 1023,3 hPa 0,0 mm 0,0 km/h (0 Bft) S-SO 147 ° 0 min 0,000 mm 0,0 UV-I 0 W/m² 8,0 °C 9,6 °C 0,0 km/h (0 Bft)
04.10.2018 19:42 9,6 °C 90 % 1023,3 hPa 0,0 mm 0,0 km/h (0 Bft) S-SO 147 ° 0 min 0,000 mm 0,0 UV-I 0 W/m² 8,0 °C 9,6 °C 0,0 km/h (0 Bft)
04.10.2018 19:43 9,6 °C 90 % 1023,3 hPa 0,0 mm 0,0 km/h (0 Bft) S-SO 147 ° 0 min 0,000 mm 0,0 UV-I 0 W/m² 8,0 °C 9,6 °C 0,0 km/h (0 Bft)
04.10.2018 19:44 9,6 °C 90 % 1023,3 hPa 0,0 mm 0,0 km/h (0 Bft) S-SO 147 ° 0 min 0,000 mm 0,0 UV-I 0 W/m² 8,0 °C 9,6 °C 0,0 km/h (0 Bft)
04.10.2018 19:45 9,6 °C 90 % 1023,3 hPa 0,0 mm 0,0 km/h (0 Bft) S-SO 147 ° 0 min 0,000 mm 0,0 UV-I 0 W/m² 8,0 °C 9,6 °C 0,0 km/h (0 Bft)
04.10.2018 19:46 9,6 °C 90 % 1023,2 hPa 0,0 mm 0,0 km/h (0 Bft) S-SO 147 ° 0 min 0,000 mm 0,0 UV-I 0 W/m² 8,0 °C 9,6 °C 0,0 km/h (0 Bft)
04.10.2018 19:47 9,7 °C 90 % 1023,3 hPa 0,0 mm 0,0 km/h (0 Bft) S-SO 147 ° 0 min 0,000 mm 0,0 UV-I 0 W/m² 8,1 °C 9,7 °C 0,0 km/h (0 Bft)
04.10.2018 19:48 9,6 °C 89 % 1023,3 hPa 0,0 mm 0,0 km/h (0 Bft) S-SO 147 ° 0 min 0,000 mm 0,0 UV-I 0 W/m² 7,9 °C 9,6 °C 0,0 km/h (0 Bft)
04.10.2018 19:49 9,6 °C 89 % 1023,3 hPa 0,0 mm 0,0 km/h (0 Bft) S-SO 147 ° 0 min 0,000 mm 0,0 UV-I 0 W/m² 7,9 °C 9,6 °C 0,0 km/h (0 Bft)
04.10.2018 19:50 9,5 °C 89 % 1023,3 hPa 0,0 mm 0,0 km/h (0 Bft) S-SO 147 ° 0 min 0,000 mm 0,0 UV-I 0 W/m² 7,8 °C 9,5 °C 0,0 km/h (0 Bft)
04.10.2018 19:51 9,4 °C 90 % 1023,3 hPa 0,0 mm 0,0 km/h (0 Bft) S-SO 147 ° 0 min 0,000 mm 0,0 UV-I 0 W/m² 7,8 °C 9,4 °C 0,0 km/h (0 Bft)
04.10.2018 19:52 9,4 °C 90 % 1023,3 hPa 0,0 mm 0,0 km/h (0 Bft) S-SO 147 ° 0 min 0,000 mm 0,0 UV-I 0 W/m² 7,8 °C 9,4 °C 0,0 km/h (0 Bft)
04.10.2018 19:53 9,4 °C 90 % 1023,3 hPa 0,0 mm 0,0 km/h (0 Bft) S-SO 147 ° 0 min 0,000 mm 0,0 UV-I 0 W/m² 7,8 °C 9,4 °C 0,0 km/h (0 Bft)
04.10.2018 19:54 9,4 °C 90 % 1023,3 hPa 0,0 mm 0,0 km/h (0 Bft) S-SO 147 ° 0 min 0,000 mm 0,0 UV-I 0 W/m² 7,8 °C 9,4 °C 0,0 km/h (0 Bft)
04.10.2018 19:55 9,5 °C 90 % 1023,3 hPa 0,0 mm 0,0 km/h (0 Bft) S-SO 147 ° 0 min 0,000 mm 0,0 UV-I 0 W/m² 7,9 °C 9,5 °C 0,0 km/h (0 Bft)
04.10.2018 19:56 9,5 °C 90 % 1023,2 hPa 0,0 mm 0,5 km/h (0 Bft) S-SO 159 ° 0 min 0,000 mm 0,0 UV-I 0 W/m² 7,9 °C 9,5 °C 3,2 km/h (1 Bft)
04.10.2018 19:57 9,5 °C 90 % 1023,3 hPa 0,0 mm 0,5 km/h (0 Bft) S-SO 159 ° 0 min 0,000 mm 0,0 UV-I 0 W/m² 7,9 °C 9,5 °C 3,2 km/h (1 Bft)
04.10.2018 19:58 9,6 °C 90 % 1023,3 hPa 0,0 mm 0,9 km/h (0 Bft) S-SO 159 ° 0 min 0,000 mm 0,0 UV-I 0 W/m² 8,0 °C 9,6 °C 3,2 km/h (1 Bft)
04.10.2018 19:59 9,6 °C 90 % 1023,3 hPa 0,0 mm 0,7 km/h (0 Bft) S-SO 159 ° 0 min 0,000 mm 0,0 UV-I 0 W/m² 8,0 °C 9,6 °C 3,2 km/h (1 Bft)
04.10.2018 20:00 9,6 °C 90 % 1023,3 hPa 0,0 mm 0,0 km/h (0 Bft) S-SO 159 ° 0 min 0,000 mm 0,0 UV-I 0 W/m² 8,0 °C 9,6 °C 0,0 km/h (0 Bft)
04.10.2018 20:01 9,6 °C 90 % 1023,3 hPa 0,0 mm 0,0 km/h (0 Bft) S-SO 159 ° 0 min 0,000 mm 0,0 UV-I 0 W/m² 8,0 °C 9,6 °C 0,0 km/h (0 Bft)
04.10.2018 20:02 9,6 °C 90 % 1023,3 hPa 0,0 mm 0,0 km/h (0 Bft) S-SO 159 ° 0 min 0,000 mm 0,0 UV-I 0 W/m² 8,0 °C 9,6 °C 0,0 km/h (0 Bft)
04.10.2018 20:03 9,6 °C 90 % 1023,2 hPa 0,0 mm 0,0 km/h (0 Bft) S-SO 159 ° 0 min 0,000 mm 0,0 UV-I 0 W/m² 8,0 °C 9,6 °C 0,0 km/h (0 Bft)
04.10.2018 20:04 9,5 °C 90 % 1023,3 hPa 0,0 mm 0,0 km/h (0 Bft) S-SO 159 ° 0 min 0,000 mm 0,0 UV-I 0 W/m² 7,9 °C 9,5 °C 0,0 km/h (0 Bft)
04.10.2018 20:05 9,4 °C 89 % 1023,2 hPa 0,0 mm 0,0 km/h (0 Bft) S-SO 159 ° 0 min 0,000 mm 0,0 UV-I 0 W/m² 7,7 °C 9,4 °C 0,0 km/h (0 Bft)
04.10.2018 20:06 9,3 °C 89 % 1023,2 hPa 0,0 mm 0,0 km/h (0 Bft) S-SO 159 ° 0 min 0,000 mm 0,0 UV-I 0 W/m² 7,6 °C 9,3 °C 0,0 km/h (0 Bft)
04.10.2018 20:07 9,1 °C 89 % 1023,2 hPa 0,0 mm 0,0 km/h (0 Bft) S-SO 159 ° 0 min 0,000 mm 0,0 UV-I 0 W/m² 7,4 °C 9,1 °C 0,0 km/h (0 Bft)
04.10.2018 20:08 8,9 °C 89 % 1023,2 hPa 0,0 mm 0,0 km/h (0 Bft) S-SO 159 ° 0 min 0,000 mm 0,0 UV-I 0 W/m² 7,2 °C 8,9 °C 0,0 km/h (0 Bft)
04.10.2018 20:09 8,8 °C 90 % 1023,3 hPa 0,0 mm 0,0 km/h (0 Bft) S-SO 159 ° 0 min 0,000 mm 0,0 UV-I 0 W/m² 7,3 °C 8,8 °C 0,0 km/h (0 Bft)
04.10.2018 20:10 8,8 °C 90 % 1023,2 hPa 0,0 mm 0,0 km/h (0 Bft) S-SO 159 ° 0 min 0,000 mm 0,0 UV-I 0 W/m² 7,3 °C 8,8 °C 0,0 km/h (0 Bft)
04.10.2018 20:11 8,6 °C 90 % 1023,2 hPa 0,0 mm 0,0 km/h (0 Bft) S-SO 159 ° 0 min 0,000 mm 0,0 UV-I 0 W/m² 7,1 °C 8,6 °C 0,0 km/h (0 Bft)
04.10.2018 20:12 8,6 °C 90 % 1023,2 hPa 0,0 mm 0,0 km/h (0 Bft) S-SO 159 ° 0 min 0,000 mm 0,0 UV-I 0 W/m² 7,1 °C 8,6 °C 0,0 km/h (0 Bft)
04.10.2018 20:13 8,6 °C 90 % 1023,2 hPa 0,0 mm 0,0 km/h (0 Bft) S-SO 159 ° 0 min 0,000 mm 0,0 UV-I 0 W/m² 7,1 °C 8,6 °C 0,0 km/h (0 Bft)
04.10.2018 20:14 8,4 °C 90 % 1023,2 hPa 0,0 mm 0,0 km/h (0 Bft) S-SO 159 ° 0 min 0,000 mm 0,0 UV-I 0 W/m² 6,9 °C 8,4 °C 0,0 km/h (0 Bft)
04.10.2018 20:15 8,4 °C 90 % 1023,2 hPa 0,0 mm 0,0 km/h (0 Bft) S-SO 159 ° 0 min 0,000 mm 0,0 UV-I 0 W/m² 6,9 °C 8,4 °C 0,0 km/h (0 Bft)
04.10.2018 20:16 8,3 °C 91 % 1023,2 hPa 0,0 mm 0,0 km/h (0 Bft) S-SO 159 ° 0 min 0,000 mm 0,0 UV-I 0 W/m² 6,9 °C 8,3 °C 0,0 km/h (0 Bft)
04.10.2018 20:17 8,3 °C 91 % 1023,2 hPa 0,0 mm 0,0 km/h (0 Bft) S-SO 159 ° 0 min 0,000 mm 0,0 UV-I 0 W/m² 6,9 °C 8,3 °C 0,0 km/h (0 Bft)
04.10.2018 20:18 8,3 °C 91 % 1023,2 hPa 0,0 mm 0,0 km/h (0 Bft) S-SO 159 ° 0 min 0,000 mm 0,0 UV-I 0 W/m² 6,9 °C 8,3 °C 0,0 km/h (0 Bft)
04.10.2018 20:19 8,3 °C 91 % 1023,2 hPa 0,0 mm 0,0 km/h (0 Bft) S-SO 159 ° 0 min 0,000 mm 0,0 UV-I 0 W/m² 6,9 °C 8,3 °C 0,0 km/h (0 Bft)
04.10.2018 20:20 8,2 °C 91 % 1023,2 hPa 0,0 mm 0,0 km/h (0 Bft) S-SO 159 ° 0 min 0,000 mm 0,0 UV-I 0 W/m² 6,8 °C 8,2 °C 0,0 km/h (0 Bft)
04.10.2018 20:21 8,2 °C 91 % 1023,2 hPa 0,0 mm 0,0 km/h (0 Bft) S-SO 159 ° 0 min 0,000 mm 0,0 UV-I 0 W/m² 6,8 °C 8,2 °C 0,0 km/h (0 Bft)
04.10.2018 20:22 8,2 °C 91 % 1023,2 hPa 0,0 mm 0,0 km/h (0 Bft) S-SO 159 ° 0 min 0,000 mm 0,0 UV-I 0 W/m² 6,8 °C 8,2 °C 0,0 km/h (0 Bft)
04.10.2018 20:23 8,2 °C 91 % 1023,2 hPa 0,0 mm 0,0 km/h (0 Bft) S-SO 159 ° 0 min 0,000 mm 0,0 UV-I 0 W/m² 6,8 °C 8,2 °C 0,0 km/h (0 Bft)
04.10.2018 20:24 8,1 °C 91 % 1023,2 hPa 0,0 mm 0,0 km/h (0 Bft) S-SO 159 ° 0 min 0,000 mm 0,0 UV-I 0 W/m² 6,7 °C 8,1 °C 0,0 km/h (0 Bft)
04.10.2018 20:25 8,2 °C 91 % 1023,2 hPa 0,0 mm 0,0 km/h (0 Bft) S-SO 159 ° 0 min 0,000 mm 0,0 UV-I 0 W/m² 6,8 °C 8,2 °C 0,0 km/h (0 Bft)
04.10.2018 20:26 8,2 °C 91 % 1023,2 hPa 0,0 mm 0,0 km/h (0 Bft) S-SO 159 ° 0 min 0,000 mm 0,0 UV-I 0 W/m² 6,8 °C 8,2 °C 0,0 km/h (0 Bft)
04.10.2018 20:27 8,1 °C 91 % 1023,2 hPa 0,0 mm 0,0 km/h (0 Bft) S-SO 159 ° 0 min 0,000 mm 0,0 UV-I 0 W/m² 6,7 °C 8,1 °C 0,0 km/h (0 Bft)
04.10.2018 20:28 8,1 °C 91 % 1023,2 hPa 0,0 mm 0,0 km/h (0 Bft) S-SO 159 ° 0 min 0,000 mm 0,0 UV-I 0 W/m² 6,7 °C 8,1 °C 0,0 km/h (0 Bft)
04.10.2018 20:29 8,1 °C 92 % 1023,2 hPa 0,0 mm 0,0 km/h (0 Bft) S-SO 159 ° 0 min 0,000 mm 0,0 UV-I 0 W/m² 6,9 °C 8,1 °C 0,0 km/h (0 Bft)
04.10.2018 20:30 8,1 °C 92 % 1023,2 hPa 0,0 mm 0,0 km/h (0 Bft) S-SO 159 ° 0 min 0,000 mm 0,0 UV-I 0 W/m² 6,9 °C 8,1 °C 0,0 km/h (0 Bft)
04.10.2018 20:31 8,1 °C 92 % 1023,2 hPa 0,0 mm 0,0 km/h (0 Bft) S-SO 159 ° 0 min 0,000 mm 0,0 UV-I 0 W/m² 6,9 °C 8,1 °C 0,0 km/h (0 Bft)
04.10.2018 20:32 8,1 °C 92 % 1023,2 hPa 0,0 mm 0,0 km/h (0 Bft) S-SO 159 ° 0 min 0,000 mm 0,0 UV-I 0 W/m² 6,9 °C 8,1 °C 0,0 km/h (0 Bft)
04.10.2018 20:33 8,0 °C 92 % 1023,2 hPa 0,0 mm 0,0 km/h (0 Bft) S-SO 159 ° 0 min 0,000 mm 0,0 UV-I 0 W/m² 6,8 °C 8,0 °C 0,0 km/h (0 Bft)
04.10.2018 20:34 8,0 °C 92 % 1023,2 hPa 0,0 mm 0,0 km/h (0 Bft) S-SO 159 ° 0 min 0,000 mm 0,0 UV-I 0 W/m² 6,8 °C 8,0 °C 0,0 km/h (0 Bft)
04.10.2018 20:35 7,9 °C 92 % 1023,2 hPa 0,0 mm 0,0 km/h (0 Bft) S-SO 159 ° 0 min 0,000 mm 0,0 UV-I 0 W/m² 6,7 °C 7,9 °C 0,0 km/h (0 Bft)
04.10.2018 20:36 7,8 °C 92 % 1023,2 hPa 0,0 mm 0,0 km/h (0 Bft) S-SO 159 ° 0 min 0,000 mm 0,0 UV-I 0 W/m² 6,6 °C 7,8 °C 0,0 km/h (0 Bft)
04.10.2018 20:37 7,8 °C 92 % 1023,2 hPa 0,0 mm 0,0 km/h (0 Bft) S-SO 159 ° 0 min 0,000 mm 0,0 UV-I 0 W/m² 6,6 °C 7,8 °C 0,0 km/h (0 Bft)
04.10.2018 20:38 7,8 °C 92 % 1023,2 hPa 0,0 mm 0,0 km/h (0 Bft) S-SO 159 ° 0 min 0,000 mm 0,0 UV-I 0 W/m² 6,6 °C 7,8 °C 0,0 km/h (0 Bft)
04.10.2018 20:39 7,8 °C 92 % 1023,2 hPa 0,0 mm 0,0 km/h (0 Bft) S-SO 159 ° 0 min 0,000 mm 0,0 UV-I 0 W/m² 6,6 °C 7,8 °C 0,0 km/h (0 Bft)
04.10.2018 20:40 7,8 °C 92 % 1023,2 hPa 0,0 mm 0,0 km/h (0 Bft) S-SO 159 ° 0 min 0,000 mm 0,0 UV-I 0 W/m² 6,6 °C 7,8 °C 0,0 km/h (0 Bft)
04.10.2018 20:41 7,9 °C 92 % 1023,3 hPa 0,0 mm 0,0 km/h (0 Bft) S-SO 159 ° 0 min 0,000 mm 0,0 UV-I 0 W/m² 6,7 °C 7,9 °C 0,0 km/h (0 Bft)
04.10.2018 20:42 7,9 °C 92 % 1023,2 hPa 0,0 mm 0,0 km/h (0 Bft) S-SO 159 ° 0 min 0,000 mm 0,0 UV-I 0 W/m² 6,7 °C 7,9 °C 0,0 km/h (0 Bft)
04.10.2018 20:43 7,9 °C 92 % 1023,2 hPa 0,0 mm 0,0 km/h (0 Bft) S-SO 159 ° 0 min 0,000 mm 0,0 UV-I 0 W/m² 6,7 °C 7,9 °C 0,0 km/h (0 Bft)
04.10.2018 20:44 7,8 °C 92 % 1023,3 hPa 0,0 mm 0,0 km/h (0 Bft) S-SO 159 ° 0 min 0,000 mm 0,0 UV-I 0 W/m² 6,6 °C 7,8 °C 0,0 km/h (0 Bft)
04.10.2018 20:45 7,8 °C 92 % 1023,2 hPa 0,0 mm 0,0 km/h (0 Bft) S-SO 159 ° 0 min 0,000 mm 0,0 UV-I 0 W/m² 6,6 °C 7,8 °C 0,0 km/h (0 Bft)
04.10.2018 20:46 7,8 °C 92 % 1023,3 hPa 0,0 mm 0,0 km/h (0 Bft) S-SO 159 ° 0 min 0,000 mm 0,0 UV-I 0 W/m² 6,6 °C 7,8 °C 0,0 km/h (0 Bft)
04.10.2018 20:47 7,8 °C 92 % 1023,3 hPa 0,0 mm 0,0 km/h (0 Bft) S-SO 159 ° 0 min 0,000 mm 0,0 UV-I 0 W/m² 6,6 °C 7,8 °C 0,0 km/h (0 Bft)
04.10.2018 20:48 7,8 °C 92 % 1023,3 hPa 0,0 mm 0,0 km/h (0 Bft) S-SO 159 ° 0 min 0,000 mm 0,0 UV-I 0 W/m² 6,6 °C 7,8 °C 0,0 km/h (0 Bft)
04.10.2018 20:49 7,8 °C 92 % 1023,2 hPa 0,0 mm 0,0 km/h (0 Bft) S-SO 159 ° 0 min 0,000 mm 0,0 UV-I 0 W/m² 6,6 °C 7,8 °C 0,0 km/h (0 Bft)
04.10.2018 20:50 7,8 °C 92 % 1023,2 hPa 0,0 mm 0,0 km/h (0 Bft) S-SO 159 ° 0 min 0,000 mm 0,0 UV-I 0 W/m² 6,6 °C 7,8 °C 0,0 km/h (0 Bft)
04.10.2018 20:51 7,7 °C 92 % 1023,3 hPa 0,0 mm 0,1 km/h (0 Bft) S-SO 159 ° 0 min 0,000 mm 0,0 UV-I 0 W/m² 6,5 °C 7,7 °C 1,6 km/h (1 Bft)
04.10.2018 20:52 7,7 °C 92 % 1023,3 hPa 0,0 mm 2,8 km/h (1 Bft) S-SO 159 ° 0 min 0,000 mm 0,0 UV-I 0 W/m² 6,5 °C 7,7 °C 6,4 km/h (2 Bft)
04.10.2018 20:53 7,6 °C 92 % 1023,3 hPa 0,0 mm 3,2 km/h (1 Bft) S-SO 159 ° 0 min 0,000 mm 0,0 UV-I 0 W/m² 6,4 °C 7,6 °C 6,4 km/h (2 Bft)
04.10.2018 20:54 7,6 °C 92 % 1023,3 hPa 0,0 mm 0,5 km/h (0 Bft) S-SO 159 ° 0 min 0,000 mm 0,0 UV-I 0 W/m² 6,4 °C 7,6 °C 1,6 km/h (1 Bft)
04.10.2018 20:55 7,6 °C 92 % 1023,3 hPa 0,0 mm 0,0 km/h (0 Bft) S-SO 159 ° 0 min 0,000 mm 0,0 UV-I 0 W/m² 6,4 °C 7,6 °C 0,0 km/h (0 Bft)
04.10.2018 20:56 7,6 °C 92 % 1023,3 hPa 0,0 mm 0,0 km/h (0 Bft) S-SO 159 ° 0 min 0,000 mm 0,0 UV-I 0 W/m² 6,4 °C 7,6 °C 0,0 km/h (0 Bft)
04.10.2018 20:57 7,6 °C 92 % 1023,3 hPa 0,0 mm 0,0 km/h (0 Bft) S-SO 159 ° 0 min 0,000 mm 0,0 UV-I 0 W/m² 6,4 °C 7,6 °C 0,0 km/h (0 Bft)
04.10.2018 20:58 7,6 °C 92 % 1023,3 hPa 0,0 mm 0,0 km/h (0 Bft) S-SO 159 ° 0 min 0,000 mm 0,0 UV-I 0 W/m² 6,4 °C 7,6 °C 0,0 km/h (0 Bft)
04.10.2018 20:59 7,6 °C 92 % 1023,3 hPa 0,0 mm 0,0 km/h (0 Bft) S-SO 159 ° 0 min 0,000 mm 0,0 UV-I 0 W/m² 6,4 °C 7,6 °C 0,0 km/h (0 Bft)
04.10.2018 21:00 7,7 °C 93 % 1023,3 hPa 0,0 mm 0,0 km/h (0 Bft) S-SO 159 ° 0 min 0,000 mm 0,0 UV-I 0 W/m² 6,6 °C 7,7 °C 0,0 km/h (0 Bft)
04.10.2018 21:01 7,8 °C 93 % 1023,3 hPa 0,0 mm 0,0 km/h (0 Bft) S-SO 159 ° 0 min 0,000 mm 0,0 UV-I 0 W/m² 6,7 °C 7,8 °C 0,0 km/h (0 Bft)
04.10.2018 21:02 7,8 °C 93 % 1023,3 hPa 0,0 mm 0,0 km/h (0 Bft) S-SO 159 ° 0 min 0,000 mm 0,0 UV-I 0 W/m² 6,7 °C 7,8 °C 0,0 km/h (0 Bft)
04.10.2018 21:03 7,8 °C 93 % 1023,3 hPa 0,0 mm 0,0 km/h (0 Bft) S-SO 159 ° 0 min 0,000 mm 0,0 UV-I 0 W/m² 6,7 °C 7,8 °C 0,0 km/h (0 Bft)
04.10.2018 21:04 7,8 °C 93 % 1023,3 hPa 0,0 mm 0,0 km/h (0 Bft) S-SO 159 ° 0 min 0,000 mm 0,0 UV-I 0 W/m² 6,7 °C 7,8 °C 0,0 km/h (0 Bft)
04.10.2018 21:05 7,7 °C 93 % 1023,3 hPa 0,0 mm 0,0 km/h (0 Bft) S-SO 159 ° 0 min 0,000 mm 0,0 UV-I 0 W/m² 6,6 °C 7,7 °C 0,0 km/h (0 Bft)
04.10.2018 21:06 7,6 °C 92 % 1023,3 hPa 0,0 mm 0,0 km/h (0 Bft) S-SO 159 ° 0 min 0,000 mm 0,0 UV-I 0 W/m² 6,4 °C 7,6 °C 0,0 km/h (0 Bft)
04.10.2018 21:07 7,4 °C 92 % 1023,2 hPa 0,0 mm 0,0 km/h (0 Bft) S-SO 159 ° 0 min 0,000 mm 0,0 UV-I 0 W/m² 6,2 °C 7,4 °C 0,0 km/h (0 Bft)
04.10.2018 21:08 7,3 °C 92 % 1023,3 hPa 0,0 mm 0,0 km/h (0 Bft) S-SO 159 ° 0 min 0,000 mm 0,0 UV-I 0 W/m² 6,1 °C 7,3 °C 0,0 km/h (0 Bft)
04.10.2018 21:09 7,3 °C 92 % 1023,3 hPa 0,0 mm 0,0 km/h (0 Bft) S-SO 159 ° 0 min 0,000 mm 0,0 UV-I 0 W/m² 6,1 °C 7,3 °C 0,0 km/h (0 Bft)
04.10.2018 21:10 7,2 °C 92 % 1023,3 hPa 0,0 mm 0,1 km/h (0 Bft) S-SO 159 ° 0 min 0,000 mm 0,0 UV-I 0 W/m² 6,0 °C 7,2 °C 1,6 km/h (1 Bft)
04.10.2018 21:11 7,2 °C 92 % 1023,3 hPa 0,0 mm 0,1 km/h (0 Bft) S-SO 159 ° 0 min 0,000 mm 0,0 UV-I 0 W/m² 6,0 °C 7,2 °C 1,6 km/h (1 Bft)
04.10.2018 21:12 7,3 °C 93 % 1023,2 hPa 0,0 mm 0,0 km/h (0 Bft) S-SO 159 ° 0 min 0,000 mm 0,0 UV-I 0 W/m² 6,2 °C 7,3 °C 0,0 km/h (0 Bft)
04.10.2018 21:13 7,5 °C 93 % 1023,2 hPa 0,0 mm 0,0 km/h (0 Bft) S-SO 159 ° 0 min 0,000 mm 0,0 UV-I 0 W/m² 6,4 °C 7,5 °C 0,0 km/h (0 Bft)
04.10.2018 21:14 7,6 °C 93 % 1023,2 hPa 0,0 mm 0,0 km/h (0 Bft) S-SO 159 ° 0 min 0,000 mm 0,0 UV-I 0 W/m² 6,5 °C 7,6 °C 0,0 km/h (0 Bft)
04.10.2018 21:15 7,5 °C 93 % 1023,2 hPa 0,0 mm 0,0 km/h (0 Bft) S-SO 159 ° 0 min 0,000 mm 0,0 UV-I 0 W/m² 6,4 °C 7,5 °C 0,0 km/h (0 Bft)
04.10.2018 21:16 7,3 °C 92 % 1023,2 hPa 0,0 mm 0,0 km/h (0 Bft) S-SO 159 ° 0 min 0,000 mm 0,0 UV-I 0 W/m² 6,1 °C 7,3 °C 0,0 km/h (0 Bft)
04.10.2018 21:17 7,4 °C 92 % 1023,2 hPa 0,0 mm 0,0 km/h (0 Bft) S-SO 159 ° 0 min 0,000 mm 0,0 UV-I 0 W/m² 6,2 °C 7,4 °C 0,0 km/h (0 Bft)
04.10.2018 21:18 7,3 °C 93 % 1023,2 hPa 0,0 mm 0,0 km/h (0 Bft) S-SO 159 ° 0 min 0,000 mm 0,0 UV-I 0 W/m² 6,2 °C 7,3 °C 0,0 km/h (0 Bft)
04.10.2018 21:19 7,3 °C 92 % 1023,2 hPa 0,0 mm 0,0 km/h (0 Bft) S-SO 159 ° 0 min 0,000 mm 0,0 UV-I 0 W/m² 6,1 °C 7,3 °C 0,0 km/h (0 Bft)
04.10.2018 21:20 7,3 °C 92 % 1023,3 hPa 0,0 mm 0,0 km/h (0 Bft) S-SO 159 ° 0 min 0,000 mm 0,0 UV-I 0 W/m² 6,1 °C 7,3 °C 0,0 km/h (0 Bft)
04.10.2018 21:21 7,3 °C 93 % 1023,2 hPa 0,0 mm 0,0 km/h (0 Bft) S-SO 159 ° 0 min 0,000 mm 0,0 UV-I 0 W/m² 6,2 °C 7,3 °C 0,0 km/h (0 Bft)
04.10.2018 21:22 7,3 °C 93 % 1023,3 hPa 0,0 mm 0,0 km/h (0 Bft) S-SO 159 ° 0 min 0,000 mm 0,0 UV-I 0 W/m² 6,2 °C 7,3 °C 0,0 km/h (0 Bft)
04.10.2018 21:23 7,3 °C 93 % 1023,3 hPa 0,0 mm 0,0 km/h (0 Bft) S-SO 159 ° 0 min 0,000 mm 0,0 UV-I 0 W/m² 6,2 °C 7,3 °C 0,0 km/h (0 Bft)
04.10.2018 21:24 7,2 °C 93 % 1023,3 hPa 0,0 mm 0,0 km/h (0 Bft) S-SO 159 ° 0 min 0,000 mm 0,0 UV-I 0 W/m² 6,1 °C 7,2 °C 0,0 km/h (0 Bft)
04.10.2018 21:25 7,2 °C 92 % 1023,2 hPa 0,0 mm 0,0 km/h (0 Bft) S-SO 159 ° 0 min 0,000 mm 0,0 UV-I 0 W/m² 6,0 °C 7,2 °C 0,0 km/h (0 Bft)
04.10.2018 21:26 7,1 °C 93 % 1023,3 hPa 0,0 mm 0,0 km/h (0 Bft) S-SO 159 ° 0 min 0,000 mm 0,0 UV-I 0 W/m² 6,0 °C 7,1 °C 0,0 km/h (0 Bft)
04.10.2018 21:27 7,2 °C 93 % 1023,2 hPa 0,0 mm 0,0 km/h (0 Bft) S-SO 159 ° 0 min 0,000 mm 0,0 UV-I 0 W/m² 6,1 °C 7,2 °C 0,0 km/h (0 Bft)
04.10.2018 21:28 7,2 °C 93 % 1023,3 hPa 0,0 mm 0,0 km/h (0 Bft) S-SO 159 ° 0 min 0,000 mm 0,0 UV-I 0 W/m² 6,1 °C 7,2 °C 0,0 km/h (0 Bft)
04.10.2018 21:29 7,2 °C 93 % 1023,3 hPa 0,0 mm 0,0 km/h (0 Bft) S-SO 159 ° 0 min 0,000 mm 0,0 UV-I 0 W/m² 6,1 °C 7,2 °C 0,0 km/h (0 Bft)
04.10.2018 21:30 7,2 °C 93 % 1023,2 hPa 0,0 mm 0,0 km/h (0 Bft) S-SO 159 ° 0 min 0,000 mm 0,0 UV-I 0 W/m² 6,1 °C 7,2 °C 0,0 km/h (0 Bft)
04.10.2018 21:31 7,2 °C 93 % 1023,2 hPa 0,0 mm 0,0 km/h (0 Bft) S-SO 159 ° 0 min 0,000 mm 0,0 UV-I 0 W/m² 6,1 °C 7,2 °C 0,0 km/h (0 Bft)
04.10.2018 21:32 7,2 °C 93 % 1023,3 hPa 0,0 mm 0,1 km/h (0 Bft) S-SO 159 ° 0 min 0,000 mm 0,0 UV-I 0 W/m² 6,1 °C 7,2 °C 1,6 km/h (1 Bft)
04.10.2018 21:33 7,1 °C 93 % 1023,3 hPa 0,0 mm 0,3 km/h (0 Bft) S-SO 159 ° 0 min 0,000 mm 0,0 UV-I 0 W/m² 6,0 °C 7,1 °C 1,6 km/h (1 Bft)
04.10.2018 21:34 7,1 °C 93 % 1023,2 hPa 0,0 mm 0,0 km/h (0 Bft) S-SO 159 ° 0 min 0,000 mm 0,0 UV-I 0 W/m² 6,0 °C 7,1 °C 0,0 km/h (0 Bft)
04.10.2018 21:35 7,1 °C 93 % 1023,3 hPa 0,0 mm 0,0 km/h (0 Bft) S-SO 159 ° 0 min 0,000 mm 0,0 UV-I 0 W/m² 6,0 °C 7,1 °C 0,0 km/h (0 Bft)
04.10.2018 21:36 7,1 °C 93 % 1023,3 hPa 0,0 mm 0,0 km/h (0 Bft) S-SO 159 ° 0 min 0,000 mm 0,0 UV-I 0 W/m² 6,0 °C 7,1 °C 0,0 km/h (0 Bft)
04.10.2018 21:37 7,1 °C 93 % 1023,3 hPa 0,0 mm 0,0 km/h (0 Bft) S-SO 159 ° 0 min 0,000 mm 0,0 UV-I 0 W/m² 6,0 °C 7,1 °C 0,0 km/h (0 Bft)
04.10.2018 21:38 7,2 °C 93 % 1023,3 hPa 0,0 mm 0,0 km/h (0 Bft) S-SO 159 ° 0 min 0,000 mm 0,0 UV-I 0 W/m² 6,1 °C 7,2 °C 0,0 km/h (0 Bft)
04.10.2018 21:39 7,2 °C 93 % 1023,3 hPa 0,0 mm 0,1 km/h (0 Bft) S-SO 159 ° 0 min 0,000 mm 0,0 UV-I 0 W/m² 6,1 °C 7,2 °C 1,6 km/h (1 Bft)
04.10.2018 21:40 7,3 °C 93 % 1023,2 hPa 0,0 mm 0,3 km/h (0 Bft) S-SO 159 ° 0 min 0,000 mm 0,0 UV-I 0 W/m² 6,2 °C 7,3 °C 1,6 km/h (1 Bft)
04.10.2018 21:41 7,3 °C 93 % 1023,3 hPa 0,0 mm 0,5 km/h (0 Bft) S-SO 159 ° 0 min 0,000 mm 0,0 UV-I 0 W/m² 6,2 °C 7,3 °C 3,2 km/h (1 Bft)
04.10.2018 21:42 7,3 °C 93 % 1023,3 hPa 0,0 mm 0,0 km/h (0 Bft) S-SO 159 ° 0 min 0,000 mm 0,0 UV-I 0 W/m² 6,2 °C 7,3 °C 0,0 km/h (0 Bft)
04.10.2018 21:43 7,3 °C 93 % 1023,3 hPa 0,0 mm 0,0 km/h (0 Bft) S-SO 159 ° 0 min 0,000 mm 0,0 UV-I 0 W/m² 6,2 °C 7,3 °C 0,0 km/h (0 Bft)
04.10.2018 21:44 7,2 °C 93 % 1023,3 hPa 0,0 mm 0,0 km/h (0 Bft) S-SO 159 ° 0 min 0,000 mm 0,0 UV-I 0 W/m² 6,1 °C 7,2 °C 0,0 km/h (0 Bft)
04.10.2018 21:45 7,2 °C 93 % 1023,3 hPa 0,0 mm 0,0 km/h (0 Bft) S-SO 159 ° 0 min 0,000 mm 0,0 UV-I 0 W/m² 6,1 °C 7,2 °C 0,0 km/h (0 Bft)
04.10.2018 21:46 7,2 °C 93 % 1023,3 hPa 0,0 mm 0,0 km/h (0 Bft) S-SO 159 ° 0 min 0,000 mm 0,0 UV-I 0 W/m² 6,1 °C 7,2 °C 0,0 km/h (0 Bft)
04.10.2018 21:47 7,2 °C 93 % 1023,3 hPa 0,0 mm 0,0 km/h (0 Bft) S-SO 159 ° 0 min 0,000 mm 0,0 UV-I 0 W/m² 6,1 °C 7,2 °C 0,0 km/h (0 Bft)
04.10.2018 21:48 7,1 °C 93 % 1023,3 hPa 0,0 mm 0,0 km/h (0 Bft) S-SO 159 ° 0 min 0,000 mm 0,0 UV-I 0 W/m² 6,0 °C 7,1 °C 0,0 km/h (0 Bft)
04.10.2018 21:49 7,1 °C 93 % 1023,3 hPa 0,0 mm 0,0 km/h (0 Bft) S-SO 159 ° 0 min 0,000 mm 0,0 UV-I 0 W/m² 6,0 °C 7,1 °C 0,0 km/h (0 Bft)
04.10.2018 21:50 7,0 °C 93 % 1023,3 hPa 0,0 mm 0,0 km/h (0 Bft) S-SO 159 ° 0 min 0,000 mm 0,0 UV-I 0 W/m² 5,9 °C 7,0 °C 0,0 km/h (0 Bft)
04.10.2018 21:51 6,9 °C 93 % 1023,3 hPa 0,0 mm 0,0 km/h (0 Bft) S-SO 159 ° 0 min 0,000 mm 0,0 UV-I 0 W/m² 5,8 °C 6,9 °C 0,0 km/h (0 Bft)
04.10.2018 21:52 6,9 °C 93 % 1023,3 hPa 0,0 mm 0,0 km/h (0 Bft) S-SO 159 ° 0 min 0,000 mm 0,0 UV-I 0 W/m² 5,8 °C 6,9 °C 0,0 km/h (0 Bft)
04.10.2018 21:53 6,8 °C 93 % 1023,3 hPa 0,0 mm 0,0 km/h (0 Bft) S-SO 159 ° 0 min 0,000 mm 0,0 UV-I 0 W/m² 5,7 °C 6,8 °C 0,0 km/h (0 Bft)
04.10.2018 21:54 6,8 °C 93 % 1023,4 hPa 0,0 mm 0,0 km/h (0 Bft) S-SO 159 ° 0 min 0,000 mm 0,0 UV-I 0 W/m² 5,7 °C 6,8 °C 0,0 km/h (0 Bft)
04.10.2018 21:55 6,8 °C 93 % 1023,3 hPa 0,0 mm 0,0 km/h (0 Bft) S-SO 159 ° 0 min 0,000 mm 0,0 UV-I 0 W/m² 5,7 °C 6,8 °C 0,0 km/h (0 Bft)
04.10.2018 21:56 6,8 °C 93 % 1023,3 hPa 0,0 mm 0,0 km/h (0 Bft) S-SO 159 ° 0 min 0,000 mm 0,0 UV-I 0 W/m² 5,7 °C 6,8 °C 0,0 km/h (0 Bft)
04.10.2018 21:57 6,7 °C 93 % 1023,3 hPa 0,0 mm 0,0 km/h (0 Bft) S-SO 159 ° 0 min 0,000 mm 0,0 UV-I 0 W/m² 5,6 °C 6,7 °C 0,0 km/h (0 Bft)
04.10.2018 21:58 6,7 °C 93 % 1023,4 hPa 0,0 mm 0,0 km/h (0 Bft) S-SO 159 ° 0 min 0,000 mm 0,0 UV-I 0 W/m² 5,6 °C 6,7 °C 0,0 km/h (0 Bft)
04.10.2018 21:59 6,7 °C 93 % 1023,4 hPa 0,0 mm 0,0 km/h (0 Bft) S-SO 159 ° 0 min 0,000 mm 0,0 UV-I 0 W/m² 5,6 °C 6,7 °C 0,0 km/h (0 Bft)
04.10.2018 22:00 6,7 °C 93 % 1023,3 hPa 0,0 mm 0,0 km/h (0 Bft) S-SO 159 ° 0 min 0,000 mm 0,0 UV-I 0 W/m² 5,6 °C 6,7 °C 0,0 km/h (0 Bft)
04.10.2018 22:01 6,8 °C 93 % 1023,3 hPa 0,0 mm 0,0 km/h (0 Bft) S-SO 159 ° 0 min 0,000 mm 0,0 UV-I 0 W/m² 5,7 °C 6,8 °C 0,0 km/h (0 Bft)
04.10.2018 22:02 6,8 °C 93 % 1023,4 hPa 0,0 mm 0,0 km/h (0 Bft) S-SO 159 ° 0 min 0,000 mm 0,0 UV-I 0 W/m² 5,7 °C 6,8 °C 0,0 km/h (0 Bft)
04.10.2018 22:03 6,8 °C 93 % 1023,4 hPa 0,0 mm 0,0 km/h (0 Bft) S-SO 159 ° 0 min 0,000 mm 0,0 UV-I 0 W/m² 5,7 °C 6,8 °C 0,0 km/h (0 Bft)
04.10.2018 22:04 6,8 °C 93 % 1023,4 hPa 0,0 mm 0,0 km/h (0 Bft) S-SO 159 ° 0 min 0,000 mm 0,0 UV-I 0 W/m² 5,7 °C 6,8 °C 0,0 km/h (0 Bft)
04.10.2018 22:05 6,7 °C 93 % 1023,4 hPa 0,0 mm 0,0 km/h (0 Bft) S-SO 159 ° 0 min 0,000 mm 0,0 UV-I 0 W/m² 5,6 °C 6,7 °C 0,0 km/h (0 Bft)
04.10.2018 22:06 6,7 °C 93 % 1023,4 hPa 0,0 mm 0,0 km/h (0 Bft) S-SO 159 ° 0 min 0,000 mm 0,0 UV-I 0 W/m² 5,6 °C 6,7 °C 0,0 km/h (0 Bft)
04.10.2018 22:07 6,6 °C 93 % 1023,4 hPa 0,0 mm 0,0 km/h (0 Bft) S-SO 159 ° 0 min 0,000 mm 0,0 UV-I 0 W/m² 5,6 °C 6,6 °C 0,0 km/h (0 Bft)
04.10.2018 22:08 6,5 °C 93 % 1023,4 hPa 0,0 mm 0,0 km/h (0 Bft) S-SO 159 ° 0 min 0,000 mm 0,0 UV-I 0 W/m² 5,5 °C 6,5 °C 0,0 km/h (0 Bft)
04.10.2018 22:09 6,4 °C 93 % 1023,4 hPa 0,0 mm 0,0 km/h (0 Bft) S-SO 159 ° 0 min 0,000 mm 0,0 UV-I 0 W/m² 5,4 °C 6,4 °C 0,0 km/h (0 Bft)
04.10.2018 22:10 6,4 °C 93 % 1023,4 hPa 0,0 mm 0,0 km/h (0 Bft) S-SO 159 ° 0 min 0,000 mm 0,0 UV-I 0 W/m² 5,4 °C 6,4 °C 0,0 km/h (0 Bft)
04.10.2018 22:11 6,4 °C 93 % 1023,4 hPa 0,0 mm 0,0 km/h (0 Bft) S-SO 159 ° 0 min 0,000 mm 0,0 UV-I 0 W/m² 5,4 °C 6,4 °C 0,0 km/h (0 Bft)
04.10.2018 22:12 6,4 °C 93 % 1023,4 hPa 0,0 mm 0,0 km/h (0 Bft) S-SO 159 ° 0 min 0,000 mm 0,0 UV-I 0 W/m² 5,4 °C 6,4 °C 0,0 km/h (0 Bft)
04.10.2018 22:13 6,4 °C 93 % 1023,4 hPa 0,0 mm 0,0 km/h (0 Bft) S-SO 159 ° 0 min 0,000 mm 0,0 UV-I 0 W/m² 5,4 °C 6,4 °C 0,0 km/h (0 Bft)
04.10.2018 22:14 6,4 °C 93 % 1023,4 hPa 0,0 mm 0,0 km/h (0 Bft) S-SO 159 ° 0 min 0,000 mm 0,0 UV-I 0 W/m² 5,4 °C 6,4 °C 0,0 km/h (0 Bft)
04.10.2018 22:15 6,4 °C 93 % 1023,4 hPa 0,0 mm 0,0 km/h (0 Bft) S-SO 159 ° 0 min 0,000 mm 0,0 UV-I 0 W/m² 5,4 °C 6,4 °C 0,0 km/h (0 Bft)
04.10.2018 22:16 6,4 °C 93 % 1023,4 hPa 0,0 mm 0,0 km/h (0 Bft) S-SO 159 ° 0 min 0,000 mm 0,0 UV-I 0 W/m² 5,4 °C 6,4 °C 0,0 km/h (0 Bft)
04.10.2018 22:17 6,5 °C 93 % 1023,4 hPa 0,0 mm 0,0 km/h (0 Bft) S-SO 159 ° 0 min 0,000 mm 0,0 UV-I 0 W/m² 5,5 °C 6,5 °C 0,0 km/h (0 Bft)
04.10.2018 22:18 6,5 °C 93 % 1023,4 hPa 0,0 mm 0,0 km/h (0 Bft) S-SO 159 ° 0 min 0,000 mm 0,0 UV-I 0 W/m² 5,5 °C 6,5 °C 0,0 km/h (0 Bft)
04.10.2018 22:19 6,5 °C 93 % 1023,3 hPa 0,0 mm 0,0 km/h (0 Bft) S-SO 159 ° 0 min 0,000 mm 0,0 UV-I 0 W/m² 5,5 °C 6,5 °C 0,0 km/h (0 Bft)
04.10.2018 22:20 6,7 °C 94 % 1023,4 hPa 0,0 mm 0,0 km/h (0 Bft) S-SO 159 ° 0 min 0,000 mm 0,0 UV-I 0 W/m² 5,8 °C 6,7 °C 0,0 km/h (0 Bft)
04.10.2018 22:21 7,1 °C 94 % 1023,3 hPa 0,0 mm 0,0 km/h (0 Bft) S-SO 159 ° 0 min 0,000 mm 0,0 UV-I 0 W/m² 6,2 °C 7,1 °C 0,0 km/h (0 Bft)
04.10.2018 22:22 7,4 °C 94 % 1023,3 hPa 0,0 mm 0,0 km/h (0 Bft) S-SO 159 ° 0 min 0,000 mm 0,0 UV-I 0 W/m² 6,5 °C 7,4 °C 0,0 km/h (0 Bft)
04.10.2018 22:23 7,6 °C 95 % 1023,3 hPa 0,0 mm 0,0 km/h (0 Bft) S-SO 159 ° 0 min 0,000 mm 0,0 UV-I 0 W/m² 6,9 °C 7,6 °C 0,0 km/h (0 Bft)
04.10.2018 22:24 7,8 °C 94 % 1023,3 hPa 0,0 mm 0,0 km/h (0 Bft) S-SO 159 ° 0 min 0,000 mm 0,0 UV-I 0 W/m² 6,9 °C 7,8 °C 0,0 km/h (0 Bft)
04.10.2018 22:25 7,9 °C 94 % 1023,3 hPa 0,0 mm 0,0 km/h (0 Bft) S-SO 159 ° 0 min 0,000 mm 0,0 UV-I 0 W/m² 7,0 °C 7,9 °C 0,0 km/h (0 Bft)
04.10.2018 22:26 7,8 °C 94 % 1023,3 hPa 0,0 mm 0,0 km/h (0 Bft) S-SO 159 ° 0 min 0,000 mm 0,0 UV-I 0 W/m² 6,9 °C 7,8 °C 0,0 km/h (0 Bft)
04.10.2018 22:27 7,6 °C 94 % 1023,3 hPa 0,0 mm 0,0 km/h (0 Bft) S-SO 159 ° 0 min 0,000 mm 0,0 UV-I 0 W/m² 6,7 °C 7,6 °C 0,0 km/h (0 Bft)
04.10.2018 22:28 7,3 °C 94 % 1023,3 hPa 0,0 mm 0,0 km/h (0 Bft) S-SO 159 ° 0 min 0,000 mm 0,0 UV-I 0 W/m² 6,4 °C 7,3 °C 0,0 km/h (0 Bft)
04.10.2018 22:29 7,1 °C 93 % 1023,3 hPa 0,0 mm 0,0 km/h (0 Bft) S-SO 159 ° 0 min 0,000 mm 0,0 UV-I 0 W/m² 6,0 °C 7,1 °C 0,0 km/h (0 Bft)
04.10.2018 22:30 6,8 °C 93 % 1023,3 hPa 0,0 mm 0,0 km/h (0 Bft) S-SO 159 ° 0 min 0,000 mm 0,0 UV-I 0 W/m² 5,7 °C 6,8 °C 0,0 km/h (0 Bft)
04.10.2018 22:31 6,7 °C 93 % 1023,3 hPa 0,0 mm 0,0 km/h (0 Bft) S-SO 159 ° 0 min 0,000 mm 0,0 UV-I 0 W/m² 5,6 °C 6,7 °C 0,0 km/h (0 Bft)
04.10.2018 22:32 6,5 °C 93 % 1023,3 hPa 0,0 mm 0,0 km/h (0 Bft) S-SO 159 ° 0 min 0,000 mm 0,0 UV-I 0 W/m² 5,5 °C 6,5 °C 0,0 km/h (0 Bft)
04.10.2018 22:33 6,4 °C 93 % 1023,3 hPa 0,0 mm 0,0 km/h (0 Bft) S-SO 159 ° 0 min 0,000 mm 0,0 UV-I 0 W/m² 5,4 °C 6,4 °C 0,0 km/h (0 Bft)
04.10.2018 22:34 6,3 °C 93 % 1023,3 hPa 0,0 mm 0,0 km/h (0 Bft) S-SO 159 ° 0 min 0,000 mm 0,0 UV-I 0 W/m² 5,3 °C 6,3 °C 0,0 km/h (0 Bft)
04.10.2018 22:35 6,2 °C 93 % 1023,3 hPa 0,0 mm 0,0 km/h (0 Bft) S-SO 159 ° 0 min 0,000 mm 0,0 UV-I 0 W/m² 5,2 °C 6,2 °C 0,0 km/h (0 Bft)
04.10.2018 22:36 6,2 °C 93 % 1023,3 hPa 0,0 mm 0,0 km/h (0 Bft) S-SO 159 ° 0 min 0,000 mm 0,0 UV-I 0 W/m² 5,2 °C 6,2 °C 0,0 km/h (0 Bft)
04.10.2018 22:37 6,2 °C 93 % 1023,3 hPa 0,0 mm 0,0 km/h (0 Bft) S-SO 159 ° 0 min 0,000 mm 0,0 UV-I 0 W/m² 5,2 °C 6,2 °C 0,0 km/h (0 Bft)
04.10.2018 22:38 6,1 °C 93 % 1023,3 hPa 0,0 mm 0,0 km/h (0 Bft) S-SO 159 ° 0 min 0,000 mm 0,0 UV-I 0 W/m² 5,1 °C 6,1 °C 0,0 km/h (0 Bft)
04.10.2018 22:39 6,0 °C 93 % 1023,3 hPa 0,0 mm 0,0 km/h (0 Bft) S-SO 159 ° 0 min 0,000 mm 0,0 UV-I 0 W/m² 5,0 °C 6,0 °C 0,0 km/h (0 Bft)
04.10.2018 22:40 5,9 °C 93 % 1023,3 hPa 0,0 mm 0,0 km/h (0 Bft) S-SO 159 ° 0 min 0,000 mm 0,0 UV-I 0 W/m² 4,9 °C 5,9 °C 0,0 km/h (0 Bft)
04.10.2018 22:41 5,9 °C 93 % 1023,4 hPa 0,0 mm 0,0 km/h (0 Bft) S-SO 159 ° 0 min 0,000 mm 0,0 UV-I 0 W/m² 4,9 °C 5,9 °C 0,0 km/h (0 Bft)
04.10.2018 22:42 5,9 °C 93 % 1023,3 hPa 0,0 mm 0,0 km/h (0 Bft) S-SO 159 ° 0 min 0,000 mm 0,0 UV-I 0 W/m² 4,9 °C 5,9 °C 0,0 km/h (0 Bft)
04.10.2018 22:43 5,9 °C 93 % 1023,3 hPa 0,0 mm 0,0 km/h (0 Bft) S-SO 159 ° 0 min 0,000 mm 0,0 UV-I 0 W/m² 4,9 °C 5,9 °C 0,0 km/h (0 Bft)
04.10.2018 22:44 5,8 °C 93 % 1023,3 hPa 0,0 mm 0,0 km/h (0 Bft) S-SO 159 ° 0 min 0,000 mm 0,0 UV-I 0 W/m² 4,8 °C 5,8 °C 0,0 km/h (0 Bft)
04.10.2018 22:45 5,8 °C 93 % 1023,3 hPa 0,0 mm 0,0 km/h (0 Bft) S-SO 159 ° 0 min 0,000 mm 0,0 UV-I 0 W/m² 4,8 °C 5,8 °C 0,0 km/h (0 Bft)
04.10.2018 22:46 5,8 °C 93 % 1023,3 hPa 0,0 mm 0,0 km/h (0 Bft) S-SO 159 ° 0 min 0,000 mm 0,0 UV-I 0 W/m² 4,8 °C 5,8 °C 0,0 km/h (0 Bft)
04.10.2018 22:47 5,8 °C 93 % 1023,3 hPa 0,0 mm 0,0 km/h (0 Bft) S-SO 159 ° 0 min 0,000 mm 0,0 UV-I 0 W/m² 4,8 °C 5,8 °C 0,0 km/h (0 Bft)
04.10.2018 22:48 5,8 °C 93 % 1023,3 hPa 0,0 mm 0,0 km/h (0 Bft) S-SO 159 ° 0 min 0,000 mm 0,0 UV-I 0 W/m² 4,8 °C 5,8 °C 0,0 km/h (0 Bft)
04.10.2018 22:49 5,8 °C 93 % 1023,3 hPa 0,0 mm 0,0 km/h (0 Bft) S-SO 159 ° 0 min 0,000 mm 0,0 UV-I 0 W/m² 4,8 °C 5,8 °C 0,0 km/h (0 Bft)
04.10.2018 22:50 5,9 °C 93 % 1023,2 hPa 0,0 mm 0,0 km/h (0 Bft) S-SO 159 ° 0 min 0,000 mm 0,0 UV-I 0 W/m² 4,9 °C 5,9 °C 0,0 km/h (0 Bft)
04.10.2018 22:51 5,9 °C 93 % 1023,2 hPa 0,0 mm 0,0 km/h (0 Bft) S-SO 159 ° 0 min 0,000 mm 0,0 UV-I 0 W/m² 4,9 °C 5,9 °C 0,0 km/h (0 Bft)
04.10.2018 22:52 5,9 °C 94 % 1023,2 hPa 0,0 mm 0,0 km/h (0 Bft) S-SO 159 ° 0 min 0,000 mm 0,0 UV-I 0 W/m² 5,0 °C 5,9 °C 0,0 km/h (0 Bft)
04.10.2018 22:53 5,9 °C 94 % 1023,2 hPa 0,0 mm 0,0 km/h (0 Bft) S-SO 159 ° 0 min 0,000 mm 0,0 UV-I 0 W/m² 5,0 °C 5,9 °C 0,0 km/h (0 Bft)
04.10.2018 22:54 5,9 °C 93 % 1023,2 hPa 0,0 mm 0,0 km/h (0 Bft) S-SO 159 ° 0 min 0,000 mm 0,0 UV-I 0 W/m² 4,9 °C 5,9 °C 0,0 km/h (0 Bft)
04.10.2018 22:55 5,9 °C 93 % 1023,2 hPa 0,0 mm 0,0 km/h (0 Bft) S-SO 159 ° 0 min 0,000 mm 0,0 UV-I 0 W/m² 4,9 °C 5,9 °C 0,0 km/h (0 Bft)
04.10.2018 22:56 5,9 °C 93 % 1023,2 hPa 0,0 mm 0,0 km/h (0 Bft) S-SO 159 ° 0 min 0,000 mm 0,0 UV-I 0 W/m² 4,9 °C 5,9 °C 0,0 km/h (0 Bft)
04.10.2018 22:57 5,9 °C 93 % 1023,2 hPa 0,0 mm 0,0 km/h (0 Bft) S-SO 159 ° 0 min 0,000 mm 0,0 UV-I 0 W/m² 4,9 °C 5,9 °C 0,0 km/h (0 Bft)
04.10.2018 22:58 5,9 °C 94 % 1023,1 hPa 0,0 mm 0,0 km/h (0 Bft) S-SO 159 ° 0 min 0,000 mm 0,0 UV-I 0 W/m² 5,0 °C 5,9 °C 0,0 km/h (0 Bft)
04.10.2018 22:59 5,9 °C 94 % 1023,2 hPa 0,0 mm 0,0 km/h (0 Bft) S-SO 159 ° 0 min 0,000 mm 0,0 UV-I 0 W/m² 5,0 °C 5,9 °C 0,0 km/h (0 Bft)
04.10.2018 23:00 5,9 °C 94 % 1023,1 hPa 0,0 mm 0,0 km/h (0 Bft) S-SO 159 ° 0 min 0,000 mm 0,0 UV-I 0 W/m² 5,0 °C 5,9 °C 0,0 km/h (0 Bft)
04.10.2018 23:01 5,9 °C 93 % 1023,1 hPa 0,0 mm 0,0 km/h (0 Bft) S-SO 159 ° 0 min 0,000 mm 0,0 UV-I 0 W/m² 4,9 °C 5,9 °C 0,0 km/h (0 Bft)
04.10.2018 23:02 5,9 °C 93 % 1023,1 hPa 0,0 mm 0,0 km/h (0 Bft) S-SO 159 ° 0 min 0,000 mm 0,0 UV-I 0 W/m² 4,9 °C 5,9 °C 0,0 km/h (0 Bft)
04.10.2018 23:03 5,9 °C 93 % 1023,1 hPa 0,0 mm 0,0 km/h (0 Bft) S-SO 159 ° 0 min 0,000 mm 0,0 UV-I 0 W/m² 4,9 °C 5,9 °C 0,0 km/h (0 Bft)
04.10.2018 23:04 5,9 °C 94 % 1023,1 hPa 0,0 mm 0,0 km/h (0 Bft) S-SO 159 ° 0 min 0,000 mm 0,0 UV-I 0 W/m² 5,0 °C 5,9 °C 0,0 km/h (0 Bft)
04.10.2018 23:05 5,9 °C 94 % 1023,1 hPa 0,0 mm 0,0 km/h (0 Bft) S-SO 159 ° 0 min 0,000 mm 0,0 UV-I 0 W/m² 5,0 °C 5,9 °C 0,0 km/h (0 Bft)
04.10.2018 23:06 5,8 °C 93 % 1023,1 hPa 0,0 mm 0,0 km/h (0 Bft) S-SO 159 ° 0 min 0,000 mm 0,0 UV-I 0 W/m² 4,8 °C 5,8 °C 0,0 km/h (0 Bft)
04.10.2018 23:07 5,8 °C 93 % 1023,1 hPa 0,0 mm 0,0 km/h (0 Bft) S-SO 159 ° 0 min 0,000 mm 0,0 UV-I 0 W/m² 4,8 °C 5,8 °C 0,0 km/h (0 Bft)
04.10.2018 23:08 5,8 °C 93 % 1023,1 hPa 0,0 mm 0,0 km/h (0 Bft) S-SO 159 ° 0 min 0,000 mm 0,0 UV-I 0 W/m² 4,8 °C 5,8 °C 0,0 km/h (0 Bft)
04.10.2018 23:09 5,9 °C 94 % 1023,1 hPa 0,0 mm 0,0 km/h (0 Bft) S-SO 159 ° 0 min 0,000 mm 0,0 UV-I 0 W/m² 5,0 °C 5,9 °C 0,0 km/h (0 Bft)
04.10.2018 23:10 5,9 °C 94 % 1023,1 hPa 0,0 mm 0,0 km/h (0 Bft) S-SO 159 ° 0 min 0,000 mm 0,0 UV-I 0 W/m² 5,0 °C 5,9 °C 0,0 km/h (0 Bft)
04.10.2018 23:11 5,9 °C 94 % 1023,1 hPa 0,0 mm 0,0 km/h (0 Bft) S-SO 159 ° 0 min 0,000 mm 0,0 UV-I 0 W/m² 5,0 °C 5,9 °C 0,0 km/h (0 Bft)
04.10.2018 23:12 6,1 °C 94 % 1023,1 hPa 0,0 mm 0,0 km/h (0 Bft) S-SO 159 ° 0 min 0,000 mm 0,0 UV-I 0 W/m² 5,2 °C 6,1 °C 0,0 km/h (0 Bft)
04.10.2018 23:13 6,3 °C 94 % 1023,0 hPa 0,0 mm 0,0 km/h (0 Bft) S-SO 159 ° 0 min 0,000 mm 0,0 UV-I 0 W/m² 5,4 °C 6,3 °C 0,0 km/h (0 Bft)
04.10.2018 23:14 6,4 °C 94 % 1023,1 hPa 0,0 mm 0,0 km/h (0 Bft) S-SO 159 ° 0 min 0,000 mm 0,0 UV-I 0 W/m² 5,5 °C 6,4 °C 0,0 km/h (0 Bft)
04.10.2018 23:15 6,5 °C 94 % 1023,1 hPa 0,0 mm 0,0 km/h (0 Bft) S-SO 159 ° 0 min 0,000 mm 0,0 UV-I 0 W/m² 5,6 °C 6,5 °C 0,0 km/h (0 Bft)
04.10.2018 23:16 6,4 °C 94 % 1023,0 hPa 0,0 mm 0,0 km/h (0 Bft) S-SO 159 ° 0 min 0,000 mm 0,0 UV-I 0 W/m² 5,5 °C 6,4 °C 0,0 km/h (0 Bft)
04.10.2018 23:17 6,3 °C 94 % 1023,0 hPa 0,0 mm 0,3 km/h (0 Bft) S-SO 159 ° 0 min 0,000 mm 0,0 UV-I 0 W/m² 5,4 °C 6,3 °C 1,6 km/h (1 Bft)
04.10.2018 23:18 6,1 °C 94 % 1023,0 hPa 0,0 mm 2,1 km/h (1 Bft) S-SO 159 ° 0 min 0,000 mm 0,0 UV-I 0 W/m² 5,2 °C 6,1 °C 3,2 km/h (1 Bft)
04.10.2018 23:19 5,9 °C 93 % 1023,0 hPa 0,0 mm 3,1 km/h (1 Bft) S-SO 163 ° 0 min 0,000 mm 0,0 UV-I 0 W/m² 4,9 °C 5,9 °C 6,4 km/h (2 Bft)
04.10.2018 23:20 5,9 °C 93 % 1023,0 hPa 0,0 mm 2,1 km/h (1 Bft) S-SO 163 ° 0 min 0,000 mm 0,0 UV-I 0 W/m² 4,9 °C 5,9 °C 3,2 km/h (1 Bft)
04.10.2018 23:21 5,9 °C 94 % 1023,0 hPa 0,0 mm 3,8 km/h (1 Bft) S-SO 163 ° 0 min 0,000 mm 0,0 UV-I 0 W/m² 5,0 °C 5,9 °C 6,4 km/h (2 Bft)
04.10.2018 23:22 5,9 °C 94 % 1023,0 hPa 0,0 mm 3,3 km/h (1 Bft) S-SO 163 ° 0 min 0,000 mm 0,0 UV-I 0 W/m² 5,0 °C 5,9 °C 6,4 km/h (2 Bft)
04.10.2018 23:23 5,8 °C 93 % 1022,9 hPa 0,0 mm 2,3 km/h (1 Bft) S-SO 163 ° 0 min 0,000 mm 0,0 UV-I 0 W/m² 4,8 °C 5,8 °C 3,2 km/h (1 Bft)
04.10.2018 23:24 5,8 °C 93 % 1023,0 hPa 0,0 mm 3,2 km/h (1 Bft) S-SO 163 ° 0 min 0,000 mm 0,0 UV-I 0 W/m² 4,8 °C 5,8 °C 6,4 km/h (2 Bft)
04.10.2018 23:25 5,9 °C 94 % 1023,0 hPa 0,0 mm 0,0 km/h (0 Bft) S-SO 163 ° 0 min 0,000 mm 0,0 UV-I 0 W/m² 5,0 °C 5,9 °C 0,0 km/h (0 Bft)
04.10.2018 23:26 5,8 °C 94 % 1023,0 hPa 0,0 mm 0,0 km/h (0 Bft) S-SO 163 ° 0 min 0,000 mm 0,0 UV-I 0 W/m² 4,9 °C 5,8 °C 0,0 km/h (0 Bft)
04.10.2018 23:27 5,8 °C 94 % 1023,0 hPa 0,0 mm 0,0 km/h (0 Bft) S-SO 163 ° 0 min 0,000 mm 0,0 UV-I 0 W/m² 4,9 °C 5,8 °C 0,0 km/h (0 Bft)
04.10.2018 23:28 5,7 °C 93 % 1023,0 hPa 0,0 mm 0,0 km/h (0 Bft) S-SO 163 ° 0 min 0,000 mm 0,0 UV-I 0 W/m² 4,7 °C 5,7 °C 0,0 km/h (0 Bft)
04.10.2018 23:29 5,6 °C 93 % 1023,0 hPa 0,0 mm 0,0 km/h (0 Bft) S-SO 163 ° 0 min 0,000 mm 0,0 UV-I 0 W/m² 4,6 °C 5,6 °C 0,0 km/h (0 Bft)
04.10.2018 23:30 5,6 °C 94 % 1023,0 hPa 0,0 mm 0,0 km/h (0 Bft) S-SO 163 ° 0 min 0,000 mm 0,0 UV-I 0 W/m² 4,7 °C 5,6 °C 0,0 km/h (0 Bft)
04.10.2018 23:31 5,6 °C 94 % 1022,9 hPa 0,0 mm 0,0 km/h (0 Bft) S-SO 163 ° 0 min 0,000 mm 0,0 UV-I 0 W/m² 4,7 °C 5,6 °C 0,0 km/h (0 Bft)
04.10.2018 23:32 5,6 °C 94 % 1023,0 hPa 0,0 mm 0,0 km/h (0 Bft) S-SO 163 ° 0 min 0,000 mm 0,0 UV-I 0 W/m² 4,7 °C 5,6 °C 0,0 km/h (0 Bft)
04.10.2018 23:33 5,6 °C 94 % 1022,9 hPa 0,0 mm 0,0 km/h (0 Bft) S-SO 163 ° 0 min 0,000 mm 0,0 UV-I 0 W/m² 4,7 °C 5,6 °C 0,0 km/h (0 Bft)
04.10.2018 23:34 5,7 °C 94 % 1022,9 hPa 0,0 mm 0,0 km/h (0 Bft) S-SO 163 ° 0 min 0,000 mm 0,0 UV-I 0 W/m² 4,8 °C 5,7 °C 0,0 km/h (0 Bft)
04.10.2018 23:35 5,8 °C 94 % 1023,0 hPa 0,0 mm 0,0 km/h (0 Bft) S-SO 163 ° 0 min 0,000 mm 0,0 UV-I 0 W/m² 4,9 °C 5,8 °C 0,0 km/h (0 Bft)
04.10.2018 23:36 5,8 °C 94 % 1023,0 hPa 0,0 mm 0,0 km/h (0 Bft) S-SO 163 ° 0 min 0,000 mm 0,0 UV-I 0 W/m² 4,9 °C 5,8 °C 0,0 km/h (0 Bft)
04.10.2018 23:37 5,7 °C 94 % 1023,0 hPa 0,0 mm 0,0 km/h (0 Bft) S-SO 163 ° 0 min 0,000 mm 0,0 UV-I 0 W/m² 4,8 °C 5,7 °C 0,0 km/h (0 Bft)
04.10.2018 23:38 5,6 °C 94 % 1023,0 hPa 0,0 mm 0,0 km/h (0 Bft) S-SO 163 ° 0 min 0,000 mm 0,0 UV-I 0 W/m² 4,7 °C 5,6 °C 0,0 km/h (0 Bft)
04.10.2018 23:39 5,6 °C 94 % 1023,0 hPa 0,0 mm 0,0 km/h (0 Bft) S-SO 163 ° 0 min 0,000 mm 0,0 UV-I 0 W/m² 4,7 °C 5,6 °C 0,0 km/h (0 Bft)
04.10.2018 23:40 5,5 °C 93 % 1023,0 hPa 0,0 mm 0,0 km/h (0 Bft) S-SO 163 ° 0 min 0,000 mm 0,0 UV-I 0 W/m² 4,5 °C 5,5 °C 0,0 km/h (0 Bft)
04.10.2018 23:41 5,4 °C 93 % 1023,1 hPa 0,0 mm 0,0 km/h (0 Bft) S-SO 163 ° 0 min 0,000 mm 0,0 UV-I 0 W/m² 4,4 °C 5,4 °C 0,0 km/h (0 Bft)
04.10.2018 23:42 5,3 °C 93 % 1023,0 hPa 0,0 mm 0,0 km/h (0 Bft) S-SO 163 ° 0 min 0,000 mm 0,0 UV-I 0 W/m² 4,3 °C 5,3 °C 0,0 km/h (0 Bft)
04.10.2018 23:43 5,3 °C 93 % 1023,0 hPa 0,0 mm 0,0 km/h (0 Bft) S-SO 163 ° 0 min 0,000 mm 0,0 UV-I 0 W/m² 4,3 °C 5,3 °C 0,0 km/h (0 Bft)
04.10.2018 23:44 5,2 °C 93 % 1023,0 hPa 0,0 mm 0,0 km/h (0 Bft) S-SO 163 ° 0 min 0,000 mm 0,0 UV-I 0 W/m² 4,2 °C 5,2 °C 0,0 km/h (0 Bft)
04.10.2018 23:45 5,2 °C 94 % 1023,0 hPa 0,0 mm 0,0 km/h (0 Bft) S-SO 163 ° 0 min 0,000 mm 0,0 UV-I 0 W/m² 4,3 °C 5,2 °C 0,0 km/h (0 Bft)
04.10.2018 23:46 5,2 °C 94 % 1023,0 hPa 0,0 mm 0,0 km/h (0 Bft) S-SO 163 ° 0 min 0,000 mm 0,0 UV-I 0 W/m² 4,3 °C 5,2 °C 0,0 km/h (0 Bft)
04.10.2018 23:47 5,2 °C 94 % 1023,1 hPa 0,0 mm 0,0 km/h (0 Bft) S-SO 163 ° 0 min 0,000 mm 0,0 UV-I 0 W/m² 4,3 °C 5,2 °C 0,0 km/h (0 Bft)
04.10.2018 23:48 5,3 °C 94 % 1023,0 hPa 0,0 mm 0,0 km/h (0 Bft) S-SO 163 ° 0 min 0,000 mm 0,0 UV-I 0 W/m² 4,4 °C 5,3 °C 0,0 km/h (0 Bft)
04.10.2018 23:49 5,3 °C 94 % 1023,0 hPa 0,0 mm 0,0 km/h (0 Bft) S-SO 163 ° 0 min 0,000 mm 0,0 UV-I 0 W/m² 4,4 °C 5,3 °C 0,0 km/h (0 Bft)
04.10.2018 23:50 5,4 °C 94 % 1023,0 hPa 0,0 mm 0,0 km/h (0 Bft) S-SO 163 ° 0 min 0,000 mm 0,0 UV-I 0 W/m² 4,5 °C 5,4 °C 0,0 km/h (0 Bft)
04.10.2018 23:51 5,3 °C 94 % 1023,0 hPa 0,0 mm 0,0 km/h (0 Bft) S-SO 163 ° 0 min 0,000 mm 0,0 UV-I 0 W/m² 4,4 °C 5,3 °C 0,0 km/h (0 Bft)
04.10.2018 23:52 5,3 °C 94 % 1023,0 hPa 0,0 mm 0,0 km/h (0 Bft) S-SO 163 ° 0 min 0,000 mm 0,0 UV-I 0 W/m² 4,4 °C 5,3 °C 0,0 km/h (0 Bft)
04.10.2018 23:53 5,3 °C 94 % 1023,0 hPa 0,0 mm 0,0 km/h (0 Bft) S-SO 163 ° 0 min 0,000 mm 0,0 UV-I 0 W/m² 4,4 °C 5,3 °C 0,0 km/h (0 Bft)
04.10.2018 23:54 5,3 °C 94 % 1023,0 hPa 0,0 mm 0,0 km/h (0 Bft) S-SO 163 ° 0 min 0,000 mm 0,0 UV-I 0 W/m² 4,4 °C 5,3 °C 0,0 km/h (0 Bft)
04.10.2018 23:55 5,3 °C 94 % 1023,0 hPa 0,0 mm 0,0 km/h (0 Bft) S-SO 163 ° 0 min 0,000 mm 0,0 UV-I 0 W/m² 4,4 °C 5,3 °C 0,0 km/h (0 Bft)
04.10.2018 23:56 5,3 °C 94 % 1023,0 hPa 0,0 mm 0,0 km/h (0 Bft) S-SO 163 ° 0 min 0,000 mm 0,0 UV-I 0 W/m² 4,4 °C 5,3 °C 0,0 km/h (0 Bft)
04.10.2018 23:57 5,2 °C 94 % 1023,0 hPa 0,0 mm 0,0 km/h (0 Bft) S-SO 163 ° 0 min 0,000 mm 0,0 UV-I 0 W/m² 4,3 °C 5,2 °C 0,0 km/h (0 Bft)
04.10.2018 23:58 5,2 °C 94 % 1023,0 hPa 0,0 mm 0,0 km/h (0 Bft) S-SO 163 ° 0 min 0,000 mm 0,0 UV-I 0 W/m² 4,3 °C 5,2 °C 0,0 km/h (0 Bft)
04.10.2018 23:59 5,1 °C 94 % 1023,0 hPa 0,0 mm 0,0 km/h (0 Bft) S-SO 163 ° 0 min 0,000 mm 0,0 UV-I 0 W/m² 4,2 °C 5,1 °C 0,0 km/h (0 Bft)
_ Min-Zeit 07:55 17:06 23:34 - 23:59 - - - - - - 07:55 07:55 23:59
Minimum _ 4,5 °C 71 % 1022,9 hPa - 0,0 km/h (0 Bft) - - - - - - 3,6 °C 4,5 °C 0,0 km/h (0 Bft)
_ Max-Zeit 15:12 22:23 02:11 23:59 14:19 - - 14:13 15:01 12:38 12:40 15:31 15:12 16:21
Maximum _ 15,8 °C 95 % 1026,5 hPa 0,0 mm 13,7 km/h
NO (3 Bft)
- - 1 min 0,331 mm 4,2 UV-I 726 W/m² 11,2 °C 15,8 °C 22,5 km/h
N-NO (4 Bft)
Durchschnitt _ 9,8 °C 87 % 1024,9 hPa #0,0 mm 2,1 km/h (1 Bft) NO - #2:09 h #1,753 mm 3,0 UV-I 138 W/m² 7,7 °C 9,8 °C 3,7 km/h (1 Bft)